# Wetter Temperatur Luftdruck Luftfeuchtigkeit Sichtweite Windgeschwindigkeit Windrichtung Zeit
1 Clouds 15 1024 71 10000 3.6 120 11:40 08.04.2020
2 Rain 14 1024 76 10000 2.6 100 11:22 08.04.2020
3 Rain 14 1024 82 10000 2.6 110 10:57 08.04.2020
4 Rain 13 1024 82 10000 2.6 110 10:39 08.04.2020
5 Rain 13 1024 87 10000 1.5 130 10:20 08.04.2020
6 Clouds 12 1024 87 10000 1.5 90 09:56 08.04.2020
7 Clouds 12 1024 87 10000 1.5 90 09:38 08.04.2020
8 Clouds 12 1024 87 10000 0.5 0 09:18 08.04.2020
9 Clouds 11 1024 93 10000 1 0 08:42 08.04.2020
10 Clouds 11 1024 87 9000 1.5 140 08:23 08.04.2020
11 Clouds 11 1024 87 9000 1.5 140 08:23 08.04.2020
12 Clouds 11 1024 87 9000 1.5 140 07:57 08.04.2020
13 Clouds 11 1024 93 8000 1.5 120 07:39 08.04.2020
14 Clouds 11 1024 93 6000 1.5 130 07:19 08.04.2020
15 Clouds 11 1024 93 10000 2.1 90 06:21 08.04.2020
16 Clouds 13 1024 87 10000 3.1 140 04:20 08.04.2020
17 Clouds 13 1025 93 9000 1 100 02:49 08.04.2020
18 Clouds 13 1025 93 10000 2.09 127 02:20 08.04.2020
19 Mist 13 1025 100 1500 1.5 110 01:51 08.04.2020
20 Rain 13 1025 100 9000 0.5 60 01:27 08.04.2020
21 Rain 13 1025 100 9000 0.5 80 00:41 08.04.2020
22 Clouds 14 1024 100 10000 1.62 169 00:22 08.04.2020
23 Clouds 14 1024 93 10000 1.5 130 23:40 07.04.2020
24 Clouds 14 1024 93 10000 1.5 130 23:40 07.04.2020
25 Clouds 14 1024 93 10000 1.5 130 23:21 07.04.2020
26 Clouds 14 1024 87 10000 2.1 130 22:58 07.04.2020
27 Clouds 14 1024 87 10000 2.1 130 22:39 07.04.2020
28 Clouds 15 1024 93 10000 2.1 110 22:20 07.04.2020
29 Clouds 15 1023 93 10000 1.5 70 21:57 07.04.2020
30 Clouds 15 1023 93 10000 1.5 70 21:39 07.04.2020
31 Clouds 15 1023 87 10000 1 0 21:20 07.04.2020
32 Rain 16 1023 87 10000 1 0 20:57 07.04.2020
33 Rain 16 1023 87 10000 1 0 20:38 07.04.2020
34 Rain 16 1023 82 10000 2.1 190 20:20 07.04.2020
35 Rain 16 1023 82 10000 2.1 190 20:20 07.04.2020
36 Rain 16 1023 77 10000 1.5 170 19:57 07.04.2020
37 Clouds 16 1023 77 10000 1 160 19:37 07.04.2020
38 Clouds 17 1023 77 10000 1 160 19:18 07.04.2020
39 Clouds 17 1023 68 10000 0.5 200 18:56 07.04.2020
40 Clouds 17 1023 68 10000 0.5 200 18:38 07.04.2020
41 Clouds 16 1023 72 10000 0.5 0 18:19 07.04.2020
42 Clouds 16 1023 77 10000 1.5 230 17:44 07.04.2020
43 Rain 16 1023 82 9000 1.5 210 17:21 07.04.2020
44 Rain 16 1023 82 9000 1.5 210 16:47 07.04.2020
45 Rain 16 1023 82 9000 1.5 210 16:47 07.04.2020
46 Rain 16 1024 93 7000 2.6 180 16:28 07.04.2020
47 Rain 17 1023 72 10000 2.6 140 15:57 07.04.2020
48 Clouds 17 1024 72 10000 1.5 0 15:38 07.04.2020
49 Clouds 17 1024 72 10000 1.5 0 15:20 07.04.2020
50 Clouds 16 1024 72 10000 2.1 100 14:41 07.04.2020
51 Clouds 16 1024 77 10000 2.6 120 14:22 07.04.2020
52 Clouds 16 1024 77 10000 2.6 120 13:57 07.04.2020
53 Clouds 16 1024 77 10000 3.1 100 13:37 07.04.2020
54 Clouds 15 1024 77 10000 2.6 110 13:18 07.04.2020
55 Clouds 15 1024 82 10000 2.6 110 12:55 07.04.2020
56 Clouds 14 1024 82 10000 2.6 110 12:36 07.04.2020
57 Clouds 14 1025 87 10000 2.6 100 12:18 07.04.2020
58 Clouds 14 1024 93 10000 2.6 110 11:42 07.04.2020
59 Clouds 13 1024 93 10000 2.1 110 11:24 07.04.2020
60 Clouds 13 1024 87 10000 2.1 100 10:58 07.04.2020
61 Clouds 13 1024 87 10000 2.1 100 10:37 07.04.2020
62 Clouds 12 1024 93 10000 1 0 10:19 07.04.2020
63 Clouds 12 1024 93 10000 1.5 120 09:45 07.04.2020
64 Clouds 12 1023 93 10000 1.5 100 09:18 07.04.2020
65 Clouds 11 1023 93 10000 1.29 125 08:55 07.04.2020
66 Clouds 11 1023 93 10000 1.29 125 08:36 07.04.2020
67 Clouds 11 1023 100 10000 0.5 130 08:18 07.04.2020
68 Clouds 11 1023 100 10000 1 120 07:40 07.04.2020
69 Mist 11 1023 100 5000 1 130 07:21 07.04.2020
70 Clouds 11 1023 100 10000 1.5 110 06:51 07.04.2020
71 Clouds 12 1022 100 10000 1.5 90 06:23 07.04.2020
72 Clouds 12 1023 100 10000 1.5 130 05:40 07.04.2020
73 Clouds 12 1023 93 10000 1.41 148 04:56 07.04.2020
74 Rain 12 1023 93 10000 1.5 250 03:31 07.04.2020
75 Rain 12 1023 93 9000 2.1 230 02:59 07.04.2020
76 Rain 13 1023 93 10000 3.1 210 01:50 07.04.2020
77 Rain 13 1023 87 10000 2.1 190 01:26 07.04.2020
78 Rain 14 1023 87 9000 1.5 220 00:29 07.04.2020
79 Rain 14 1023 72 10000 1 0 23:56 06.04.2020
80 Rain 15 1023 72 10000 1 0 23:36 06.04.2020
81 Clouds 14 1023 67 10000 0.5 250 23:18 06.04.2020
82 Rain 15 1022 67 10000 0.5 250 22:40 06.04.2020
83 Rain 15 1022 67 10000 0.5 250 22:40 06.04.2020
84 Rain 15 1022 63 10000 1 0 22:21 06.04.2020
85 Rain 15 1022 63 10000 1 0 21:57 06.04.2020
86 Rain 16 1021 67 10000 1.5 270 21:39 06.04.2020
87 Rain 16 1021 63 10000 2.1 260 21:19 06.04.2020
88 Rain 16 1021 63 10000 2.1 270 20:55 06.04.2020
89 Rain 16 1021 63 10000 2.1 270 20:37 06.04.2020
90 Rain 16 1021 59 10000 2.6 270 20:18 06.04.2020
91 Rain 17 1021 59 10000 3.1 250 19:41 06.04.2020
92 Rain 17 1021 63 10000 3.6 260 19:23 06.04.2020
93 Rain 17 1021 59 10000 3.6 240 18:59 06.04.2020
94 Rain 17 1021 59 10000 3.6 240 18:39 06.04.2020
95 Rain 18 1021 63 10000 4.1 250 18:21 06.04.2020
96 Rain 17 1021 59 10000 4.6 240 17:42 06.04.2020
97 Rain 17 1021 59 10000 4.1 220 17:20 06.04.2020
98 Clouds 17 1021 59 10000 3.6 240 16:50 06.04.2020
99 Clouds 17 1022 63 10000 5.1 250 16:32 06.04.2020
100 Clouds 17 1022 63 10000 5.1 250 16:32 06.04.2020
101 -273 0 0 0 0 0 16:00 06.04.2020
102 Clouds 17 1022 63 10000 5.1 250 16:00 06.04.2020
103 Clouds 16 1021 72 10000 4.1 190 14:44 06.04.2020
104 Clouds 16 1021 72 10000 4.1 190 14:44 06.04.2020
105 Clouds 16 1021 72 10000 4.1 190 14:44 06.04.2020
106 Clouds 16 1021 72 10000 4.1 190 14:44 06.04.2020
107 Clouds 16 1021 72 10000 4.1 190 14:38 06.04.2020
108 Clouds 15 1021 72 10000 4.1 240 13:43 06.04.2020
109 Clouds 15 1021 72 10000 4.1 240 13:43 06.04.2020
110 Clouds 15 1021 77 10000 3.1 220 13:20 06.04.2020
111 Clouds 14 1021 72 10000 4.6 220 12:26 06.04.2020
112 Clouds 14 1021 72 10000 4.6 220 12:26 06.04.2020
113 Clouds 14 1021 72 10000 4.6 220 12:26 06.04.2020
114 Clouds 14 1021 72 10000 4.6 220 12:26 06.04.2020
115 Clouds 14 1021 77 10000 4.6 220 11:56 06.04.2020
116 Clouds 14 1021 82 10000 3.6 220 11:34 06.04.2020
117 Clouds 14 1021 82 10000 3.6 220 11:34 06.04.2020
118 Clouds 13 1020 87 10000 2.6 200 10:52 06.04.2020
119 Clouds 13 1020 87 10000 2.6 200 10:52 06.04.2020
120 Clouds 13 1020 93 10000 2.6 190 10:52 06.04.2020
121 Clouds 13 1020 87 10000 2.6 200 10:52 06.04.2020
122 Clouds 13 1020 93 10000 2.6 190 10:52 06.04.2020
123 Clouds 12 1020 93 10000 2.6 190 10:22 06.04.2020
124 Clouds 12 1020 93 10000 2.6 190 10:22 06.04.2020
125 Rain 12 1020 93 10000 2.6 160 09:51 06.04.2020
126 Rain 12 1020 93 10000 2.6 160 09:51 06.04.2020
127 Drizzle 12 1019 93 7000 2.6 140 09:23 06.04.2020
128 Drizzle 12 1019 93 7000 2.6 140 08:55 06.04.2020
129 Drizzle 12 1019 93 7000 2.1 140 08:33 06.04.2020
130 Drizzle 12 1018 100 7000 2.6 150 07:54 06.04.2020
131 Rain 12 1018 93 5000 1.5 180 06:57 06.04.2020
132 Rain 12 1018 93 3700 1.5 180 06:25 06.04.2020
133 Clouds 13 1018 82 10000 1 0 04:49 06.04.2020
134 Clouds 13 1018 82 10000 1 0 04:49 06.04.2020
135 Clouds 13 1018 82 10000 3.71 193 03:27 06.04.2020
136 Clouds 14 1018 82 10000 1 0 02:48 06.04.2020
137 Rain 14 1017 63 10000 3.1 210 01:49 06.04.2020
138 Rain 15 1017 63 10000 2.6 220 00:46 06.04.2020
139 Rain 15 1017 63 10000 2.6 220 00:25 06.04.2020
140 Rain 15 1017 63 10000 2.6 200 23:47 05.04.2020
141 Rain 15 1017 59 10000 2.6 200 23:29 05.04.2020
142 Rain 15 1017 59 10000 2.6 200 23:29 05.04.2020
143 Rain 15 1017 59 10000 2.6 200 23:29 05.04.2020
144 Rain 15 1017 59 10000 2.6 200 23:29 05.04.2020
145 Rain 15 1017 63 10000 2.1 200 22:56 05.04.2020
146 Rain 16 1016 55 10000 1 0 22:38 05.04.2020
147 Rain 16 1016 55 10000 1.5 200 22:18 05.04.2020
148 Rain 16 1016 55 10000 1.5 200 21:55 05.04.2020
149 Rain 16 1016 55 10000 1.5 200 21:55 05.04.2020
150 Rain 16 1016 59 10000 1.5 210 21:37 05.04.2020
151 Clouds 17 1016 59 10000 1.5 210 21:18 05.04.2020
152 Clouds 18 1016 52 10000 2.6 210 20:20 05.04.2020
153 Clouds 18 1016 52 10000 2.6 210 20:20 05.04.2020
154 Clouds 18 1015 52 10000 2.1 180 20:20 05.04.2020
155 Clouds 18 1016 52 10000 2.6 210 20:20 05.04.2020
156 Clouds 19 1016 48 10000 2.6 170 19:40 05.04.2020
157 Clouds 19 1016 48 10000 2.6 170 19:22 05.04.2020
158 Clouds 19 1016 52 10000 3.6 170 18:44 05.04.2020
159 Clouds 18 1016 55 10000 2.6 150 17:58 05.04.2020
160 Clouds 19 1016 55 10000 2.6 150 17:39 05.04.2020
161 Clouds 19 1016 55 10000 2.6 150 17:39 05.04.2020
162 Clouds 18 1016 55 10000 2.6 150 17:39 05.04.2020
163 Clouds 19 1016 55 10000 2.6 150 17:39 05.04.2020
164 Clouds 18 1016 55 10000 2.6 150 17:39 05.04.2020
165 Clouds 18 1017 55 10000 3.6 170 17:20 05.04.2020
166 Clouds 18 1017 55 10000 3.6 170 17:20 05.04.2020
167 Clouds 18 1017 52 10000 3.1 180 16:21 05.04.2020
168 Clouds 18 1017 52 10000 3.1 180 15:55 05.04.2020
169 Clouds 18 1017 45 10000 2.6 170 15:37 05.04.2020
170 Clouds 17 1017 52 10000 2.6 0 15:19 05.04.2020
171 Clouds 17 1018 55 10000 3.1 130 14:47 05.04.2020
172 Clouds 17 1017 52 10000 2.6 0 14:47 05.04.2020
173 Clouds 17 1017 52 10000 2.6 0 14:47 05.04.2020
174 Clouds 17 1018 55 10000 3.1 130 14:47 05.04.2020
175 Clouds 17 1018 55 10000 3.1 130 14:47 05.04.2020
176 Clouds 16 1018 62 10000 2.6 110 13:44 05.04.2020
177 Clouds 15 1019 62 10000 2.1 100 12:54 05.04.2020
178 Clouds 15 1019 62 10000 2.1 100 12:54 05.04.2020
179 Clouds 15 1019 66 10000 2.6 100 12:54 05.04.2020
180 Clouds 15 1019 66 10000 2.6 100 12:54 05.04.2020
181 Clouds 15 1019 62 10000 2.1 100 12:54 05.04.2020
182 Clouds 13 1019 76 10000 2.1 90 11:44 05.04.2020
183 Clouds 12 1019 76 10000 2.6 110 11:21 05.04.2020
184 Clouds 12 1019 76 10000 2.6 110 10:59 05.04.2020
185 Clouds 12 1019 76 10000 2.6 110 10:41 05.04.2020
186 Clouds 12 1019 76 10000 2.6 110 10:19 05.04.2020
187 Clouds 11 1018 76 10000 1.5 90 09:44 05.04.2020
188 Clouds 10 1018 87 10000 2.1 90 09:24 05.04.2020
189 Clouds 11 1018 76 10000 1.5 90 09:24 05.04.2020
190 Clouds 11 1018 76 10000 1.5 90 09:24 05.04.2020
191 Clouds 11 1018 76 10000 1.5 90 09:24 05.04.2020
192 Clouds 10 1018 87 10000 2.1 90 09:24 05.04.2020
193 Clouds 10 1017 81 10000 3.1 100 07:44 05.04.2020
194 Clouds 10 1017 81 10000 3.1 100 07:44 05.04.2020
195 Clouds 11 1016 76 10000 4.6 120 04:40 05.04.2020
196 Clouds 11 1017 76 10000 5.1 120 03:34 05.04.2020
197 Clouds 11 1017 71 10000 4.6 120 02:52 05.04.2020
198 Clouds 12 1017 71 10000 3.1 130 01:48 05.04.2020
199 Clouds 12 1017 71 10000 3.1 130 01:30 05.04.2020
200 Clouds 12 1016 62 10000 4.6 120 00:46 05.04.2020
201 Clouds 12 1016 62 10000 5.1 110 00:22 05.04.2020
202 Clouds 13 1016 62 10000 5.1 110 23:56 04.04.2020
203 Clouds 13 1016 62 10000 5.1 110 23:37 04.04.2020
204 Clouds 13 1016 62 10000 5.7 110 23:19 04.04.2020
205 Clouds 14 1016 58 10000 4.6 110 22:41 04.04.2020
206 Clouds 13 1016 58 10000 4.6 110 22:22 04.04.2020
207 Clouds 14 1015 58 10000 4.1 110 21:59 04.04.2020
208 Clouds 14 1015 58 10000 4.6 110 21:40 04.04.2020
209 Clouds 14 1015 58 10000 4.6 110 21:20 04.04.2020
210 Clouds 15 1015 51 10000 5.1 110 20:59 04.04.2020
211 Clouds 15 1015 51 10000 5.1 120 20:41 04.04.2020
212 Clouds 16 1015 51 10000 5.1 120 20:22 04.04.2020
213 Clouds 16 1015 48 10000 6.2 120 19:57 04.04.2020
214 Clouds 16 1015 48 10000 5.7 110 19:37 04.04.2020
215 Clouds 17 1014 45 10000 5.7 120 19:19 04.04.2020
216 Clouds 17 1014 45 10000 5.1 130 18:57 04.04.2020
217 Clouds 17 1014 45 10000 5.7 120 18:57 04.04.2020
218 Clouds 17 1014 45 10000 5.1 130 18:38 04.04.2020
219 Clouds 17 1014 45 10000 5.1 130 18:38 04.04.2020
220 Clouds 17 1014 42 10000 5.7 120 18:19 04.04.2020
221 Clouds 17 1014 42 10000 5.7 120 17:56 04.04.2020
222 Clouds 17 1014 42 10000 5.7 130 17:38 04.04.2020
223 Clouds 18 1015 42 10000 6.2 140 17:18 04.04.2020
224 Clear 18 1015 42 10000 7.7 130 16:42 04.04.2020
225 Clouds 18 1015 42 10000 7.7 130 16:23 04.04.2020
226 Clear 18 1015 45 10000 7.2 120 15:57 04.04.2020
227 Clouds 18 1015 42 10000 6.2 90 15:38 04.04.2020
228 Clouds 17 1016 45 10000 6.2 110 15:19 04.04.2020
229 Clouds 17 1016 48 10000 7.2 110 14:44 04.04.2020
230 Clouds 17 1016 48 10000 7.2 110 14:23 04.04.2020
231 Clouds 16 1016 48 10000 6.7 110 13:57 04.04.2020
232 Clouds 16 1017 55 10000 3.1 90 13:38 04.04.2020
233 Clouds 15 1017 58 10000 3.1 90 13:20 04.04.2020
234 Clouds 15 1017 58 10000 3.1 90 12:55 04.04.2020
235 Clear 14 1017 66 10000 3.1 80 12:36 04.04.2020
236 Clear 13 1017 66 10000 3.6 100 12:18 04.04.2020
237 Clear 12 1017 62 10000 2.6 70 11:40 04.04.2020
238 Clear 12 1017 62 10000 2.6 70 11:21 04.04.2020
239 Clear 11 1017 62 10000 2.1 60 10:58 04.04.2020
240 Clear 10 1017 57 10000 1.5 30 10:40 04.04.2020
241 Clear 9 1017 61 10000 2.1 30 10:21 04.04.2020
242 Clear 9 1017 61 10000 2.1 30 09:55 04.04.2020
243 Clear 8 1017 66 10000 1 0 09:37 04.04.2020
244 Clear 7 1016 70 10000 1 0 09:19 04.04.2020
245 Clear 6 1016 75 10000 1 0 08:42 04.04.2020
246 Clear 6 1016 75 10000 1 0 08:23 04.04.2020
247 Clear 6 1016 75 10000 1.5 50 07:47 04.04.2020
248 Clear 6 1016 75 10000 1.5 50 07:29 04.04.2020
249 Clear 6 1016 81 10000 0.5 10 06:58 04.04.2020
250 Clear 6 1016 75 10000 1.5 20 06:22 04.04.2020
251 Clear 7 1016 70 10000 1 0 05:51 04.04.2020
252 Clear 6 1016 70 10000 1 0 05:32 04.04.2020
253 Clear 7 1016 75 10000 1 0 04:34 04.04.2020
254 Clear 7 1016 70 10000 2.16 91 03:55 04.04.2020
255 Clear 8 1016 75 10000 0.77 101 03:27 04.04.2020
256 Clear 9 1016 61 10000 0.77 101 02:42 04.04.2020
257 Clear 9 1016 61 10000 0.77 101 02:24 04.04.2020
258 Clear 9 1016 57 10000 1 0 01:27 04.04.2020
259 Clear 9 1016 66 10000 0.5 10 00:57 04.04.2020
260 Clear 9 1016 61 10000 0.5 0 00:30 04.04.2020
261 Clear 10 1016 57 10000 1.25 206 23:56 03.04.2020
262 Clear 11 1016 50 10000 1.25 206 23:37 03.04.2020
263 Clear 11 1016 53 10000 0.5 0 23:18 03.04.2020
264 Clear 11 1016 57 10000 0.5 0 22:40 03.04.2020
265 Clear 12 1015 43 10000 1.5 180 22:19 03.04.2020
266 Clear 12 1015 43 10000 1.5 180 21:56 03.04.2020
267 Clear 12 1015 43 10000 1.5 180 21:56 03.04.2020
268 Clear 13 1015 35 10000 1.5 160 21:37 03.04.2020
269 Clear 14 1015 35 10000 1.5 160 21:19 03.04.2020
270 Clear 15 1015 38 10000 2.6 150 20:55 03.04.2020
271 Clear 15 1015 29 10000 2.6 150 20:36 03.04.2020
272 Clear 16 1015 29 10000 2.6 160 20:18 03.04.2020
273 Clear 16 1015 29 10000 2.6 160 19:54 03.04.2020
274 Clear 16 1015 29 10000 2.1 150 19:36 03.04.2020
275 Clear 16 1015 29 10000 2.1 150 19:18 03.04.2020
276 Clear 16 1015 29 10000 2.1 110 18:56 03.04.2020
277 Clear 16 1015 29 10000 2.1 110 18:38 03.04.2020
278 Clear 17 1015 33 10000 2.1 130 18:19 03.04.2020
279 Clear 17 1015 33 10000 1.5 0 17:40 03.04.2020
280 Clear 17 1015 36 10000 2.1 0 17:19 03.04.2020
281 Clear 16 1015 36 10000 2.1 0 16:55 03.04.2020
282 Clear 16 1015 36 10000 2.1 0 16:55 03.04.2020
283 Clear 16 1015 36 10000 2.1 0 16:55 03.04.2020
284 Clear 16 1016 24 10000 1.5 0 16:36 03.04.2020
285 Clear 16 1016 38 10000 1 280 16:18 03.04.2020
286 Clear 16 1016 24 10000 1 0 15:41 03.04.2020
287 Clear 15 1016 29 10000 1 0 15:22 03.04.2020
288 Clear 15 1013 39 0 1.79 278 14:58 03.04.2020
289 Clear 14 1013 41 0 1.79 207 14:40 03.04.2020
290 Clear 14 1017 50 10000 1.5 0 14:21 03.04.2020
291 Clear 14 1017 50 10000 1.5 0 13:46 03.04.2020
292 Clear 13 1017 50 10000 1.5 0 13:27 03.04.2020
293 Clear 12 1018 50 10000 1.5 100 12:57 03.04.2020
294 Clear 12 1018 58 10000 2.1 140 12:39 03.04.2020
295 Clear 11 1018 62 10000 1.5 90 12:18 03.04.2020
296 Clear 11 1018 62 10000 1.5 90 11:55 03.04.2020
297 Clear 10 1017 57 10000 2.1 50 11:37 03.04.2020
298 Clear 9 1017 61 10000 2.1 100 11:18 03.04.2020
299 Clear 9 1017 61 10000 2.1 100 10:56 03.04.2020
300 Clear 8 1017 70 10000 1.5 60 10:37 03.04.2020
301 Clear 7 1017 70 10000 1.5 60 10:19 03.04.2020
302 Clear 7 1017 70 10000 1.5 60 09:55 03.04.2020
303 Clear 6 1017 70 10000 0.5 0 09:37 03.04.2020
304 Clear 5 1016 81 10000 1.04 43 09:19 03.04.2020
305 Clear 4 1016 86 10000 1.04 43 08:44 03.04.2020
306 Clear 4 1016 86 10000 1.04 43 08:24 03.04.2020
307 Clear 4 1016 87 10000 1 0 07:57 03.04.2020
308 Clear 4 1016 93 10000 0.5 0 07:39 03.04.2020
309 Clear 4 1016 93 10000 0.5 0 07:20 03.04.2020
310 Clear 5 1015 87 10000 1.04 43 06:28 03.04.2020
311 Clouds 6 1015 75 10000 0.5 0 05:43 03.04.2020
312 Clouds 7 1015 70 10000 1 0 04:27 03.04.2020
313 Clouds 8 1015 66 10000 1 0 03:33 03.04.2020
314 Clouds 8 1015 71 10000 1.5 60 02:39 03.04.2020
315 Clouds 9 1015 66 10000 1 0 01:25 03.04.2020
316 Clouds 10 1015 71 10000 1.5 340 00:47 03.04.2020
317 Clouds 10 1015 71 10000 1.5 340 00:29 03.04.2020
318 Clouds 10 1015 71 10000 1.5 340 23:55 02.04.2020
319 Clouds 11 1015 71 10000 1 0 23:37 02.04.2020
320 Clouds 11 1015 62 10000 2.1 20 23:18 02.04.2020
321 Clouds 11 1014 66 10000 1.5 10 22:41 02.04.2020
322 Clouds 11 1014 66 10000 1.5 10 22:22 02.04.2020
323 Clouds 11 1014 66 10000 2.1 350 21:59 02.04.2020
324 Clouds 12 1013 58 9000 1.5 360 21:37 02.04.2020
325 Clouds 12 1013 58 9000 1.5 360 21:18 02.04.2020
326 Rain 12 1013 62 10000 3.1 20 20:45 02.04.2020
327 Rain 12 1013 62 10000 3.1 20 20:25 02.04.2020
328 Rain 12 1012 50 10000 3.1 360 19:59 02.04.2020
329 Clouds 13 1012 50 10000 2.6 30 19:40 02.04.2020
330 Rain 13 1012 50 10000 4.6 360 19:20 02.04.2020
331 Rain 13 1012 50 10000 4.6 360 18:56 02.04.2020
332 Clouds 14 1011 50 10000 4.6 10 18:37 02.04.2020
333 Rain 14 1011 51 10000 3.1 10 18:18 02.04.2020
334 Clouds 14 1012 50 10000 3.6 10 17:43 02.04.2020
335 Clouds 14 1012 50 10000 3.6 10 17:24 02.04.2020
336 Clouds 14 1012 58 10000 3.6 330 16:58 02.04.2020
337 Clouds 14 1012 48 10000 3.6 40 16:40 02.04.2020
338 Clouds 15 1012 48 10000 3.6 40 16:22 02.04.2020
339 Drizzle 14 1012 58 10000 4.6 350 15:57 02.04.2020
340 Drizzle 13 1012 58 10000 4.6 350 15:39 02.04.2020
341 Drizzle 14 1012 58 10000 4.6 350 15:19 02.04.2020
342 Clouds 14 1012 51 10000 2.6 0 14:57 02.04.2020
343 Clouds 14 1012 54 10000 3.1 50 14:38 02.04.2020
344 Clouds 14 1012 51 10000 2.6 0 14:18 02.04.2020
345 Clouds 13 1012 51 10000 2.6 0 13:54 02.04.2020
346 Clouds 13 1012 51 10000 2.6 0 13:54 02.04.2020
347 Clouds 13 1012 50 10000 2.1 0 13:36 02.04.2020
348 Clear 12 1012 58 10000 2.1 40 13:18 02.04.2020
349 Clear 12 1012 62 10000 2.6 40 12:44 02.04.2020
350 Clear 11 1012 62 10000 2.1 40 12:19 02.04.2020
351 Clear 11 1012 62 10000 2.1 40 11:58 02.04.2020
352 Clear 11 1012 62 10000 2.1 40 11:57 02.04.2020
353 Clear 10 1012 66 10000 1.5 40 11:39 02.04.2020
354 Clear 9 1012 70 10000 2.6 50 11:20 02.04.2020
355 Clear 9 1012 70 10000 2.6 50 11:20 02.04.2020
356 Clear 9 1012 70 10000 2.6 50 10:56 02.04.2020
357 Clear 8 1011 70 10000 1.5 0 10:38 02.04.2020
358 Clear 8 1011 70 10000 1.5 0 10:38 02.04.2020
359 Clear 7 1011 75 10000 1.5 360 10:20 02.04.2020
360 Clear 6 1011 75 10000 1.5 360 09:58 02.04.2020
361 Clear 7 1011 75 10000 1.5 360 09:58 02.04.2020
362 Clear 6 1011 75 10000 1 0 09:40 02.04.2020
363 Clear 5 1011 75 10000 1 0 09:20 02.04.2020
364 Clear 4 1011 93 10000 1.5 360 08:47 02.04.2020
365 Clear 4 1011 93 10000 1.5 360 08:28 02.04.2020
366 Clear 3 1011 93 10000 2.1 360 07:54 02.04.2020
367 Clear 4 1010 93 10000 0.5 0 07:36 02.04.2020
368 Clear 3 1010 93 10000 1.34 44 07:18 02.04.2020
369 Clear 4 1010 93 10000 0.08 192 06:23 02.04.2020
370 Clear 4 1010 86 10000 1 0 05:46 02.04.2020
371 Clear 4 1010 86 10000 1 0 05:46 02.04.2020
372 Clear 4 1010 86 10000 0.5 0 04:50 02.04.2020
373 Clouds 6 1012 81 10000 1 180 02:19 02.04.2020
374 Clouds 7 1012 81 10000 1.3 230 00:59 02.04.2020
375 Clouds 7 1012 70 10000 0.5 0 00:38 02.04.2020
376 Clouds 8 1012 75 10000 1 290 00:19 02.04.2020
377 Clouds 8 1012 70 10000 1.5 260 23:39 01.04.2020
378 Clouds 8 1012 61 10000 2.1 240 23:19 01.04.2020
379 Clouds 9 1012 61 10000 2.1 240 22:56 01.04.2020
380 Clouds 9 1011 61 10000 1.5 240 22:38 01.04.2020
381 Clouds 9 1011 66 10000 1.5 240 22:19 01.04.2020
382 Clouds 10 1011 61 10000 2.6 240 21:41 01.04.2020
383 Rain 11 1010 62 10000 2.1 240 21:19 01.04.2020
384 Rain 11 1010 62 10000 2.1 240 20:56 01.04.2020
385 Rain 12 1010 54 10000 4.1 240 20:38 01.04.2020
386 Rain 12 1010 54 10000 4.1 240 20:19 01.04.2020
387 Rain 12 1010 54 10000 4.1 240 19:57 01.04.2020
388 Rain 13 1010 54 10000 4.6 0 19:38 01.04.2020
389 Rain 13 1010 54 10000 4.1 240 19:19 01.04.2020
390 Clouds 13 1010 54 10000 5.7 240 18:42 01.04.2020
391 Clouds 13 1010 62 10000 5.7 240 18:23 01.04.2020
392 Clouds 13 1010 62 10000 5.7 240 17:57 01.04.2020
393 Clouds 13 1010 58 10000 5.7 230 17:38 01.04.2020
394 Clouds 13 1011 62 10000 4.1 240 17:19 01.04.2020
395 Clouds 13 1011 62 10000 4.1 240 16:58 01.04.2020
396 Clouds 13 1011 58 10000 4.6 240 16:39 01.04.2020
397 Clouds 13 1011 58 10000 4.6 240 16:39 01.04.2020
398 Clouds 12 1011 66 10000 3.1 270 16:20 01.04.2020
399 Clouds 12 1011 66 10000 3.1 270 15:56 01.04.2020
400 Clouds 12 1011 66 10000 4.1 250 15:37 01.04.2020
401 Clouds 12 1011 66 10000 4.1 250 15:18 01.04.2020
402 Clouds 11 1011 71 10000 4.1 240 14:40 01.04.2020
403 Rain 11 1012 71 10000 4.1 220 14:22 01.04.2020
404 Rain 11 1012 71 10000 4.1 220 13:59 01.04.2020
405 Rain 11 1012 76 10000 2.6 210 13:40 01.04.2020
406 Clouds 10 1012 81 10000 4.1 230 13:20 01.04.2020
407 Rain 10 1012 81 10000 4.1 230 12:59 01.04.2020
408 Clouds 10 1012 87 10000 3.6 230 12:40 01.04.2020
409 Rain 9 1012 87 10000 3.6 230 12:22 01.04.2020
410 Rain 9 1012 100 5000 3.6 210 11:57 01.04.2020
411 Rain 9 1012 87 9000 2.1 160 11:37 01.04.2020
412 Rain 9 1012 87 9000 2.1 160 11:37 01.04.2020
413 Rain 9 1011 93 7000 2.1 120 11:19 01.04.2020
414 Rain 9 1011 100 9000 2.1 130 10:39 01.04.2020
415 Rain 9 1011 93 9000 2.6 130 10:21 01.04.2020
416 Rain 8 1011 93 9000 2.6 130 09:59 01.04.2020
417 Clouds 8 1011 93 10000 1.5 70 09:40 01.04.2020
418 Clouds 8 1011 93 10000 1.5 70 09:40 01.04.2020
419 Clouds 7 1011 93 10000 1.5 70 09:20 01.04.2020
420 Clouds 7 1010 100 10000 0.5 0 08:54 01.04.2020
421 Clouds 7 1010 100 10000 0.5 0 08:36 01.04.2020
422 Clouds 8 1010 100 10000 1 80 08:18 01.04.2020
423 Clouds 8 1010 100 10000 1 0 07:40 01.04.2020
424 Clouds 8 1010 100 10000 1 0 07:19 01.04.2020
425 Clouds 8 1010 93 10000 1 0 06:42 01.04.2020
426 Clouds 8 1010 93 10000 1 0 06:20 01.04.2020
427 Clouds 8 1010 93 10000 1.5 100 05:28 01.04.2020
428 Clouds 8 1010 93 10000 1 0 03:40 01.04.2020
429 Rain 8 1010 100 10000 1 0 03:19 01.04.2020
430 Rain 8 1009 93 10000 2.1 80 02:36 01.04.2020
431 Clouds 8 1010 93 10000 2.1 90 01:50 01.04.2020
432 Clouds 8 1010 93 10000 2.1 90 01:25 01.04.2020
433 Clouds 8 1009 93 10000 2.1 80 00:47 01.04.2020
434 Clouds 8 1009 93 10000 2.1 80 00:22 01.04.2020
435 Clouds 8 1009 93 10000 1 0 23:57 31.03.2020
436 Clouds 8 1009 93 10000 1.5 120 23:38 31.03.2020
437 Clouds 8 1009 93 10000 1.5 120 23:19 31.03.2020
438 Clouds 9 1008 93 10000 3.6 180 22:41 31.03.2020
439 Rain 9 1008 93 7000 4.1 130 22:21 31.03.2020
440 Rain 9 1008 93 7000 4.1 130 21:58 31.03.2020
441 Rain 9 1007 100 7000 2.6 70 21:40 31.03.2020
442 Rain 9 1007 93 10000 2.6 70 21:21 31.03.2020
443 Rain 9 1007 93 10000 2.6 70 20:57 31.03.2020
444 Rain 9 1007 93 10000 2.6 70 20:57 31.03.2020
445 Rain 9 1007 93 10000 2.6 70 20:57 31.03.2020
446 Rain 9 1007 93 10000 2.6 70 20:37 31.03.2020
447 Rain 10 1007 93 9000 1.5 360 20:19 31.03.2020
448 Rain 9 1007 93 9000 1.5 360 19:56 31.03.2020
449 Rain 9 1007 100 9000 1.5 340 19:37 31.03.2020
450 Rain 10 1006 93 10000 2.6 350 19:19 31.03.2020
451 Rain 9 1006 100 8000 2.1 350 18:43 31.03.2020
452 Rain 10 1006 100 4300 2.1 20 18:20 31.03.2020
453 Rain 9 1006 100 4300 2.1 20 17:57 31.03.2020
454 Rain 9 1006 100 6000 2.6 360 17:39 31.03.2020
455 Rain 9 1006 93 9000 2.6 10 17:21 31.03.2020
456 Rain 9 1006 93 9000 2.6 10 16:56 31.03.2020
457 Rain 9 1006 93 10000 3.1 10 16:36 31.03.2020
458 Rain 8 1006 93 10000 3.1 10 16:18 31.03.2020
459 Rain 8 1006 100 10000 3.1 360 15:54 31.03.2020
460 Rain 7 1006 93 9000 3.6 10 15:36 31.03.2020
461 Rain 6 1006 100 9000 3.1 10 15:18 31.03.2020
462 Rain 6 1006 100 8000 2.1 20 14:41 31.03.2020
463 Rain 5 1006 100 8000 2.1 20 14:22 31.03.2020
464 Rain 5 1006 100 8000 3.1 30 13:58 31.03.2020
465 Rain 5 1006 100 8000 3.1 40 13:40 31.03.2020
466 Rain 4 1006 100 8000 2.6 30 13:19 31.03.2020
467 Rain 4 1006 100 6000 2.6 30 12:45 31.03.2020
468 -273 0 0 0 0 0 12:20 31.03.2020
469 Rain 3 1007 100 7000 2.1 20 11:56 31.03.2020
470 Rain 3 1007 93 7000 2.6 30 11:37 31.03.2020
471 Rain 3 1007 100 8000 2.6 30 11:19 31.03.2020
472 Rain 3 1007 100 8000 2.6 30 10:55 31.03.2020
473 Rain 3 1007 100 8000 2.6 30 10:55 31.03.2020
474 Rain 2 1006 93 8000 3.1 20 10:37 31.03.2020
475 Rain 2 1006 100 8000 2.6 20 10:18 31.03.2020
476 Rain 2 1007 100 8000 2.1 20 09:44 31.03.2020
477 Rain 2 1007 100 8000 2.1 20 09:25 31.03.2020
478 Drizzle 1 1006 93 8000 2.6 20 08:59 31.03.2020
479 Rain 1 1006 93 6000 2.6 30 08:40 31.03.2020
480 Rain 1 1006 93 6000 2.6 30 08:20 31.03.2020
481 Rain 1 1006 93 7000 3.6 30 07:57 31.03.2020
482 Rain 1 1006 93 7000 2.6 30 07:38 31.03.2020
483 Rain 1 1006 93 5000 3.6 30 07:20 31.03.2020
484 Rain 1 1006 93 5000 3.6 30 06:53 31.03.2020
485 Rain 1 1007 93 6000 4.1 30 06:35 31.03.2020
486 Rain 1 1007 93 3500 4.6 30 05:41 31.03.2020
487 Rain 1 1007 93 3500 4.6 30 05:20 31.03.2020
488 Rain 1 1009 93 4800 4.1 30 02:40 31.03.2020
489 Rain 1 1010 93 6000 3.6 10 01:47 31.03.2020
490 Rain 1 1011 93 5000 3.6 10 01:19 31.03.2020
491 Rain 1 1011 93 9000 4.1 20 00:42 31.03.2020
492 Rain 1 1011 93 9000 4.1 20 00:19 31.03.2020
493 Rain 2 1011 86 10000 5.1 0 23:39 30.03.2020
494 Rain 2 1011 86 10000 5.1 0 23:20 30.03.2020
495 Rain 2 1011 86 10000 4.6 50 22:57 30.03.2020
496 Clouds 2 1011 80 10000 4.1 50 22:38 30.03.2020
497 Clouds 3 1011 80 10000 3.6 0 22:18 30.03.2020
498 Clouds 3 1011 80 10000 3.6 0 21:57 30.03.2020
499 Clouds 3 1011 80 10000 4.1 40 21:37 30.03.2020
500 Clouds 2 1011 80 10000 4.6 50 21:19 30.03.2020
501 Clouds 3 1011 80 10000 4.6 50 20:56 30.03.2020
502 Clouds 3 1011 80 10000 3.6 40 20:37 30.03.2020
503 Clouds 3 1011 80 10000 3.1 40 20:19 30.03.2020
504 Clouds 4 1012 75 10000 3.1 40 19:41 30.03.2020
505 Clouds 4 1012 75 10000 3.1 40 19:41 30.03.2020
506 Clouds 4 1012 75 10000 4.1 0 19:22 30.03.2020
507 Clouds 4 1012 75 10000 4.1 0 18:57 30.03.2020
508 Clouds 4 1012 75 10000 4.1 40 18:39 30.03.2020
509 Clouds 4 1012 75 10000 4.1 40 18:21 30.03.2020
510 Rain 4 1012 80 10000 4.1 50 17:57 30.03.2020
511 Clouds 4 1012 86 10000 4.1 50 17:38 30.03.2020
512 Clouds 4 1013 86 10000 3.1 50 17:19 30.03.2020
513 Clouds 4 1013 86 10000 3.1 50 16:56 30.03.2020
514 Clouds 4 1013 86 10000 3.1 50 16:56 30.03.2020
515 Clouds 4 1013 86 10000 3.1 60 16:38 30.03.2020
516 Clouds 4 1013 86 10000 3.6 40 16:19 30.03.2020
517 Clouds 4 1013 86 10000 3.6 40 15:55 30.03.2020
518 Rain 4 1013 86 10000 3.6 40 15:36 30.03.2020
519 Rain 4 1014 75 10000 4.1 40 15:18 30.03.2020
520 Rain 4 1014 75 10000 4.1 40 14:54 30.03.2020
521 Rain 5 1013 47 10000 4.1 0 14:36 30.03.2020
522 Clouds 6 1013 47 10000 3.6 50 14:18 30.03.2020
523 Clouds 6 1013 52 10000 4.1 0 13:43 30.03.2020
524 Clouds 6 1013 52 10000 4.1 0 13:21 30.03.2020
525 Clouds 7 1014 47 10000 4.1 40 12:57 30.03.2020
526 Clouds 7 1014 52 10000 3.6 60 12:38 30.03.2020
527 Clouds 7 1014 52 10000 3.6 60 12:38 30.03.2020
528 Clouds 7 1014 52 10000 3.6 60 12:19 30.03.2020
529 Clouds 6 1014 62 10000 4.1 40 11:56 30.03.2020
530 Clouds 6 1014 62 10000 4.1 40 11:38 30.03.2020
531 Clouds 6 1014 62 10000 4.1 40 11:20 30.03.2020
532 Clouds 6 1014 65 10000 4.1 30 10:40 30.03.2020
533 Clouds 6 1014 65 10000 4.1 30 10:21 30.03.2020
534 Clouds 6 1014 65 10000 3.6 20 09:56 30.03.2020
535 Clouds 6 1014 65 10000 4.1 20 09:56 30.03.2020
536 Clouds 6 1014 65 10000 3.6 20 09:38 30.03.2020
537 Clouds 6 1014 65 10000 2.6 30 09:18 30.03.2020
538 Clouds 6 1013 65 10000 2.6 40 08:41 30.03.2020
539 Clouds 6 1013 65 10000 2.6 40 08:22 30.03.2020
540 Clouds 7 1013 65 10000 2.6 40 07:49 30.03.2020
541 Clouds 7 1013 65 10000 3.6 40 07:28 30.03.2020
542 Rain 7 1013 61 10000 2.6 40 06:56 30.03.2020
543 Rain 8 1013 61 10000 2.6 40 06:32 30.03.2020
544 Clouds 8 1013 57 10000 2.6 40 05:53 30.03.2020
545 Clouds 8 1013 57 10000 2.6 50 05:22 30.03.2020
546 Clouds 9 1014 61 10000 2.6 0 04:23 30.03.2020
547 Clouds 9 1014 57 10000 3.1 50 03:44 30.03.2020
548 Clouds 10 1014 50 10000 2.6 40 02:39 30.03.2020
549 Clouds 11 1014 47 10000 3.1 50 01:44 30.03.2020
550 Clouds 12 1014 50 10000 1 0 00:50 30.03.2020
551 Clouds 13 1014 50 10000 1 0 00:23 30.03.2020
552 Clouds 13 1014 50 10000 3.1 230 23:42 29.03.2020
553 Clouds 14 1014 50 10000 3.1 230 23:24 29.03.2020
554 Clouds 14 1014 50 10000 4.1 240 22:58 29.03.2020
555 Clouds 14 1014 47 10000 4.1 250 22:38 29.03.2020
556 Clouds 15 1014 47 10000 4.1 250 22:19 29.03.2020
557 Clouds 15 1014 41 10000 3.6 240 21:56 29.03.2020
558 Clouds 15 1014 44 10000 3.6 230 21:36 29.03.2020
559 Clouds 16 1014 41 10000 3.6 220 21:18 29.03.2020
560 Clouds 16 1014 41 10000 3.6 220 20:54 29.03.2020
561 Clouds 17 1014 36 10000 4.1 230 20:36 29.03.2020
562 Clouds 17 1014 39 10000 3.6 240 20:18 29.03.2020
563 Clouds 17 1014 34 10000 2.6 230 19:42 29.03.2020
564 Clouds 18 1014 34 10000 2.6 230 19:24 29.03.2020
565 Clouds 18 1014 34 10000 2.6 230 18:58 29.03.2020
566 Clouds 18 1015 34 10000 3.1 0 18:40 29.03.2020
567 Clouds 19 1015 34 10000 3.6 210 18:20 29.03.2020
568 Clouds 19 1015 34 10000 3.6 210 18:20 29.03.2020
569 Clouds 19 1015 34 10000 3.6 210 17:58 29.03.2020
570 Clouds 19 1015 32 10000 4.1 210 17:40 29.03.2020
571 Rain 19 1016 32 10000 2.1 0 17:20 29.03.2020
572 Rain 18 1016 32 10000 2.1 0 16:58 29.03.2020
573 Rain 18 1016 34 10000 2.1 210 16:39 29.03.2020
574 Clouds 18 1016 34 10000 3.1 230 16:20 29.03.2020
575 Clouds 18 1016 34 10000 3.1 230 15:56 29.03.2020
576 Clouds 18 1017 36 10000 2.1 0 15:37 29.03.2020
577 Clear 17 1017 36 10000 2.1 0 15:19 29.03.2020
578 Clear 17 1017 34 10000 2.1 210 14:55 29.03.2020
579 Clear 17 1017 39 10000 2.1 0 14:36 29.03.2020
580 Clear 16 1018 38 10000 2.6 240 14:18 29.03.2020
581 Clear 15 1018 41 10000 2.6 170 13:41 29.03.2020
582 Clear 15 1018 41 10000 1.5 0 13:22 29.03.2020
583 Clear 14 1018 41 10000 1.5 0 12:58 29.03.2020
584 Clear 14 1019 41 10000 1 170 12:39 29.03.2020
585 Clear 13 1019 44 10000 0.5 0 12:19 29.03.2020
586 Clear 12 1019 44 10000 0.5 0 11:58 29.03.2020
587 Clear 11 1019 50 10000 0.5 0 11:37 29.03.2020
588 Clear 11 1019 57 10000 0.5 0 11:19 29.03.2020
589 Clear 10 1019 61 10000 0.5 0 10:39 29.03.2020
590 Clear 9 1019 61 10000 0.5 0 10:20 29.03.2020
591 Clear 8 1019 61 10000 0.5 0 09:56 29.03.2020
592 Clear 7 1019 65 10000 0.5 0 09:38 29.03.2020
593 Clouds 6 1019 80 10000 0.5 0 09:18 29.03.2020
594 Clear 5 1018 75 10000 0.5 24 08:43 29.03.2020
595 Clear 4 1018 80 10000 1 10 08:25 29.03.2020
596 Clear 5 1018 75 10000 0.5 350 07:47 29.03.2020
597 Clear 4 1018 80 10000 0.5 24 07:23 29.03.2020
598 Clear 5 1018 75 10000 0.5 24 06:34 29.03.2020
599 Clear 6 1019 65 10000 0.5 330 04:56 29.03.2020
600 Clear 7 1019 44 10000 0.5 270 03:41 29.03.2020
601 Clouds 8 1019 40 10000 0.5 270 03:20 29.03.2020
602 Clouds 8 1019 40 10000 0.5 0 01:40 29.03.2020
603 Clouds 8 1019 40 10000 0.5 0 01:21 29.03.2020
604 Clouds 8 1019 40 10000 1 260 00:40 29.03.2020
605 Clouds 9 1019 57 10000 1.5 260 00:19 29.03.2020
606 Clouds 9 1019 61 10000 2.1 270 23:41 28.03.2020
607 Clear 10 1019 65 10000 2.6 270 23:22 28.03.2020
608 Clear 10 1019 65 10000 2.6 250 22:44 28.03.2020
609 Clear 10 1019 65 10000 2.6 250 22:22 28.03.2020
610 Clear 10 1019 61 10000 2.1 250 21:57 28.03.2020
611 Clear 10 1019 61 10000 2.1 250 21:57 28.03.2020
612 Clear 10 1019 61 10000 2.1 250 21:57 28.03.2020
613 Clear 11 1018 65 10000 2.6 250 21:39 28.03.2020
614 Clear 11 1018 57 10000 2.6 250 21:20 28.03.2020
615 Clear 12 1018 57 10000 2.6 250 20:57 28.03.2020
616 Clear 12 1018 46 10000 2.6 210 20:38 28.03.2020
617 Clear 13 1018 46 10000 2.6 210 20:19 28.03.2020
618 Clear 13 1017 43 10000 2.6 200 19:55 28.03.2020
619 Clear 14 1017 32 10000 3.1 190 19:36 28.03.2020
620 Clear 15 1017 36 10000 1 0 19:18 28.03.2020
621 Clear 15 1017 33 10000 2.1 140 18:42 28.03.2020
622 Clear 15 1017 31 10000 2.6 160 18:20 28.03.2020
623 Clear 15 1017 33 10000 2.6 100 17:43 28.03.2020
624 Clear 16 1017 26 10000 1 140 17:24 28.03.2020
625 Clear 15 1017 26 10000 1 140 16:59 28.03.2020
626 Clear 16 1017 26 10000 1 140 16:59 28.03.2020
627 Clear 15 1017 26 10000 1.5 0 16:40 28.03.2020
628 Clear 15 1017 26 10000 1.5 0 16:20 28.03.2020
629 Clear 15 1017 26 10000 2.6 170 15:55 28.03.2020
630 Clear 15 1017 38 10000 2.1 100 15:37 28.03.2020
631 Clear 15 1018 26 10000 2.1 0 15:18 28.03.2020
632 Clear 14 1018 35 10000 2.1 0 14:41 28.03.2020
633 Clear 14 1018 35 10000 2.1 0 14:21 28.03.2020
634 Clear 13 1018 28 10000 2.6 110 13:44 28.03.2020
635 Clear 13 1018 28 10000 1.5 0 13:25 28.03.2020
636 Clear 13 1018 28 10000 1.5 0 12:57 28.03.2020
637 Clear 13 1018 37 10000 2.1 0 12:37 28.03.2020
638 Clear 12 1019 40 10000 2.6 90 12:18 28.03.2020
639 Clear 11 1018 50 10000 1.5 80 11:42 28.03.2020
640 Clear 10 1018 57 10000 2.1 70 11:21 28.03.2020
641 Clear 9 1018 53 10000 2.1 60 10:41 28.03.2020
642 Clear 9 1018 53 10000 2.1 60 10:22 28.03.2020
643 Clear 7 1018 61 10000 1.5 40 09:59 28.03.2020
644 Clear 7 1018 65 10000 1.5 60 09:39 28.03.2020
645 Clear 6 1018 75 10000 1.5 360 09:20 28.03.2020
646 Clear 4 1017 80 10000 2.6 360 08:42 28.03.2020
647 Clouds 4 1017 86 10000 2.1 10 08:23 28.03.2020
648 Clouds 3 1017 86 10000 1.5 340 07:49 28.03.2020
649 Clouds 3 1017 86 10000 1.5 340 07:31 28.03.2020
650 Clouds 3 1016 86 10000 1 10 06:45 28.03.2020
651 Clouds 3 1016 93 10000 1.91 57 06:20 28.03.2020
652 Clouds 3 1016 86 10000 1.91 57 05:24 28.03.2020
653 Clouds 3 1016 93 10000 1.49 59 04:48 28.03.2020
654 Clouds 3 1016 93 10000 1.49 59 04:28 28.03.2020
655 Clouds 4 1016 80 9000 2.1 300 02:46 28.03.2020
656 Clouds 4 1016 86 10000 1 0 01:46 28.03.2020
657 Clouds 4 1015 86 10000 0.5 0 01:20 28.03.2020
658 Clouds 5 1015 80 10000 1 140 00:47 28.03.2020
659 Clouds 5 1015 80 10000 1 140 00:20 28.03.2020
660 Clouds 5 1015 80 10000 1.57 93 23:43 27.03.2020
661 Clouds 5 1015 81 10000 1 0 23:24 27.03.2020
662 Clouds 5 1015 75 10000 1 170 22:56 27.03.2020
663 Clouds 6 1015 75 10000 1 170 22:38 27.03.2020
664 Clouds 6 1014 75 10000 1.5 140 22:20 27.03.2020
665 Clouds 6 1014 75 10000 1.5 140 21:56 27.03.2020
666 Clouds 6 1014 75 10000 1 0 21:38 27.03.2020
667 Clouds 6 1014 75 10000 3.1 150 21:20 27.03.2020
668 Clouds 7 1013 70 10000 2.6 120 20:43 27.03.2020
669 Rain 8 1013 70 10000 2.6 120 20:22 27.03.2020
670 Rain 8 1013 61 10000 2.1 150 19:59 27.03.2020
671 Rain 9 1012 57 10000 2.1 150 19:41 27.03.2020
672 Rain 10 1012 50 10000 1.5 130 19:22 27.03.2020
673 Rain 10 1012 50 10000 1.5 130 18:56 27.03.2020
674 Rain 10 1012 53 10000 2.6 120 18:38 27.03.2020
675 Rain 11 1012 50 10000 2.1 90 18:19 27.03.2020
676 Clouds 11 1012 50 10000 1.5 100 17:40 27.03.2020
677 Clouds 11 1012 53 10000 1.5 90 17:20 27.03.2020
678 Clouds 11 1012 53 10000 1.5 90 16:54 27.03.2020
679 Clouds 10 1012 61 10000 2.6 90 16:36 27.03.2020
680 Clouds 10 1012 66 10000 2.6 110 16:18 27.03.2020
681 Clouds 9 1012 66 10000 2.6 130 15:41 27.03.2020
682 Clouds 9 1012 61 10000 3.6 90 15:23 27.03.2020
683 Clouds 8 1013 57 10000 3.6 80 14:46 27.03.2020
684 Clouds 9 1013 57 10000 3.6 80 14:25 27.03.2020
685 Clouds 8 1013 75 10000 4.6 110 13:57 27.03.2020
686 Clouds 8 1013 70 10000 3.1 80 13:38 27.03.2020
687 Clouds 8 1013 70 10000 3.1 80 13:19 27.03.2020
688 Clouds 7 1013 75 10000 3.6 60 12:55 27.03.2020
689 Clouds 8 1013 75 10000 3.6 60 12:37 27.03.2020
690 Clouds 6 1013 80 10000 3.1 60 12:18 27.03.2020
691 Clouds 6 1013 80 10000 2.6 70 11:41 27.03.2020
692 Clouds 5 1012 86 10000 3.6 70 11:23 27.03.2020
693 Clouds 4 1012 86 10000 3.1 50 10:55 27.03.2020
694 Clouds 4 1012 86 10000 3.1 50 10:37 27.03.2020
695 Clouds 4 1012 86 10000 3.1 50 10:37 27.03.2020
696 Clouds 3 1012 86 10000 3.1 50 10:18 27.03.2020
697 Clouds 3 1012 86 10000 3.1 50 09:56 27.03.2020
698 Drizzle 3 1011 80 10000 4.1 50 09:37 27.03.2020
699 Drizzle 3 1011 80 10000 3.1 60 09:18 27.03.2020
700 Drizzle 3 1011 80 10000 3.1 60 08:55 27.03.2020
701 Clouds 3 1011 80 10000 4.1 40 08:37 27.03.2020
702 Clouds 3 1010 80 10000 3.6 40 08:18 27.03.2020
703 Clouds 3 1010 56 10000 4.1 30 07:49 27.03.2020
704 Clouds 3 1010 65 10000 3.6 30 07:23 27.03.2020
705 Clouds 4 1010 60 10000 4.6 40 06:46 27.03.2020
706 Clouds 4 1010 60 10000 3.6 30 06:27 27.03.2020
707 Clouds 6 1010 52 10000 2.1 30 04:21 27.03.2020
708 Clouds 7 1010 48 10000 2.6 50 02:25 27.03.2020
709 Clouds 7 1010 48 10000 3.6 60 01:23 27.03.2020
710 Clouds 7 1010 52 10000 3.1 60 00:48 27.03.2020
711 Clouds 8 1009 45 10000 3.1 50 00:23 27.03.2020
712 Clouds 8 1009 49 10000 1.5 20 23:42 26.03.2020
713 Clouds 8 1009 49 10000 2.1 10 23:21 26.03.2020
714 Clouds 8 1009 49 10000 2.1 10 22:58 26.03.2020
715 Clouds 9 1009 46 10000 2.1 350 22:37 26.03.2020
716 Clouds 9 1009 46 10000 2.1 330 22:19 26.03.2020
717 Clouds 9 1009 46 10000 2.1 330 21:55 26.03.2020
718 Clouds 9 1009 46 10000 2.1 330 21:55 26.03.2020
719 Clouds 10 1009 43 10000 2.6 350 21:36 26.03.2020
720 Clouds 10 1009 40 10000 3.1 360 21:18 26.03.2020
721 Clouds 10 1009 43 10000 4.1 360 20:41 26.03.2020
722 Clouds 10 1009 43 10000 4.1 360 20:41 26.03.2020
723 Clouds 11 1009 37 10000 2.6 10 20:23 26.03.2020
724 Clear 11 1009 37 10000 2.6 10 20:23 26.03.2020
725 Clear 11 1009 37 10000 2.6 10 20:23 26.03.2020
726 Clear 12 1009 35 10000 3.1 360 19:58 26.03.2020
727 Clear 12 1008 33 10000 3.1 360 19:40 26.03.2020
728 Clear 12 1008 33 10000 3.1 360 19:40 26.03.2020
729 Clear 13 1008 33 10000 3.6 360 19:22 26.03.2020
730 Clear 13 1008 33 10000 3.6 360 18:59 26.03.2020
731 Clear 14 1008 30 10000 4.1 360 18:41 26.03.2020
732 Clear 14 1008 31 10000 3.1 20 18:23 26.03.2020
733 Clear 14 1007 31 10000 3.6 340 17:45 26.03.2020
734 Clear 15 1008 26 10000 4.6 300 17:20 26.03.2020
735 Clear 15 1008 26 10000 4.6 300 17:20 26.03.2020
736 Clear 15 1008 27 10000 3.1 0 16:59 26.03.2020
737 Clear 16 1008 27 10000 3.1 0 16:38 26.03.2020
738 Clear 15 1007 29 10000 1.5 0 16:20 26.03.2020
739 Clear 16 1007 29 10000 1.5 0 15:56 26.03.2020
740 Clear 16 1008 23 10000 1 320 15:38 26.03.2020
741 Clear 16 1008 29 10000 2.1 0 15:19 26.03.2020
742 Clear 15 1008 25 10000 1 100 14:43 26.03.2020
743 Clear 15 1008 25 10000 1 100 14:25 26.03.2020
744 Clear 15 1008 25 10000 1 100 14:25 26.03.2020
745 Clear 14 1008 28 10000 2.6 0 13:59 26.03.2020
746 Clear 14 1009 30 10000 2.1 300 13:40 26.03.2020
747 Clear 14 1009 30 10000 2.1 300 13:21 26.03.2020
748 Clear 13 1009 30 10000 2.6 120 12:39 26.03.2020
749 Clear 13 1009 32 10000 2.1 120 12:21 26.03.2020
750 Clear 12 1009 32 10000 2.1 120 11:56 26.03.2020
751 Clear 12 1009 32 10000 2.1 120 11:56 26.03.2020
752 Clear 11 1010 34 10000 2.6 130 11:37 26.03.2020
753 Clear 10 1010 37 10000 2.1 130 11:19 26.03.2020
754 Clear 9 1010 42 10000 2.6 130 10:42 26.03.2020
755 Clear 9 1010 42 10000 2.6 130 10:20 26.03.2020
756 Clear 8 1010 45 10000 2.1 110 09:46 26.03.2020
757 Clear 7 1010 48 10000 2.6 120 09:24 26.03.2020
758 Clear 7 1010 48 10000 2.6 120 08:58 26.03.2020
759 Clear 6 1010 34 10000 1.5 110 08:40 26.03.2020
760 Clear 6 1010 69 10000 0.5 0 08:22 26.03.2020
761 Clear 6 1010 69 10000 0.5 0 07:56 26.03.2020
762 Clear 4 1010 74 10000 1.5 220 07:38 26.03.2020
763 Clear 5 1010 69 10000 1 230 07:19 26.03.2020
764 Clear 7 1010 56 10000 0.5 0 06:33 26.03.2020
765 Clear 7 1010 43 10000 0.5 0 05:47 26.03.2020
766 Clear 9 1011 61 10000 1 0 03:46 26.03.2020
767 Clear 9 1011 53 10000 1 0 02:58 26.03.2020
768 Clear 10 1011 70 10000 1.38 348 01:51 26.03.2020
769 Clear 10 1012 66 10000 1 0 01:18 26.03.2020
770 Clear 10 1011 50 10000 3.1 310 00:30 26.03.2020
771 Clear 11 1012 81 10000 3.1 270 23:42 25.03.2020
772 Clear 11 1012 87 10000 3.1 260 23:24 25.03.2020
773 Clear 11 1012 81 10000 2.6 260 22:42 25.03.2020
774 Clear 12 1012 81 10000 2.1 250 22:22 25.03.2020
775 Clear 12 1012 81 10000 2.1 250 21:59 25.03.2020
776 Clear 13 1012 81 10000 3.1 250 21:41 25.03.2020
777 Clear 13 1012 71 10000 3.1 250 21:23 25.03.2020
778 Clear 14 1012 71 10000 3.1 250 20:57 25.03.2020
779 Clear 14 1012 66 10000 5.1 250 20:38 25.03.2020
780 Clouds 15 1012 58 10000 5.1 240 20:19 25.03.2020
781 Clouds 15 1012 58 10000 4.6 240 19:55 25.03.2020
782 Clouds 16 1012 58 10000 4.6 240 19:36 25.03.2020
783 Clouds 16 1012 51 10000 6.2 240 19:18 25.03.2020
784 Clouds 17 1011 45 10000 3.6 260 18:42 25.03.2020
785 Clouds 17 1012 55 10000 4.6 260 18:24 25.03.2020
786 Clouds 17 1012 48 10000 4.6 220 17:58 25.03.2020
787 Clouds 17 1012 48 10000 4.6 220 17:40 25.03.2020
788 Clouds 17 1012 54 10000 4.6 220 17:21 25.03.2020
789 Clouds 16 1012 54 10000 4.6 220 16:55 25.03.2020
790 Clear 17 1013 55 10000 4.6 220 16:37 25.03.2020
791 Clear 16 1013 51 10000 2.6 230 16:19 25.03.2020
792 Clouds 16 1014 55 10000 2.6 190 15:42 25.03.2020
793 Clouds 16 1014 55 10000 2.6 190 15:20 25.03.2020
794 Clouds 15 1014 51 10000 1.5 170 14:56 25.03.2020
795 Clouds 15 1014 51 10000 2.6 0 14:37 25.03.2020
796 Clouds 14 1015 54 10000 2.6 180 14:19 25.03.2020
797 Clouds 14 1015 54 10000 2.1 170 13:44 25.03.2020
798 Clouds 14 1015 54 10000 2.1 170 13:24 25.03.2020
799 Clouds 13 1016 62 10000 2.6 160 12:39 25.03.2020
800 Clouds 13 1016 62 10000 2.6 160 12:39 25.03.2020
801 Clouds 12 1016 62 10000 3.1 160 12:21 25.03.2020
802 Clouds 12 1016 62 10000 3.1 160 11:57 25.03.2020
803 Clouds 11 1016 66 10000 3.6 160 11:39 25.03.2020
804 Clouds 10 1016 66 10000 2.6 150 11:20 25.03.2020
805 Clouds 10 1016 66 10000 2.6 150 11:20 25.03.2020
806 Clouds 10 1016 66 10000 2.6 150 10:58 25.03.2020
807 Clouds 10 1016 61 10000 1.5 160 10:39 25.03.2020
808 Clouds 9 1016 71 10000 2.1 190 10:18 25.03.2020
809 Clouds 9 1016 70 10000 3.1 190 09:43 25.03.2020
810 Clouds 8 1016 70 10000 2.6 190 09:25 25.03.2020
811 Clouds 8 1016 70 10000 2.6 190 08:58 25.03.2020
812 Clouds 8 1016 81 10000 1.5 190 08:40 25.03.2020
813 Clouds 7 1016 81 10000 1.5 190 08:20 25.03.2020
814 Clouds 7 1016 87 10000 1 200 07:55 25.03.2020
815 Clouds 7 1016 87 10000 1.82 232 07:36 25.03.2020
816 Clouds 7 1016 81 10000 2.1 190 07:18 25.03.2020
817 Clouds 8 1016 87 10000 2.6 210 06:41 25.03.2020
818 Clouds 8 1016 87 10000 2.6 210 06:22 25.03.2020
819 Clouds 8 1016 81 10000 0.5 0 05:47 25.03.2020
820 Clouds 9 1017 76 10000 3.6 170 04:42 25.03.2020
821 Clouds 9 1017 76 10000 2.1 180 03:57 25.03.2020
822 Clouds 9 1017 76 10000 1.5 210 03:30 25.03.2020
823 Clouds 10 1017 71 10000 3.1 150 01:40 25.03.2020
824 Clouds 10 1017 76 10000 3.1 160 00:50 25.03.2020
825 Clouds 10 1017 71 10000 2.6 160 00:27 25.03.2020
826 Clouds 10 1017 71 10000 2.1 170 23:55 24.03.2020
827 Clouds 11 1017 76 10000 2.1 170 23:28 24.03.2020
828 Clouds 11 1017 81 10000 2.6 130 22:58 24.03.2020
829 Clouds 11 1016 76 10000 2.6 140 22:38 24.03.2020
830 Clouds 11 1016 71 10000 1 0 22:20 24.03.2020
831 Clouds 11 1016 76 10000 2.6 140 22:20 24.03.2020
832 Clouds 12 1016 71 10000 1 0 21:58 24.03.2020
833 Clouds 12 1016 71 10000 1.5 130 21:40 24.03.2020
834 Clouds 12 1016 71 10000 1.5 130 21:40 24.03.2020
835 Clouds 12 1016 66 10000 2.1 0 21:19 24.03.2020
836 Clouds 12 1016 66 10000 2.1 0 20:58 24.03.2020
837 Clouds 12 1015 71 10000 2.1 140 20:39 24.03.2020
838 Clouds 12 1015 71 10000 2.1 140 20:39 24.03.2020
839 Clouds 12 1015 71 10000 2.1 140 20:21 24.03.2020
840 Clouds 13 1015 66 10000 2.1 180 19:47 24.03.2020
841 Clouds 13 1015 66 10000 2.1 180 19:22 24.03.2020
842 Clouds 13 1015 66 10000 2.6 170 18:58 24.03.2020
843 Clouds 14 1014 62 10000 2.1 180 18:38 24.03.2020
844 Clouds 14 1014 62 10000 2.6 160 18:20 24.03.2020
845 Clouds 14 1014 62 10000 2.6 160 17:56 24.03.2020
846 Clouds 15 1014 62 10000 1.5 130 17:56 24.03.2020
847 Clouds 15 1014 62 10000 1.5 130 17:38 24.03.2020
848 Clouds 15 1014 54 10000 2.1 100 17:20 24.03.2020
849 Clouds 15 1014 54 10000 2.1 100 16:56 24.03.2020
850 Clouds 15 1014 54 10000 3.6 100 16:37 24.03.2020
851 Clouds 15 1014 54 10000 3.6 100 16:19 24.03.2020
852 Clouds 15 1015 54 10000 3.1 50 15:42 24.03.2020
853 Clouds 15 1015 54 10000 3.1 50 15:24 24.03.2020
854 Clouds 15 1015 51 10000 3.1 60 14:44 24.03.2020
855 Clouds 15 1015 51 10000 3.1 60 14:44 24.03.2020
856 Clouds 15 1015 51 10000 3.1 60 14:23 24.03.2020
857 Clouds 15 1016 58 10000 3.1 60 13:59 24.03.2020
858 Clouds 15 1016 54 10000 3.6 50 13:41 24.03.2020
859 Clouds 15 1016 54 10000 3.6 50 13:41 24.03.2020
860 Clouds 15 1016 51 10000 5.7 60 13:22 24.03.2020
861 Clouds 14 1016 58 10000 4.1 50 12:43 24.03.2020
862 Clouds 14 1016 62 10000 5.1 40 12:25 24.03.2020
863 Clouds 13 1016 66 10000 3.1 0 11:56 24.03.2020
864 Clouds 13 1016 66 10000 3.1 0 11:37 24.03.2020
865 Clouds 12 1016 71 10000 4.6 40 11:18 24.03.2020
866 Clouds 11 1016 71 10000 4.1 0 10:41 24.03.2020
867 Clouds 11 1016 71 10000 3.6 30 10:19 24.03.2020
868 Clouds 11 1016 71 10000 3.6 30 10:19 24.03.2020
869 Rain 10 1016 76 10000 3.6 30 09:47 24.03.2020
870 Rain 10 1016 76 10000 3.6 30 09:27 24.03.2020
871 Clouds 9 1016 76 10000 3.1 10 08:58 24.03.2020
872 Clouds 9 1016 87 10000 3.1 20 08:38 24.03.2020
873 Clouds 9 1016 87 10000 3.1 20 08:20 24.03.2020
874 Rain 9 1016 81 10000 3.1 30 07:44 24.03.2020
875 Rain 9 1016 81 10000 2.6 40 07:22 24.03.2020
876 Rain 9 1015 76 10000 3.1 40 06:42 24.03.2020
877 Clouds 9 1015 76 10000 3.1 30 06:21 24.03.2020
878 Clouds 9 1015 76 10000 2.1 20 04:52 24.03.2020
879 Clouds 9 1016 81 10000 1.5 10 03:43 24.03.2020
880 Clouds 9 1016 81 10000 2.1 30 02:45 24.03.2020
881 Clouds 9 1016 76 10000 1 0 01:22 24.03.2020
882 Clouds 10 1016 76 10000 1.5 30 00:41 24.03.2020
883 Clouds 10 1016 76 10000 1 0 00:22 24.03.2020
884 Clouds 10 1016 81 10000 2.6 330 23:38 23.03.2020
885 Rain 10 1016 66 10000 2.1 60 23:20 23.03.2020
886 Clouds 10 1016 66 10000 2.1 70 22:45 23.03.2020
887 Clouds 11 1016 71 10000 2.1 70 22:24 23.03.2020
888 Clouds 11 1016 71 10000 2.1 70 21:57 23.03.2020
889 Clouds 11 1016 71 10000 2.1 60 21:38 23.03.2020
890 Rain 11 1015 66 10000 1.5 40 21:20 23.03.2020
891 Rain 11 1015 66 10000 1.5 40 20:56 23.03.2020
892 Rain 11 1015 66 10000 1.5 40 20:56 23.03.2020
893 Rain 11 1015 66 10000 2.1 60 20:38 23.03.2020
894 Rain 11 1015 66 10000 2.1 60 20:19 23.03.2020
895 Rain 12 1015 66 10000 2.1 70 19:44 23.03.2020
896 Rain 12 1015 66 10000 2.1 70 19:24 23.03.2020
897 Rain 13 1014 66 10000 4.1 80 18:56 23.03.2020
898 Rain 13 1014 66 10000 4.1 90 18:38 23.03.2020
899 Clouds 12 1014 71 10000 3.6 90 18:20 23.03.2020
900 Rain 12 1014 76 10000 2.6 130 17:42 23.03.2020
901 Thunderstorm 13 1014 67 10000 4.6 90 17:21 23.03.2020
902 Thunderstorm 13 1014 67 10000 4.6 90 16:57 23.03.2020
903 Thunderstorm 14 1014 58 10000 3.6 120 16:39 23.03.2020
904 Thunderstorm 14 1014 58 10000 3.6 120 16:20 23.03.2020
905 Rain 13 1014 67 10000 1.5 0 15:41 23.03.2020
906 Rain 13 1015 93 10000 2.6 0 15:19 23.03.2020
907 Rain 12 1015 76 7000 3.6 50 14:38 23.03.2020
908 Rain 12 1015 66 10000 3.6 50 14:20 23.03.2020
909 Clouds 12 1015 66 10000 3.6 50 13:59 23.03.2020
910 Clouds 12 1015 71 10000 3.1 30 13:40 23.03.2020
911 Clouds 12 1015 71 10000 3.1 30 13:20 23.03.2020
912 Clouds 11 1016 87 10000 2.6 60 12:45 23.03.2020
913 Clouds 11 1016 87 10000 2.6 60 12:45 23.03.2020
914 Rain 10 1016 81 10000 2.6 50 12:25 23.03.2020
915 Rain 10 1016 81 10000 2.6 50 11:59 23.03.2020
916 Rain 9 1016 87 10000 2.6 50 11:40 23.03.2020
917 Rain 9 1016 100 9000 1.5 60 11:20 23.03.2020
918 Rain 9 1016 100 9000 1.5 60 11:20 23.03.2020
919 Rain 9 1016 100 9000 1.5 60 10:57 23.03.2020
920 Rain 9 1016 93 9000 1.5 70 10:38 23.03.2020
921 Drizzle 9 1015 93 8000 0.5 0 10:20 23.03.2020
922 Rain 9 1015 93 10000 1 0 09:44 23.03.2020
923 Clouds 8 1015 100 10000 1.5 350 09:21 23.03.2020
924 Clouds 8 1015 100 10000 1.5 350 08:57 23.03.2020
925 Rain 8 1015 100 10000 1.5 360 08:36 23.03.2020
926 Rain 8 1015 100 10000 1.5 360 08:18 23.03.2020
927 Rain 8 1014 100 7000 2.1 80 07:45 23.03.2020
928 Rain 8 1014 100 7000 2.1 80 07:27 23.03.2020
929 Rain 8 1014 100 10000 2.05 58 06:51 23.03.2020
930 Rain 8 1014 93 10000 0.5 0 05:54 23.03.2020
931 Rain 8 1014 100 10000 1 0 05:29 23.03.2020
932 Rain 8 1014 100 8000 1 320 03:29 23.03.2020
933 Rain 8 1014 100 8000 1 360 01:51 23.03.2020
934 Rain 8 1014 100 8000 1 350 01:33 23.03.2020
935 Rain 8 1014 100 8000 2.1 350 00:39 23.03.2020
936 Rain 8 1014 100 8000 2.5 35 23:48 22.03.2020
937 Rain 8 1014 100 8000 2.5 35 23:26 22.03.2020
938 Rain 9 1013 87 8000 0.5 0 22:45 22.03.2020
939 Rain 9 1013 93 8000 3.1 140 22:26 22.03.2020
940 Rain 9 1013 93 8000 3.1 140 21:57 22.03.2020
941 Rain 9 1013 93 10000 1.5 190 21:39 22.03.2020
942 Clouds 9 1012 81 10000 3.59 185 21:20 22.03.2020
943 Clouds 10 1012 81 10000 3.59 185 20:54 22.03.2020
944 Clouds 10 1012 76 10000 0.5 0 20:36 22.03.2020
945 Clouds 10 1012 76 10000 1 0 20:18 22.03.2020
946 Clouds 10 1012 76 10000 1 0 19:54 22.03.2020
947 Clouds 10 1011 81 10000 2.6 140 19:36 22.03.2020
948 Clouds 10 1011 81 10000 2.6 140 19:18 22.03.2020
949 Clouds 11 1011 62 10000 2.1 10 18:41 22.03.2020
950 Rain 11 1011 81 10000 7.7 150 18:22 22.03.2020
951 Rain 11 1011 81 10000 7.7 150 17:59 22.03.2020
952 Clouds 12 1010 62 10000 3.1 360 17:39 22.03.2020
953 Clouds 12 1010 66 10000 3.6 360 17:21 22.03.2020
954 Clouds 12 1010 66 10000 3.6 360 16:59 22.03.2020
955 Clouds 12 1010 62 10000 3.6 360 16:41 22.03.2020
956 Clouds 11 1010 62 10000 3.6 360 16:22 22.03.2020
957 Clouds 11 1010 58 10000 3.6 360 15:58 22.03.2020
958 Clouds 11 1011 71 10000 3.6 360 15:39 22.03.2020
959 Clouds 10 1011 66 10000 3.1 30 14:47 22.03.2020
960 Clouds 10 1011 66 10000 3.1 30 14:20 22.03.2020
961 Clouds 10 1011 62 10000 3.6 30 13:58 22.03.2020
962 Clouds 10 1012 62 10000 3.1 30 13:40 22.03.2020
963 Clouds 11 1012 62 10000 3.1 30 13:19 22.03.2020
964 Clouds 10 1012 62 10000 3.1 40 12:44 22.03.2020
965 Clouds 11 1012 66 10000 2.6 0 12:22 22.03.2020
966 Clouds 11 1012 66 10000 2.6 0 12:22 22.03.2020
967 Clouds 11 1012 66 10000 2.6 0 11:58 22.03.2020
968 Clouds 10 1012 62 10000 2.6 50 11:39 22.03.2020
969 Clouds 9 1012 66 10000 3.1 40 11:20 22.03.2020
970 Clouds 9 1012 71 10000 2.6 60 10:43 22.03.2020
971 Clouds 9 1012 71 10000 2.6 60 10:24 22.03.2020
972 Clouds 8 1012 71 10000 2.6 10 09:55 22.03.2020
973 Clouds 8 1011 76 10000 1.5 10 09:36 22.03.2020
974 Clouds 7 1011 81 10000 1 0 09:18 22.03.2020
975 Clouds 7 1011 81 10000 1 0 08:41 22.03.2020
976 Clouds 7 1011 81 10000 1 0 08:21 22.03.2020
977 Clouds 6 1011 81 10000 1.5 50 07:50 22.03.2020
978 Clouds 6 1011 93 10000 1.5 350 07:19 22.03.2020
979 Clouds 7 1011 100 10000 0.5 0 05:57 22.03.2020
980 Clouds 7 1011 100 10000 1 360 05:21 22.03.2020
981 Clouds 7 1012 100 10000 0.5 0 02:58 22.03.2020
982 Rain 7 1012 93 10000 0.5 0 01:22 22.03.2020
983 Rain 7 1012 93 10000 0.5 0 01:22 22.03.2020
984 Drizzle 7 1012 93 10000 1 0 00:41 22.03.2020
985 Drizzle 7 1012 93 10000 1 0 00:23 22.03.2020
986 Drizzle 8 1012 87 10000 0.5 0 23:41 21.03.2020
987 Drizzle 7 1012 100 10000 1 0 23:19 21.03.2020
988 Rain 7 1012 93 10000 1.5 80 22:39 21.03.2020
989 Rain 8 1012 93 10000 0.5 0 22:20 21.03.2020
990 Rain 8 1012 93 10000 0.5 0 21:59 21.03.2020
991 Drizzle 8 1012 87 10000 1 0 21:41 21.03.2020
992 Drizzle 8 1012 87 10000 1 0 21:22 21.03.2020
993 Clouds 8 1011 81 10000 1.5 100 20:56 21.03.2020
994 Clouds 8 1011 81 10000 1.5 100 20:38 21.03.2020
995 Clouds 8 1011 76 10000 2.1 100 20:18 21.03.2020
996 Clouds 9 1011 81 10000 1 0 19:43 21.03.2020
997 Clouds 8 1011 81 10000 1 0 19:23 21.03.2020
998 Clouds 9 1011 76 10000 1.5 150 18:55 21.03.2020
999 Clouds 9 1011 76 10000 1.5 150 18:37 21.03.2020
1000 Clouds 9 1011 76 10000 1.5 150 18:19 21.03.2020
1001 Clouds 9 1011 76 10000 1.5 160 17:55 21.03.2020
1002 Clouds 9 1011 81 10000 2.1 170 17:37 21.03.2020
1003 Clouds 9 1011 81 10000 2.1 190 17:18 21.03.2020
1004 Clouds 9 1011 81 10000 1 0 16:40 21.03.2020
1005 Rain 9 1011 87 8000 2.1 240 16:19 21.03.2020
1006 Rain 9 1011 87 8000 2.1 240 15:55 21.03.2020
1007 Rain 8 1011 87 10000 3.6 240 15:37 21.03.2020
1008 Rain 8 1012 87 10000 4.6 230 15:18 21.03.2020
1009 Rain 9 1012 87 10000 4.6 230 14:54 21.03.2020
1010 Clouds 9 1012 87 10000 4.1 230 14:36 21.03.2020
1011 Drizzle 9 1012 87 10000 5.1 230 14:18 21.03.2020
1012 Drizzle 8 1012 87 10000 5.1 230 13:56 21.03.2020
1013 Drizzle 9 1012 93 9000 3.6 190 13:38 21.03.2020
1014 Drizzle 9 1012 93 9000 3.6 190 13:19 21.03.2020
1015 Drizzle 9 1012 100 3000 2.1 90 12:39 21.03.2020
1016 Drizzle 9 1012 93 3000 1.5 80 12:19 21.03.2020
1017 Rain 9 1013 100 3000 1.5 90 11:58 21.03.2020
1018 Rain 9 1013 100 3000 1.5 90 11:38 21.03.2020
1019 Rain 9 1012 87 5000 2.6 80 11:19 21.03.2020
1020 Rain 9 1012 81 10000 3.1 90 10:57 21.03.2020
1021 Clouds 9 1012 81 10000 3.1 90 10:39 21.03.2020
1022 Clouds 9 1012 81 10000 3.1 90 10:20 21.03.2020
1023 Clouds 9 1012 81 10000 3.6 90 09:57 21.03.2020
1024 Clouds 9 1012 76 10000 3.6 80 09:37 21.03.2020
1025 Clouds 9 1012 71 10000 3.6 80 09:19 21.03.2020
1026 Clouds 9 1012 71 10000 3.6 80 09:19 21.03.2020
1027 Clouds 9 1012 76 10000 3.1 70 08:44 21.03.2020
1028 Clouds 9 1012 76 10000 3.1 70 08:25 21.03.2020
1029 Clouds 9 1012 71 10000 3.1 60 07:52 21.03.2020
1030 Clouds 9 1012 71 10000 3.1 60 07:32 21.03.2020
1031 Clouds 9 1012 81 10000 1 0 06:49 21.03.2020
1032 Clouds 9 1012 81 10000 1 0 06:29 21.03.2020
1033 Clouds 9 1013 76 10000 1 0 05:50 21.03.2020
1034 Clouds 8 1013 76 10000 1.5 30 05:23 21.03.2020
1035 Clouds 8 1014 76 10000 1.5 110 03:32 21.03.2020
1036 Clouds 9 1015 81 10000 1.5 110 02:35 21.03.2020
1037 Clouds 9 1012 76 0 4.02 101 01:40 21.03.2020
1038 Clouds 9 1015 87 10000 1 0 01:20 21.03.2020
1039 Clouds 9 1015 87 10000 1 0 00:38 21.03.2020
1040 Clouds 9 1015 87 10000 1 130 23:59 20.03.2020
1041 Clouds 9 1015 87 10000 1 70 23:40 20.03.2020
1042 Clouds 9 1015 87 10000 1 0 23:18 20.03.2020
1043 Clouds 10 1015 76 10000 1 70 22:43 20.03.2020
1044 Clouds 10 1015 76 10000 1 70 22:24 20.03.2020
1045 Clouds 10 1015 76 10000 3.1 80 21:58 20.03.2020
1046 Clouds 11 1015 71 10000 3.6 80 21:39 20.03.2020
1047 Clouds 11 1015 71 10000 3.6 80 21:19 20.03.2020
1048 Clouds 12 1015 71 10000 3.1 80 20:57 20.03.2020
1049 Clouds 12 1015 71 10000 3.1 80 20:39 20.03.2020
1050 Clouds 12 1015 71 10000 4.1 80 20:18 20.03.2020
1051 Clouds 12 1015 66 10000 3.6 80 19:46 20.03.2020
1052 Clouds 12 1015 66 10000 2.6 70 19:19 20.03.2020
1053 Clouds 12 1015 66 10000 3.6 80 18:56 20.03.2020
1054 Clouds 12 1015 66 10000 3.6 80 18:37 20.03.2020
1055 Clouds 12 1015 62 10000 2.6 70 18:19 20.03.2020
1056 Clouds 13 1015 62 10000 2.6 90 17:40 20.03.2020
1057 Clouds 12 1015 66 10000 4.6 100 17:22 20.03.2020
1058 Clouds 12 1015 66 10000 4.6 100 16:59 20.03.2020
1059 Clouds 12 1015 66 10000 4.1 90 16:41 20.03.2020
1060 Clouds 12 1015 66 10000 4.1 90 16:41 20.03.2020
1061 Clouds 12 1016 66 10000 4.6 100 16:20 20.03.2020
1062 Clouds 12 1016 66 10000 3.6 100 15:44 20.03.2020
1063 Clouds 12 1016 66 10000 3.6 100 15:22 20.03.2020
1064 Clouds 12 1016 66 10000 4.1 90 14:58 20.03.2020
1065 Clouds 12 1016 66 10000 3.6 100 14:40 20.03.2020
1066 Clouds 12 1016 66 10000 3.6 100 14:20 20.03.2020
1067 Clouds 12 1017 71 10000 3.1 80 13:48 20.03.2020
1068 Clouds 12 1017 71 10000 3.1 80 13:21 20.03.2020
1069 Clouds 12 1017 66 10000 3.6 100 12:57 20.03.2020
1070 Clouds 11 1017 71 10000 4.6 80 12:37 20.03.2020
1071 Clouds 12 1017 71 10000 4.6 80 12:18 20.03.2020
1072 Clouds 10 1017 76 10000 4.6 110 11:39 20.03.2020
1073 Clouds 11 1018 76 10000 3.6 130 11:20 20.03.2020
1074 Clouds 11 1017 71 10000 4.1 100 10:54 20.03.2020
1075 Clouds 10 1017 71 10000 4.1 100 10:36 20.03.2020
1076 Clouds 10 1017 71 10000 4.1 100 10:36 20.03.2020
1077 Clouds 10 1017 76 10000 4.1 90 10:18 20.03.2020
1078 Clouds 10 1017 76 10000 3.6 120 09:44 20.03.2020
1079 Clouds 10 1017 76 10000 3.6 120 09:20 20.03.2020
1080 Clouds 10 1017 76 10000 2.6 90 08:43 20.03.2020
1081 Clouds 10 1017 76 10000 3.6 100 08:23 20.03.2020
1082 Clouds 10 1017 76 10000 3.6 100 07:59 20.03.2020
1083 Clouds 9 1017 76 10000 1 0 07:38 20.03.2020
1084 Clouds 9 1016 76 10000 1 0 07:19 20.03.2020
1085 Clouds 9 1016 71 10000 2.1 130 06:42 20.03.2020
1086 Clouds 10 1016 76 10000 1.5 120 06:18 20.03.2020
1087 Clouds 10 1017 71 10000 2.6 120 04:36 20.03.2020
1088 Clouds 11 1017 66 10000 2.1 120 02:50 20.03.2020
1089 Clouds 11 1018 76 10000 1 0 01:50 20.03.2020
1090 Clouds 11 1018 71 10000 1 0 00:41 20.03.2020
1091 Clouds 11 1018 71 10000 1 0 23:59 19.03.2020
1092 Clouds 11 1018 71 10000 1 0 23:40 19.03.2020
1093 Clouds 11 1018 71 10000 1.5 120 23:22 19.03.2020
1094 Clouds 12 1018 71 10000 2.6 140 22:41 19.03.2020
1095 Clouds 12 1018 71 10000 2.6 140 22:22 19.03.2020
1096 Clouds 12 1018 71 10000 3.1 140 21:58 19.03.2020
1097 Clouds 12 1018 71 10000 3.6 140 21:38 19.03.2020
1098 Clouds 12 1018 66 10000 4.1 150 21:19 19.03.2020
1099 Clouds 13 1018 66 10000 4.1 120 20:44 19.03.2020
1100 Clear 13 1018 66 10000 4.1 120 20:25 19.03.2020
1101 Clouds 14 1018 62 10000 3.6 120 19:59 19.03.2020
1102 Clouds 14 1017 62 10000 3.6 130 19:39 19.03.2020
1103 Clouds 14 1017 62 10000 3.6 130 19:21 19.03.2020
1104 Clouds 15 1017 54 10000 3.6 120 18:59 19.03.2020
1105 Clouds 15 1017 54 10000 4.1 120 18:41 19.03.2020
1106 Clouds 16 1017 51 10000 4.1 130 18:22 19.03.2020
1107 Clouds 16 1018 51 10000 3.1 110 17:55 19.03.2020
1108 Clouds 17 1018 51 10000 3.1 110 17:37 19.03.2020
1109 Clouds 17 1018 48 10000 3.1 110 17:18 19.03.2020
1110 Clouds 17 1018 51 10000 4.1 90 16:42 19.03.2020
1111 Clouds 17 1018 51 10000 4.1 90 16:21 19.03.2020
1112 Clouds 16 1019 54 10000 3.6 80 15:44 19.03.2020
1113 Clouds 16 1019 55 10000 3.1 90 15:24 19.03.2020
1114 Clouds 16 1020 51 10000 2.6 70 14:43 19.03.2020
1115 Clouds 16 1020 51 10000 2.6 70 14:23 19.03.2020
1116 Clouds 16 1020 55 10000 4.1 110 13:59 19.03.2020
1117 Clouds 15 1021 54 10000 3.1 110 13:38 19.03.2020
1118 Clouds 15 1021 54 10000 3.1 0 13:18 19.03.2020
1119 Clouds 14 1022 58 10000 3.6 100 12:42 19.03.2020
1120 Clouds 14 1022 58 10000 3.1 90 12:24 19.03.2020
1121 Clouds 14 1022 58 10000 3.1 90 11:58 19.03.2020
1122 Clouds 13 1022 62 10000 4.1 90 11:40 19.03.2020
1123 Clouds 12 1022 62 10000 3.1 90 11:22 19.03.2020
1124 Clouds 12 1022 66 10000 3.6 90 10:43 19.03.2020
1125 Clouds 11 1022 66 10000 2.6 100 10:22 19.03.2020
1126 Clouds 11 1022 66 10000 2.6 100 09:58 19.03.2020
1127 Clouds 10 1022 66 10000 3.1 100 09:39 19.03.2020
1128 Clouds 10 1022 66 10000 3.1 100 09:19 19.03.2020
1129 Clouds 10 1022 76 10000 1.5 70 08:46 19.03.2020
1130 Clouds 10 1022 66 10000 1 0 08:22 19.03.2020
1131 Clouds 10 1022 76 10000 1 0 07:47 19.03.2020
1132 Clouds 10 1022 76 10000 1 0 07:29 19.03.2020
1133 Clouds 10 1022 76 10000 0.5 290 06:51 19.03.2020
1134 Clouds 10 1022 87 10000 0.5 0 05:52 19.03.2020
1135 Clouds 10 1022 76 10000 0.5 0 05:22 19.03.2020
1136 Clouds 10 1022 81 10000 1 180 04:41 19.03.2020
1137 Clouds 10 1023 81 10000 0.5 210 03:36 19.03.2020
1138 Clouds 11 1023 81 10000 1.5 150 01:45 19.03.2020
1139 Clouds 12 1024 76 10000 1 180 00:38 19.03.2020
1140 Clouds 12 1024 81 10000 1.26 219 23:58 18.03.2020
1141 Clouds 12 1024 81 10000 0.5 0 23:39 18.03.2020
1142 Clouds 12 1024 71 10000 0.5 160 23:18 18.03.2020
1143 Clouds 12 1024 71 10000 0.5 130 22:42 18.03.2020
1144 Clouds 13 1024 71 10000 0.5 130 22:22 18.03.2020
1145 Clouds 13 1024 71 10000 2.7 160 21:54 18.03.2020
1146 Clouds 13 1024 71 10000 2.7 160 21:36 18.03.2020
1147 Clouds 13 1023 71 10000 0.5 140 21:18 18.03.2020
1148 Clouds 13 1023 71 10000 0.5 140 20:54 18.03.2020
1149 Clouds 14 1023 67 10000 1 140 20:36 18.03.2020
1150 Clouds 14 1023 62 10000 1 150 20:18 18.03.2020
1151 Clouds 15 1023 62 10000 0.5 0 19:40 18.03.2020
1152 Clouds 15 1023 62 10000 1.5 100 19:21 18.03.2020
1153 Clouds 15 1023 62 10000 1.5 100 18:56 18.03.2020
1154 Clouds 16 1023 59 10000 1.5 100 18:37 18.03.2020
1155 Clouds 16 1023 63 10000 1 0 18:18 18.03.2020
1156 Clouds 16 1023 59 10000 1.5 130 17:54 18.03.2020
1157 Clouds 16 1023 59 10000 1.5 130 17:36 18.03.2020
1158 Clouds 16 1024 59 10000 2.1 0 17:18 18.03.2020
1159 Clouds 16 1024 59 10000 2.1 110 16:42 18.03.2020
1160 Clouds 16 1024 59 10000 2.1 110 16:20 18.03.2020
1161 Clouds 16 1024 59 10000 2.1 120 15:56 18.03.2020
1162 Clouds 16 1024 55 10000 2.1 0 15:37 18.03.2020
1163 Clouds 16 1025 59 10000 1.5 130 15:19 18.03.2020
1164 Clouds 16 1025 55 10000 1 80 14:42 18.03.2020
1165 Clear 16 1025 55 10000 1 0 14:21 18.03.2020
1166 Clear 15 1026 58 10000 2.1 0 13:41 18.03.2020
1167 Clear 15 1026 58 10000 1 0 13:19 18.03.2020
1168 Clear 15 1026 58 10000 1 0 12:54 18.03.2020
1169 Clear 14 1026 62 10000 0.5 0 12:36 18.03.2020
1170 Clear 14 1027 62 10000 1 0 12:18 18.03.2020
1171 Clear 14 1027 62 10000 1 0 12:18 18.03.2020
1172 Clear 13 1026 66 10000 1 30 11:38 18.03.2020
1173 Clear 12 1027 76 10000 0.5 40 11:19 18.03.2020
1174 Clear 12 1027 76 10000 0.5 40 10:56 18.03.2020
1175 Clear 12 1027 76 10000 4.01 49 10:37 18.03.2020
1176 Clear 11 1027 76 10000 4.01 49 10:18 18.03.2020
1177 Clear 11 1027 76 10000 4.01 49 10:18 18.03.2020
1178 Clear 11 1027 76 10000 4.01 49 10:18 18.03.2020
1179 Clear 10 1026 87 10000 0.5 0 09:42 18.03.2020
1180 Clear 10 1026 87 10000 0.5 0 09:23 18.03.2020
1181 Clear 9 1026 87 10000 4.01 49 08:55 18.03.2020
1182 Clear 10 1026 87 10000 4.01 49 08:55 18.03.2020
1183 Clear 9 1026 87 10000 1.5 330 08:36 18.03.2020
1184 Clouds 9 1026 93 10000 0.5 360 08:18 18.03.2020
1185 Clouds 9 1026 87 10000 1 0 07:40 18.03.2020
1186 Clouds 9 1026 93 10000 1 340 07:22 18.03.2020
1187 Clouds 9 1026 93 10000 0.5 360 06:42 18.03.2020
1188 Clouds 9 1026 87 10000 2.73 43 05:47 18.03.2020
1189 Clouds 10 1026 81 10000 1 0 05:18 18.03.2020
1190 Clouds 10 1026 81 10000 2.6 10 03:53 18.03.2020
1191 Clouds 10 1026 81 10000 3.1 330 02:37 18.03.2020
1192 Clouds 10 1026 81 10000 3.6 320 02:37 18.03.2020
1193 Clouds 10 1027 81 10000 4.1 330 01:46 18.03.2020
1194 Clouds 10 1027 87 10000 2.6 330 01:20 18.03.2020
1195 Clouds 10 1027 81 10000 1.5 340 00:23 18.03.2020
1196 Clouds 11 1027 87 10000 2.6 360 23:43 17.03.2020
1197 Clouds 11 1027 81 10000 2.6 350 23:23 17.03.2020
1198 Clouds 11 1027 81 10000 3.1 340 22:47 17.03.2020
1199 Clouds 12 1027 81 10000 3.1 340 22:28 17.03.2020
1200 Clouds 12 1026 71 10000 2.1 40 21:57 17.03.2020
1201 Clouds 12 1026 71 10000 3.1 50 21:37 17.03.2020
1202 Clouds 13 1026 71 10000 2.6 50 21:19 17.03.2020
1203 Clouds 14 1025 62 10000 2.1 70 20:38 17.03.2020
1204 Clouds 14 1025 62 10000 3.6 70 20:20 17.03.2020
1205 Clouds 14 1025 62 10000 3.6 70 19:54 17.03.2020
1206 Clouds 14 1025 62 10000 3.1 80 19:36 17.03.2020
1207 Clouds 14 1024 62 10000 3.6 60 19:18 17.03.2020
1208 Clouds 15 1024 62 10000 3.6 60 18:54 17.03.2020
1209 Clouds 15 1024 63 10000 4.1 60 18:36 17.03.2020
1210 Clouds 15 1024 63 10000 4.1 60 18:36 17.03.2020
1211 Clouds 15 1024 59 10000 5.1 80 18:18 17.03.2020
1212 Clouds 16 1024 59 10000 6.7 90 17:39 17.03.2020
1213 Clouds 15 1023 59 10000 6.2 100 17:20 17.03.2020
1214 Clouds 16 1024 63 10000 4.6 80 16:44 17.03.2020
1215 Clouds 16 1024 63 10000 4.6 80 16:20 17.03.2020
1216 Clouds 16 1023 55 10000 5.1 70 15:56 17.03.2020
1217 Clouds 16 1023 63 10000 4.1 70 15:38 17.03.2020
1218 Clouds 15 1024 62 10000 4.1 60 15:18 17.03.2020
1219 Clouds 15 1024 62 10000 3.6 70 14:41 17.03.2020
1220 Clouds 14 1024 71 10000 4.1 60 14:18 17.03.2020
1221 Clouds 13 1024 71 10000 3.6 60 13:41 17.03.2020
1222 Clouds 13 1024 71 10000 3.6 60 13:22 17.03.2020
1223 Clouds 12 1024 76 10000 3.1 60 12:48 17.03.2020
1224 Clouds 12 1024 81 10000 1.5 20 12:26 17.03.2020
1225 Clouds 11 1024 81 10000 1.5 20 11:59 17.03.2020
1226 Clouds 10 1024 93 10000 1.5 360 11:39 17.03.2020
1227 Clouds 10 1024 93 10000 1.5 360 11:39 17.03.2020
1228 Clouds 9 1024 87 10000 8.7 70 11:21 17.03.2020
1229 Clouds 8 1024 93 10000 0.5 0 10:55 17.03.2020
1230 Clouds 8 1024 93 10000 0.5 0 10:36 17.03.2020
1231 Clouds 8 1024 93 8000 0.5 0 10:18 17.03.2020
1232 Rain 7 1023 87 6000 1.5 60 09:45 17.03.2020
1233 Rain 7 1023 93 8000 2.6 60 09:20 17.03.2020
1234 Rain 7 1023 93 8000 2.6 60 08:58 17.03.2020
1235 Rain 7 1022 93 10000 2.1 50 08:40 17.03.2020
1236 Rain 6 1022 100 10000 2.6 40 08:18 17.03.2020
1237 Rain 6 1021 93 9000 2.1 40 07:49 17.03.2020
1238 Rain 6 1021 93 10000 4.1 330 07:21 17.03.2020
1239 Clouds 6 1021 93 10000 3.1 310 06:49 17.03.2020
1240 Clouds 6 1020 93 10000 2.6 330 06:25 17.03.2020
1241 Clouds 5 1020 93 10000 3.6 340 05:26 17.03.2020
1242 Clouds 5 1020 81 10000 2.6 10 03:34 17.03.2020
1243 Clouds 5 1019 81 10000 2.6 20 02:31 17.03.2020
1244 Rain 5 1019 86 10000 2.1 50 01:38 17.03.2020
1245 Rain 6 1019 93 10000 2.1 360 00:53 17.03.2020
1246 Clouds 6 1018 87 10000 1 0 00:19 17.03.2020
1247 Clouds 5 1018 87 10000 1 0 23:38 16.03.2020
1248 Clouds 5 1018 93 10000 0.5 0 23:19 16.03.2020
1249 Clouds 5 1017 86 10000 1 0 22:38 16.03.2020
1250 Clouds 5 1017 86 10000 1 0 22:20 16.03.2020
1251 Clouds 5 1016 86 10000 2.1 350 21:45 16.03.2020
1252 Clouds 5 1016 86 10000 2.1 350 21:26 16.03.2020
1253 Clouds 5 1016 81 10000 3.1 30 20:59 16.03.2020
1254 Clouds 5 1015 81 10000 2.1 30 20:39 16.03.2020
1255 Clouds 5 1014 81 10000 3.1 10 20:20 16.03.2020
1256 Clouds 5 1014 75 10000 3.6 50 19:46 16.03.2020
1257 Rain 5 1014 75 10000 3.6 50 19:24 16.03.2020
1258 Rain 6 1015 93 5000 7.2 60 18:59 16.03.2020
1259 Rain 6 1014 81 10000 2.6 60 18:39 16.03.2020
1260 Rain 6 1013 81 10000 4.6 110 18:20 16.03.2020
1261 Rain 6 1013 65 10000 7.7 70 17:46 16.03.2020
1262 Rain 6 1012 75 10000 4.6 50 17:25 16.03.2020
1263 Rain 7 1013 87 10000 3.1 60 16:57 16.03.2020
1264 Rain 7 1013 87 10000 3.1 60 16:39 16.03.2020
1265 Rain 7 1013 87 10000 3.1 60 16:39 16.03.2020
1266 Clouds 7 1012 61 10000 2.6 350 16:20 16.03.2020
1267 Clouds 6 1012 61 10000 2.6 80 15:43 16.03.2020
1268 Clouds 7 1012 61 10000 2.6 80 15:23 16.03.2020
1269 Clouds 7 1012 61 10000 2.1 90 14:47 16.03.2020
1270 Clouds 7 1012 61 10000 2.1 90 14:20 16.03.2020
1271 Clouds 7 1012 70 10000 2.1 130 13:48 16.03.2020
1272 Clouds 6 1012 70 10000 2.1 130 13:28 16.03.2020
1273 Clouds 6 1012 70 10000 1.5 0 12:58 16.03.2020
1274 Clouds 6 1012 65 10000 3.1 150 12:39 16.03.2020
1275 Clouds 6 1011 66 10000 3.6 180 12:20 16.03.2020
1276 Clouds 5 1011 70 10000 4.1 190 11:43 16.03.2020
1277 Snow 5 1011 93 1200 5.1 90 11:25 16.03.2020
1278 Clouds 5 1010 70 10000 2.1 240 10:45 16.03.2020
1279 Clouds 5 1010 70 10000 2.6 190 10:24 16.03.2020
1280 Clouds 5 1010 70 10000 2.6 190 09:56 16.03.2020
1281 Clouds 5 1009 75 10000 2.1 190 09:37 16.03.2020
1282 Clouds 5 1009 80 10000 3.1 190 09:19 16.03.2020
1283 Clouds 4 1009 80 10000 2.6 200 08:41 16.03.2020
1284 Rain 4 1008 80 10000 2.6 210 08:21 16.03.2020
1285 Rain 4 1008 80 10000 3.1 230 07:42 16.03.2020
1286 Rain 5 1008 80 10000 3.1 230 07:19 16.03.2020
1287 Clouds 5 1008 75 10000 2.6 180 06:29 16.03.2020
1288 Clouds 6 1008 81 10000 3.6 160 05:59 16.03.2020
1289 Drizzle 7 1008 81 10000 3.1 240 04:26 16.03.2020
1290 Rain 10 1009 81 10000 4.1 190 01:46 16.03.2020
1291 Thunderstorm 10 1010 87 7000 7.2 210 00:45 16.03.2020
1292 Thunderstorm 10 1010 87 7000 7.2 210 00:26 16.03.2020
1293 Thunderstorm 11 1010 87 6000 3.6 180 23:40 15.03.2020
1294 Thunderstorm 12 1010 81 6000 3.1 190 23:19 15.03.2020
1295 Thunderstorm 12 1011 76 10000 5.1 180 22:42 15.03.2020
1296 Clouds 12 1011 82 10000 4.6 170 22:21 15.03.2020
1297 Clouds 12 1011 76 10000 5.7 170 21:39 15.03.2020
1298 Clouds 11 1011 76 10000 5.7 170 21:21 15.03.2020
1299 Thunderstorm 12 1010 71 10000 2.6 210 20:58 15.03.2020
1300 Rain 12 1010 76 10000 2.6 220 20:40 15.03.2020
1301 Thunderstorm 13 1010 81 10000 1.5 210 20:19 15.03.2020
1302 Thunderstorm 14 1010 81 10000 1.5 210 19:55 15.03.2020
1303 Thunderstorm 15 1011 71 3000 10.3 260 19:37 15.03.2020
1304 Clouds 17 1010 59 10000 4.1 180 19:18 15.03.2020
1305 Clouds 18 1010 55 10000 4.6 200 18:42 15.03.2020
1306 Clouds 18 1010 55 10000 4.6 200 18:24 15.03.2020
1307 Clouds 18 1011 55 10000 5.1 210 17:58 15.03.2020
1308 Clouds 19 1011 52 10000 6.7 220 17:39 15.03.2020
1309 Clouds 19 1011 52 10000 6.2 230 17:20 15.03.2020
1310 Clouds 19 1011 52 10000 6.2 230 16:55 15.03.2020
1311 Clouds 18 1012 55 10000 6.7 240 16:36 15.03.2020
1312 Clouds 18 1012 55 10000 6.7 240 16:18 15.03.2020
1313 Clouds 19 1012 52 10000 4.1 220 15:41 15.03.2020
1314 Clouds 19 1012 52 10000 4.1 220 15:20 15.03.2020
1315 Clouds 19 1013 55 10000 3.6 220 14:47 15.03.2020
1316 Clouds 19 1013 55 10000 3.6 220 14:26 15.03.2020
1317 Clouds 18 1014 59 10000 1.5 0 13:59 15.03.2020
1318 Clouds 18 1015 59 10000 1.5 0 13:39 15.03.2020
1319 Clouds 17 1015 59 10000 2.6 110 13:21 15.03.2020
1320 Clouds 16 1016 59 10000 2.1 100 12:44 15.03.2020
1321 Clouds 16 1016 59 10000 2.1 100 12:26 15.03.2020
1322 Clouds 15 1016 62 10000 2.1 120 11:59 15.03.2020
1323 Clouds 15 1016 62 10000 2.6 100 11:40 15.03.2020
1324 Clouds 14 1017 67 10000 1.5 110 11:22 15.03.2020
1325 Clouds 14 1017 67 10000 1.5 110 10:56 15.03.2020
1326 Clouds 14 1016 54 10000 1 0 10:37 15.03.2020
1327 Clouds 13 1017 54 10000 0.5 0 10:19 15.03.2020
1328 Clouds 12 1016 58 10000 1 0 09:40 15.03.2020
1329 Clouds 11 1016 57 10000 1 0 09:22 15.03.2020
1330 Clouds 10 1016 61 10000 1.5 360 08:45 15.03.2020
1331 Clouds 10 1016 61 10000 1.5 360 08:21 15.03.2020
1332 Clouds 9 1016 61 10000 1.5 350 07:51 15.03.2020
1333 Clouds 9 1016 61 10000 1.5 350 07:32 15.03.2020
1334 Clouds 9 1016 81 10000 1.5 350 06:54 15.03.2020
1335 Clouds 10 1016 81 10000 1.5 340 06:24 15.03.2020
1336 Clear 10 1016 75 10000 1.5 20 05:21 15.03.2020
1337 Clear 10 1017 70 10000 1 330 04:43 15.03.2020
1338 Clear 10 1017 70 10000 1 330 04:25 15.03.2020
1339 Clear 11 1017 75 10000 1 340 03:54 15.03.2020
1340 Clear 12 1017 66 10000 0.5 0 02:44 15.03.2020
1341 Clear 13 1018 66 10000 1 360 01:35 15.03.2020
1342 Clear 13 1018 66 10000 1 330 00:46 15.03.2020
1343 Clear 13 1018 66 10000 1 330 00:27 15.03.2020
1344 Clear 13 1018 66 10000 1.5 340 23:55 14.03.2020
1345 Clear 14 1018 58 10000 1 0 23:37 14.03.2020
1346 Clear 14 1018 58 10000 1.5 350 23:18 14.03.2020
1347 Clear 15 1017 58 10000 2.1 10 22:44 14.03.2020
1348 Clear 15 1017 58 10000 2.1 10 22:26 14.03.2020
1349 Clouds 15 1017 58 10000 0.36 22 21:57 14.03.2020
1350 Clouds 16 1017 48 10000 1.5 200 21:36 14.03.2020
1351 Clouds 16 1017 45 10000 2.1 200 21:18 14.03.2020
1352 Clouds 17 1017 45 10000 2.1 200 20:59 14.03.2020
1353 Clear 17 1018 52 10000 1.5 190 20:40 14.03.2020
1354 Clear 18 1018 45 10000 2.1 210 20:19 14.03.2020
1355 Clear 19 1017 42 10000 2.6 190 19:44 14.03.2020
1356 Clear 20 1017 42 10000 2.6 190 19:25 14.03.2020
1357 Clear 21 1017 37 10000 1.5 150 18:56 14.03.2020
1358 Clear 21 1017 37 10000 1.5 150 18:37 14.03.2020
1359 Clear 21 1017 40 10000 1.5 150 18:19 14.03.2020
1360 Clear 21 1017 37 10000 1 0 17:39 14.03.2020
1361 Clear 22 1018 40 10000 2.1 0 17:20 14.03.2020
1362 Clear 21 1018 43 10000 1 0 16:41 14.03.2020
1363 Clear 21 1018 43 10000 1 0 16:23 14.03.2020
1364 Clear 21 1018 43 10000 1 0 16:23 14.03.2020
1365 Clear 21 1018 43 10000 1 0 15:59 14.03.2020
1366 Clear 21 1019 46 10000 1.5 0 15:27 14.03.2020
1367 Clear 20 1019 46 10000 1 100 14:59 14.03.2020
1368 Clear 20 1019 45 10000 1.5 0 14:37 14.03.2020
1369 Clear 20 1020 52 10000 2.1 80 14:19 14.03.2020
1370 Clear 19 1020 48 10000 1.5 0 13:44 14.03.2020
1371 Clear 19 1020 52 10000 2.1 70 13:24 14.03.2020
1372 Clear 18 1020 52 10000 2.1 70 12:58 14.03.2020
1373 Clear 17 1021 55 10000 1.5 0 12:38 14.03.2020
1374 Clear 17 1021 52 10000 1 30 12:20 14.03.2020
1375 Clear 16 1021 55 10000 1 0 11:42 14.03.2020
1376 Clear 15 1021 59 10000 1.5 0 11:24 14.03.2020
1377 Clear 14 1021 62 10000 1 0 10:47 14.03.2020
1378 Clear 14 1021 62 10000 1 0 10:28 14.03.2020
1379 Clear 13 1021 67 10000 1 0 09:59 14.03.2020
1380 Clear 13 1020 71 10000 1 0 09:40 14.03.2020
1381 Clear 11 1020 71 10000 1.5 360 09:20 14.03.2020
1382 Clear 10 1020 81 10000 3.59 42 08:46 14.03.2020
1383 Clouds 10 1020 93 10000 1 0 08:26 14.03.2020
1384 Clouds 9 1019 87 10000 2.54 47 07:40 14.03.2020
1385 Clouds 10 1019 81 10000 0.5 0 07:21 14.03.2020
1386 Clouds 10 1019 87 10000 0.5 0 06:45 14.03.2020
1387 Clouds 10 1019 81 10000 1.5 320 06:26 14.03.2020
1388 Clouds 10 1019 81 10000 1.5 340 04:53 14.03.2020
1389 Clouds 12 1019 71 10000 1 0 03:34 14.03.2020
1390 Clouds 12 1019 71 10000 1.5 350 02:43 14.03.2020
1391 Clouds 13 1018 66 10000 2.6 30 01:42 14.03.2020
1392 Clouds 14 1018 58 10000 2.1 10 00:23 14.03.2020
1393 Clouds 15 1018 62 10000 0.5 0 23:42 13.03.2020
1394 Clouds 15 1018 59 10000 1 0 23:22 13.03.2020
1395 Clouds 16 1017 55 10000 1.5 10 22:41 13.03.2020
1396 Clouds 15 1017 51 10000 3.1 360 22:22 13.03.2020
1397 Clouds 16 1016 42 10000 2.1 280 21:40 13.03.2020
1398 Rain 16 1016 40 10000 2.6 270 21:19 13.03.2020
1399 Clouds 18 1016 59 10000 3.1 260 20:42 13.03.2020
1400 Clouds 18 1016 59 10000 3.1 260 20:22 13.03.2020
1401 Clouds 19 1016 51 10000 2.6 240 19:57 13.03.2020
1402 Clouds 19 1016 48 10000 3.6 250 19:39 13.03.2020
1403 Clouds 20 1016 42 10000 3.1 240 19:18 13.03.2020
1404 Clouds 21 1016 40 10000 2.6 210 18:40 13.03.2020
1405 Clouds 21 1016 35 10000 3.1 220 18:22 13.03.2020
1406 Clouds 22 1016 35 10000 3.1 0 17:42 13.03.2020
1407 Clouds 22 1016 37 10000 2.6 170 17:21 13.03.2020
1408 Clouds 22 1016 37 10000 2.6 170 16:56 13.03.2020
1409 Clouds 22 1016 43 10000 2.6 220 16:38 13.03.2020
1410 Clouds 22 1016 40 10000 1.5 160 16:20 13.03.2020
1411 Clouds 22 1016 43 10000 2.1 200 15:43 13.03.2020
1412 Clouds 22 1016 43 10000 2.1 200 15:22 13.03.2020
1413 Clouds 22 1017 46 10000 2.1 0 14:57 13.03.2020
1414 Clouds 22 1017 46 10000 1 230 14:38 13.03.2020
1415 Clouds 21 1017 46 10000 2.1 130 14:18 13.03.2020
1416 Clouds 20 1018 52 10000 1.5 100 13:42 13.03.2020
1417 Clouds 20 1018 46 10000 1 0 13:22 13.03.2020
1418 Clouds 20 1018 46 10000 1 0 12:59 13.03.2020
1419 Clouds 19 1018 55 10000 1.5 0 12:38 13.03.2020
1420 Clouds 19 1018 52 10000 1 60 12:19 13.03.2020
1421 Clouds 17 1018 55 10000 1.5 40 11:55 13.03.2020
1422 Clouds 17 1018 55 10000 1.5 40 11:36 13.03.2020
1423 Clouds 16 1018 59 10000 1.5 30 11:18 13.03.2020
1424 Clouds 15 1018 59 10000 1.5 30 10:46 13.03.2020
1425 Clouds 15 1018 59 10000 1.5 30 10:25 13.03.2020
1426 Clouds 14 1018 67 10000 1.5 60 09:48 13.03.2020
1427 Clouds 13 1018 67 10000 1.5 60 09:28 13.03.2020
1428 Clouds 13 1017 67 10000 1 0 08:59 13.03.2020
1429 Clouds 12 1017 76 10000 0.5 0 08:38 13.03.2020
1430 Clouds 12 1017 76 10000 0.5 0 08:38 13.03.2020
1431 Clouds 11 1017 76 10000 0.5 0 08:20 13.03.2020
1432 Clouds 11 1017 81 10000 0.5 340 07:44 13.03.2020
1433 Clouds 12 1017 81 10000 0.5 330 07:25 13.03.2020
1434 Clouds 12 1014 66 0 1.79 56 06:46 13.03.2020
1435 Clouds 12 1014 66 0 1.34 5 06:46 13.03.2020
1436 Clouds 12 1017 81 10000 1.5 350 06:23 13.03.2020
1437 Clouds 12 1016 81 10000 1 0 05:46 13.03.2020
1438 Clouds 13 1016 76 10000 0.5 0 04:57 13.03.2020
1439 Clouds 13 1017 81 10000 1.5 130 04:26 13.03.2020
1440 Clouds 14 1017 76 10000 1 20 02:58 13.03.2020
1441 Clouds 15 1017 71 10000 1.55 202 01:39 13.03.2020
1442 Clouds 15 1017 71 10000 1.55 202 01:18 13.03.2020
1443 Clouds 15 1017 62 10000 1 360 00:42 13.03.2020
1444 Clouds 16 1017 55 10000 1.5 130 00:19 13.03.2020
1445 Clouds 16 1017 58 10000 0.5 0 23:40 12.03.2020
1446 Clouds 17 1017 55 10000 1.44 212 23:22 12.03.2020
1447 Clouds 17 1018 59 10000 2.6 250 22:47 12.03.2020
1448 Clouds 17 1018 59 10000 2.6 250 22:29 12.03.2020
1449 Clouds 18 1018 55 10000 0.5 0 21:59 12.03.2020
1450 Clouds 19 1018 45 10000 2.1 220 21:40 12.03.2020
1451 Clouds 19 1017 52 10000 1 0 21:21 12.03.2020
1452 Clouds 20 1017 42 10000 0.5 0 20:55 12.03.2020
1453 Clouds 20 1017 42 10000 0.5 0 20:36 12.03.2020
1454 Clouds 20 1017 42 10000 0.5 0 20:18 12.03.2020
1455 Clouds 21 1017 43 10000 1.5 260 19:39 12.03.2020
1456 Clouds 21 1017 38 10000 2.1 290 19:19 12.03.2020
1457 Clouds 22 1017 40 10000 3.6 260 18:42 12.03.2020
1458 Clouds 23 1017 38 10000 1.5 270 18:23 12.03.2020
1459 Clouds 23 1017 38 10000 1.5 270 17:56 12.03.2020
1460 Clouds 24 1017 38 10000 2.6 230 17:37 12.03.2020
1461 Clouds 24 1017 33 10000 2.6 210 17:18 12.03.2020
1462 Clouds 24 1018 31 10000 2.6 240 16:43 12.03.2020
1463 Clouds 24 1018 31 10000 2.6 240 16:23 12.03.2020
1464 Clouds 24 1018 29 10000 1.5 250 15:59 12.03.2020
1465 Clouds 23 1019 35 10000 1.5 180 15:39 12.03.2020
1466 Clouds 23 1019 36 10000 0.5 0 15:21 12.03.2020
1467 Clouds 23 1020 43 10000 1.5 160 14:38 12.03.2020
1468 Clouds 22 1020 35 10000 0.5 0 14:19 12.03.2020
1469 Clouds 22 1021 40 10000 1.5 0 13:40 12.03.2020
1470 Clouds 21 1021 37 10000 1 0 13:21 12.03.2020
1471 Clouds 21 1021 45 10000 1 280 12:55 12.03.2020
1472 Clouds 21 1021 42 10000 1 0 12:37 12.03.2020
1473 Clouds 20 1021 45 10000 1.5 40 12:18 12.03.2020
1474 Clouds 19 1021 45 10000 1.5 40 11:56 12.03.2020
1475 Clouds 19 1021 55 10000 1.5 50 11:37 12.03.2020
1476 Clouds 18 1022 52 10000 1 0 11:19 12.03.2020
1477 Clouds 17 1022 52 10000 1 0 10:55 12.03.2020
1478 Clouds 17 1022 52 10000 1 0 10:55 12.03.2020
1479 Clouds 16 1021 63 10000 1.5 40 10:37 12.03.2020
1480 Clouds 15 1021 67 10000 1 0 10:18 12.03.2020
1481 Clouds 14 1021 71 10000 1 0 09:42 12.03.2020
1482 Clouds 14 1021 71 10000 1 0 09:23 12.03.2020
1483 Clouds 12 1021 76 10000 0.5 0 08:40 12.03.2020
1484 Clouds 12 1021 76 10000 0.5 0 08:19 12.03.2020
1485 Clouds 13 1021 76 10000 2.23 40 07:52 12.03.2020
1486 Clouds 12 1021 87 10000 2.1 360 07:23 12.03.2020
1487 Clouds 12 1021 87 10000 2.1 340 06:38 12.03.2020
1488 Clouds 12 1021 87 10000 1 350 05:40 12.03.2020
1489 Clouds 12 1022 87 10000 1.5 320 03:54 12.03.2020
1490 Clouds 13 1022 81 10000 1.5 10 02:21 12.03.2020
1491 Clouds 14 1023 76 10000 1.5 340 01:29 12.03.2020
1492 Clouds 15 1023 71 10000 1.5 340 00:42 12.03.2020
1493 Clouds 16 1023 67 10000 1.5 360 23:59 11.03.2020
1494 Clouds 16 1023 71 10000 0.5 0 23:37 11.03.2020
1495 Clouds 16 1022 67 10000 0.65 184 23:18 11.03.2020
1496 Clouds 17 1022 55 10000 1.5 140 22:42 11.03.2020
1497 Clouds 17 1022 55 10000 1.5 140 22:23 11.03.2020
1498 Clouds 17 1023 55 10000 1 110 21:58 11.03.2020
1499 Clouds 18 1023 55 10000 1 110 21:40 11.03.2020
1500 Clouds 18 1023 59 10000 0.65 184 21:22 11.03.2020
1501 Clouds 18 1023 59 10000 0.65 184 20:57 11.03.2020
1502 Clouds 19 1023 49 10000 1 0 20:37 11.03.2020
1503 Clouds 20 1023 49 10000 1 0 20:19 11.03.2020
1504 Clouds 21 1023 43 10000 1 0 19:42 11.03.2020
1505 Clouds 22 1023 40 10000 2.1 180 19:24 11.03.2020
1506 Clouds 22 1023 40 10000 2.1 180 18:57 11.03.2020
1507 Clouds 23 1023 40 10000 2.6 200 18:38 11.03.2020
1508 Clouds 23 1023 40 10000 2.6 200 18:38 11.03.2020
1509 Clouds 23 1023 38 10000 2.6 200 18:19 11.03.2020
1510 Clouds 23 1023 38 10000 2.6 200 17:55 11.03.2020
1511 Clouds 23 1023 41 10000 2.1 190 17:37 11.03.2020
1512 Clouds 23 1023 36 10000 2.6 180 17:19 11.03.2020
1513 Clouds 24 1023 36 10000 2.1 180 16:44 11.03.2020
1514 Clouds 24 1023 36 10000 2.1 180 16:20 11.03.2020
1515 Clouds 24 1024 33 10000 1.5 0 15:44 11.03.2020
1516 Clouds 23 1024 36 10000 1 0 15:23 11.03.2020
1517 Clouds 23 1024 36 10000 1 0 14:56 11.03.2020
1518 Clouds 23 1025 40 10000 1 0 14:38 11.03.2020
1519 Clouds 22 1025 43 10000 1 0 14:19 11.03.2020
1520 Clouds 21 1025 43 10000 1 110 13:44 11.03.2020
1521 Clear 21 1025 43 10000 1 110 13:25 11.03.2020
1522 Clear 20 1026 45 10000 1.5 90 12:57 11.03.2020
1523 Clear 19 1026 48 10000 1 0 12:39 11.03.2020
1524 Clear 19 1026 51 10000 2.1 100 12:19 11.03.2020
1525 Clear 17 1026 55 10000 1.5 70 11:41 11.03.2020
1526 Clear 16 1026 55 10000 1.5 70 11:22 11.03.2020
1527 Clear 15 1026 58 10000 1.5 70 10:49 11.03.2020
1528 Clear 15 1026 66 10000 1 0 10:21 11.03.2020
1529 Clear 14 1026 58 10000 1 0 10:00 11.03.2020
1530 Clear 14 1026 66 10000 1 0 09:41 11.03.2020
1531 Clear 12 1025 62 10000 1.14 60 09:22 11.03.2020
1532 Clear 13 1026 66 10000 1 0 09:22 11.03.2020
1533 Clouds 10 1025 81 10000 0.5 360 08:44 11.03.2020
1534 Clear 10 1025 81 10000 0.5 360 08:26 11.03.2020
1535 Clear 9 1025 87 10000 0.5 0 07:48 11.03.2020
1536 Clear 9 1025 87 10000 0.5 0 07:22 11.03.2020
1537 Clear 9 1025 87 10000 1.5 360 06:53 11.03.2020
1538 Clear 10 1025 87 10000 1 350 06:35 11.03.2020
1539 Clear 10 1025 87 10000 0.92 63 05:33 11.03.2020
1540 Clear 11 1025 87 10000 0.5 340 03:34 11.03.2020
1541 Clear 12 1026 76 10000 0.5 330 01:56 11.03.2020
1542 Clear 13 1026 66 10000 1 30 01:25 11.03.2020
1543 Clear 13 1026 62 10000 1.5 150 00:45 11.03.2020
1544 Clear 13 1026 58 10000 1.5 120 23:50 10.03.2020
1545 Clear 14 1026 58 10000 1.37 202 23:29 10.03.2020
1546 Clear 14 1025 54 10000 1.37 202 22:59 10.03.2020
1547 Clear 15 1025 54 10000 1.37 202 22:38 10.03.2020
1548 Clear 15 1025 54 10000 0.5 120 22:19 10.03.2020
1549 Clear 16 1025 54 10000 0.5 120 21:56 10.03.2020
1550 Clear 16 1025 45 10000 1.5 160 21:38 10.03.2020
1551 Clear 16 1026 48 10000 1.5 220 21:19 10.03.2020
1552 Clear 17 1026 48 10000 1.5 220 20:56 10.03.2020
1553 Clear 17 1026 48 10000 2.1 250 20:38 10.03.2020
1554 Clouds 18 1026 48 10000 2.1 250 20:18 10.03.2020
1555 Clouds 18 1025 51 10000 2.1 230 19:55 10.03.2020
1556 Clouds 19 1025 40 10000 2.6 220 19:36 10.03.2020
1557 Clouds 20 1025 37 10000 3.1 230 19:18 10.03.2020
1558 Clouds 21 1025 35 10000 4.6 220 18:42 10.03.2020
1559 Clouds 21 1025 33 10000 3.6 230 18:23 10.03.2020
1560 Clouds 21 1025 33 10000 3.6 230 17:56 10.03.2020
1561 Clouds 22 1025 35 10000 2.6 190 17:38 10.03.2020
1562 Clouds 21 1026 35 10000 2.6 190 17:20 10.03.2020
1563 Clouds 21 1026 37 10000 2.6 270 16:38 10.03.2020
1564 Clouds 21 1026 37 10000 2.6 240 16:18 10.03.2020
1565 Clouds 20 1026 37 10000 2.1 190 15:44 10.03.2020
1566 Clouds 20 1027 35 10000 1.5 170 15:20 10.03.2020
1567 Clouds 20 1027 35 10000 1.5 170 14:59 10.03.2020
1568 Clouds 19 1027 37 10000 1.5 170 14:40 10.03.2020
1569 Clouds 18 1028 39 10000 1 170 14:19 10.03.2020
1570 Clouds 18 1028 36 10000 1.5 0 13:45 10.03.2020
1571 Clouds 18 1028 36 10000 1.5 0 13:45 10.03.2020
1572 Clouds 17 1028 39 10000 0.71 267 13:27 10.03.2020
1573 Clouds 17 1028 39 10000 0.99 244 12:59 10.03.2020
1574 Clouds 16 1028 39 10000 1 0 12:39 10.03.2020
1575 Clouds 16 1028 44 10000 1 0 12:18 10.03.2020
1576 Clouds 15 1028 44 10000 1.5 170 11:43 10.03.2020
1577 Clouds 13 1028 41 10000 1.55 46 11:24 10.03.2020
1578 Clouds 12 1028 46 10000 0.5 170 10:58 10.03.2020
1579 Clouds 12 1028 53 10000 1 170 10:40 10.03.2020
1580 Clouds 12 1028 53 10000 1 170 10:21 10.03.2020
1581 Clouds 10 1028 53 10000 1 0 09:56 10.03.2020
1582 Clouds 10 1027 61 10000 1 0 09:37 10.03.2020
1583 Clouds 9 1027 70 10000 1.5 160 09:18 10.03.2020
1584 Clouds 8 1027 65 10000 1.55 46 08:43 10.03.2020
1585 Clouds 7 1027 65 10000 0.71 89 08:25 10.03.2020
1586 Clouds 7 1027 65 10000 1.5 350 07:46 10.03.2020
1587 Clouds 7 1027 65 10000 1.5 350 07:28 10.03.2020
1588 Clouds 7 1026 80 10000 1.5 10 06:42 10.03.2020
1589 Clouds 7 1026 80 10000 1.5 10 06:23 10.03.2020
1590 Clouds 8 1026 80 10000 1 360 05:38 10.03.2020
1591 Clouds 8 1026 54 10000 1.66 45 04:34 10.03.2020
1592 Clouds 9 1026 54 10000 1.66 45 03:34 10.03.2020
1593 Clouds 9 1026 52 10000 0.5 20 01:55 10.03.2020
1594 Clouds 9 1026 65 10000 1 40 00:53 10.03.2020
1595 Clouds 9 1026 52 10000 0.5 0 00:30 10.03.2020
1596 Clouds 11 1026 52 10000 0.5 0 23:56 09.03.2020
1597 Clouds 11 1026 52 10000 0.5 0 23:37 09.03.2020
1598 Clouds 11 1026 53 10000 1.71 20 23:19 09.03.2020
1599 Clouds 12 1026 53 10000 2.6 340 22:40 09.03.2020
1600 Clouds 12 1026 53 10000 2.6 340 22:21 09.03.2020
1601 Clouds 12 1026 46 10000 3.1 340 21:57 09.03.2020
1602 Clouds 12 1026 47 10000 4.6 360 21:38 09.03.2020
1603 Clouds 12 1026 47 10000 4.6 360 21:20 09.03.2020
1604 Clouds 12 1025 47 10000 3.1 10 20:55 09.03.2020
1605 Clouds 13 1026 43 10000 4.1 300 20:36 09.03.2020
1606 Clouds 13 1025 41 10000 5.1 280 20:18 09.03.2020
1607 Clouds 14 1025 38 10000 5.1 290 19:42 09.03.2020
1608 Clouds 14 1025 38 10000 4.6 290 19:20 09.03.2020
1609 Clouds 15 1025 38 10000 4.6 290 18:57 09.03.2020
1610 Clouds 16 1025 36 10000 5.1 290 18:38 09.03.2020
1611 Clouds 16 1025 33 10000 4.1 300 18:19 09.03.2020
1612 Clouds 17 1025 36 10000 6.2 290 17:56 09.03.2020
1613 Clouds 17 1025 36 10000 6.2 290 17:37 09.03.2020
1614 Clouds 17 1024 31 10000 2.6 220 17:19 09.03.2020
1615 Clouds 17 1024 31 10000 2.6 220 16:57 09.03.2020
1616 Clouds 17 1025 33 10000 3.6 290 16:39 09.03.2020
1617 Clouds 17 1025 25 10000 2.1 0 16:20 09.03.2020
1618 Clouds 17 1025 25 10000 2.1 0 15:57 09.03.2020
1619 Clouds 16 1025 36 10000 2.1 310 15:38 09.03.2020
1620 Clouds 16 1025 36 10000 2.1 310 15:19 09.03.2020
1621 Clouds 16 1026 38 10000 3.6 0 14:41 09.03.2020
1622 Clouds 15 1026 38 10000 3.6 0 14:23 09.03.2020
1623 Clouds 14 1026 44 10000 3.1 280 13:59 09.03.2020
1624 Clouds 15 1026 44 10000 3.1 280 13:40 09.03.2020
1625 Clouds 15 1026 44 10000 3.1 280 13:40 09.03.2020
1626 Clouds 14 1027 44 10000 1.5 0 13:21 09.03.2020
1627 Clouds 14 1027 47 10000 1.5 0 12:59 09.03.2020
1628 Clouds 13 1027 47 10000 2.1 0 12:40 09.03.2020
1629 Clouds 13 1027 47 10000 2.1 0 12:20 09.03.2020
1630 Clouds 12 1027 54 10000 3.1 300 11:41 09.03.2020
1631 Clouds 11 1027 54 10000 3.1 300 11:21 09.03.2020
1632 Clouds 11 1027 54 10000 3.6 300 10:58 09.03.2020
1633 Clouds 11 1027 54 10000 3.6 300 10:40 09.03.2020
1634 Clouds 10 1027 57 10000 3.6 320 10:20 09.03.2020
1635 Clouds 9 1026 66 10000 4.6 300 09:44 09.03.2020
1636 Clouds 8 1026 66 10000 4.6 300 09:24 09.03.2020
1637 Clouds 7 1025 70 10000 3.6 300 08:59 09.03.2020
1638 Clouds 7 1025 65 10000 3.6 290 08:39 09.03.2020
1639 Clouds 7 1025 65 10000 3.6 290 08:21 09.03.2020
1640 Clouds 7 1024 66 10000 5.7 290 07:39 09.03.2020
1641 Clouds 7 1024 66 10000 5.7 290 07:21 09.03.2020
1642 Clouds 7 1024 66 10000 5.7 280 06:43 09.03.2020
1643 Clouds 8 1024 66 10000 5.7 280 06:23 09.03.2020
1644 Clouds 8 1024 61 10000 6.2 270 05:46 09.03.2020
1645 Clouds 9 1024 61 10000 5.1 290 05:00 09.03.2020
1646 Clouds 9 1024 61 10000 5.1 290 04:40 09.03.2020
1647 Clouds 9 1024 61 10000 5.1 280 04:21 09.03.2020
1648 Clouds 10 1025 66 10000 2.6 290 02:58 09.03.2020
1649 Clear 10 1025 66 10000 2.6 270 00:46 09.03.2020
1650 Clear 11 1025 62 10000 4.6 290 00:28 09.03.2020
1651 Clear 11 1025 58 10000 5.1 270 00:00 09.03.2020
1652 Clear 11 1025 58 10000 6.7 270 23:41 08.03.2020
1653 Clouds 11 1025 58 10000 6.7 270 23:21 08.03.2020
1654 Clouds 11 1025 58 10000 6.7 270 23:21 08.03.2020
1655 Clouds 11 1025 58 10000 5.1 320 22:55 08.03.2020
1656 Clouds 11 1024 58 10000 5.1 280 22:37 08.03.2020
1657 Clouds 11 1024 58 10000 5.1 280 22:18 08.03.2020
1658 Clouds 12 1024 54 10000 6.2 290 21:42 08.03.2020
1659 Clouds 12 1024 54 10000 6.2 290 21:42 08.03.2020
1660 Clouds 12 1024 54 10000 6.2 290 21:23 08.03.2020
1661 Clouds 13 1024 54 10000 5.1 280 20:59 08.03.2020
1662 Clouds 13 1024 58 10000 3.1 240 20:39 08.03.2020
1663 Clouds 13 1024 58 10000 3.1 240 20:39 08.03.2020
1664 Clouds 13 1024 58 10000 3.1 240 20:20 08.03.2020
1665 Clouds 14 1024 54 10000 5.1 260 19:41 08.03.2020
1666 Clouds 14 1024 58 10000 3.1 250 19:21 08.03.2020
1667 Clouds 14 1024 58 10000 3.1 250 18:59 08.03.2020
1668 Clouds 14 1024 58 10000 3.1 250 18:40 08.03.2020
1669 Clouds 15 1024 54 10000 3.1 240 18:21 08.03.2020
1670 Clouds 15 1024 54 10000 5.1 240 17:55 08.03.2020
1671 Clouds 15 1024 51 10000 4.6 240 17:37 08.03.2020
1672 Clouds 15 1024 51 10000 4.6 240 17:18 08.03.2020
1673 Clouds 15 1024 51 10000 3.6 240 16:42 08.03.2020
1674 Clouds 15 1024 51 10000 3.6 240 16:23 08.03.2020
1675 Clouds 15 1024 51 10000 3.1 260 15:55 08.03.2020
1676 Clouds 15 1025 44 10000 3.6 240 15:37 08.03.2020
1677 Clouds 15 1025 44 10000 3.6 240 15:18 08.03.2020
1678 Clouds 15 1025 51 10000 2.6 250 14:40 08.03.2020
1679 Clouds 14 1025 51 10000 2.6 250 14:21 08.03.2020
1680 Clouds 14 1026 44 10000 2.6 230 13:56 08.03.2020
1681 Clouds 14 1026 44 10000 2.6 230 13:56 08.03.2020
1682 Clouds 13 1026 47 10000 1.5 0 13:37 08.03.2020
1683 Clouds 13 1026 50 10000 1.5 150 13:18 08.03.2020
1684 Clouds 12 1026 50 10000 1.5 180 12:38 08.03.2020
1685 Clouds 12 1026 54 10000 1 0 12:19 08.03.2020
1686 Clouds 11 1026 57 10000 1 190 11:44 08.03.2020
1687 Clouds 10 1027 61 10000 1 0 11:24 08.03.2020
1688 Clear 9 1026 70 10000 1 0 10:59 08.03.2020
1689 Clear 8 1026 70 10000 1 0 10:40 08.03.2020
1690 Clear 7 1026 70 10000 1 0 10:22 08.03.2020
1691 Clear 6 1026 75 10000 0.5 0 09:40 08.03.2020
1692 Clear 6 1026 75 10000 0.5 0 09:22 08.03.2020
1693 Clear 4 1025 80 10000 0.5 0 08:49 08.03.2020
1694 Clear 4 1025 86 10000 1 0 08:25 08.03.2020
1695 Clear 3 1025 86 10000 1 0 07:51 08.03.2020
1696 Clear 2 1025 92 10000 1.5 350 07:29 08.03.2020
1697 Clear 3 1025 76 10000 1 360 06:58 08.03.2020
1698 Clear 3 1025 76 10000 1 350 06:37 08.03.2020
1699 Clear 3 1025 76 10000 1 350 06:18 08.03.2020
1700 Clouds 4 1025 75 10000 1 360 05:18 08.03.2020
1701 Clouds 4 1025 75 10000 1.5 330 03:50 08.03.2020
1702 Clouds 5 1025 86 10000 1 330 02:28 08.03.2020
1703 Clouds 6 1026 70 10000 1.5 360 01:22 08.03.2020
1704 Clouds 7 1026 70 10000 0.5 320 00:44 08.03.2020
1705 Clouds 7 1026 70 10000 0.5 320 00:25 08.03.2020
1706 Clouds 8 1026 65 10000 0.5 0 23:44 07.03.2020
1707 Clouds 8 1026 65 10000 1.5 150 23:23 07.03.2020
1708 Clouds 9 1026 65 10000 1 340 22:40 07.03.2020
1709 Clouds 8 1026 65 10000 1 340 22:21 07.03.2020
1710 Clouds 9 1026 57 10000 1.5 20 21:49 07.03.2020
1711 Clouds 9 1026 61 10000 2.1 350 21:25 07.03.2020
1712 Clouds 11 1025 58 10000 2.6 190 20:42 07.03.2020
1713 Clouds 12 1025 58 10000 2.6 190 20:24 07.03.2020
1714 Clouds 12 1025 58 10000 2.6 190 20:24 07.03.2020
1715 Clouds 12 1025 54 10000 3.1 210 19:59 07.03.2020
1716 Clouds 13 1025 58 10000 2.6 240 19:40 07.03.2020
1717 Clouds 13 1025 58 10000 2.6 240 19:20 07.03.2020
1718 Clouds 15 1024 44 10000 2.1 270 18:43 07.03.2020
1719 Clouds 15 1024 44 10000 2.1 270 18:24 07.03.2020
1720 Clouds 15 1025 41 10000 2.6 260 17:56 07.03.2020
1721 Clouds 15 1025 44 10000 2.6 250 17:38 07.03.2020
1722 Clouds 15 1025 44 10000 2.6 250 17:18 07.03.2020
1723 Clouds 15 1025 44 10000 3.1 240 16:43 07.03.2020
1724 Clouds 15 1025 41 10000 1 0 16:23 07.03.2020
1725 Clouds 15 1025 44 10000 2.1 220 15:58 07.03.2020
1726 Clouds 15 1025 44 10000 2.1 220 15:40 07.03.2020
1727 Clouds 15 1025 44 10000 2.1 220 15:40 07.03.2020
1728 Clouds 14 1025 47 10000 1.5 0 15:21 07.03.2020
1729 Clouds 14 1025 44 10000 1 0 14:57 07.03.2020
1730 Clouds 14 1026 47 10000 1.5 230 14:39 07.03.2020
1731 Clouds 13 1026 47 10000 1.5 230 14:21 07.03.2020
1732 Clouds 13 1026 44 10000 1 0 13:40 07.03.2020
1733 Clouds 13 1027 47 10000 1.5 0 13:21 07.03.2020
1734 Clouds 12 1027 50 10000 1.5 290 12:44 07.03.2020
1735 Clouds 12 1027 50 10000 1 0 12:23 07.03.2020
1736 Clouds 11 1027 53 10000 4.1 260 11:59 07.03.2020
1737 Clouds 10 1027 57 10000 4.1 270 11:40 07.03.2020
1738 Clouds 9 1027 57 10000 4.1 270 11:22 07.03.2020
1739 Clouds 9 1027 57 10000 4.1 270 11:22 07.03.2020
1740 Clouds 9 1027 57 10000 5.7 270 10:42 07.03.2020
1741 Clouds 8 1026 61 10000 5.1 270 10:22 07.03.2020
1742 Clouds 7 1026 65 10000 5.7 260 09:58 07.03.2020
1743 Clouds 6 1026 65 10000 5.1 270 09:40 07.03.2020
1744 Clouds 6 1026 65 10000 5.1 270 09:19 07.03.2020
1745 Clouds 5 1026 55 10000 4.1 270 08:44 07.03.2020
1746 Clouds 5 1026 55 10000 4.1 270 08:44 07.03.2020
1747 Clouds 4 1026 69 10000 4.1 270 08:25 07.03.2020
1748 Clouds 4 1025 64 10000 4.6 270 07:59 07.03.2020
1749 Clouds 4 1025 64 10000 2.6 260 07:41 07.03.2020
1750 Clouds 4 1025 64 10000 2.6 260 07:20 07.03.2020
1751 Clouds 4 1024 69 10000 1 0 06:37 07.03.2020
1752 Clouds 4 1024 69 10000 1 0 05:57 07.03.2020
1753 Clouds 5 1026 56 0 1.79 285 05:35 07.03.2020
1754 Clouds 5 1024 59 10000 1.38 338 02:58 07.03.2020
1755 Clouds 5 1024 59 10000 1.38 338 02:39 07.03.2020
1756 Clouds 6 1024 52 10000 1 320 01:47 07.03.2020
1757 Clouds 6 1023 45 10000 3.1 20 00:42 07.03.2020
1758 Clouds 7 1023 45 10000 3.1 20 00:23 07.03.2020
1759 Clouds 7 1023 42 10000 2.1 50 23:56 06.03.2020
1760 Clouds 7 1023 39 10000 1 0 23:38 06.03.2020
1761 Clouds 8 1023 39 10000 1 0 23:19 06.03.2020
1762 Clouds 8 1022 39 10000 3.6 10 22:42 06.03.2020
1763 Clouds 8 1022 39 10000 3.6 10 22:18 06.03.2020
1764 Clouds 9 1022 39 10000 1 0 21:45 06.03.2020
1765 Clouds 9 1021 42 10000 3.1 350 21:19 06.03.2020
1766 Clear 9 1021 43 10000 8.7 300 20:40 06.03.2020
1767 Clouds 9 1021 43 10000 8.7 300 20:21 06.03.2020
1768 Clouds 9 1021 37 10000 6.2 300 19:54 06.03.2020
1769 Clouds 10 1021 34 10000 5.7 300 19:34 06.03.2020
1770 Clouds 10 1021 32 10000 7.2 290 18:59 06.03.2020
1771 Clouds 11 1020 34 10000 5.7 280 18:41 06.03.2020
1772 Clouds 11 1019 30 10000 8.2 320 18:19 06.03.2020
1773 Clouds 11 1019 30 10000 8.2 320 18:19 06.03.2020
1774 Clouds 11 1019 32 10000 7.7 300 17:55 06.03.2020
1775 Clouds 11 1019 32 10000 6.7 320 17:36 06.03.2020
1776 Clouds 11 1019 32 10000 6.7 320 17:18 06.03.2020
1777 Clouds 11 1019 32 10000 8.7 310 16:42 06.03.2020
1778 Clouds 11 1019 32 10000 8.7 310 16:20 06.03.2020
1779 Clouds 11 1019 37 10000 9.3 310 15:45 06.03.2020
1780 Clouds 11 1019 40 10000 8.2 300 15:25 06.03.2020
1781 Clouds 11 1019 40 10000 8.7 300 14:59 06.03.2020
1782 Clouds 10 1019 40 10000 8.7 310 14:39 06.03.2020
1783 Clouds 10 1019 40 10000 8.7 310 14:39 06.03.2020
1784 Clouds 10 1019 40 10000 8.7 310 14:19 06.03.2020
1785 Clouds 10 1019 43 10000 10.3 300 13:43 06.03.2020
1786 Clouds 10 1019 43 10000 10.3 300 13:22 06.03.2020
1787 Clouds 10 1019 43 10000 9.3 300 12:57 06.03.2020
1788 Rain 10 1019 39 10000 10.3 310 12:38 06.03.2020
1789 Rain 10 1019 39 10000 10.3 310 12:19 06.03.2020
1790 Rain 10 1019 43 10000 7.7 310 11:57 06.03.2020
1791 Rain 10 1019 43 10000 7.7 310 11:57 06.03.2020
1792 Clouds 10 1018 46 10000 10.3 300 11:38 06.03.2020
1793 Clouds 10 1018 46 10000 10.3 300 11:20 06.03.2020
1794 Clouds 9 1017 46 10000 10.8 290 10:39 06.03.2020
1795 Clouds 9 1017 46 10000 10.8 290 10:21 06.03.2020
1796 Rain 8 1017 46 10000 11.8 280 09:55 06.03.2020
1797 Rain 8 1017 46 10000 10.3 290 09:37 06.03.2020
1798 Rain 8 1017 46 10000 10.3 290 09:19 06.03.2020
1799 Clouds 7 1016 46 10000 8.7 290 08:45 06.03.2020
1800 Clouds 7 1016 61 10000 7.7 270 08:27 06.03.2020
1801 Clouds 7 1016 61 10000 9.8 280 07:57 06.03.2020
1802 Clouds 7 1016 61 10000 9.8 280 07:57 06.03.2020
1803 Clouds 7 1015 70 10000 6.7 250 07:38 06.03.2020
1804 Clouds 7 1015 70 10000 4.6 230 06:59 06.03.2020
1805 Clouds 7 1015 70 10000 3.6 220 06:40 06.03.2020
1806 Rain 7 1015 70 10000 2.6 220 05:46 06.03.2020
1807 Clouds 7 1015 65 10000 6.7 250 05:27 06.03.2020
1808 Clear 7 1015 61 10000 6.7 270 04:57 06.03.2020
1809 Clear 7 1016 60 10000 7.7 270 02:37 06.03.2020
1810 Clear 8 1016 57 10000 8.7 290 01:40 06.03.2020
1811 Clouds 8 1016 57 10000 8.7 290 01:22 06.03.2020
1812 Clouds 9 1016 57 10000 5.7 280 00:33 06.03.2020
1813 Clouds 9 1016 57 10000 5.7 280 23:57 05.03.2020
1814 Clouds 9 1016 53 10000 9.3 290 23:39 05.03.2020
1815 Clouds 10 1016 53 10000 9.3 290 23:19 05.03.2020
1816 Clouds 10 1015 50 10000 8.2 300 22:40 05.03.2020
1817 Clouds 10 1015 50 10000 8.2 300 22:22 05.03.2020
1818 Clouds 10 1015 53 10000 2.1 230 21:57 05.03.2020
1819 Clouds 11 1015 50 10000 5.1 270 21:38 05.03.2020
1820 Clouds 11 1015 50 10000 5.1 270 21:20 05.03.2020
1821 Clouds 11 1014 54 10000 5.7 270 20:58 05.03.2020
1822 Clouds 11 1014 54 10000 5.7 270 20:58 05.03.2020
1823 Clouds 11 1014 50 10000 4.1 280 20:39 05.03.2020
1824 Clouds 11 1014 50 10000 4.1 280 20:20 05.03.2020
1825 Clouds 12 1014 47 10000 4.6 280 19:58 05.03.2020
1826 Clouds 13 1013 50 10000 5.7 270 19:39 05.03.2020
1827 Clouds 13 1013 50 10000 5.7 270 19:19 05.03.2020
1828 Clouds 13 1013 47 10000 7.2 270 18:55 05.03.2020
1829 Clouds 13 1013 44 10000 8.2 280 18:36 05.03.2020
1830 Clouds 14 1013 44 10000 8.2 280 18:18 05.03.2020
1831 Clouds 14 1013 47 10000 8.7 270 17:42 05.03.2020
1832 Clouds 14 1013 44 10000 8.2 280 17:22 05.03.2020
1833 Clouds 14 1012 41 10000 10.8 270 16:57 05.03.2020
1834 Clouds 14 1012 44 10000 9.8 270 16:38 05.03.2020
1835 Clouds 15 1012 44 10000 9.8 270 16:19 05.03.2020
1836 Clouds 15 1013 44 10000 9.8 280 15:45 05.03.2020
1837 Clouds 15 1013 44 10000 8.7 290 15:23 05.03.2020
1838 Clouds 15 1012 38 10000 10.3 270 14:59 05.03.2020
1839 Clouds 15 1012 38 10000 10.3 270 14:41 05.03.2020
1840 Clouds 14 1013 44 10000 11.3 270 14:21 05.03.2020
1841 Clouds 13 1013 47 10000 10.8 280 13:56 05.03.2020
1842 Clouds 13 1013 66 10000 7.7 260 13:37 05.03.2020
1843 Clouds 12 1013 66 10000 7.7 260 13:19 05.03.2020
1844 Rain 12 1013 93 10000 7.2 280 12:41 05.03.2020
1845 Rain 12 1013 93 8000 11.3 240 12:21 05.03.2020
1846 Clouds 12 1013 82 10000 11.3 230 11:57 05.03.2020
1847 Clouds 12 1013 82 10000 11.3 230 11:57 05.03.2020
1848 Clouds 11 1013 81 10000 11.3 230 11:37 05.03.2020
1849 Clouds 11 1013 81 10000 11.3 230 11:19 05.03.2020
1850 Drizzle 11 1013 87 10000 9.8 240 10:57 05.03.2020
1851 Clouds 12 1012 81 10000 9.8 230 10:39 05.03.2020
1852 Clouds 11 1012 81 10000 9.8 230 10:21 05.03.2020
1853 Clouds 11 1012 76 10000 9.3 220 09:47 05.03.2020
1854 Clouds 11 1012 81 10000 8.7 230 09:28 05.03.2020
1855 Clouds 11 1012 81 10000 8.7 230 09:28 05.03.2020
1856 Clouds 11 1013 81 10000 9.3 230 08:59 05.03.2020
1857 Clouds 11 1012 81 10000 9.8 230 08:41 05.03.2020
1858 Clouds 11 1012 81 10000 9.8 230 08:21 05.03.2020
1859 Clouds 11 1013 87 10000 8.7 220 07:41 05.03.2020
1860 Clouds 11 1013 87 10000 8.7 220 07:19 05.03.2020
1861 Clouds 10 1013 87 10000 5.1 220 06:43 05.03.2020
1862 Clouds 10 1013 87 10000 5.1 220 06:19 05.03.2020
1863 Clouds 10 1014 87 10000 6.7 240 05:35 05.03.2020
1864 Clouds 10 1015 87 10000 6.7 220 04:23 05.03.2020
1865 Clouds 10 1015 87 10000 6.7 220 04:23 05.03.2020
1866 Clouds 10 1015 87 10000 6.2 210 03:58 05.03.2020
1867 Clouds 10 1017 76 10000 5.1 230 02:32 05.03.2020
1868 Clouds 11 1018 76 10000 5.7 240 01:26 05.03.2020
1869 Clouds 11 1018 81 10000 4.6 230 00:49 05.03.2020
1870 Clouds 11 1018 76 10000 3.6 230 23:57 04.03.2020
1871 Clouds 11 1018 76 10000 3.6 230 23:57 04.03.2020
1872 Clouds 12 1019 71 10000 3.1 210 23:39 04.03.2020
1873 Clouds 12 1019 71 10000 3.1 210 23:21 04.03.2020
1874 Clouds 12 1019 58 10000 4.1 220 22:55 04.03.2020
1875 Clouds 12 1019 54 10000 3.6 250 22:36 04.03.2020
1876 Clouds 13 1019 54 10000 3.6 250 22:18 04.03.2020
1877 Clouds 13 1019 47 10000 4.6 260 21:42 04.03.2020
1878 Clouds 13 1019 47 10000 4.6 260 21:42 04.03.2020
1879 Clouds 13 1019 47 10000 4.6 260 21:22 04.03.2020
1880 Clouds 14 1019 51 10000 6.2 260 20:59 04.03.2020
1881 Clouds 14 1020 58 10000 6.7 280 20:40 04.03.2020
1882 Clouds 14 1020 58 10000 6.7 280 20:21 04.03.2020
1883 Clouds 14 1019 58 10000 5.7 270 19:43 04.03.2020
1884 Clouds 15 1019 54 10000 4.1 290 19:24 04.03.2020
1885 Clouds 16 1019 51 10000 5.1 280 18:59 04.03.2020
1886 Clouds 16 1019 51 10000 7.2 290 18:41 04.03.2020
1887 Clouds 16 1019 51 10000 7.2 290 18:23 04.03.2020
1888 Clouds 17 1019 48 10000 6.2 300 17:59 04.03.2020
1889 Clouds 17 1019 48 10000 7.2 300 17:38 04.03.2020
1890 Clouds 17 1019 48 10000 7.2 300 17:20 04.03.2020
1891 Clouds 17 1020 48 10000 6.2 290 16:55 04.03.2020
1892 Clouds 17 1020 48 10000 7.2 290 16:36 04.03.2020
1893 Clouds 17 1020 48 10000 7.2 290 16:18 04.03.2020
1894 Clouds 17 1020 45 10000 7.7 270 15:42 04.03.2020
1895 Clouds 17 1020 45 10000 7.7 270 15:23 04.03.2020
1896 Clouds 17 1021 45 10000 8.7 260 14:57 04.03.2020
1897 Clouds 17 1021 51 10000 7.2 270 14:38 04.03.2020
1898 Clouds 17 1021 51 10000 7.2 270 14:19 04.03.2020
1899 Clouds 17 1021 48 10000 7.7 270 13:57 04.03.2020
1900 Clouds 17 1021 55 10000 7.2 270 13:39 04.03.2020
1901 Clouds 17 1021 48 10000 7.7 270 13:39 04.03.2020
1902 Clouds 16 1021 55 10000 7.2 270 13:20 04.03.2020
1903 Clouds 16 1022 55 10000 7.2 270 12:45 04.03.2020
1904 Clouds 16 1022 58 10000 5.7 290 12:27 04.03.2020
1905 Clouds 16 1022 62 10000 8.2 270 11:59 04.03.2020
1906 Clouds 15 1022 62 10000 8.2 270 11:41 04.03.2020
1907 Clouds 15 1022 67 10000 7.2 250 11:23 04.03.2020
1908 Clouds 14 1022 71 10000 5.7 240 10:57 04.03.2020
1909 Clouds 14 1022 71 10000 5.7 240 10:39 04.03.2020
1910 Clouds 13 1022 82 10000 7.2 240 10:18 04.03.2020
1911 Clouds 12 1021 93 10000 6.7 240 09:42 04.03.2020
1912 Clouds 12 1021 93 10000 6.7 240 09:21 04.03.2020
1913 Clouds 11 1021 93 10000 5.7 230 08:47 04.03.2020
1914 Clouds 11 1021 93 10000 5.7 230 08:27 04.03.2020
1915 Clouds 11 1021 93 10000 7.2 240 07:56 04.03.2020
1916 Clouds 11 1020 100 10000 4.1 220 07:37 04.03.2020
1917 Clouds 11 1020 100 10000 4.1 220 07:18 04.03.2020
1918 Clouds 11 1019 87 10000 6.2 240 06:43 04.03.2020
1919 Clouds 11 1019 87 10000 5.1 230 06:23 04.03.2020
1920 Clouds 11 1019 87 10000 6.2 230 05:48 04.03.2020
1921 Clouds 11 1019 87 10000 6.7 220 04:30 04.03.2020
1922 Clouds 11 1020 87 10000 7.2 230 03:42 04.03.2020
1923 Clouds 11 1020 87 10000 7.2 230 03:24 04.03.2020
1924 Clouds 11 1020 93 10000 3.6 160 02:55 04.03.2020
1925 Clouds 12 1020 82 10000 6.7 240 02:20 04.03.2020
1926 Clouds 12 1019 82 10000 6.7 240 01:52 04.03.2020
1927 Clouds 12 1019 82 10000 4.6 250 00:50 04.03.2020
1928 Clouds 12 1019 82 10000 4.6 250 00:25 04.03.2020
1929 Clouds 12 1019 82 10000 7.2 250 23:46 03.03.2020
1930 Clouds 13 1019 76 10000 6.2 250 23:27 03.03.2020
1931 Clouds 13 1019 76 10000 5.7 240 22:58 03.03.2020
1932 Clouds 13 1019 76 10000 5.7 240 22:58 03.03.2020
1933 Clouds 13 1019 76 10000 5.7 250 22:40 03.03.2020
1934 Clouds 13 1019 76 10000 5.7 250 22:19 03.03.2020
1935 Clouds 13 1018 76 10000 6.7 250 21:57 03.03.2020
1936 Clouds 13 1018 76 10000 6.7 250 21:38 03.03.2020
1937 Clouds 13 1018 76 10000 6.2 240 21:19 03.03.2020
1938 Clouds 13 1018 76 10000 7.2 240 20:55 03.03.2020
1939 Clouds 13 1018 76 10000 7.2 240 20:36 03.03.2020
1940 Clouds 13 1018 87 10000 7.7 240 20:18 03.03.2020
1941 Clouds 13 1018 87 10000 7.7 230 19:54 03.03.2020
1942 Clouds 13 1018 87 10000 7.7 230 19:36 03.03.2020
1943 Clouds 13 1018 87 10000 7.7 230 19:18 03.03.2020
1944 Clouds 13 1018 87 10000 7.7 230 19:18 03.03.2020
1945 Clouds 14 1017 72 10000 7.7 230 18:42 03.03.2020
1946 Clouds 14 1017 72 10000 7.7 230 18:21 03.03.2020
1947 Clouds 14 1017 76 10000 8.2 230 17:59 03.03.2020
1948 Clouds 14 1017 76 10000 8.2 230 17:40 03.03.2020
1949 Clouds 14 1016 76 10000 9.3 230 17:21 03.03.2020
1950 Clouds 14 1016 76 10000 9.8 230 16:57 03.03.2020
1951 Clouds 14 1016 76 10000 8.7 230 16:38 03.03.2020
1952 Clouds 14 1016 76 10000 8.7 230 16:19 03.03.2020
1953 Clouds 14 1016 76 10000 8.7 230 16:19 03.03.2020
1954 Clouds 14 1016 82 10000 7.7 220 15:45 03.03.2020
1955 Clouds 13 1016 76 10000 9.8 230 15:23 03.03.2020
1956 Clouds 13 1016 76 10000 9.8 230 14:58 03.03.2020
1957 Clouds 13 1016 76 10000 9.8 230 14:58 03.03.2020
1958 Clouds 13 1016 76 10000 9.8 230 14:40 03.03.2020
1959 Clouds 12 1016 76 10000 10.3 230 14:19 03.03.2020
1960 Clouds 12 1016 76 10000 10.3 230 14:19 03.03.2020
1961 Clouds 12 1017 76 10000 9.3 220 13:57 03.03.2020
1962 Clouds 11 1017 76 10000 9.3 230 13:39 03.03.2020
1963 Clouds 11 1017 76 10000 9.3 230 13:19 03.03.2020
1964 Clouds 10 1017 76 10000 9.8 230 12:47 03.03.2020
1965 Clouds 11 1017 81 10000 9.8 240 12:26 03.03.2020
1966 Clouds 10 1017 87 10000 8.7 230 11:57 03.03.2020
1967 Clouds 9 1017 87 10000 8.7 230 11:37 03.03.2020
1968 Clouds 9 1017 87 10000 8.7 230 11:37 03.03.2020
1969 Clouds 8 1017 87 10000 7.2 230 11:18 03.03.2020
1970 Clouds 8 1017 87 10000 7.2 230 11:18 03.03.2020
1971 Clouds 7 1017 87 10000 6.7 230 10:56 03.03.2020
1972 Clouds 7 1017 93 10000 7.2 230 10:37 03.03.2020
1973 Clouds 7 1017 93 10000 7.2 230 10:18 03.03.2020
1974 Clouds 7 1017 93 10000 8.2 230 09:44 03.03.2020
1975 Clouds 7 1017 87 10000 6.7 230 09:22 03.03.2020
1976 Clouds 6 1017 81 10000 7.7 230 08:57 03.03.2020
1977 Clouds 6 1017 81 10000 7.7 230 08:39 03.03.2020
1978 Clouds 6 1017 81 10000 6.2 230 08:20 03.03.2020
1979 Clouds 6 1017 81 10000 5.1 230 07:43 03.03.2020
1980 Clouds 6 1017 81 10000 4.6 210 07:20 03.03.2020
1981 Clouds 6 1017 65 10000 4.6 220 06:43 03.03.2020
1982 Clouds 6 1017 65 10000 5.1 200 06:23 03.03.2020
1983 Clouds 6 1017 65 10000 5.7 240 05:47 03.03.2020
1984 Clouds 6 1017 65 10000 5.7 240 05:47 03.03.2020
1985 Clouds 7 1016 57 10000 7.2 240 05:18 03.03.2020
1986 Clouds 7 1017 57 10000 5.7 250 04:25 03.03.2020
1987 Clouds 6 1018 56 10000 6.2 250 01:40 03.03.2020
1988 Clouds 7 1018 56 10000 4.6 240 00:49 03.03.2020
1989 Clouds 7 1018 52 10000 4.1 230 00:27 03.03.2020
1990 Clouds 7 1018 52 10000 6.2 250 23:57 02.03.2020
1991 Clouds 7 1018 52 10000 6.2 240 23:38 02.03.2020
1992 Clouds 7 1018 52 10000 6.2 240 23:20 02.03.2020
1993 Clouds 7 1017 52 10000 5.1 210 22:55 02.03.2020
1994 Clouds 7 1017 45 10000 5.7 250 22:37 02.03.2020
1995 Clouds 7 1017 45 10000 5.7 250 22:18 02.03.2020
1996 Clouds 8 1017 45 10000 5.1 280 21:42 02.03.2020
1997 Clouds 8 1017 45 10000 5.1 280 21:23 02.03.2020
1998 Clouds 8 1016 49 10000 6.2 280 20:58 02.03.2020
1999 Clouds 8 1016 49 10000 6.2 280 20:39 02.03.2020
2000 Clouds 8 1017 44 10000 3.6 260 20:20 02.03.2020
2001 Clouds 8 1016 44 10000 6.2 290 19:56 02.03.2020
2002 Clouds 8 1015 44 10000 7.7 300 19:38 02.03.2020
2003 Clouds 8 1015 44 10000 7.7 300 19:20 02.03.2020
2004 Clouds 9 1013 37 10000 8.7 290 18:45 02.03.2020
2005 Clouds 10 1013 37 10000 8.7 290 18:20 02.03.2020
2006 Clouds 10 1013 40 10000 10.8 280 17:59 02.03.2020
2007 Clouds 10 1013 40 10000 10.8 280 17:41 02.03.2020
2008 Clouds 11 1012 40 10000 11.8 280 17:21 02.03.2020
2009 Clouds 11 1012 40 10000 11.8 280 17:21 02.03.2020
2010 Clouds 10 1012 40 10000 11.8 280 17:21 02.03.2020
2011 Clouds 11 1012 43 10000 10.8 300 16:56 02.03.2020
2012 Clouds 11 1012 43 10000 10.8 300 16:56 02.03.2020
2013 Clouds 11 1012 43 10000 10.8 300 16:38 02.03.2020
2014 Clouds 11 1012 34 10000 12.9 280 16:20 02.03.2020
2015 Clouds 10 1011 57 10000 13.4 270 15:44 02.03.2020
2016 Clouds 10 1011 57 10000 13.4 270 15:20 02.03.2020
2017 Clouds 9 1010 61 10000 11.3 310 14:56 02.03.2020
2018 Clouds 9 1009 40 10000 13.9 270 14:37 02.03.2020
2019 Clouds 9 1009 40 10000 13.9 270 14:37 02.03.2020
2020 Clouds 9 1009 40 10000 13.9 270 14:18 02.03.2020
2021 Clouds 10 1009 43 10000 15.4 270 13:40 02.03.2020
2022 Clouds 10 1009 50 10000 12.3 270 13:19 02.03.2020
2023 Clouds 11 1009 54 10000 12.9 260 12:55 02.03.2020
2024 Clouds 11 1009 58 10000 11.8 260 12:36 02.03.2020
2025 Clouds 10 1009 58 10000 11.8 260 12:18 02.03.2020
2026 Clouds 11 1008 54 10000 11.8 270 11:38 02.03.2020
2027 Clouds 11 1008 54 10000 11.8 270 11:19 02.03.2020
2028 Clouds 11 1008 54 10000 11.8 270 10:55 02.03.2020
2029 Clouds 11 1007 57 10000 10.8 270 10:36 02.03.2020
2030 Clouds 11 1007 57 10000 10.8 270 10:18 02.03.2020
2031 Clouds 10 1007 57 10000 9.8 270 09:45 02.03.2020
2032 Clouds 10 1006 53 10000 12.9 270 09:26 02.03.2020
2033 Rain 11 1005 54 10000 14.4 280 08:48 02.03.2020
2034 Rain 10 1004 93 10000 7.2 260 08:22 02.03.2020
2035 Rain 11 1003 87 10000 8.7 240 07:47 02.03.2020
2036 Rain 11 1002 93 10000 9.3 260 07:28 02.03.2020
2037 Rain 11 1002 87 9000 12.9 240 06:50 02.03.2020
2038 Rain 11 1001 87 9000 12.3 230 06:20 02.03.2020
2039 Clouds 11 1002 81 10000 13.4 230 05:23 02.03.2020
2040 Rain 11 1004 81 9000 16.5 230 03:25 02.03.2020
2041 Clouds 11 1004 81 9000 13.9 230 02:53 02.03.2020
2042 Rain 11 1004 81 9000 16.5 230 02:29 02.03.2020
2043 Drizzle 11 1005 87 9000 10.8 210 01:33 02.03.2020
2044 Drizzle 11 1007 87 9000 8.7 210 00:48 02.03.2020
2045 Drizzle 11 1007 87 9000 8.7 210 00:22 02.03.2020
2046 Rain 11 1008 87 10000 6.2 190 23:41 01.03.2020
2047 Clouds 11 1008 87 10000 6.2 190 23:21 01.03.2020
2048 Clouds 11 1009 87 10000 6.2 190 22:44 01.03.2020
2049 Rain 11 1009 87 10000 6.7 190 22:21 01.03.2020
2050 Rain 11 1010 87 10000 7.2 190 21:57 01.03.2020
2051 Rain 11 1010 87 10000 7.2 190 21:39 01.03.2020
2052 Clouds 11 1011 87 10000 7.2 200 21:20 01.03.2020
2053 Drizzle 12 1011 93 6000 5.7 190 20:45 01.03.2020
2054 Rain 12 1011 87 8000 7.2 210 20:26 01.03.2020
2055 Rain 12 1011 93 10000 5.7 220 19:59 01.03.2020
2056 Rain 12 1011 93 10000 5.7 220 19:40 01.03.2020
2057 Rain 12 1011 93 4500 7.2 220 19:21 01.03.2020
2058 Clouds 13 1012 87 10000 7.7 220 18:54 01.03.2020
2059 Clouds 13 1012 82 10000 10.8 220 18:36 01.03.2020
2060 Clouds 13 1012 82 10000 10.8 220 18:18 01.03.2020
2061 Clouds 14 1011 76 10000 8.7 220 17:54 01.03.2020
2062 Clouds 14 1012 76 10000 9.8 220 17:36 01.03.2020
2063 Clouds 14 1012 76 10000 9.8 220 17:18 01.03.2020
2064 Clouds 14 1013 76 10000 9.3 220 16:40 01.03.2020
2065 Clouds 14 1013 76 10000 9.3 220 16:40 01.03.2020
2066 Clouds 14 1013 76 10000 9.3 220 16:20 01.03.2020
2067 Clouds 13 1013 71 10000 9.8 220 15:59 01.03.2020
2068 Clouds 13 1013 71 10000 9.8 220 15:40 01.03.2020
2069 Clouds 13 1013 76 10000 10.3 220 15:22 01.03.2020
2070 Clouds 13 1014 76 10000 6.7 220 14:58 01.03.2020
2071 Clouds 13 1014 76 10000 6.7 220 14:39 01.03.2020
2072 Clouds 13 1014 76 10000 7.7 220 14:21 01.03.2020
2073 Clouds 13 1014 76 10000 7.7 220 14:21 01.03.2020
2074 Clouds 13 1014 76 10000 7.7 220 14:21 01.03.2020
2075 Clouds 12 1015 76 10000 9.3 230 13:57 01.03.2020
2076 Clouds 12 1015 76 10000 9.3 230 13:57 01.03.2020
2077 Clouds 12 1015 76 10000 9.3 230 13:38 01.03.2020
2078 Clouds 12 1015 76 10000 9.8 230 13:19 01.03.2020
2079 Clouds 11 1015 81 10000 9.8 220 12:56 01.03.2020
2080 Rain 11 1015 81 10000 9.3 230 12:38 01.03.2020
2081 Clouds 11 1015 81 10000 9.3 230 12:19 01.03.2020
2082 Clouds 10 1015 81 10000 8.2 220 11:40 01.03.2020
2083 Clouds 10 1015 81 10000 8.7 230 11:19 01.03.2020
2084 Clouds 10 1015 87 10000 8.2 230 10:56 01.03.2020
2085 Clouds 9 1015 93 10000 10.3 230 10:37 01.03.2020
2086 Clouds 9 1015 93 10000 10.3 230 10:18 01.03.2020
2087 Clouds 9 1015 93 10000 10.3 230 10:18 01.03.2020
2088 Clouds 9 1015 93 10000 8.7 230 09:44 01.03.2020
2089 Clouds 9 1014 93 10000 7.7 220 09:26 01.03.2020
2090 Clouds 9 1014 87 10000 7.7 220 08:47 01.03.2020
2091 Clouds 8 1014 87 10000 7.7 220 08:28 01.03.2020
2092 Clouds 8 1014 87 10000 8.2 230 07:57 01.03.2020
2093 Clouds 8 1014 87 10000 8.2 230 07:39 01.03.2020
2094 Clouds 8 1014 87 10000 7.2 230 07:21 01.03.2020
2095 Clouds 8 1014 81 10000 6.2 220 06:42 01.03.2020
2096 Clouds 8 1013 81 10000 5.1 220 06:21 01.03.2020
2097 Drizzle 9 1014 71 10000 6.2 230 03:40 01.03.2020
2098 Clouds 9 1014 71 10000 5.1 240 02:23 01.03.2020
2099 Clouds 9 1014 71 10000 7.2 240 01:46 01.03.2020
2100 Clouds 9 1014 66 10000 6.7 240 00:59 01.03.2020
2101 Clouds 9 1015 81 10000 4.1 260 00:39 01.03.2020
2102 Clouds 9 1015 81 10000 4.1 260 00:18 01.03.2020
2103 Clouds 10 1015 66 10000 4.6 260 23:41 29.02.2020
2104 Clouds 10 1015 66 10000 6.2 250 23:22 29.02.2020
2105 Clouds 11 1014 62 10000 7.2 250 22:39 29.02.2020
2106 Clouds 11 1014 62 10000 7.2 250 22:21 29.02.2020
2107 Clouds 11 1014 62 10000 6.2 260 21:41 29.02.2020
2108 Clouds 11 1014 58 10000 8.7 240 21:21 29.02.2020
2109 Clouds 12 1014 62 10000 8.7 230 20:42 29.02.2020
2110 Clouds 12 1014 62 10000 8.7 230 20:21 29.02.2020
2111 Clouds 12 1013 62 10000 8.2 230 19:56 29.02.2020
2112 Clouds 12 1013 71 10000 8.7 230 19:37 29.02.2020
2113 Clouds 12 1013 71 10000 8.7 230 19:19 29.02.2020
2114 Clouds 13 1012 76 10000 12.3 230 18:42 29.02.2020
2115 Clouds 13 1012 76 10000 12.3 230 18:23 29.02.2020
2116 Clouds 13 1012 71 10000 10.3 230 17:57 29.02.2020
2117 Clouds 13 1013 82 10000 8.2 220 17:39 29.02.2020
2118 Clouds 12 1013 82 10000 8.2 220 17:19 29.02.2020
2119 Clouds 12 1013 81 10000 9.8 220 16:45 29.02.2020
2120 Clouds 12 1013 81 10000 7.7 210 16:20 29.02.2020
2121 Clouds 12 1012 76 10000 9.8 220 15:58 29.02.2020
2122 Clouds 13 1012 71 10000 9.3 210 15:38 29.02.2020
2123 Clouds 13 1012 71 10000 9.3 210 15:20 29.02.2020
2124 Clouds 13 1013 76 10000 8.7 220 14:40 29.02.2020
2125 Clouds 13 1013 71 10000 8.7 210 14:22 29.02.2020
2126 Clouds 12 1014 71 10000 10.3 230 13:46 29.02.2020
2127 Clouds 12 1014 76 10000 8.7 220 13:28 29.02.2020
2128 Clouds 12 1014 76 10000 8.7 220 13:28 29.02.2020
2129 Clouds 11 1014 71 10000 9.3 240 12:58 29.02.2020
2130 Clouds 11 1014 81 10000 8.7 230 12:39 29.02.2020
2131 Clouds 11 1014 81 10000 8.7 230 12:20 29.02.2020
2132 Clouds 10 1014 87 10000 8.7 220 11:46 29.02.2020
2133 Clouds 9 1015 93 10000 9.8 230 11:27 29.02.2020
2134 Clouds 9 1014 93 10000 8.2 220 10:55 29.02.2020
2135 Clouds 8 1014 93 10000 8.2 230 10:37 29.02.2020
2136 Clouds 8 1014 93 10000 8.2 230 10:19 29.02.2020
2137 Clouds 8 1014 93 10000 8.2 220 09:47 29.02.2020
2138 Clouds 8 1014 87 10000 7.7 210 09:23 29.02.2020
2139 Clear 7 1014 81 10000 9.3 220 08:41 29.02.2020
2140 Clouds 8 1014 81 10000 9.3 220 08:21 29.02.2020
2141 Clouds 8 1013 70 10000 9.3 220 07:53 29.02.2020
2142 Clouds 8 1013 61 10000 6.2 210 07:33 29.02.2020
2143 Clouds 9 1014 61 10000 4.1 210 06:57 29.02.2020
2144 Clouds 9 1013 61 10000 5.1 200 06:30 29.02.2020
2145 Clouds 9 1013 66 10000 3.6 200 05:54 29.02.2020
2146 Clouds 9 1013 62 10000 6.2 210 05:33 29.02.2020
2147 Clouds 9 1014 70 10000 2.1 90 04:25 29.02.2020
2148 Clouds 8 1014 80 10000 6.48 218 03:37 29.02.2020
2149 Clouds 8 1014 80 10000 6.48 218 03:18 29.02.2020
2150 Clouds 9 1015 75 10000 1.5 360 02:26 29.02.2020
2151 Clouds 9 1015 70 10000 1 350 00:54 29.02.2020
2152 Clouds 9 1016 65 10000 1.5 20 00:36 29.02.2020
2153 Clouds 11 1016 65 10000 1 0 23:42 28.02.2020
2154 Clouds 11 1016 65 10000 1 0 23:24 28.02.2020
2155 Clouds 11 1016 65 10000 1 0 23:24 28.02.2020
2156 Clouds 11 1016 57 10000 0.5 130 22:44 28.02.2020
2157 Clouds 12 1016 57 10000 0.5 130 22:24 28.02.2020
2158 Clouds 13 1016 47 10000 0.5 0 21:56 28.02.2020
2159 Clouds 13 1016 44 10000 2.1 180 21:38 28.02.2020
2160 Clouds 13 1016 44 10000 2.1 180 21:20 28.02.2020
2161 Clouds 14 1017 47 10000 1.5 200 20:39 28.02.2020
2162 Clouds 14 1017 47 10000 1.5 200 20:21 28.02.2020
2163 Clouds 15 1017 38 10000 1 200 19:57 28.02.2020
2164 Clouds 15 1017 38 10000 1 200 19:39 28.02.2020
2165 Clouds 16 1017 36 10000 1.5 190 19:20 28.02.2020
2166 Clouds 16 1017 36 10000 3.1 200 18:55 28.02.2020
2167 Clouds 17 1018 36 10000 2.6 180 18:37 28.02.2020
2168 Clouds 17 1018 36 10000 2.6 180 18:19 28.02.2020
2169 Clouds 18 1018 34 10000 3.1 180 17:40 28.02.2020
2170 Clouds 18 1018 34 10000 2.6 180 17:22 28.02.2020
2171 Clouds 18 1019 34 10000 1.5 170 16:44 28.02.2020
2172 Clouds 18 1019 34 10000 1.5 170 16:20 28.02.2020
2173 Clouds 18 1019 34 10000 2.1 150 15:58 28.02.2020
2174 Clouds 18 1019 34 10000 2.1 150 15:40 28.02.2020
2175 Clouds 17 1020 34 10000 1.5 0 15:19 28.02.2020
2176 Clouds 17 1020 34 10000 1.5 0 15:19 28.02.2020
2177 Clouds 17 1021 42 10000 1.5 0 14:57 28.02.2020
2178 Clouds 17 1021 42 10000 1.5 0 14:38 28.02.2020
2179 Clouds 17 1021 42 10000 1.5 0 14:38 28.02.2020
2180 Clouds 17 1021 42 10000 1.5 0 14:18 28.02.2020
2181 Clouds 16 1022 41 10000 1 260 13:42 28.02.2020
2182 Clouds 16 1023 44 10000 1 130 13:21 28.02.2020
2183 Clouds 15 1023 47 10000 1 360 12:59 28.02.2020
2184 Clouds 14 1023 47 10000 2.6 100 12:40 28.02.2020
2185 Clouds 14 1023 47 10000 2.6 100 12:22 28.02.2020
2186 Clouds 13 1023 50 10000 2.1 90 11:42 28.02.2020
2187 Clouds 12 1023 54 10000 1.5 70 11:23 28.02.2020
2188 Clouds 12 1023 50 10000 1 0 10:58 28.02.2020
2189 Clouds 11 1024 54 10000 1.73 47 10:39 28.02.2020
2190 Clouds 11 1024 54 10000 1.73 47 10:20 28.02.2020
2191 Clouds 9 1024 61 10000 1.73 47 09:44 28.02.2020
2192 Clouds 8 1023 70 10000 1.73 47 09:21 28.02.2020
2193 Clouds 7 1023 70 10000 1.5 100 08:56 28.02.2020
2194 Clouds 7 1023 70 10000 2.1 120 08:36 28.02.2020
2195 Clear 7 1023 70 10000 2.1 120 08:18 28.02.2020
2196 Clear 7 1023 65 10000 1 0 07:39 28.02.2020
2197 Clear 7 1023 65 10000 1 0 07:19 28.02.2020
2198 Clear 7 1023 65 10000 1.5 340 06:41 28.02.2020
2199 Clear 7 1023 65 10000 1 0 05:50 28.02.2020
2200 Clear 9 1020 57 0 1.34 344 04:34 28.02.2020
2201 Clear 9 1023 70 10000 1.5 90 03:43 28.02.2020
2202 Clear 9 1024 70 10000 1 0 02:45 28.02.2020
2203 Clear 10 1024 65 10000 1.72 28 02:20 28.02.2020
2204 Clear 11 1024 57 10000 1.5 130 00:39 28.02.2020
2205 Clear 11 1024 57 10000 1.5 130 00:21 28.02.2020
2206 Clear 12 1023 43 10000 4.6 290 23:41 27.02.2020
2207 Clear 12 1023 43 10000 4.6 290 23:19 27.02.2020
2208 Clear 13 1023 44 10000 5.1 270 22:41 27.02.2020
2209 Clear 13 1023 44 10000 5.1 270 22:23 27.02.2020
2210 Clear 13 1023 41 10000 6.2 270 21:56 27.02.2020
2211 Clear 13 1024 43 10000 3.1 270 21:37 27.02.2020
2212 Clear 13 1024 43 10000 3.1 270 21:18 27.02.2020
2213 Clear 14 1023 41 10000 7.7 270 20:54 27.02.2020
2214 Clear 14 1023 44 9000 3.1 280 20:36 27.02.2020
2215 Clear 14 1023 44 9000 3.1 280 20:18 27.02.2020
2216 Clear 15 1022 38 9000 5.1 260 19:42 27.02.2020
2217 Clear 15 1022 38 9000 5.1 260 19:23 27.02.2020
2218 Clear 16 1022 38 9000 5.1 260 18:58 27.02.2020
2219 Clear 17 1022 45 10000 5.1 260 18:39 27.02.2020
2220 Clear 17 1022 45 10000 5.1 260 18:20 27.02.2020
2221 Clear 18 1022 36 10000 5.7 270 17:56 27.02.2020
2222 Clear 18 1022 39 10000 7.2 250 17:38 27.02.2020
2223 Clear 18 1022 39 10000 7.2 250 17:19 27.02.2020
2224 Clear 18 1022 39 9000 6.7 250 16:54 27.02.2020
2225 Clear 18 1021 34 8000 6.7 260 16:36 27.02.2020
2226 Clear 18 1021 34 8000 6.7 260 16:18 27.02.2020
2227 Clear 18 1022 36 9000 7.2 260 15:40 27.02.2020
2228 Clear 18 1022 36 9000 7.2 260 15:21 27.02.2020
2229 Clear 18 1022 34 10000 8.2 270 14:59 27.02.2020
2230 Clear 17 1022 34 10000 8.2 270 14:39 27.02.2020
2231 Clear 17 1022 36 10000 7.7 270 14:21 27.02.2020
2232 Clear 17 1023 36 10000 8.2 280 13:55 27.02.2020
2233 Clear 16 1023 38 10000 8.2 270 13:37 27.02.2020
2234 Clear 16 1023 38 10000 8.2 270 13:19 27.02.2020
2235 Clear 14 1023 47 10000 8.2 250 12:43 27.02.2020
2236 Clear 14 1023 47 10000 8.2 250 12:19 27.02.2020
2237 Clear 13 1023 50 10000 7.7 260 11:46 27.02.2020
2238 Clouds 12 1023 50 10000 9.8 260 11:23 27.02.2020
2239 Clouds 11 1023 62 10000 11.3 270 10:56 27.02.2020
2240 Clouds 10 1023 66 10000 7.2 270 10:37 27.02.2020
2241 Clouds 9 1022 71 10000 7.2 260 10:18 27.02.2020
2242 Clouds 8 1022 70 10000 1.5 250 09:41 27.02.2020
2243 Clouds 8 1022 70 10000 1.5 250 09:22 27.02.2020
2244 Clouds 7 1022 70 10000 1 0 08:44 27.02.2020
2245 Clouds 7 1021 70 10000 2.1 110 08:25 27.02.2020
2246 Clouds 7 1022 66 10000 4.6 260 07:51 27.02.2020
2247 Clouds 7 1021 70 10000 2.6 290 07:30 27.02.2020
2248 Clouds 6 1021 73 10000 1.5 330 06:59 27.02.2020
2249 Clouds 6 1021 80 10000 1 0 06:20 27.02.2020
2250 Clouds 7 1021 70 10000 1 350 04:24 27.02.2020
2251 Clouds 8 1021 61 10000 4.1 270 02:58 27.02.2020
2252 Clear 9 1021 53 10000 5.1 270 00:59 27.02.2020
2253 Clear 9 1021 57 10000 4.1 270 00:37 27.02.2020
2254 Clear 9 1021 57 10000 5.1 270 23:41 26.02.2020
2255 Clear 9 1021 53 10000 3.1 270 23:21 26.02.2020
2256 Clear 10 1021 53 10000 3.6 290 22:59 26.02.2020
2257 Clear 10 1021 48 10000 0.22 258 22:40 26.02.2020
2258 Clear 10 1021 48 10000 0.22 258 22:22 26.02.2020
2259 Clouds 10 1022 57 10000 2.6 260 21:59 26.02.2020
2260 Clouds 11 1022 50 10000 4.6 280 21:39 26.02.2020
2261 Clouds 11 1022 50 10000 4.6 280 21:19 26.02.2020
2262 Clouds 11 1022 53 10000 3.6 310 20:56 26.02.2020
2263 Clouds 11 1022 46 10000 4.1 310 20:38 26.02.2020
2264 Clouds 11 1022 46 10000 4.1 310 20:19 26.02.2020
2265 Clouds 12 1021 46 10000 3.1 320 19:55 26.02.2020
2266 Clouds 12 1021 37 10000 2.6 310 19:36 26.02.2020
2267 Clouds 12 1021 37 10000 2.6 310 19:36 26.02.2020
2268 Clouds 12 1021 37 10000 2.6 310 19:18 26.02.2020
2269 Clouds 13 1020 37 10000 3.6 310 18:41 26.02.2020
2270 Clouds 14 1020 37 10000 3.6 310 18:23 26.02.2020
2271 Clouds 15 1020 37 10000 4.6 290 17:59 26.02.2020
2272 Clouds 15 1020 37 10000 4.6 290 17:39 26.02.2020
2273 Clouds 15 1020 24 10000 5.7 290 17:18 26.02.2020
2274 Clouds 15 1020 33 10000 5.7 300 16:56 26.02.2020
2275 Clouds 15 1020 30 10000 4.6 310 16:37 26.02.2020
2276 Clouds 15 1020 30 10000 4.6 310 16:18 26.02.2020
2277 Clouds 15 1021 24 10000 5.7 270 15:42 26.02.2020
2278 -273 0 0 0 0 0 15:23 26.02.2020
2279 Clouds 14 1021 24 10000 3.1 260 14:43 26.02.2020
2280 Clouds 14 1022 35 10000 3.1 280 14:23 26.02.2020
2281 Clouds 13 1022 39 10000 3.6 290 13:44 26.02.2020
2282 Clouds 13 1022 39 10000 3.6 290 13:44 26.02.2020
2283 Clouds 13 1022 38 10000 3.6 310 13:23 26.02.2020
2284 Clouds 12 1022 43 10000 5.1 290 12:58 26.02.2020
2285 Clouds 12 1022 43 10000 5.1 290 12:38 26.02.2020
2286 Clouds 11 1022 38 10000 4.6 300 12:18 26.02.2020
2287 Clouds 10 1022 38 10000 5.7 310 11:42 26.02.2020
2288 Clouds 10 1023 50 10000 4.6 300 11:22 26.02.2020
2289 Clouds 10 1023 50 10000 4.6 300 11:22 26.02.2020
2290 Clouds 9 1022 55 10000 6.2 300 10:59 26.02.2020
2291 Clouds 9 1022 57 10000 5.7 300 10:39 26.02.2020
2292 Clouds 9 1022 57 10000 5.7 300 10:21 26.02.2020
2293 Clouds 7 1022 61 10000 6.2 290 09:43 26.02.2020
2294 Clouds 7 1022 61 10000 3.6 290 09:23 26.02.2020
2295 Clouds 6 1021 55 10000 4.6 280 08:58 26.02.2020
2296 Clouds 6 1021 65 10000 6.2 290 08:37 26.02.2020
2297 Clouds 6 1021 65 10000 6.2 290 08:18 26.02.2020
2298 Clouds 6 1021 65 10000 6.2 280 07:42 26.02.2020
2299 Clouds 7 1021 61 10000 3.6 320 07:24 26.02.2020
2300 Clouds 7 1020 61 10000 7.2 280 06:50 26.02.2020
2301 Clouds 7 1020 65 10000 6.7 290 06:32 26.02.2020
2302 Clouds 8 1019 61 10000 5.7 290 05:51 26.02.2020
2303 Clouds 8 1019 61 10000 4.6 290 05:23 26.02.2020
2304 Clouds 9 1020 61 10000 5.7 280 04:19 26.02.2020
2305 Clouds 10 1020 62 10000 4.1 270 02:23 26.02.2020
2306 Clouds 10 1020 58 10000 6.7 290 01:45 26.02.2020
2307 Clouds 11 1020 62 10000 7.2 280 00:48 26.02.2020
2308 Clouds 11 1020 62 10000 6.2 280 00:24 26.02.2020
2309 Clouds 11 1020 62 10000 6.2 280 00:24 26.02.2020
2310 Clouds 11 1020 62 10000 4.6 270 23:45 25.02.2020
2311 Clouds 12 1020 58 10000 6.2 280 23:27 25.02.2020
2312 Clouds 11 1020 58 10000 6.2 280 22:59 25.02.2020
2313 Clouds 11 1020 58 10000 5.1 270 22:41 25.02.2020
2314 Clouds 12 1020 58 10000 5.1 270 22:19 25.02.2020
2315 Clouds 12 1020 58 10000 5.1 270 21:55 25.02.2020
2316 Clouds 12 1020 54 10000 5.7 270 21:36 25.02.2020
2317 Clouds 13 1020 54 10000 5.7 270 21:18 25.02.2020
2318 Clouds 13 1019 58 10000 5.7 260 20:54 25.02.2020
2319 Clouds 13 1020 62 10000 5.1 240 20:36 25.02.2020
2320 Clouds 13 1020 62 10000 5.1 240 20:18 25.02.2020
2321 Clouds 13 1020 62 10000 6.2 260 19:40 25.02.2020
2322 Clouds 13 1020 62 10000 6.2 260 19:19 25.02.2020
2323 Clouds 14 1020 58 10000 3.6 270 18:42 25.02.2020
2324 Clouds 15 1020 55 10000 5.1 280 18:22 25.02.2020
2325 Clouds 15 1020 51 10000 6.7 290 17:59 25.02.2020
2326 Clouds 15 1020 54 10000 4.1 290 17:38 25.02.2020
2327 Clouds 16 1020 54 10000 4.1 290 17:20 25.02.2020
2328 Clouds 16 1020 48 10000 4.6 300 16:59 25.02.2020
2329 Clouds 16 1019 45 10000 5.7 300 16:40 25.02.2020
2330 Clouds 16 1019 45 10000 5.7 300 16:22 25.02.2020
2331 Clouds 17 1020 42 10000 5.1 300 15:57 25.02.2020
2332 Clouds 17 1020 42 10000 6.2 280 15:38 25.02.2020
2333 Clouds 17 1020 42 10000 6.2 280 15:18 25.02.2020
2334 Clouds 18 1020 29 10000 5.1 270 14:56 25.02.2020
2335 Clouds 17 1020 39 10000 6.7 270 14:37 25.02.2020
2336 Clouds 17 1020 29 10000 6.7 270 14:18 25.02.2020
2337 Clouds 16 1020 34 10000 5.1 240 13:55 25.02.2020
2338 Clouds 16 1021 31 10000 3.6 230 13:37 25.02.2020
2339 Clouds 15 1021 31 10000 3.6 230 13:18 25.02.2020
2340 Clouds 16 1021 27 10000 4.1 240 12:41 25.02.2020
2341 Clouds 14 1021 27 10000 3.1 270 12:21 25.02.2020
2342 Clouds 14 1021 23 10000 4.1 290 11:57 25.02.2020
2343 Clouds 14 1021 23 10000 4.1 290 11:38 25.02.2020
2344 Clouds 13 1021 29 10000 4.1 270 11:19 25.02.2020
2345 Clouds 13 1021 33 10000 3.1 280 10:59 25.02.2020
2346 Clouds 13 1021 33 10000 3.1 280 10:59 25.02.2020
2347 Clouds 11 1021 39 10000 2.6 240 10:40 25.02.2020
2348 Clouds 10 1021 39 10000 2.6 240 10:21 25.02.2020
2349 Clouds 8 1021 61 10000 1 0 09:41 25.02.2020
2350 Clouds 8 1021 61 10000 1 0 09:21 25.02.2020
2351 Clouds 7 1021 75 10000 0.5 0 08:45 25.02.2020
2352 Clouds 7 1021 75 10000 0.5 0 08:45 25.02.2020
2353 Clouds 7 1020 39 10000 1 160 08:45 25.02.2020
2354 Clouds 6 1020 38 10000 1 160 08:27 25.02.2020
2355 Clouds 6 1021 56 10000 0.99 155 07:58 25.02.2020
2356 Clouds 5 1021 52 10000 0.5 0 07:39 25.02.2020
2357 Clouds 5 1021 52 10000 0.5 0 07:18 25.02.2020
2358 Clouds 5 1021 56 10000 1 350 06:28 25.02.2020
2359 Clouds 4 1021 56 10000 1 360 05:25 25.02.2020
2360 Clouds 8 1022 80 10000 2.1 10 02:54 25.02.2020
2361 Clear 9 1023 75 10000 1.5 360 01:31 25.02.2020
2362 Clear 9 1023 75 10000 1.5 340 00:43 25.02.2020
2363 Clear 9 1023 75 10000 1.5 340 00:22 25.02.2020
2364 Clear 10 1023 70 10000 0.5 360 23:40 24.02.2020
2365 Clear 11 1023 70 10000 0.5 360 23:20 24.02.2020
2366 Clear 12 1023 53 10000 2.1 20 22:39 24.02.2020
2367 Clear 12 1023 53 10000 2.1 20 22:19 24.02.2020
2368 Clear 12 1023 50 10000 1 0 21:57 24.02.2020
2369 Clear 13 1023 50 10000 1 0 21:39 24.02.2020
2370 Clear 14 1023 38 10000 1.5 200 21:19 24.02.2020
2371 Clear 14 1023 38 10000 2.1 190 20:58 24.02.2020
2372 Clear 14 1024 47 10000 1.5 220 20:39 24.02.2020
2373 Clear 15 1024 47 10000 1.5 220 20:19 24.02.2020
2374 Clear 16 1024 41 10000 2.1 210 19:56 24.02.2020
2375 Clear 16 1023 42 10000 3.1 220 19:38 24.02.2020
2376 Clear 16 1023 42 10000 3.1 220 19:19 24.02.2020
2377 Clear 19 1024 34 10000 3.1 190 18:42 24.02.2020
2378 Clear 19 1024 34 10000 3.1 190 18:24 24.02.2020
2379 Clear 20 1024 30 10000 3.1 190 17:58 24.02.2020
2380 Clear 20 1024 28 10000 2.1 210 17:39 24.02.2020
2381 Clear 20 1024 28 10000 2.1 210 17:20 24.02.2020
2382 Clear 20 1025 28 10000 2.6 220 16:55 24.02.2020
2383 Clear 20 1025 30 10000 2.6 230 16:37 24.02.2020
2384 Clear 20 1025 30 10000 2.6 230 16:19 24.02.2020
2385 Clear 20 1025 32 10000 3.1 210 15:57 24.02.2020
2386 Clear 20 1025 32 10000 3.1 210 15:38 24.02.2020
2387 Clear 19 1026 30 10000 3.6 180 15:20 24.02.2020
2388 Clear 19 1026 28 10000 2.6 220 14:42 24.02.2020
2389 Clear 18 1027 34 10000 3.1 260 14:24 24.02.2020
2390 Clear 18 1027 34 10000 3.1 260 14:24 24.02.2020
2391 Clear 18 1028 32 10000 1.5 0 13:59 24.02.2020
2392 Clear 17 1028 31 10000 1.5 180 13:41 24.02.2020
2393 Clear 17 1028 31 10000 1.5 180 13:23 24.02.2020
2394 Clear 16 1029 32 10000 1.36 234 12:59 24.02.2020
2395 Clear 16 1029 36 10000 1.36 234 12:41 24.02.2020
2396 Clear 15 1029 36 10000 1.36 234 12:22 24.02.2020
2397 Clear 15 1029 25 10000 1 0 11:49 24.02.2020
2398 Clear 14 1029 25 10000 1 0 11:31 24.02.2020
2399 Clear 13 1029 37 10000 1.35 50 10:54 24.02.2020
2400 -273 0 0 0 0 0 10:36 24.02.2020
2401 Clear 11 1030 33 10000 1 0 10:18 24.02.2020
2402 Clear 8 1029 53 10000 1.35 50 09:40 24.02.2020
2403 Clear 9 1029 53 10000 1.35 50 09:19 24.02.2020
2404 Clear 9 1029 53 10000 1.35 50 09:19 24.02.2020
2405 Clear 7 1029 65 10000 1 0 08:51 24.02.2020
2406 Clear 5 1029 75 10000 1.35 50 08:29 24.02.2020
2407 Clear 5 1029 75 10000 1.35 50 08:29 24.02.2020
2408 Clear 6 1029 75 10000 1.47 55 07:55 24.02.2020
2409 Clear 6 1029 75 10000 1.47 55 07:33 24.02.2020
2410 Clear 6 1029 42 10000 1.5 360 06:50 24.02.2020
2411 Clear 6 1029 86 10000 2.1 360 06:23 24.02.2020
2412 Clear 6 1030 42 10000 1.5 350 05:44 24.02.2020
2413 Clear 7 1030 46 10000 1.5 350 05:24 24.02.2020
2414 Clear 9 1031 75 10000 1.5 320 02:57 24.02.2020
2415 Clear 9 1031 75 10000 1 360 02:18 24.02.2020
2416 Clear 9 1031 70 10000 1.5 360 01:30 24.02.2020
2417 Clear 10 1031 70 10000 2.1 340 00:44 24.02.2020
2418 Clear 10 1031 65 10000 1.5 10 00:20 24.02.2020
2419 Clear 11 1031 65 10000 1.5 350 23:45 23.02.2020
2420 Clear 12 1031 65 10000 1.5 10 23:24 23.02.2020
2421 Clear 12 1031 61 10000 1.5 10 22:59 23.02.2020
2422 Clear 12 1031 61 10000 1.5 10 22:41 23.02.2020
2423 Clear 13 1031 61 10000 1.5 360 22:21 23.02.2020
2424 Clear 12 1031 53 10000 1.5 350 21:54 23.02.2020
2425 Clear 12 1031 31 10000 1 350 21:36 23.02.2020
2426 Clear 13 1031 31 10000 1 350 21:18 23.02.2020
2427 Clear 13 1031 31 10000 0.5 0 20:55 23.02.2020
2428 Clear 14 1031 44 10000 1 250 20:36 23.02.2020
2429 Clouds 14 1031 44 10000 1 250 20:18 23.02.2020
2430 Clouds 15 1031 38 10000 1 250 19:41 23.02.2020
2431 Clouds 17 1031 31 10000 1.5 200 19:20 23.02.2020
2432 Clouds 19 1031 22 10000 0.5 0 18:59 23.02.2020
2433 Clouds 21 1031 28 10000 1 0 18:40 23.02.2020
2434 Clouds 20 1031 28 10000 1 0 18:20 23.02.2020
2435 Clouds 20 1031 28 10000 1 0 17:58 23.02.2020
2436 Clouds 20 1031 28 10000 1 0 17:39 23.02.2020
2437 Clouds 20 1031 21 10000 0.94 242 17:21 23.02.2020
2438 Clouds 20 1031 21 10000 1 0 16:56 23.02.2020
2439 Clouds 20 1032 21 10000 1 0 16:36 23.02.2020
2440 Clouds 20 1032 21 10000 1 0 16:18 23.02.2020
2441 Clouds 20 1032 26 10000 1 0 15:40 23.02.2020
2442 Clouds 20 1032 26 10000 1 0 15:22 23.02.2020
2443 Clouds 19 1033 32 10000 1 140 14:59 23.02.2020
2444 Clouds 19 1033 32 10000 1 140 14:41 23.02.2020
2445 Clouds 19 1033 29 10000 1.5 80 14:23 23.02.2020
2446 Clouds 18 1034 32 10000 1 0 13:58 23.02.2020
2447 Clouds 18 1034 32 10000 0.5 100 13:39 23.02.2020
2448 Clouds 17 1034 32 10000 0.5 100 13:21 23.02.2020
2449 Clouds 17 1035 26 10000 1 0 12:44 23.02.2020
2450 Clouds 16 1035 33 10000 0.5 0 12:24 23.02.2020
2451 Clouds 15 1035 36 10000 0.5 0 11:59 23.02.2020
2452 Clouds 15 1035 36 10000 0.5 0 11:38 23.02.2020
2453 Clear 13 1035 35 10000 1 0 11:20 23.02.2020
2454 Clear 12 1035 37 10000 1 0 10:56 23.02.2020
2455 Clear 12 1035 37 10000 0.5 0 10:38 23.02.2020
2456 Clear 11 1035 37 10000 0.5 0 10:20 23.02.2020
2457 Clear 10 1035 37 10000 0.5 0 09:54 23.02.2020
2458 Clear 8 1035 43 10000 1.46 54 09:36 23.02.2020
2459 Clear 7 1035 43 10000 1.46 54 09:18 23.02.2020
2460 Clear 6 1034 52 10000 1 0 08:42 23.02.2020
2461 Clouds 6 1034 56 10000 0.5 0 08:23 23.02.2020
2462 Clouds 7 1034 49 10000 1 0 07:41 23.02.2020
2463 Clouds 7 1034 49 10000 1 0 07:18 23.02.2020
2464 Clouds 7 1034 74 10000 1 340 06:19 23.02.2020
2465 Clouds 8 1033 74 10000 1.5 350 04:49 23.02.2020
2466 Clouds 8 1033 69 10000 0.5 0 03:50 23.02.2020
2467 Clouds 9 1033 75 10000 1 0 02:38 23.02.2020
2468 Clouds 10 1034 70 10000 1.5 350 01:27 23.02.2020
2469 Clouds 10 1034 70 10000 3.1 50 00:55 23.02.2020
2470 Clouds 10 1033 75 10000 1 0 00:36 23.02.2020
2471 Clouds 10 1033 75 10000 1 0 00:18 23.02.2020
2472 Clouds 10 1033 65 10000 2.1 10 23:41 22.02.2020
2473 Clouds 11 1033 65 10000 2.1 10 23:19 22.02.2020
2474 Clouds 11 1033 65 10000 1 330 22:44 22.02.2020
2475 Clouds 11 1033 61 10000 1.5 360 22:19 22.02.2020
2476 Clouds 11 1032 53 10000 1.5 350 21:43 22.02.2020
2477 Clouds 12 1032 39 10000 1 0 21:24 22.02.2020
2478 Clouds 13 1032 39 10000 1 50 20:57 22.02.2020
2479 Clouds 14 1032 38 10000 1 260 20:38 22.02.2020
2480 Clouds 15 1032 38 10000 1 260 20:20 22.02.2020
2481 Clouds 15 1032 38 10000 0.5 0 19:42 22.02.2020
2482 Clouds 16 1032 36 10000 1 230 19:22 22.02.2020
2483 Clouds 19 1032 28 10000 1.5 250 18:54 22.02.2020
2484 Clouds 20 1032 28 10000 1.5 260 18:36 22.02.2020
2485 Clouds 20 1032 28 10000 1.5 260 18:18 22.02.2020
2486 Clouds 21 1031 24 10000 1 0 17:43 22.02.2020
2487 Clouds 21 1031 24 10000 1 0 17:25 22.02.2020
2488 Clouds 21 1031 22 10000 2.1 240 16:58 22.02.2020
2489 Clouds 21 1031 22 10000 2.1 240 16:40 22.02.2020
2490 Clouds 21 1031 26 10000 2.1 170 16:20 22.02.2020
2491 Clouds 20 1032 26 10000 2.1 170 15:46 22.02.2020
2492 Clouds 20 1032 28 10000 1.5 140 15:27 22.02.2020
2493 Clouds 19 1032 28 10000 1 170 14:59 22.02.2020
2494 Clouds 18 1032 30 10000 0.5 100 14:40 22.02.2020
2495 Clouds 19 1032 30 10000 0.5 100 14:40 22.02.2020
2496 Clear 18 1032 31 10000 1 200 14:20 22.02.2020
2497 Clear 18 1033 32 10000 1 0 13:43 22.02.2020
2498 Clear 17 1033 34 10000 1 0 13:20 22.02.2020
2499 Clear 17 1034 31 10000 0.5 260 12:58 22.02.2020
2500 Clear 16 1034 36 10000 1 0 12:39 22.02.2020
2501 Clear 15 1034 36 10000 1 0 12:20 22.02.2020
2502 Clear 13 1034 46 10000 1.5 60 11:42 22.02.2020
2503 Clear 12 1034 46 10000 1.5 60 11:24 22.02.2020
2504 Clear 11 1033 50 10000 0.5 0 10:42 22.02.2020
2505 Clear 10 1033 47 10000 1.62 51 10:21 22.02.2020
2506 Clear 8 1033 61 10000 1.62 51 10:00 22.02.2020
2507 Clear 7 1033 61 10000 1.62 51 09:41 22.02.2020
2508 Clear 6 1032 42 10000 1.62 51 09:22 22.02.2020
2509 Clear 5 1032 60 10000 1 0 08:55 22.02.2020
2510 Clear 5 1032 52 10000 1 0 08:28 22.02.2020
2511 Clear 4 1031 52 10000 1.64 52 07:59 22.02.2020
2512 Clear 5 1031 52 10000 1.5 360 07:39 22.02.2020
2513 Clear 4 1031 52 10000 1.5 360 07:18 22.02.2020
2514 Clear 3 1031 52 10000 1 350 06:43 22.02.2020
2515 Clear 5 1030 86 10000 1 360 04:45 22.02.2020
2516 Clear 6 1030 80 10000 1.5 360 03:52 22.02.2020
2517 Clear 6 1031 47 10000 1 360 02:42 22.02.2020
2518 Clear 7 1031 74 10000 1.5 340 01:49 22.02.2020
2519 Clear 7 1031 41 10000 1.5 360 01:29 22.02.2020
2520 Clear 7 1030 41 10000 1 350 00:49 22.02.2020
2521 Clear 8 1030 41 10000 1.5 340 00:31 22.02.2020
2522 Clear 8 1030 41 10000 2.1 350 23:53 21.02.2020
2523 Clear 9 1030 31 10000 2.1 350 23:26 21.02.2020
2524 Clear 9 1030 65 10000 2.6 340 22:59 21.02.2020
2525 Clear 9 1030 65 10000 2.6 340 22:41 21.02.2020
2526 Clear 10 1029 31 10000 2.1 340 22:23 21.02.2020
2527 Clear 10 1029 31 10000 1.5 10 21:55 21.02.2020
2528 Clear 10 1029 49 10000 1.5 20 21:37 21.02.2020
2529 Clear 10 1029 49 10000 1.5 20 21:37 21.02.2020
2530 Clear 10 1029 49 10000 1.5 20 21:18 21.02.2020
2531 Clear 12 1029 46 10000 1 280 20:41 21.02.2020
2532 Clear 12 1029 46 10000 1 280 20:23 21.02.2020
2533 Clear 14 1029 35 10000 1 280 19:40 21.02.2020
2534 Clear 15 1029 27 10000 1.28 292 19:20 21.02.2020
2535 Clear 18 1028 27 10000 1 250 18:43 21.02.2020
2536 Clear 18 1028 27 10000 1 250 18:23 21.02.2020
2537 Clear 19 1029 24 10000 1 0 17:57 21.02.2020
2538 Clear 19 1029 22 10000 1 0 17:37 21.02.2020
2539 Clear 19 1029 22 10000 1 0 17:19 21.02.2020
2540 Clear 19 1029 21 10000 2.1 190 16:44 21.02.2020
2541 Clear 19 1029 25 10000 1 0 16:24 21.02.2020
2542 Clear 19 1029 22 10000 0.87 276 15:59 21.02.2020
2543 Clear 19 1029 25 10000 1.5 0 15:39 21.02.2020
2544 Clear 18 1029 25 10000 1.5 0 15:19 21.02.2020
2545 Clear 18 1029 21 10000 1 0 14:42 21.02.2020
2546 Clear 17 1030 23 10000 1 0 14:22 21.02.2020
2547 Clear 17 1030 25 10000 1.5 90 13:59 21.02.2020
2548 Clear 16 1030 30 10000 1.5 0 13:39 21.02.2020
2549 Clear 16 1030 29 10000 1.5 0 13:20 21.02.2020
2550 Clear 16 1031 29 10000 1 0 12:45 21.02.2020
2551 Clear 15 1030 29 10000 1.5 40 12:27 21.02.2020
2552 Clear 14 1030 29 10000 1.5 10 11:57 21.02.2020
2553 Clear 13 1030 35 10000 1 0 11:38 21.02.2020
2554 Clear 12 1030 35 10000 1 0 11:19 21.02.2020
2555 Clear 10 1030 46 10000 1 0 10:42 21.02.2020
2556 Clear 10 1030 46 10000 1 0 10:42 21.02.2020
2557 Clear 10 1030 46 10000 2.31 57 10:22 21.02.2020
2558 Clear 8 1030 46 10000 2.31 57 09:58 21.02.2020
2559 Clear 7 1029 49 10000 2.1 360 09:39 21.02.2020
2560 Clear 7 1029 49 10000 2.1 360 09:20 21.02.2020
2561 Clear 6 1029 56 10000 1 0 08:55 21.02.2020
2562 Clear 6 1029 60 10000 1.5 10 08:36 21.02.2020
2563 Clear 6 1029 60 10000 1.5 10 08:18 21.02.2020
2564 Clear 6 1029 60 10000 1.5 10 07:41 21.02.2020
2565 Clear 6 1028 60 10000 1.5 360 07:21 21.02.2020
2566 Clear 5 1028 80 10000 1.5 360 06:56 21.02.2020
2567 Clear 5 1028 64 10000 2.1 30 06:33 21.02.2020
2568 Clear 5 1028 74 10000 1.5 310 05:56 21.02.2020
2569 Clear 5 1028 80 10000 2.1 350 05:30 21.02.2020
2570 Clear 5 1027 80 10000 0.5 0 04:26 21.02.2020
2571 Clear 6 1027 80 10000 1 0 03:47 21.02.2020
2572 Clear 7 1027 80 10000 1.5 350 02:59 21.02.2020
2573 Clear 7 1026 80 10000 2.1 20 01:34 21.02.2020
2574 Clear 7 1026 80 10000 1.5 350 00:54 21.02.2020
2575 Clear 7 1026 75 10000 2.6 340 00:36 21.02.2020
2576 Clear 7 1026 75 10000 2.6 340 00:18 21.02.2020
2577 Clear 8 1026 70 10000 2.6 10 23:39 20.02.2020
2578 Clear 8 1026 70 10000 2.6 10 23:21 20.02.2020
2579 Clear 8 1025 65 10000 1.5 10 22:40 20.02.2020
2580 Clear 9 1025 65 10000 1.5 10 22:21 20.02.2020
2581 Clear 9 1025 61 10000 1 110 21:57 20.02.2020
2582 Clear 10 1025 61 10000 1.5 330 21:39 20.02.2020
2583 Clear 10 1025 61 10000 1.5 330 21:19 20.02.2020
2584 Clear 10 1025 61 10000 1.5 330 21:19 20.02.2020
2585 Clear 11 1025 50 10000 2.1 10 20:56 20.02.2020
2586 Clear 11 1025 47 10000 1 310 20:38 20.02.2020
2587 Clear 11 1025 47 10000 1 310 20:19 20.02.2020
2588 Clear 11 1025 47 10000 1 310 20:19 20.02.2020
2589 Clear 11 1025 47 10000 1 310 20:19 20.02.2020
2590 Clear 12 1025 50 10000 0.5 0 19:58 20.02.2020
2591 Clear 12 1024 44 10000 0.5 130 19:40 20.02.2020
2592 Clear 13 1024 44 10000 0.5 130 19:22 20.02.2020
2593 Clear 15 1024 38 10000 1 0 18:55 20.02.2020
2594 Clear 16 1024 39 10000 1 0 18:36 20.02.2020
2595 -273 0 0 0 0 0 18:18 20.02.2020
2596 Clear 16 1024 33 10000 2.1 10 17:39 20.02.2020
2597 Clear 16 1024 33 10000 2.1 10 17:19 20.02.2020
2598 Clear 16 1023 33 10000 0.5 180 16:56 20.02.2020
2599 Clear 16 1024 39 10000 1 0 16:38 20.02.2020
2600 Clear 16 1024 39 10000 1 0 16:19 20.02.2020
2601 Clear 16 1024 39 10000 1.5 0 15:43 20.02.2020
2602 Clear 15 1024 38 10000 1 0 15:24 20.02.2020
2603 Clear 15 1024 44 10000 1.5 0 14:58 20.02.2020
2604 Clear 15 1024 44 10000 1.5 0 14:40 20.02.2020
2605 Clear 15 1024 44 10000 1 0 14:21 20.02.2020
2606 Clear 14 1025 44 10000 0.5 190 13:55 20.02.2020
2607 Clear 14 1025 44 10000 0.5 190 13:37 20.02.2020
2608 Clear 14 1025 41 10000 1 0 13:18 20.02.2020
2609 Clear 14 1025 41 10000 1 0 13:18 20.02.2020
2610 Clear 12 1026 47 10000 0.5 210 12:42 20.02.2020
2611 Clear 12 1026 47 10000 0.5 210 12:21 20.02.2020
2612 Clear 11 1026 50 10000 0.5 150 11:58 20.02.2020
2613 Clear 10 1026 46 10000 0.5 90 11:39 20.02.2020
2614 Clear 10 1026 46 10000 0.5 90 11:20 20.02.2020
2615 Clear 9 1026 53 10000 0.5 0 10:56 20.02.2020
2616 Clear 8 1026 57 10000 1 0 10:37 20.02.2020
2617 Clear 7 1026 57 10000 1 0 10:19 20.02.2020
2618 Clear 4 1025 70 10000 1 0 09:39 20.02.2020
2619 Clear 4 1025 70 10000 1 0 09:20 20.02.2020
2620 Clear 3 1025 86 10000 0.5 360 08:44 20.02.2020
2621 Clear 3 1025 86 10000 0.5 360 08:24 20.02.2020
2622 Clear 3 1025 86 10000 1.43 43 07:48 20.02.2020
2623 Clear 2 1025 86 10000 1.43 43 07:28 20.02.2020
2624 Clear 3 1025 92 10000 1.5 360 06:59 20.02.2020
2625 Clear 3 1025 92 10000 1 350 06:40 20.02.2020
2626 Clear 3 1025 52 10000 1.5 360 05:58 20.02.2020
2627 Clear 4 1025 52 10000 1 360 05:34 20.02.2020
2628 Clear 4 1026 49 10000 1 340 04:48 20.02.2020
2629 Clear 4 1026 86 10000 1.5 360 03:46 20.02.2020
2630 Clear 5 1027 49 10000 1.5 350 02:47 20.02.2020
2631 Clear 5 1027 46 10000 2.1 360 01:25 20.02.2020
2632 Clear 6 1027 46 10000 1.5 350 00:46 20.02.2020
2633 Clear 6 1028 80 10000 1.5 350 00:24 20.02.2020
2634 Clear 7 1028 46 10000 1.5 360 23:46 19.02.2020
2635 Clear 7 1028 80 10000 1.5 360 23:18 19.02.2020
2636 Clear 7 1028 75 10000 2.1 350 22:43 19.02.2020
2637 Clear 8 1028 70 10000 2.1 350 22:24 19.02.2020
2638 Clear 9 1028 65 10000 2.1 20 21:58 19.02.2020
2639 Clear 8 1028 65 10000 2.1 20 21:40 19.02.2020
2640 Clear 9 1028 70 10000 0.5 0 21:19 19.02.2020
2641 Clear 9 1028 39 10000 0.71 39 20:57 19.02.2020
2642 Clear 9 1029 53 10000 1 170 20:38 19.02.2020
2643 Clear 10 1029 53 10000 1 170 20:19 19.02.2020
2644 Clear 10 1029 35 10000 0.5 0 19:57 19.02.2020
2645 Clear 11 1028 35 10000 1 210 19:38 19.02.2020
2646 Clear 12 1028 35 10000 1 210 19:19 19.02.2020
2647 Clear 13 1029 41 10000 1 210 18:57 19.02.2020
2648 Clear 14 1029 41 10000 1 210 18:39 19.02.2020
2649 Clear 15 1028 41 10000 1 0 18:21 19.02.2020
2650 Clear 15 1029 35 10000 1.5 250 17:44 19.02.2020
2651 Clear 15 1029 27 10000 1.5 250 17:20 19.02.2020
2652 Clear 15 1029 36 10000 1 0 16:59 19.02.2020
2653 Clear 15 1029 36 10000 1 0 16:41 19.02.2020
2654 Clear 15 1029 36 10000 1.5 0 16:18 19.02.2020
2655 Clear 15 1030 41 10000 1.5 190 15:44 19.02.2020
2656 Clear 14 1030 38 10000 1.5 70 15:26 19.02.2020
2657 Clear 14 1031 41 10000 1.5 0 14:59 19.02.2020
2658 Clear 13 1031 44 10000 1 30 14:40 19.02.2020
2659 Clouds 13 1031 44 10000 1 30 14:21 19.02.2020
2660 Clear 12 1032 44 10000 1 40 13:42 19.02.2020
2661 Clear 12 1032 44 10000 1 40 13:23 19.02.2020
2662 Clear 11 1033 43 10000 2.1 0 12:58 19.02.2020
2663 Clear 11 1033 50 10000 2.6 10 12:37 19.02.2020
2664 Clear 10 1033 50 10000 2.6 10 12:18 19.02.2020
2665 Clear 9 1033 57 10000 2.1 20 11:39 19.02.2020
2666 Clear 9 1033 57 10000 2.1 20 11:20 19.02.2020
2667 Clear 8 1033 61 10000 2.1 10 10:59 19.02.2020
2668 Clear 7 1033 65 10000 2.6 10 10:38 19.02.2020
2669 Clear 6 1033 65 10000 2.6 10 10:20 19.02.2020
2670 Clear 5 1032 70 10000 3.6 350 09:59 19.02.2020
2671 Clear 4 1032 75 10000 2.1 350 09:39 19.02.2020
2672 Clear 4 1032 75 10000 2.1 350 09:19 19.02.2020
2673 Clear 3 1031 80 10000 2.1 350 08:48 19.02.2020
2674 Clear 2 1031 68 10000 2.1 360 08:24 19.02.2020
2675 Clear 2 1031 80 10000 2.6 350 07:54 19.02.2020
2676 Clear 2 1031 80 10000 2.6 350 07:36 19.02.2020
2677 Clear 2 1031 80 10000 2.6 350 07:18 19.02.2020
2678 Clear 3 1031 68 10000 1 0 06:36 19.02.2020
2679 Clear 3 1031 66 10000 3.78 32 04:59 19.02.2020
2680 Clear 4 1031 66 10000 1 0 03:50 19.02.2020
2681 Clear 5 1031 70 10000 0.5 360 02:35 19.02.2020
2682 Clear 6 1031 70 10000 1 40 01:38 19.02.2020
2683 Clear 6 1031 70 10000 1 40 01:20 19.02.2020
2684 Clouds 7 1031 70 10000 1 0 00:39 19.02.2020
2685 Clouds 7 1031 81 10000 2.1 330 23:59 18.02.2020
2686 Clouds 8 1031 75 10000 2.6 350 23:39 18.02.2020
2687 Clouds 8 1031 75 10000 2.6 350 23:19 18.02.2020
2688 Clouds 8 1031 75 10000 2.6 350 23:19 18.02.2020
2689 Clouds 8 1031 75 10000 2.6 350 23:19 18.02.2020
2690 Clouds 8 1031 75 10000 3.1 320 22:55 18.02.2020
2691 Clouds 9 1031 75 10000 3.1 320 22:36 18.02.2020
2692 Clouds 9 1030 66 10000 4.1 340 22:18 18.02.2020
2693 Clouds 9 1030 70 10000 2.6 340 21:38 18.02.2020
2694 Clouds 9 1030 76 10000 2.1 350 21:38 18.02.2020
2695 Clouds 9 1030 70 10000 2.6 340 21:38 18.02.2020
2696 Clouds 10 1030 76 10000 2.1 350 21:20 18.02.2020
2697 Clouds 10 1029 71 10000 2.1 350 20:59 18.02.2020
2698 Clouds 10 1029 71 10000 2.1 350 20:59 18.02.2020
2699 Clouds 10 1030 62 10000 1.5 320 20:39 18.02.2020
2700 Clouds 10 1029 71 10000 2.1 350 20:39 18.02.2020
2701 Clouds 10 1030 62 10000 1.5 320 20:21 18.02.2020
2702 Clouds 11 1029 62 10000 2.1 310 19:57 18.02.2020
2703 Clouds 11 1029 62 10000 2.1 310 19:57 18.02.2020
2704 Clouds 11 1029 71 10000 1 280 19:39 18.02.2020
2705 Clouds 11 1029 71 10000 1 280 19:19 18.02.2020
2706 Clouds 13 1029 58 10000 2.03 138 18:42 18.02.2020
2707 Clouds 13 1029 58 10000 2.03 138 18:21 18.02.2020
2708 Clouds 13 1029 66 10000 0.5 0 17:58 18.02.2020
2709 Clouds 14 1029 62 10000 1 0 17:40 18.02.2020
2710 Clouds 13 1029 62 10000 1 0 17:19 18.02.2020
2711 Clouds 13 1029 62 10000 1 0 16:40 18.02.2020
2712 Clouds 14 1029 62 10000 1 0 16:40 18.02.2020
2713 Clouds 13 1029 62 10000 1 0 16:21 18.02.2020
2714 Clouds 14 1029 62 10000 1 0 15:55 18.02.2020
2715 Clouds 13 1030 58 10000 1.5 70 15:36 18.02.2020
2716 Clouds 13 1030 58 10000 1.5 70 15:18 18.02.2020
2717 Clouds 12 1030 58 10000 0.5 280 14:54 18.02.2020
2718 Clouds 12 1030 62 10000 0.5 310 14:36 18.02.2020
2719 Clouds 12 1030 62 10000 0.5 310 14:18 18.02.2020
2720 Clouds 11 1031 57 10000 2.6 50 13:41 18.02.2020
2721 Clouds 11 1031 57 10000 2.6 50 13:21 18.02.2020
2722 Clouds 10 1032 61 10000 2.6 40 12:47 18.02.2020
2723 Clouds 9 1032 61 10000 1.5 60 12:29 18.02.2020
2724 Clouds 9 1032 66 10000 2.1 10 11:59 18.02.2020
2725 Clouds 9 1032 66 10000 2.1 10 11:59 18.02.2020
2726 Clouds 8 1032 70 10000 3.6 360 11:41 18.02.2020
2727 Clouds 8 1032 70 10000 3.6 360 11:22 18.02.2020
2728 Clouds 7 1032 75 10000 4.1 360 10:45 18.02.2020
2729 Clouds 6 1032 70 10000 3.1 360 10:24 18.02.2020
2730 Clouds 6 1031 70 10000 2.6 20 09:58 18.02.2020
2731 Clouds 6 1031 70 10000 2.6 20 09:58 18.02.2020
2732 Clouds 6 1031 70 10000 2.6 20 09:58 18.02.2020
2733 Clouds 5 1031 75 10000 1.5 50 09:39 18.02.2020
2734 Clouds 5 1031 75 10000 1.5 50 09:20 18.02.2020
2735 Clouds 4 1031 81 10000 1.5 20 08:59 18.02.2020
2736 Clouds 4 1031 75 10000 3.6 40 08:40 18.02.2020
2737 Clouds 4 1031 75 10000 3.6 40 08:20 18.02.2020
2738 Clouds 4 1030 81 10000 2.1 360 07:55 18.02.2020
2739 Clouds 4 1030 81 10000 2.1 360 07:55 18.02.2020
2740 Clouds 4 1030 81 10000 2.1 20 07:29 18.02.2020
2741 Clouds 4 1030 93 10000 1 0 06:56 18.02.2020
2742 Clouds 5 1030 93 10000 0.5 0 06:36 18.02.2020
2743 Clouds 5 1030 86 10000 2.6 350 05:56 18.02.2020
2744 Clouds 5 1030 80 10000 3.1 350 05:27 18.02.2020
2745 Clouds 5 1030 81 10000 2.6 340 03:58 18.02.2020
2746 Clouds 6 1031 86 10000 1 0 02:58 18.02.2020
2747 Clouds 6 1031 81 10000 1 340 01:58 18.02.2020
2748 Clouds 8 1030 93 10000 1 70 00:46 18.02.2020
2749 Clouds 8 1030 87 10000 0.5 0 00:22 18.02.2020
2750 Clouds 8 1030 87 10000 1 0 23:45 17.02.2020
2751 Clouds 8 1030 93 10000 1.5 340 23:26 17.02.2020
2752 Clouds 9 1030 87 10000 1 0 22:59 17.02.2020
2753 Clouds 9 1030 93 10000 1.5 320 22:41 17.02.2020
2754 Clouds 9 1030 93 10000 1.5 320 22:20 17.02.2020
2755 Clouds 10 1029 87 10000 1.5 340 21:55 17.02.2020
2756 Clouds 10 1029 87 10000 2.1 340 21:37 17.02.2020
2757 Clouds 11 1029 81 10000 2.6 350 21:18 17.02.2020
2758 Clouds 11 1029 71 10000 3.6 320 20:40 17.02.2020
2759 Clouds 11 1029 71 10000 3.6 320 20:21 17.02.2020
2760 Clouds 11 1029 71 10000 3.6 320 20:21 17.02.2020
2761 Clouds 11 1029 62 10000 4.6 290 19:57 17.02.2020
2762 Clouds 12 1028 93 10000 3.1 260 19:38 17.02.2020
2763 Clouds 12 1028 93 10000 3.1 260 19:19 17.02.2020
2764 Clouds 13 1028 87 10000 3.1 0 18:37 17.02.2020
2765 Clouds 13 1028 82 10000 3.1 260 18:19 17.02.2020
2766 Clouds 13 1028 82 10000 3.1 260 18:19 17.02.2020
2767 Clouds 13 1027 82 10000 3.1 230 17:57 17.02.2020
2768 Clouds 13 1027 82 10000 2.6 240 17:37 17.02.2020
2769 Clouds 13 1027 82 10000 2.6 240 17:18 17.02.2020
2770 Clouds 14 1027 82 10000 2.6 240 17:18 17.02.2020
2771 Clouds 13 1027 82 10000 2.6 240 16:54 17.02.2020
2772 Clouds 13 1027 82 10000 2.1 260 16:36 17.02.2020
2773 Clouds 13 1027 82 10000 2.1 260 16:18 17.02.2020
2774 Clouds 13 1027 77 10000 1 0 15:44 17.02.2020
2775 Clouds 13 1028 82 10000 1 0 15:26 17.02.2020
2776 Clouds 12 1028 82 10000 1 0 14:47 17.02.2020
2777 Clouds 12 1028 87 10000 1.5 230 14:29 17.02.2020
2778 Clouds 11 1028 82 10000 2.1 250 13:59 17.02.2020
2779 Clouds 11 1028 87 10000 2.6 240 13:40 17.02.2020
2780 Clouds 11 1028 87 10000 2.6 240 13:40 17.02.2020
2781 Clouds 11 1028 87 10000 2.6 240 13:20 17.02.2020
2782 Clouds 10 1029 93 7000 1.5 270 12:56 17.02.2020
2783 Mist 10 1029 100 5000 2.6 260 12:38 17.02.2020
2784 Mist 10 1029 100 5000 2.6 260 12:19 17.02.2020
2785 Mist 9 1029 93 3000 2.1 260 11:45 17.02.2020
2786 Mist 8 1029 100 3000 1.5 360 11:25 17.02.2020
2787 Mist 8 1028 100 3000 3.1 240 10:57 17.02.2020
2788 Mist 8 1028 100 3000 3.1 250 10:39 17.02.2020
2789 Mist 8 1028 100 3000 3.1 250 10:20 17.02.2020
2790 Mist 8 1028 100 1500 2.6 240 09:56 17.02.2020
2791 Fog 8 1027 100 500 2.6 230 09:38 17.02.2020
2792 -273 0 0 0 0 0 09:18 17.02.2020
2793 Fog 7 1027 100 400 2.6 230 08:42 17.02.2020
2794 Fog 7 1027 100 400 2.6 230 08:23 17.02.2020
2795 Fog 7 1026 100 600 3.1 230 07:57 17.02.2020
2796 Fog 7 1026 100 600 2.1 210 07:28 17.02.2020
2797 Clouds 6 1026 93 7000 0.5 0 06:57 17.02.2020
2798 Clouds 6 1026 100 7000 1 0 06:39 17.02.2020
2799 Clouds 6 1026 100 7000 1 0 06:19 17.02.2020
2800 Clouds 6 1026 100 7000 0.5 0 05:40 17.02.2020
2801 Clouds 7 1026 93 8000 1 350 04:23 17.02.2020
2802 Clouds 8 1027 100 10000 1.5 360 02:44 17.02.2020
2803 Clouds 9 1027 87 10000 1 0 00:59 17.02.2020
2804 Clouds 9 1027 93 10000 1.5 160 00:37 17.02.2020
2805 Clouds 9 1027 93 10000 1.5 160 00:18 17.02.2020
2806 Clouds 9 1027 81 10000 2.1 160 23:41 16.02.2020
2807 Clear 10 1027 76 10000 3.1 170 23:22 16.02.2020
2808 Clear 10 1027 81 10000 2.6 170 22:55 16.02.2020
2809 Clear 10 1027 76 10000 3.1 170 22:37 16.02.2020
2810 Clear 10 1027 76 10000 3.1 170 22:18 16.02.2020
2811 Clear 11 1026 71 10000 2.1 170 21:43 16.02.2020
2812 Clear 11 1026 71 10000 2.1 170 21:24 16.02.2020
2813 Clear 12 1026 71 10000 1.5 170 20:58 16.02.2020
2814 Clear 12 1026 71 10000 1.5 190 20:40 16.02.2020
2815 Clear 13 1026 71 10000 1.5 190 20:22 16.02.2020
2816 Clear 13 1026 71 10000 2.1 210 19:59 16.02.2020
2817 Clear 14 1026 67 10000 3.1 210 19:40 16.02.2020
2818 Clear 14 1026 67 10000 3.1 210 19:19 16.02.2020
2819 Clear 16 1026 63 10000 5.1 220 18:59 16.02.2020
2820 Clear 16 1026 55 10000 5.7 230 18:40 16.02.2020
2821 Clear 16 1026 55 10000 5.7 230 18:22 16.02.2020
2822 Clear 17 1026 51 10000 6.2 220 17:44 16.02.2020
2823 Clear 17 1026 48 10000 6.2 230 17:20 16.02.2020
2824 Clear 17 1026 51 10000 6.2 210 16:56 16.02.2020
2825 Clear 17 1026 51 10000 6.2 210 16:38 16.02.2020
2826 Clear 17 1026 48 10000 4.6 210 16:20 16.02.2020
2827 Clouds 17 1026 59 10000 4.6 210 15:56 16.02.2020
2828 Clouds 16 1026 63 10000 4.1 220 15:37 16.02.2020
2829 Clouds 16 1026 63 10000 4.1 220 15:18 16.02.2020
2830 Clouds 16 1027 72 10000 4.6 210 14:38 16.02.2020
2831 Clouds 15 1027 72 10000 4.6 210 14:19 16.02.2020
2832 Clouds 15 1027 72 10000 3.6 200 13:45 16.02.2020
2833 Clouds 14 1028 71 10000 2.6 190 13:24 16.02.2020
2834 Clouds 13 1028 71 10000 1.5 180 12:55 16.02.2020
2835 Clear 12 1028 76 10000 2.1 120 12:36 16.02.2020
2836 Clear 11 1028 76 10000 1.5 130 12:18 16.02.2020
2837 Clear 10 1028 76 10000 2.1 130 11:38 16.02.2020
2838 Clear 10 1028 76 10000 2.1 130 11:18 16.02.2020
2839 Clear 9 1028 81 9000 2.1 120 10:56 16.02.2020
2840 Clear 8 1028 76 9000 1.17 190 10:38 16.02.2020
2841 Clear 7 1028 76 9000 1.17 190 10:19 16.02.2020
2842 Clear 6 1028 100 9000 1.17 190 09:55 16.02.2020
2843 Clear 6 1028 100 6000 1.17 190 09:36 16.02.2020
2844 Clear 6 1028 100 6000 1.17 190 09:18 16.02.2020
2845 Fog 5 1028 100 7000 1.17 190 08:45 16.02.2020
2846 Fog 4 1027 100 8000 1.15 176 08:21 16.02.2020
2847 Fog 4 1027 100 8000 1.15 176 08:21 16.02.2020
2848 Fog 5 1027 100 7000 1.15 176 07:52 16.02.2020
2849 Fog 5 1027 100 9000 1.15 176 07:34 16.02.2020
2850 Mist 4 1027 100 5000 0.5 0 06:33 16.02.2020
2851 Clear 6 1027 100 8000 1 340 04:44 16.02.2020
2852 Clear 6 1028 100 8000 2.1 350 03:33 16.02.2020
2853 Clear 6 1027 93 8000 1 0 02:32 16.02.2020
2854 Clouds 7 1028 93 10000 2.1 330 01:44 16.02.2020
2855 Clouds 7 1028 93 10000 1.5 350 01:26 16.02.2020
2856 Clouds 8 1028 93 10000 1.5 360 00:58 16.02.2020
2857 Clouds 8 1028 93 10000 1.5 350 00:34 16.02.2020
2858 Clouds 8 1028 100 10000 1.5 350 23:58 15.02.2020
2859 Clouds 8 1028 87 10000 1 360 23:40 15.02.2020
2860 Clouds 8 1028 87 10000 1 360 23:22 15.02.2020
2861 Clouds 9 1027 93 10000 0.5 0 22:56 15.02.2020
2862 Clouds 9 1027 93 10000 1 0 22:37 15.02.2020
2863 Clouds 10 1027 93 10000 1 0 22:18 15.02.2020
2864 Clouds 9 1027 81 10000 0.86 186 21:42 15.02.2020
2865 Clouds 10 1027 81 10000 0.86 186 21:23 15.02.2020
2866 Clouds 11 1027 76 10000 1.5 260 20:42 15.02.2020
2867 Clouds 11 1027 76 10000 1.5 260 20:21 15.02.2020
2868 Clouds 11 1027 76 10000 1.5 260 20:21 15.02.2020
2869 Clouds 11 1027 76 10000 1.5 260 20:21 15.02.2020
2870 Clouds 12 1027 76 10000 2.1 260 19:57 15.02.2020
2871 Clouds 13 1026 66 10000 1.5 250 19:39 15.02.2020
2872 Clouds 13 1026 66 10000 1.5 250 19:20 15.02.2020
2873 Clouds 14 1026 58 10000 1 220 18:40 15.02.2020
2874 Clear 15 1026 67 10000 2.1 230 18:20 15.02.2020
2875 Clear 15 1026 59 10000 2.1 220 17:44 15.02.2020
2876 Clear 15 1026 59 10000 2.6 240 17:24 15.02.2020
2877 Clear 16 1026 59 10000 2.6 200 16:59 15.02.2020
2878 Clear 16 1026 59 10000 3.1 190 16:39 15.02.2020
2879 Clear 15 1026 59 10000 3.1 190 16:20 15.02.2020
2880 Clear 15 1026 59 10000 3.1 190 15:48 15.02.2020
2881 Clear 15 1026 63 10000 2.1 210 15:30 15.02.2020
2882 Clear 15 1027 62 10000 2.1 180 14:46 15.02.2020
2883 Clear 14 1027 62 10000 2.6 160 14:24 15.02.2020
2884 Clear 14 1027 67 10000 2.1 0 13:58 15.02.2020
2885 Clear 14 1027 67 10000 2.1 0 13:39 15.02.2020
2886 Clear 13 1028 67 10000 1 0 13:21 15.02.2020
2887 Clear 12 1028 71 9000 1.5 120 12:44 15.02.2020
2888 Clear 12 1028 71 9000 1.5 120 12:26 15.02.2020
2889 Clear 10 1028 76 8000 0.5 0 11:55 15.02.2020
2890 Clear 10 1028 76 7000 1 0 11:36 15.02.2020
2891 Clear 9 1028 76 7000 1 0 11:18 15.02.2020
2892 Clear 8 1027 76 7000 0.5 0 10:40 15.02.2020
2893 Fog 7 1027 93 7000 1.5 60 10:21 15.02.2020
2894 Clouds 6 1027 100 7000 0.5 0 09:44 15.02.2020
2895 Mist 4 1027 100 4000 1 30 09:25 15.02.2020
2896 Clear 4 1026 100 6000 0.5 0 08:59 15.02.2020
2897 Mist 3 1026 100 5000 0.8 64 08:39 15.02.2020
2898 Mist 3 1026 100 5000 0.86 60 08:20 15.02.2020
2899 Mist 4 1025 100 5000 0.5 0 07:41 15.02.2020
2900 Mist 4 1025 100 5000 0.5 0 07:22 15.02.2020
2901 Clouds 5 1025 93 6000 0.86 60 06:38 15.02.2020
2902 Clouds 4 1025 93 6000 0.86 60 06:20 15.02.2020
2903 Clear 5 1025 100 9000 1 360 04:51 15.02.2020
2904 Clear 5 1025 93 9000 1.5 350 04:26 15.02.2020
2905 Clear 5 1025 100 9000 1.5 10 02:59 15.02.2020
2906 Clear 5 1026 100 9000 1.5 350 02:28 15.02.2020
2907 Clear 6 1026 93 9000 1 330 01:59 15.02.2020
2908 Clear 6 1026 100 9000 0.63 114 01:36 15.02.2020
2909 Clear 7 1026 93 10000 0.5 0 00:30 15.02.2020
2910 Clear 7 1026 93 10000 0.5 20 23:57 14.02.2020
2911 Clear 8 1026 93 10000 1.5 10 23:36 14.02.2020
2912 Clear 7 1026 93 10000 1.5 10 23:18 14.02.2020
2913 Clear 8 1026 93 10000 1.5 360 22:42 14.02.2020
2914 Clear 8 1026 93 10000 2.6 10 22:22 14.02.2020
2915 Clear 8 1026 93 7000 1.5 260 21:49 14.02.2020
2916 Clear 9 1025 93 10000 1 0 21:31 14.02.2020
2917 Clear 9 1025 87 10000 1.5 260 20:48 14.02.2020
2918 Clear 10 1025 87 10000 1 240 20:21 14.02.2020
2919 Clear 10 1025 81 10000 1.5 230 19:59 14.02.2020
2920 Clear 10 1025 71 10000 0.5 0 19:41 14.02.2020
2921 Clear 10 1025 81 10000 1.5 230 19:41 14.02.2020
2922 Clear 11 1025 71 10000 0.5 0 19:23 14.02.2020
2923 Clear 12 1025 67 10000 0.5 0 18:57 14.02.2020
2924 Clouds 13 1025 67 10000 1 0 18:39 14.02.2020
2925 Clouds 14 1025 67 10000 1 0 18:20 14.02.2020
2926 Clouds 14 1025 67 10000 1 0 17:44 14.02.2020
2927 Clouds 14 1025 62 10000 1 0 17:22 14.02.2020
2928 Clouds 14 1025 67 10000 1.5 0 16:59 14.02.2020
2929 Clouds 14 1025 67 10000 1 0 16:40 14.02.2020
2930 Clouds 14 1025 67 10000 1 0 16:22 14.02.2020
2931 Clouds 13 1025 67 10000 1.5 130 15:56 14.02.2020
2932 Clouds 13 1026 67 10000 1.5 0 15:38 14.02.2020
2933 Clouds 13 1025 76 10000 1.5 130 15:19 14.02.2020
2934 Clouds 13 1026 71 10000 1.5 0 14:58 14.02.2020
2935 Clouds 12 1026 66 10000 1 0 14:40 14.02.2020
2936 Clouds 12 1026 66 10000 1 0 14:21 14.02.2020
2937 Clouds 11 1027 76 10000 2.1 140 13:54 14.02.2020
2938 Clouds 10 1027 81 8000 2.6 100 13:36 14.02.2020
2939 Clouds 10 1027 81 8000 2.6 100 13:18 14.02.2020
2940 Clouds 10 1027 76 6000 0.5 90 12:55 14.02.2020
2941 Mist 9 1027 87 5000 1.5 80 12:37 14.02.2020
2942 Mist 9 1027 87 5000 1.5 80 12:18 14.02.2020
2943 Mist 8 1028 93 3000 2.1 70 11:41 14.02.2020
2944 Mist 8 1028 93 3000 2.1 70 11:21 14.02.2020
2945 Mist 8 1027 93 3000 2.1 40 10:57 14.02.2020
2946 Mist 7 1027 93 3000 1.5 20 10:38 14.02.2020
2947 Mist 7 1027 93 3000 1.5 20 10:20 14.02.2020
2948 Mist 7 1027 93 3000 2.6 60 09:44 14.02.2020
2949 Mist 7 1027 93 3000 2.6 60 09:22 14.02.2020
2950 Mist 7 1027 100 1500 1 0 08:56 14.02.2020
2951 Mist 7 1026 100 2000 1.5 360 08:37 14.02.2020
2952 Mist 7 1026 100 2000 1.5 360 08:18 14.02.2020
2953 Mist 7 1026 100 2000 1 0 07:44 14.02.2020
2954 Mist 7 1026 100 1500 1 0 07:24 14.02.2020
2955 Clouds 7 1026 93 7000 1.5 360 06:32 14.02.2020
2956 Clouds 7 1026 93 7000 1.42 46 05:59 14.02.2020
2957 Clouds 6 1026 93 9000 0.5 0 05:25 14.02.2020
2958 Clouds 6 1026 100 10000 1 0 03:31 14.02.2020
2959 Clouds 6 1026 100 10000 1 350 02:42 14.02.2020
2960 Clouds 6 1026 100 10000 1.44 45 01:54 14.02.2020
2961 Clear 7 1026 93 10000 1 0 00:44 14.02.2020
2962 Clear 8 1026 100 10000 1 0 00:24 14.02.2020
2963 Clear 8 1026 93 10000 1.5 130 23:51 13.02.2020
2964 Clear 8 1025 93 10000 1.5 140 23:23 13.02.2020
2965 Clear 8 1025 87 10000 1.5 110 22:56 13.02.2020
2966 Clear 9 1025 87 10000 2.6 170 22:38 13.02.2020
2967 Clear 9 1025 87 10000 2.6 170 22:18 13.02.2020
2968 Clear 9 1025 87 10000 2.1 120 21:41 13.02.2020
2969 Clear 10 1025 81 10000 2.1 170 21:23 13.02.2020
2970 Clear 10 1024 81 10000 3.1 160 20:58 13.02.2020
2971 Clear 10 1024 81 10000 3.1 160 20:40 13.02.2020
2972 Clouds 11 1025 81 10000 3.6 230 20:22 13.02.2020
2973 Clouds 11 1025 81 10000 3.1 240 19:56 13.02.2020
2974 Clouds 12 1024 76 10000 2.6 230 19:37 13.02.2020
2975 Clouds 12 1024 76 10000 2.6 230 19:37 13.02.2020
2976 Clouds 12 1024 76 10000 2.6 230 19:19 13.02.2020
2977 Clouds 13 1024 71 10000 4.1 220 18:45 13.02.2020
2978 Clouds 13 1024 71 10000 4.1 220 18:25 13.02.2020
2979 Clouds 14 1024 71 10000 5.1 230 17:59 13.02.2020
2980 Clouds 14 1024 71 10000 5.1 230 17:40 13.02.2020
2981 Clouds 14 1024 67 10000 4.1 230 17:22 13.02.2020
2982 Clouds 14 1024 67 10000 4.1 230 16:58 13.02.2020
2983 Clouds 14 1024 67 10000 4.1 220 16:40 13.02.2020
2984 Clouds 14 1024 67 10000 4.1 220 16:20 13.02.2020
2985 -273 0 0 0 0 0 15:56 13.02.2020
2986 Clouds 14 1024 67 10000 4.1 220 15:38 13.02.2020
2987 Clouds 14 1024 67 10000 4.1 220 15:19 13.02.2020
2988 Clouds 14 1024 71 10000 2.6 210 14:58 13.02.2020
2989 Clouds 14 1024 71 10000 2.6 210 14:39 13.02.2020
2990 Clouds 13 1024 76 10000 3.6 240 14:21 13.02.2020
2991 Clouds 13 1024 76 10000 2.6 230 13:48 13.02.2020
2992 Clouds 12 1024 76 10000 2.6 200 13:19 13.02.2020
2993 Clouds 12 1025 76 9000 2.6 0 12:56 13.02.2020
2994 Clouds 12 1025 87 8000 3.1 240 12:38 13.02.2020
2995 Clouds 11 1025 87 8000 3.1 240 12:19 13.02.2020
2996 Clouds 11 1025 81 9000 3.1 230 11:47 13.02.2020
2997 Mist 11 1025 93 5000 3.1 200 11:20 13.02.2020
2998 Mist 10 1024 93 4000 2.6 170 10:56 13.02.2020
2999 Mist 10 1024 87 4000 2.1 170 10:38 13.02.2020
3000 Mist 10 1024 87 4000 2.1 170 10:38 13.02.2020
3001 Mist 10 1024 87 4000 2.1 170 10:20 13.02.2020
3002 Mist 9 1024 93 3500 2.1 180 09:41 13.02.2020
3003 Mist 9 1024 93 3500 1.5 180 09:22 13.02.2020
3004 Mist 9 1024 93 4500 1.5 220 08:44 13.02.2020
3005 Mist 9 1023 93 3000 1.5 240 08:19 13.02.2020
3006 Mist 9 1023 93 4000 1.5 260 07:42 13.02.2020
3007 Mist 9 1023 93 4000 1 250 07:22 13.02.2020
3008 Clouds 9 1022 87 6000 1.5 170 06:52 13.02.2020
3009 Clouds 9 1022 87 6000 1.5 180 06:33 13.02.2020
3010 Clouds 9 1022 87 6000 2.1 200 05:43 13.02.2020
3011 Mist 9 1022 93 5000 1.5 130 04:39 13.02.2020
3012 Mist 9 1022 87 5000 1 0 04:18 13.02.2020
3013 Clouds 9 1023 93 6000 0.5 0 03:29 13.02.2020
3014 Clouds 9 1023 93 6000 0.5 0 02:55 13.02.2020
3015 Clouds 9 1023 93 6000 1.5 190 02:20 13.02.2020
3016 Clouds 9 1023 93 6000 1.5 190 02:20 13.02.2020
3017 Clouds 10 1023 93 6000 1 0 01:40 13.02.2020
3018 Clouds 10 1023 93 6000 1 0 01:40 13.02.2020
3019 Clouds 10 1023 93 6000 1 190 01:40 13.02.2020
3020 Clouds 10 1023 93 6000 1.5 170 00:45 13.02.2020
3021 Clouds 10 1023 93 6000 1.5 150 00:26 13.02.2020
3022 Clouds 10 1023 93 8000 1 0 23:42 12.02.2020
3023 Clouds 9 1023 93 8000 1 0 23:23 12.02.2020
3024 Clouds 10 1023 93 9000 1.61 229 22:57 12.02.2020
3025 Clouds 10 1023 93 9000 1.61 229 22:39 12.02.2020
3026 Clouds 10 1023 87 9000 1.61 229 22:21 12.02.2020
3027 Clouds 10 1023 87 9000 0.5 0 21:55 12.02.2020
3028 Clouds 10 1023 87 9000 0.5 0 21:36 12.02.2020
3029 Clouds 10 1023 87 9000 0.5 0 21:18 12.02.2020
3030 Clouds 10 1023 87 9000 1 0 20:42 12.02.2020
3031 Mist 10 1023 87 5000 1.5 150 20:24 12.02.2020
3032 Mist 10 1023 87 5000 2.1 140 19:57 12.02.2020
3033 Clouds 10 1022 87 6000 2.1 160 19:38 12.02.2020
3034 Clouds 10 1022 87 6000 2.1 160 19:20 12.02.2020
3035 Clouds 10 1022 93 6000 1.5 0 18:49 12.02.2020
3036 Clouds 10 1022 87 6000 1.5 140 18:20 12.02.2020
3037 Clouds 11 1022 93 7000 1.5 190 17:58 12.02.2020
3038 Clouds 11 1022 87 7000 2.6 140 17:39 12.02.2020
3039 Clouds 11 1022 87 7000 2.6 140 17:19 12.02.2020
3040 Clouds 12 1023 87 7000 2.1 140 16:56 12.02.2020
3041 Clouds 11 1023 87 7000 2.1 140 16:36 12.02.2020
3042 Clouds 12 1023 81 7000 2.1 140 16:18 12.02.2020
3043 Clouds 12 1023 81 7000 2.1 140 16:18 12.02.2020
3044 Clouds 12 1023 87 7000 2.1 140 15:38 12.02.2020
3045 Clouds 12 1023 87 7000 2.1 140 15:19 12.02.2020
3046 Clouds 11 1023 81 6000 1.5 130 14:42 12.02.2020
3047 Clouds 11 1024 81 6000 1 0 14:21 12.02.2020
3048 Clouds 11 1024 81 6000 1.5 160 13:59 12.02.2020
3049 Clouds 11 1024 81 6000 1.5 160 13:40 12.02.2020
3050 Clouds 11 1025 81 6000 1 0 13:22 12.02.2020
3051 Clouds 11 1025 93 6000 2.1 120 12:58 12.02.2020
3052 Clouds 11 1025 93 6000 2.1 120 12:39 12.02.2020
3053 Clouds 11 1025 87 6000 1.5 110 12:19 12.02.2020
3054 Mist 10 1025 93 4500 1 0 11:59 12.02.2020
3055 Mist 10 1025 87 3000 1.5 90 11:40 12.02.2020
3056 Mist 9 1025 87 3000 1.5 90 11:21 12.02.2020
3057 Mist 9 1025 87 3000 1.5 90 11:21 12.02.2020
3058 Mist 9 1025 93 2500 2.6 100 10:58 12.02.2020
3059 Mist 9 1025 93 2500 2.6 100 10:39 12.02.2020
3060 Mist 9 1025 93 2500 1 0 10:20 12.02.2020
3061 Mist 9 1025 93 1200 1 0 09:42 12.02.2020
3062 Mist 9 1025 93 1200 1 0 09:42 12.02.2020
3063 Fog 9 1024 93 800 1 0 09:24 12.02.2020
3064 Fog 9 1024 93 1000 2.1 10 08:58 12.02.2020
3065 Fog 9 1024 93 1000 2.1 10 08:38 12.02.2020
3066 Mist 9 1024 93 1500 2.6 360 08:20 12.02.2020
3067 Mist 9 1024 100 3000 0.5 0 07:58 12.02.2020
3068 Mist 9 1024 100 3000 0.5 0 07:58 12.02.2020
3069 Mist 9 1024 100 3000 0.5 0 07:39 12.02.2020
3070 Mist 9 1024 100 1900 0.81 55 07:19 12.02.2020
3071 Mist 9 1024 100 2200 2.1 360 06:41 12.02.2020
3072 Mist 9 1024 93 2900 2.6 360 06:18 12.02.2020
3073 Mist 9 1024 93 3500 2.6 360 05:21 12.02.2020
3074 Mist 9 1024 93 3800 1.5 360 04:42 12.02.2020
3075 Mist 9 1024 100 4300 1.5 300 03:57 12.02.2020
3076 Mist 9 1024 93 4000 1.5 350 03:28 12.02.2020
3077 Mist 9 1025 93 3200 2.1 350 02:43 12.02.2020
3078 Mist 9 1025 93 3500 2.1 340 02:24 12.02.2020
3079 Mist 9 1025 93 3000 0.21 99 01:30 12.02.2020
3080 Mist 9 1025 100 4500 0.21 99 00:41 12.02.2020
3081 Mist 9 1025 100 4500 0.21 99 00:22 12.02.2020
3082 Mist 10 1025 100 5000 1 30 23:47 11.02.2020
3083 Mist 10 1025 93 5000 1 0 23:29 11.02.2020
3084 Mist 10 1025 93 5000 0.5 0 22:57 11.02.2020
3085 Mist 10 1025 87 5000 1.5 140 22:39 11.02.2020
3086 Mist 10 1025 87 5000 1.5 140 22:20 11.02.2020
3087 Mist 10 1026 87 5000 1.5 150 21:57 11.02.2020
3088 Mist 10 1025 93 5000 0.5 0 21:38 11.02.2020
3089 Mist 10 1025 93 5000 0.5 0 21:18 11.02.2020
3090 Mist 10 1025 87 5000 0.5 100 20:58 11.02.2020
3091 Clouds 10 1026 93 10000 3.1 240 20:38 11.02.2020
3092 Clouds 10 1026 93 10000 3.1 240 20:19 11.02.2020
3093 Clouds 10 1025 93 10000 2.6 250 19:56 11.02.2020
3094 Clouds 10 1026 93 10000 2.1 200 19:38 11.02.2020
3095 Clouds 11 1026 93 10000 2.1 200 19:20 11.02.2020
3096 Clouds 11 1025 76 10000 1.5 120 18:44 11.02.2020
3097 Clouds 11 1025 76 10000 1.5 120 18:26 11.02.2020
3098 Clouds 12 1025 82 8000 2.6 120 17:56 11.02.2020
3099 Clouds 12 1025 82 8000 2.6 120 17:56 11.02.2020
3100 Clouds 12 1025 82 8000 2.6 120 17:56 11.02.2020
3101 Clouds 12 1025 87 6000 1 110 17:38 11.02.2020
3102 Clouds 12 1025 87 6000 1 110 17:19 11.02.2020
3103 Clouds 13 1026 63 8000 0.5 0 16:58 11.02.2020
3104 Clouds 13 1026 67 8000 0.76 242 16:38 11.02.2020
3105 Clouds 13 1026 67 8000 0.76 242 16:20 11.02.2020
3106 Clouds 13 1026 72 8000 0.76 242 15:57 11.02.2020
3107 Clouds 13 1026 67 8000 0.76 242 15:38 11.02.2020
3108 Clouds 12 1026 67 8000 0.76 242 15:18 11.02.2020
3109 Clouds 11 1027 87 6000 0.76 242 14:41 11.02.2020
3110 Clouds 10 1027 87 6000 1.56 221 14:19 11.02.2020
3111 Mist 10 1028 93 5000 1.56 221 13:55 11.02.2020
3112 Mist 10 1028 100 4000 1 0 13:37 11.02.2020
3113 Mist 10 1028 100 4000 1 0 13:18 11.02.2020
3114 Mist 9 1028 93 3500 1 0 12:41 11.02.2020
3115 Mist 9 1028 93 3500 1 0 12:21 11.02.2020
3116 Fog 9 1029 100 300 1 0 11:58 11.02.2020
3117 Fog 9 1029 100 300 1.52 202 11:40 11.02.2020
3118 Fog 8 1029 100 300 1.1 83 11:19 11.02.2020
3119 Fog 8 1028 100 200 1 0 10:40 11.02.2020
3120 Fog 8 1028 100 200 1 0 10:21 11.02.2020
3121 Fog 8 1029 100 300 1 0 09:58 11.02.2020
3122 Fog 8 1029 100 300 1 0 09:40 11.02.2020
3123 Fog 7 1028 100 300 2.1 100 09:22 11.02.2020
3124 Fog 7 1028 100 300 2.1 80 08:49 11.02.2020
3125 Fog 7 1028 100 200 1.5 80 08:25 11.02.2020
3126 Fog 7 1028 100 200 1 0 07:55 11.02.2020
3127 Fog 7 1028 100 200 1.5 60 07:34 11.02.2020
3128 Fog 7 1028 100 300 2.1 340 06:58 11.02.2020
3129 Fog 7 1028 100 400 0.5 360 06:39 11.02.2020
3130 Fog 7 1028 100 400 0.5 360 06:20 11.02.2020
3131 Mist 7 1028 100 3500 0.5 0 05:44 11.02.2020
3132 Clouds 7 1029 100 8000 2.1 70 05:20 11.02.2020
3133 Mist 7 1029 100 2500 0.5 0 04:34 11.02.2020
3134 Mist 7 1030 100 3500 2.1 320 02:38 11.02.2020
3135 Mist 7 1030 100 3500 1 340 01:59 11.02.2020
3136 Mist 8 1030 100 3500 1.5 20 01:31 11.02.2020
3137 Mist 8 1031 93 4000 1 340 00:28 11.02.2020
3138 Mist 9 1031 100 4500 2.1 340 23:50 10.02.2020
3139 Mist 9 1031 100 4500 2.1 340 23:30 10.02.2020
3140 Mist 9 1031 93 5000 2.6 350 22:58 10.02.2020
3141 Mist 9 1031 93 5000 2.6 350 22:58 10.02.2020
3142 Mist 9 1031 93 5000 2.1 330 22:38 10.02.2020
3143 Mist 10 1031 93 5000 2.1 330 22:19 10.02.2020
3144 Clouds 10 1031 93 7000 1 0 21:41 10.02.2020
3145 Clouds 10 1031 93 7000 1 0 21:23 10.02.2020
3146 Clouds 11 1030 87 7000 2.1 340 20:56 10.02.2020
3147 Clouds 11 1031 87 10000 1.5 240 20:38 10.02.2020
3148 Clear 11 1031 87 10000 1.5 240 20:20 10.02.2020
3149 Clear 12 1030 82 10000 1 240 19:58 10.02.2020
3150 Clear 12 1030 81 9000 3.6 340 19:38 10.02.2020
3151 Clear 12 1030 76 10000 2.1 210 19:18 10.02.2020
3152 Clear 14 1030 72 10000 2.1 210 18:58 10.02.2020
3153 Clear 15 1030 67 10000 3.1 190 18:39 10.02.2020
3154 Clear 15 1030 67 10000 3.1 190 18:20 10.02.2020
3155 Clear 15 1030 67 10000 2.6 220 17:56 10.02.2020
3156 Clouds 15 1030 67 10000 2.1 210 17:37 10.02.2020
3157 Clouds 15 1030 67 10000 2.1 210 17:19 10.02.2020
3158 Clouds 15 1030 67 10000 2.6 200 16:58 10.02.2020
3159 Clouds 15 1031 72 10000 2.1 90 16:38 10.02.2020
3160 Clouds 15 1031 72 10000 2.1 90 16:18 10.02.2020
3161 Clouds 14 1031 77 10000 3.1 100 15:42 10.02.2020
3162 Clouds 15 1031 77 10000 3.1 100 15:23 10.02.2020
3163 Fog 14 1031 87 900 0.5 0 14:59 10.02.2020
3164 Clouds 14 1032 67 10000 1 0 14:41 10.02.2020
3165 Clouds 14 1032 67 10000 1 0 14:41 10.02.2020
3166 Clouds 13 1032 67 10000 1 0 14:19 10.02.2020
3167 Clouds 13 1033 67 10000 1 0 13:57 10.02.2020
3168 Clouds 12 1033 76 10000 1 0 13:38 10.02.2020
3169 Clouds 12 1033 76 10000 1 0 13:18 10.02.2020
3170 Clouds 11 1034 82 10000 1.5 110 12:47 10.02.2020
3171 Clouds 10 1034 87 10000 1.5 180 12:26 10.02.2020
3172 Clouds 10 1034 87 9000 1.5 220 11:55 10.02.2020
3173 Clouds 9 1033 93 7000 0.5 0 11:37 10.02.2020
3174 Clouds 9 1033 93 7000 0.5 0 11:19 10.02.2020
3175 Mist 8 1033 100 4000 0.5 0 10:46 10.02.2020
3176 Mist 8 1033 100 1600 1.04 145 10:26 10.02.2020
3177 Fog 8 1033 93 300 1 0 09:45 10.02.2020
3178 Fog 8 1033 100 400 1 0 09:26 10.02.2020
3179 Fog 7 1032 100 7000 0.5 0 08:56 10.02.2020
3180 Fog 7 1032 100 300 1.5 290 08:37 10.02.2020
3181 Fog 7 1032 100 300 1.5 290 08:18 10.02.2020
3182 Fog 7 1032 100 250 0.5 0 07:47 10.02.2020
3183 Fog 7 1032 100 250 0.5 0 07:26 10.02.2020
3184 Mist 7 1031 100 2800 0.5 0 06:19 10.02.2020
3185 Mist 7 1032 100 3500 0.5 360 04:27 10.02.2020
3186 Mist 7 1031 100 5000 0.5 0 03:34 10.02.2020
3187 Mist 7 1032 100 5000 0.5 0 02:54 10.02.2020
3188 Mist 7 1032 100 5000 0.5 0 02:54 10.02.2020
3189 Clouds 7 1032 93 7000 1.5 150 01:38 10.02.2020
3190 Clouds 8 1032 93 7000 1.72 198 00:48 10.02.2020
3191 Clouds 8 1032 87 7000 1 0 00:30 10.02.2020
3192 Clouds 7 1032 93 7000 1.72 198 23:55 09.02.2020
3193 Clouds 8 1032 87 10000 0.5 220 23:36 09.02.2020
3194 Clouds 8 1032 87 10000 0.5 220 23:18 09.02.2020
3195 Clouds 8 1033 93 10000 1 50 22:39 09.02.2020
3196 Clouds 8 1033 93 10000 1 50 22:21 09.02.2020
3197 Clouds 9 1032 87 10000 1 0 21:42 09.02.2020
3198 Clouds 9 1032 93 10000 0.5 0 21:23 09.02.2020
3199 Clouds 9 1032 87 10000 2.26 209 20:48 09.02.2020
3200 Clouds 9 1032 93 10000 2.26 209 20:28 09.02.2020
3201 Clouds 10 1031 81 10000 1.5 310 19:58 09.02.2020
3202 Clouds 10 1031 87 10000 1.5 270 19:39 09.02.2020
3203 Clouds 10 1031 87 10000 1.5 270 19:21 09.02.2020
3204 Clouds 10 1031 87 10000 1.5 270 19:21 09.02.2020
3205 Clouds 11 1031 87 10000 1.5 230 18:56 09.02.2020
3206 Clouds 11 1030 76 10000 1.5 200 18:38 09.02.2020
3207 Clouds 11 1030 76 10000 1.5 200 18:20 09.02.2020
3208 Clouds 11 1030 81 10000 0.5 0 17:42 09.02.2020
3209 Clouds 11 1031 87 10000 2.1 300 17:22 09.02.2020
3210 Clouds 11 1030 81 10000 2.6 270 16:56 09.02.2020
3211 Clouds 11 1030 76 10000 2.6 230 16:37 09.02.2020
3212 Clouds 11 1030 76 10000 2.6 230 16:18 09.02.2020
3213 Clouds 11 1030 76 10000 2.6 190 15:54 09.02.2020
3214 Clouds 11 1030 76 10000 2.1 170 15:36 09.02.2020
3215 Clouds 11 1030 76 10000 2.1 170 15:18 09.02.2020
3216 Clouds 10 1031 87 9000 0.5 0 14:41 09.02.2020
3217 Clouds 10 1031 87 9000 0.5 0 14:23 09.02.2020
3218 Clouds 10 1031 87 7000 1.5 160 13:47 09.02.2020
3219 Clouds 10 1032 87 6000 1 0 13:28 09.02.2020
3220 Clouds 10 1032 87 6000 0.5 0 12:57 09.02.2020
3221 Clouds 9 1031 87 6000 1 0 12:39 09.02.2020
3222 Clouds 9 1031 87 6000 1 0 12:19 09.02.2020
3223 Clouds 9 1031 87 6000 1 0 12:19 09.02.2020
3224 Clouds 9 1031 87 6000 1 0 12:19 09.02.2020
3225 Clouds 9 1031 87 6000 0.5 0 11:54 09.02.2020
3226 Clouds 8 1031 87 6000 1 0 11:36 09.02.2020
3227 Clouds 8 1031 87 6000 1 0 11:18 09.02.2020
3228 Mist 8 1031 93 5000 2.1 350 10:41 09.02.2020
3229 Mist 8 1031 93 5000 2.1 350 10:22 09.02.2020
3230 Mist 7 1030 100 4000 1.5 340 09:47 09.02.2020
3231 Mist 7 1030 93 3000 1.5 340 09:28 09.02.2020
3232 Mist 7 1030 93 2000 1 0 08:54 09.02.2020
3233 Mist 7 1030 93 2000 1.5 350 08:36 09.02.2020
3234 Mist 7 1030 93 2000 1.5 350 08:18 09.02.2020
3235 Mist 7 1029 93 3000 1.5 50 07:44 09.02.2020
3236 Clouds 7 1029 100 6000 2.6 320 06:54 09.02.2020
3237 Clouds 7 1028 100 6000 1.5 320 06:36 09.02.2020
3238 Clouds 7 1028 100 6000 1 0 05:45 09.02.2020
3239 Clouds 7 1028 93 6000 1.5 350 05:20 09.02.2020
3240 Clouds 6 1028 100 6000 1 0 03:53 09.02.2020
3241 Clouds 6 1027 100 6000 0.5 0 02:47 09.02.2020
3242 Clouds 6 1027 100 6000 0.62 110 02:26 09.02.2020
3243 Clouds 6 1028 100 6000 0.5 0 01:35 09.02.2020
3244 Clouds 6 1028 100 6000 1.44 147 00:48 09.02.2020
3245 Clouds 6 1028 100 6000 1.5 360 00:27 09.02.2020
3246 Clouds 6 1027 93 7000 1.44 147 23:44 08.02.2020
3247 Clear 6 1027 93 7000 1.57 146 23:22 08.02.2020
3248 Clear 6 1027 93 8000 1.57 146 22:55 08.02.2020
3249 Clear 6 1027 100 9000 1.57 146 22:36 08.02.2020
3250 Clear 7 1027 100 9000 1.57 146 22:18 08.02.2020
3251 Clear 7 1026 93 10000 1.57 146 21:41 08.02.2020
3252 Clear 7 1026 93 10000 1.57 146 21:23 08.02.2020
3253 Clear 8 1026 93 10000 1 40 20:58 08.02.2020
3254 Clear 8 1026 93 10000 1 0 20:39 08.02.2020
3255 Clouds 8 1026 93 10000 1 0 20:19 08.02.2020
3256 Clouds 8 1026 93 10000 1.5 250 19:56 08.02.2020
3257 Clouds 9 1025 87 10000 2.1 260 19:38 08.02.2020
3258 Clouds 9 1025 87 10000 2.1 260 19:19 08.02.2020
3259 Clouds 10 1025 87 10000 2.1 230 18:43 08.02.2020
3260 Clouds 11 1025 87 10000 4.1 250 18:24 08.02.2020
3261 Clouds 11 1025 81 10000 4.1 230 17:56 08.02.2020
3262 Clouds 11 1025 87 10000 2.6 240 17:37 08.02.2020
3263 Clouds 11 1025 87 10000 2.6 240 17:18 08.02.2020
3264 Clouds 10 1024 87 10000 2.6 240 16:40 08.02.2020
3265 Clouds 11 1024 87 10000 2.6 240 16:22 08.02.2020
3266 Clouds 10 1024 81 10000 2.1 250 15:56 08.02.2020
3267 Clouds 10 1024 81 10000 2.1 250 15:56 08.02.2020
3268 Clouds 10 1024 87 8000 1.5 240 15:38 08.02.2020
3269 Clouds 10 1024 87 8000 1.5 240 15:18 08.02.2020
3270 Drizzle 10 1025 87 5000 1.5 260 14:43 08.02.2020
3271 Drizzle 10 1025 87 5000 1.5 260 14:19 08.02.2020
3272 Rain 10 1025 87 7000 1.5 240 13:55 08.02.2020
3273 Clouds 9 1026 81 7000 1 0 13:37 08.02.2020
3274 Clouds 9 1026 81 7000 1 0 13:18 08.02.2020
3275 Clouds 9 1026 76 7000 1 0 12:39 08.02.2020
3276 Mist 8 1026 87 5000 1.5 310 12:20 08.02.2020
3277 Mist 8 1026 100 2000 2.06 248 11:47 08.02.2020
3278 Mist 8 1026 100 2000 1.25 180 11:22 08.02.2020
3279 Fog 7 1025 100 700 1 0 10:59 08.02.2020
3280 Fog 7 1025 100 700 1 0 10:59 08.02.2020
3281 Fog 7 1025 100 700 1 0 10:40 08.02.2020
3282 Fog 7 1025 100 500 1.25 180 10:20 08.02.2020
3283 Fog 6 1025 100 500 1 0 09:51 08.02.2020
3284 Fog 6 1025 100 300 1.5 360 09:26 08.02.2020
3285 Fog 6 1024 100 200 1.5 360 08:48 08.02.2020
3286 Fog 6 1024 100 200 1.25 180 08:29 08.02.2020
3287 Fog 6 1024 100 200 1.6 182 07:54 08.02.2020
3288 Fog 6 1024 100 300 1.6 182 07:35 08.02.2020
3289 Mist 6 1024 100 4600 1.6 182 06:55 08.02.2020
3290 Clouds 6 1023 100 6000 1 0 06:23 08.02.2020
3291 Mist 5 1023 93 5000 1 360 05:37 08.02.2020
3292 Mist 5 1023 93 5000 1 360 05:18 08.02.2020
3293 Mist 6 1024 100 4000 1 360 04:31 08.02.2020
3294 Mist 5 1024 93 5000 1 360 03:39 08.02.2020
3295 Mist 5 1024 100 5000 1.5 360 02:43 08.02.2020
3296 Clouds 6 1024 100 8000 1 180 01:37 08.02.2020
3297 Clouds 7 1023 93 8000 1.51 180 00:59 08.02.2020
3298 Clouds 7 1023 93 8000 1.51 180 00:37 08.02.2020
3299 Clouds 7 1024 100 9000 1 360 00:18 08.02.2020
3300 Clouds 7 1024 93 10000 1.5 130 23:42 07.02.2020
3301 Clouds 7 1024 93 10000 1.5 130 23:20 07.02.2020
3302 Clouds 7 1024 87 10000 1.5 130 22:55 07.02.2020
3303 Clouds 7 1024 87 10000 1 0 22:37 07.02.2020
3304 Clouds 7 1024 87 10000 1 0 22:18 07.02.2020
3305 Clouds 8 1023 93 10000 1 0 21:42 07.02.2020
3306 Clouds 8 1023 93 10000 1 0 21:22 07.02.2020
3307 Clouds 8 1023 87 10000 1 270 20:41 07.02.2020
3308 Clear 9 1023 87 10000 1 270 20:22 07.02.2020
3309 Clear 10 1023 81 10000 0.5 270 19:57 07.02.2020
3310 Clear 9 1023 81 10000 1 240 19:38 07.02.2020
3311 Clear 10 1023 81 10000 1 240 19:19 07.02.2020
3312 Clear 11 1023 76 10000 0.5 0 18:46 07.02.2020
3313 Clear 11 1023 71 10000 1.5 230 18:27 07.02.2020
3314 Clear 12 1023 71 10000 2.6 190 17:57 07.02.2020
3315 Clear 12 1022 66 10000 2.1 180 17:39 07.02.2020
3316 Clouds 12 1022 66 10000 2.1 180 17:21 07.02.2020
3317 Clouds 12 1022 66 10000 2.1 150 16:52 07.02.2020
3318 Clouds 12 1022 66 10000 2.1 150 16:52 07.02.2020
3319 Clouds 12 1023 66 10000 1.5 170 16:25 07.02.2020
3320 Clouds 12 1023 58 10000 1 0 15:55 07.02.2020
3321 Clouds 12 1023 71 10000 2.1 170 15:36 07.02.2020
3322 Clouds 12 1023 71 10000 2.1 170 15:18 07.02.2020
3323 Clouds 12 1023 71 10000 2.1 160 14:42 07.02.2020
3324 Clouds 11 1024 76 10000 2.1 170 14:24 07.02.2020
3325 Clouds 11 1024 76 10000 1.5 120 13:57 07.02.2020
3326 Clouds 11 1024 76 10000 2.1 0 13:39 07.02.2020
3327 Clouds 11 1024 76 10000 2.1 0 13:20 07.02.2020
3328 Clouds 10 1025 81 10000 2.6 130 12:44 07.02.2020
3329 Clouds 10 1025 76 10000 2.1 110 12:26 07.02.2020
3330 Clouds 9 1025 81 10000 2.6 120 11:58 07.02.2020
3331 Clouds 8 1025 81 10000 1.5 120 11:39 07.02.2020
3332 Clouds 8 1025 81 10000 1.5 120 11:18 07.02.2020
3333 Clouds 6 1024 87 10000 1.5 90 10:40 07.02.2020
3334 Clouds 6 1024 87 10000 1.5 90 10:20 07.02.2020
3335 Clouds 5 1023 93 10000 1.5 90 09:46 07.02.2020
3336 Clouds 4 1024 93 10000 1 0 09:26 07.02.2020
3337 Clouds 4 1023 93 10000 1 0 08:58 07.02.2020
3338 Clouds 4 1023 93 10000 1 0 08:37 07.02.2020
3339 Clouds 4 1023 93 10000 1 0 08:19 07.02.2020
3340 Clouds 4 1023 100 10000 1 0 07:40 07.02.2020
3341 Clouds 4 1023 100 10000 1 0 07:22 07.02.2020
3342 Clouds 4 1023 93 8000 1 350 06:43 07.02.2020
3343 Clouds 4 1023 93 8000 1 350 06:23 07.02.2020
3344 Clouds 5 1023 93 8000 1 340 05:43 07.02.2020
3345 Clouds 5 1023 93 8000 1.5 330 04:24 07.02.2020
3346 Clouds 6 1023 100 10000 1.5 350 02:32 07.02.2020
3347 Clouds 6 1024 93 10000 1.5 360 01:35 07.02.2020
3348 Clouds 7 1024 93 9000 1.5 360 00:39 07.02.2020
3349 Clouds 7 1024 93 9000 1 0 23:57 06.02.2020
3350 Clouds 7 1024 93 10000 1 350 23:36 06.02.2020
3351 Clouds 7 1024 93 10000 1 350 23:18 06.02.2020
3352 Clouds 7 1024 93 10000 1 10 22:43 06.02.2020
3353 Clouds 8 1024 93 10000 1 10 22:24 06.02.2020
3354 Clouds 8 1023 87 10000 0.5 30 21:37 06.02.2020
3355 Clouds 8 1023 87 10000 0.5 30 21:19 06.02.2020
3356 Clouds 8 1023 81 10000 1 0 20:57 06.02.2020
3357 Clouds 8 1023 81 10000 1 0 20:57 06.02.2020
3358 Clouds 8 1023 81 10000 1.5 350 20:38 06.02.2020
3359 Clouds 8 1023 81 10000 1.5 350 20:19 06.02.2020
3360 Clouds 9 1023 81 10000 1.5 350 19:58 06.02.2020
3361 Clouds 9 1023 81 10000 1.5 350 19:40 06.02.2020
3362 Clouds 9 1023 76 10000 1.5 340 19:21 06.02.2020
3363 Clouds 9 1023 76 10000 1.5 350 18:58 06.02.2020
3364 Clouds 10 1023 76 10000 1.5 360 18:39 06.02.2020
3365 Clouds 10 1023 76 10000 1.5 360 18:20 06.02.2020
3366 Clouds 10 1023 76 10000 1.5 320 17:42 06.02.2020
3367 Clear 10 1023 76 10000 0.5 0 17:21 06.02.2020
3368 Clouds 10 1023 71 10000 1.5 330 16:57 06.02.2020
3369 Clouds 11 1023 71 10000 0.5 0 16:39 06.02.2020
3370 Clouds 11 1023 71 10000 0.5 0 16:20 06.02.2020
3371 Clouds 10 1023 66 10000 1 350 15:42 06.02.2020
3372 Clouds 10 1024 71 10000 1 0 15:21 06.02.2020
3373 Clouds 10 1024 76 10000 2.1 20 14:49 06.02.2020
3374 Clouds 9 1025 81 10000 1 0 14:28 06.02.2020
3375 Clouds 9 1025 87 10000 1.5 100 13:57 06.02.2020
3376 Clouds 8 1026 81 10000 1 0 13:39 06.02.2020
3377 Clouds 8 1026 81 10000 1 0 13:19 06.02.2020
3378 Clouds 8 1026 87 10000 2.1 100 12:43 06.02.2020
3379 Clouds 7 1027 87 9000 2.1 100 12:19 06.02.2020
3380 Clouds 7 1026 87 9000 2.6 90 11:57 06.02.2020
3381 Clouds 7 1026 93 8000 2.6 90 11:39 06.02.2020
3382 Clouds 6 1026 93 8000 2.6 90 11:18 06.02.2020
3383 Clouds 6 1026 93 9000 2.6 90 10:56 06.02.2020
3384 Clouds 6 1026 93 9000 3.1 90 10:38 06.02.2020
3385 Clouds 6 1026 93 9000 3.1 90 10:18 06.02.2020
3386 Clouds 5 1026 87 10000 2.6 90 09:44 06.02.2020
3387 Clouds 5 1026 93 10000 1.5 70 09:20 06.02.2020
3388 Clouds 4 1025 87 10000 2.6 90 08:47 06.02.2020
3389 Clouds 4 1025 87 10000 2.6 90 08:27 06.02.2020
3390 Clouds 3 1025 87 10000 2.6 90 07:59 06.02.2020
3391 Clouds 3 1025 81 10000 2.1 90 07:39 06.02.2020
3392 Clouds 3 1025 81 10000 2.1 90 07:21 06.02.2020
3393 Clouds 3 1025 86 10000 1 360 06:21 06.02.2020
3394 Clouds 3 1025 84 10000 1 330 05:48 06.02.2020
3395 Clouds 4 1025 82 10000 2.6 320 04:20 06.02.2020
3396 Clouds 5 1025 82 10000 2.1 350 03:19 06.02.2020
3397 Clear 4 1025 82 10000 2.1 350 02:27 06.02.2020
3398 Clear 5 1026 82 10000 3.1 350 01:26 06.02.2020
3399 Clear 6 1026 80 10000 2.1 350 00:57 06.02.2020
3400 Clear 6 1026 80 10000 2.1 360 00:25 06.02.2020
3401 Clear 7 1026 75 10000 2.1 360 23:44 05.02.2020
3402 Clear 7 1026 75 10000 2.1 360 23:25 05.02.2020
3403 Clear 7 1026 70 10000 1 350 22:57 05.02.2020
3404 Clear 7 1026 75 10000 2.1 330 22:39 05.02.2020
3405 Clear 8 1026 75 10000 2.1 330 22:20 05.02.2020
3406 Clear 8 1026 65 10000 0.5 0 21:41 05.02.2020
3407 Clear 8 1026 65 10000 0.5 0 21:23 05.02.2020
3408 Clear 8 1025 67 10000 1.5 360 20:57 05.02.2020
3409 Clear 9 1025 53 10000 1 360 20:38 05.02.2020
3410 Clear 9 1025 53 10000 1 360 20:38 05.02.2020
3411 Clear 9 1025 53 10000 1 360 20:19 05.02.2020
3412 Clear 10 1025 50 10000 1.56 154 19:55 05.02.2020
3413 Clear 9 1025 36 10000 0.5 0 19:37 05.02.2020
3414 Clear 10 1025 36 10000 0.5 0 19:18 05.02.2020
3415 Clear 13 1025 36 10000 2.6 110 18:44 05.02.2020
3416 Clear 13 1025 36 10000 2.6 110 18:21 05.02.2020
3417 Clear 14 1025 35 10000 2.6 120 17:58 05.02.2020
3418 Clear 14 1025 30 10000 1.5 90 17:37 05.02.2020
3419 Clear 14 1025 30 10000 1.5 90 17:18 05.02.2020
3420 Clear 14 1025 30 10000 1.5 50 16:44 05.02.2020
3421 Clear 14 1025 33 10000 2.1 80 16:25 05.02.2020
3422 Clear 13 1026 30 10000 2.6 90 15:59 05.02.2020
3423 Clear 13 1026 30 10000 2.6 90 15:41 05.02.2020
3424 Clear 13 1026 30 10000 2.1 40 15:19 05.02.2020
3425 Clear 13 1027 30 10000 2.6 40 14:55 05.02.2020
3426 Clear 12 1027 35 10000 3.1 80 14:36 05.02.2020
3427 Clear 12 1027 35 10000 3.1 80 14:18 05.02.2020
3428 Clear 11 1028 40 10000 2.6 40 13:40 05.02.2020
3429 Clear 11 1028 40 10000 2.6 40 13:22 05.02.2020
3430 Clear 10 1029 43 10000 2.6 70 12:43 05.02.2020
3431 Clear 10 1029 46 10000 2.6 0 12:24 05.02.2020
3432 Clear 9 1029 46 10000 3.6 60 11:57 05.02.2020
3433 Clear 8 1029 49 10000 3.6 60 11:38 05.02.2020
3434 Clear 8 1029 49 10000 3.6 60 11:20 05.02.2020
3435 Clear 7 1029 47 10000 2.6 40 10:42 05.02.2020
3436 Clear 6 1029 61 10000 2.1 70 10:24 05.02.2020
3437 Clear 6 1029 65 10000 1.5 60 09:58 05.02.2020
3438 Clear 5 1029 65 10000 1 0 09:37 05.02.2020
3439 Clear 4 1029 65 10000 1 0 09:19 05.02.2020
3440 Clear 4 1029 75 10000 1.5 50 08:43 05.02.2020
3441 Clear 4 1029 70 10000 1 0 08:23 05.02.2020
3442 Clear 4 1028 75 10000 0.5 0 07:54 05.02.2020
3443 Clear 4 1028 80 10000 1 0 07:33 05.02.2020
3444 Clear 4 1028 93 10000 1 20 06:50 05.02.2020
3445 Clear 4 1028 86 10000 0.5 350 06:23 05.02.2020
3446 Clear 4 1028 80 10000 1 350 05:52 05.02.2020
3447 Clear 5 1028 80 10000 2.1 330 05:18 05.02.2020
3448 Clear 5 1028 75 10000 1.5 10 04:45 05.02.2020
3449 Clear 6 1029 75 10000 1 0 03:50 05.02.2020
3450 Clear 7 1029 70 10000 1.5 80 02:25 05.02.2020
3451 Clear 8 1029 70 10000 1 0 01:38 05.02.2020
3452 Clear 9 1029 70 10000 1.5 70 00:43 05.02.2020
3453 Clear 10 1030 57 10000 2.1 30 23:57 04.02.2020
3454 Clear 10 1030 66 10000 2.1 100 23:37 04.02.2020
3455 Clear 10 1030 66 10000 2.1 100 23:18 04.02.2020
3456 Clear 11 1029 71 10000 1 0 22:42 04.02.2020
3457 Clear 11 1029 71 10000 1 0 22:42 04.02.2020
3458 Clear 12 1029 71 10000 1 0 22:22 04.02.2020
3459 Clear 12 1029 66 10000 1.5 80 22:00 04.02.2020
3460 Clear 12 1029 66 10000 2.1 40 21:41 04.02.2020
3461 Clear 12 1029 66 10000 2.1 40 21:41 04.02.2020
3462 Clear 13 1029 66 10000 2.1 40 21:19 04.02.2020
3463 Clear 13 1029 62 10000 1.5 70 20:59 04.02.2020
3464 Clear 13 1029 58 10000 2.1 70 20:39 04.02.2020
3465 Clear 13 1029 58 10000 2.1 70 20:20 04.02.2020
3466 Clear 13 1029 58 10000 2.1 70 20:20 04.02.2020
3467 Clear 14 1029 71 10000 1 100 19:57 04.02.2020
3468 Clear 15 1028 67 10000 4.88 355 19:39 04.02.2020
3469 Clear 15 1028 67 10000 4.88 355 19:21 04.02.2020
3470 Clear 16 1028 63 10000 1 0 18:55 04.02.2020
3471 Clear 17 1028 55 10000 1 220 18:36 04.02.2020
3472 Clear 17 1028 55 10000 1 220 18:36 04.02.2020
3473 Clear 17 1028 55 10000 1 220 18:18 04.02.2020
3474 Clear 18 1027 59 10000 1.5 140 17:42 04.02.2020
3475 Clear 18 1027 49 10000 1 0 17:20 04.02.2020
3476 Clear 18 1027 45 10000 0.83 278 16:55 04.02.2020
3477 Clear 18 1027 48 10000 1 180 16:36 04.02.2020
3478 Clear 18 1027 48 10000 1 180 16:18 04.02.2020
3479 Clear 18 1028 48 10000 2.6 230 15:55 04.02.2020
3480 Clear 17 1028 63 9000 2.6 220 15:37 04.02.2020
3481 Clear 17 1028 63 9000 2.6 220 15:18 04.02.2020
3482 Clear 16 1029 67 8000 0.83 278 14:41 04.02.2020
3483 Clear 16 1029 67 8000 0.62 308 14:21 04.02.2020
3484 Clear 15 1030 72 8000 0.5 0 13:57 04.02.2020
3485 Clear 15 1030 72 8000 0.5 0 13:39 04.02.2020
3486 Clear 14 1030 76 8000 1 0 13:19 04.02.2020
3487 Clear 14 1030 72 8000 0.21 304 12:43 04.02.2020
3488 Clear 13 1030 76 8000 1 0 12:25 04.02.2020
3489 Clear 12 1030 87 7000 1.5 170 11:57 04.02.2020
3490 Clear 12 1030 76 9000 1 0 11:39 04.02.2020
3491 Clear 10 1030 76 9000 1 0 11:19 04.02.2020
3492 Clear 10 1030 76 9000 0.41 348 10:50 04.02.2020
3493 Clear 8 1030 100 9000 0.41 348 10:28 04.02.2020
3494 Mist 8 1031 100 3500 0.41 348 09:58 04.02.2020
3495 Mist 7 1031 100 3500 0.41 348 09:40 04.02.2020
3496 Fog 7 1030 100 7000 0.5 160 09:21 04.02.2020
3497 Fog 6 1031 100 4000 0.41 348 08:49 04.02.2020
3498 Fog 7 1030 100 4000 1 0 08:28 04.02.2020
3499 Fog 6 1030 100 200 1.17 31 07:57 04.02.2020
3500 Fog 6 1030 100 100 1 0 07:37 04.02.2020
3501 Fog 6 1030 100 100 1 0 07:19 04.02.2020
3502 Clear 6 1030 100 10000 1.17 31 06:42 04.02.2020
3503 Clear 7 1030 93 10000 2.1 340 05:37 04.02.2020
3504 Clear 7 1030 100 10000 2.6 350 04:51 04.02.2020
3505 Clear 7 1030 93 8000 1.5 360 03:49 04.02.2020
3506 Clear 8 1030 93 8000 1.5 340 03:30 04.02.2020
3507 Clear 8 1030 100 8000 1 360 02:49 04.02.2020
3508 Clouds 9 1031 93 8000 1.5 350 02:28 04.02.2020
3509 Clouds 9 1031 93 8000 0.5 0 01:47 04.02.2020
3510 Clouds 9 1031 93 8000 0.29 314 01:19 04.02.2020
3511 Clouds 10 1031 93 10000 2.6 340 00:25 04.02.2020
3512 Clouds 10 1030 93 10000 1.5 360 23:56 03.02.2020
3513 Clouds 10 1030 93 10000 0.5 0 23:38 03.02.2020
3514 Clouds 10 1030 93 10000 0.5 0 23:18 03.02.2020
3515 Mist 11 1031 87 5000 1.5 130 22:39 03.02.2020
3516 Mist 11 1031 87 5000 1.5 130 22:39 03.02.2020
3517 Mist 11 1031 87 5000 1.5 130 22:19 03.02.2020
3518 Clouds 11 1031 100 6000 0.5 0 21:42 03.02.2020
3519 Clouds 12 1031 87 9000 0.47 163 21:20 03.02.2020
3520 Clouds 12 1031 87 10000 0.5 260 20:57 03.02.2020
3521 Clouds 12 1031 87 10000 0.5 260 20:57 03.02.2020
3522 Clouds 12 1030 76 10000 0.5 0 20:39 03.02.2020
3523 Clouds 12 1030 76 10000 0.5 0 20:18 03.02.2020
3524 Clouds 13 1030 71 10000 1 0 19:56 03.02.2020
3525 Clouds 13 1030 67 10000 1.5 200 19:37 03.02.2020
3526 Clouds 14 1030 67 10000 1.5 200 19:18 03.02.2020
3527 Clouds 16 1029 55 10000 2.1 200 18:41 03.02.2020
3528 Clouds 16 1029 55 10000 3.1 190 18:41 03.02.2020
3529 Clouds 17 1029 55 10000 3.1 190 18:22 03.02.2020
3530 Clouds 17 1029 55 10000 2.1 180 17:58 03.02.2020
3531 Clouds 18 1029 55 10000 1.5 190 17:39 03.02.2020
3532 Clouds 18 1029 55 10000 1.5 190 17:19 03.02.2020
3533 Clouds 18 1029 55 10000 1.5 190 17:19 03.02.2020
3534 Clouds 18 1030 52 10000 1.5 240 16:40 03.02.2020
3535 Clouds 18 1030 52 10000 1.5 240 16:22 03.02.2020
3536 Clouds 17 1030 52 10000 1 0 15:58 03.02.2020
3537 Clouds 17 1030 55 10000 1 0 15:39 03.02.2020
3538 Clouds 17 1030 55 10000 1 0 15:20 03.02.2020
3539 Clouds 17 1030 59 10000 0.5 0 14:58 03.02.2020
3540 Clouds 16 1031 59 10000 1 0 14:39 03.02.2020
3541 Clouds 16 1031 59 10000 1 0 14:21 03.02.2020
3542 Clouds 15 1032 67 10000 1 0 13:43 03.02.2020
3543 Clouds 15 1032 67 10000 1 0 13:21 03.02.2020
3544 Clouds 13 1032 67 10000 1 0 12:59 03.02.2020
3545 Clouds 13 1032 71 8000 1 0 12:40 03.02.2020
3546 Clouds 13 1032 71 8000 1 0 12:21 03.02.2020
3547 Clouds 11 1033 76 6000 0.5 250 11:56 03.02.2020
3548 Mist 11 1033 87 5000 1 0 11:37 03.02.2020
3549 Mist 9 1033 87 5000 1 0 11:18 03.02.2020
3550 Fog 9 1032 100 800 1.5 360 10:41 03.02.2020
3551 Fog 8 1032 100 800 1.5 360 10:22 03.02.2020
3552 Mist 8 1032 100 2500 1.5 20 09:48 03.02.2020
3553 Mist 8 1032 93 5000 1 0 09:25 03.02.2020
3554 Mist 8 1032 93 5000 1.5 60 08:57 03.02.2020
3555 Clouds 8 1032 93 6000 1 0 08:39 03.02.2020
3556 Clouds 8 1032 93 6000 1 0 08:21 03.02.2020
3557 Clouds 8 1032 93 6000 1.5 350 07:41 03.02.2020
3558 Mist 8 1032 100 5000 1.5 360 07:21 03.02.2020
3559 Clouds 8 1032 93 9000 1.5 10 06:51 03.02.2020
3560 Clouds 8 1032 93 9000 1 0 06:30 03.02.2020
3561 Clouds 8 1031 93 10000 1.5 30 05:37 03.02.2020
3562 Clouds 9 1031 93 10000 1.5 30 05:18 03.02.2020
3563 Clouds 9 1032 93 9000 1.5 40 03:51 03.02.2020
3564 Clouds 10 1032 87 7000 1.5 360 02:37 03.02.2020
3565 Clouds 10 1032 87 7000 1.5 360 02:18 03.02.2020
3566 Clouds 11 1033 93 7000 1 270 00:48 03.02.2020
3567 Clouds 11 1033 87 7000 0.66 77 00:25 03.02.2020
3568 Clouds 11 1033 81 8000 1 0 23:39 02.02.2020
3569 Clouds 11 1033 81 8000 1 0 23:21 02.02.2020
3570 Clouds 11 1033 87 9000 0.5 0 22:58 02.02.2020
3571 Clouds 11 1033 87 10000 0.5 140 22:38 02.02.2020
3572 Clouds 11 1033 87 10000 0.5 140 22:20 02.02.2020
3573 Clouds 11 1033 87 10000 0.7 63 21:56 02.02.2020
3574 Clouds 11 1032 87 10000 1 0 21:38 02.02.2020
3575 Clouds 11 1032 87 10000 1 0 21:20 02.02.2020
3576 Clouds 11 1032 87 10000 1 0 20:56 02.02.2020
3577 Clouds 11 1032 87 10000 1.5 300 20:37 02.02.2020
3578 Clouds 12 1032 87 10000 1.5 300 20:19 02.02.2020
3579 Clouds 12 1032 87 10000 1.5 270 19:55 02.02.2020
3580 Clouds 12 1031 87 10000 1 240 19:37 02.02.2020
3581 Clouds 12 1031 87 10000 1 240 19:18 02.02.2020
3582 Clouds 12 1031 82 10000 0.5 0 18:39 02.02.2020
3583 Clouds 12 1031 82 10000 0.5 0 18:21 02.02.2020
3584 Clouds 12 1031 82 10000 1.5 230 17:58 02.02.2020
3585 Clouds 12 1031 82 10000 1 0 17:38 02.02.2020
3586 Clouds 12 1031 82 10000 1 0 17:19 02.02.2020
3587 Clouds 12 1031 82 10000 1 0 17:19 02.02.2020
3588 Clouds 12 1031 82 10000 0.5 0 16:59 02.02.2020
3589 Clouds 12 1031 82 10000 1 0 16:40 02.02.2020
3590 Clouds 12 1031 82 10000 1 0 16:19 02.02.2020
3591 Clouds 12 1031 82 10000 1 0 15:59 02.02.2020
3592 Clouds 13 1031 82 10000 0.5 0 15:40 02.02.2020
3593 Clouds 12 1031 82 10000 0.5 0 15:20 02.02.2020
3594 Clouds 12 1031 82 10000 1.5 180 14:59 02.02.2020
3595 Clouds 12 1031 82 10000 1.5 180 14:40 02.02.2020
3596 Clouds 12 1031 93 10000 0.5 0 14:18 02.02.2020
3597 Clouds 12 1032 93 10000 1 0 13:55 02.02.2020
3598 Clouds 12 1032 93 10000 1 0 13:37 02.02.2020
3599 Clouds 12 1032 93 10000 0.5 220 13:19 02.02.2020
3600 Clouds 12 1032 93 10000 0.13 318 12:45 02.02.2020
3601 Clouds 11 1032 93 10000 0.5 0 12:23 02.02.2020
3602 Clouds 11 1032 100 10000 1 0 11:59 02.02.2020
3603 Clouds 11 1032 100 10000 1 0 11:40 02.02.2020
3604 Clouds 11 1032 100 9000 1 0 11:19 02.02.2020
3605 Clouds 11 1032 100 9000 1 0 10:56 02.02.2020
3606 Clouds 11 1032 100 7000 1 0 10:37 02.02.2020
3607 Clouds 11 1032 100 7000 1 0 10:19 02.02.2020
3608 Mist 10 1031 100 4000 1.23 47 09:55 02.02.2020
3609 Mist 10 1031 100 4000 0.88 48 09:37 02.02.2020
3610 Mist 10 1031 100 4000 0.88 48 09:19 02.02.2020
3611 Mist 10 1031 100 4000 1 0 08:42 02.02.2020
3612 Mist 10 1030 100 2500 1 200 08:24 02.02.2020
3613 Mist 10 1030 100 2500 0.5 150 07:46 02.02.2020
3614 Mist 10 1030 100 1200 0.22 185 07:28 02.02.2020
3615 Clouds 10 1029 93 8000 0.22 185 06:43 02.02.2020
3616 Clouds 10 1029 93 10000 0.5 0 06:25 02.02.2020
3617 Clouds 10 1029 100 10000 1 20 05:47 02.02.2020
3618 Clouds 10 1029 100 10000 1 20 05:47 02.02.2020
3619 Clouds 10 1029 100 10000 0.5 0 04:47 02.02.2020
3620 Clouds 10 1029 93 10000 0.5 0 03:26 02.02.2020
3621 Clouds 10 1029 93 10000 1 0 02:31 02.02.2020
3622 Clouds 10 1029 93 10000 1.37 189 01:54 02.02.2020
3623 Clouds 10 1029 93 10000 0.5 0 01:23 02.02.2020
3624 Clouds 10 1029 100 10000 1 140 00:44 02.02.2020
3625 Clouds 10 1029 93 10000 0.5 0 00:22 02.02.2020
3626 Clouds 10 1029 93 10000 0.5 0 23:47 01.02.2020
3627 Clouds 11 1029 93 10000 1.5 160 23:22 01.02.2020
3628 Clouds 11 1028 93 10000 2.1 160 22:51 01.02.2020
3629 Clouds 11 1028 87 10000 2.6 170 22:20 01.02.2020
3630 Clouds 11 1028 87 10000 2.6 170 22:20 01.02.2020
3631 Clouds 11 1028 93 10000 3.1 170 21:59 01.02.2020
3632 Clouds 11 1028 87 10000 2.6 160 21:39 01.02.2020
3633 Clouds 12 1028 87 10000 2.6 160 21:18 01.02.2020
3634 Clouds 12 1028 87 10000 4.1 220 20:41 01.02.2020
3635 Clouds 13 1028 87 10000 4.1 220 20:20 01.02.2020
3636 Clouds 13 1027 87 10000 4.1 230 19:57 01.02.2020
3637 Clouds 13 1027 87 10000 4.6 240 19:39 01.02.2020
3638 Clouds 13 1027 87 10000 4.6 240 19:19 01.02.2020
3639 Clouds 14 1027 87 10000 4.6 230 18:58 01.02.2020
3640 Clouds 15 1027 82 10000 5.1 230 18:40 01.02.2020
3641 Clouds 15 1027 82 10000 5.1 230 18:21 01.02.2020
3642 Clouds 15 1027 82 10000 5.1 230 18:21 01.02.2020
3643 Clouds 16 1027 77 10000 5.1 230 17:57 01.02.2020
3644 Clouds 16 1027 77 10000 5.1 230 17:38 01.02.2020
3645 Clouds 16 1027 82 10000 5.1 230 17:19 01.02.2020
3646 Clouds 16 1026 77 10000 6.7 230 16:42 01.02.2020
3647 Clouds 17 1026 77 10000 6.7 230 16:24 01.02.2020
3648 Clouds 16 1026 77 10000 6.7 220 15:58 01.02.2020
3649 Clouds 17 1026 77 10000 6.2 210 15:38 01.02.2020
3650 Clouds 17 1026 77 10000 6.2 210 15:19 01.02.2020
3651 Clouds 17 1026 77 10000 6.2 210 14:41 01.02.2020
3652 Clouds 17 1027 72 10000 5.1 210 14:21 01.02.2020
3653 Clouds 17 1027 67 10000 5.1 230 13:58 01.02.2020
3654 Clouds 16 1027 67 10000 5.1 230 13:39 01.02.2020
3655 Clouds 16 1027 72 10000 4.1 240 13:18 01.02.2020
3656 Clouds 15 1027 77 10000 4.6 220 12:41 01.02.2020
3657 Clouds 15 1027 77 10000 4.6 220 12:22 01.02.2020
3658 Clouds 13 1026 87 10000 5.1 230 11:44 01.02.2020
3659 Clouds 13 1026 93 10000 5.1 230 11:24 01.02.2020
3660 Clouds 13 1026 93 10000 6.2 240 10:59 01.02.2020
3661 Clouds 12 1025 93 10000 6.2 230 10:41 01.02.2020
3662 Clouds 12 1025 93 10000 6.2 230 10:22 01.02.2020
3663 Clouds 12 1025 100 10000 6.2 230 09:59 01.02.2020
3664 Clouds 12 1025 100 10000 6.2 230 09:40 01.02.2020
3665 Clouds 12 1024 100 10000 6.7 220 09:21 01.02.2020
3666 Clouds 12 1023 100 10000 6.2 230 08:54 01.02.2020
3667 Clouds 12 1023 100 10000 6.7 230 07:59 01.02.2020
3668 Clouds 11 1023 100 10000 6.2 230 07:40 01.02.2020
3669 Clouds 11 1023 100 10000 6.2 230 07:40 01.02.2020
3670 Clouds 12 1023 100 10000 6.2 230 07:22 01.02.2020
3671 Clouds 11 1022 93 10000 3.6 230 06:43 01.02.2020
3672 Clouds 11 1022 93 10000 2.6 220 06:43 01.02.2020
3673 Clouds 11 1022 93 10000 3.1 220 05:54 01.02.2020
3674 Clouds 11 1022 93 10000 3.1 220 05:54 01.02.2020
3675 Drizzle 11 1023 100 9000 4.1 210 04:22 01.02.2020
3676 Drizzle 11 1023 100 9000 4.1 210 04:22 01.02.2020
3677 Clouds 11 1023 100 8000 3.1 200 03:25 01.02.2020
3678 Clouds 11 1023 100 10000 2.6 210 02:53 01.02.2020
3679 Clouds 11 1023 100 10000 3.6 210 02:31 01.02.2020
3680 Clouds 11 1023 100 10000 3.1 200 01:59 01.02.2020
3681 Mist 11 1024 100 5000 3.1 200 01:38 01.02.2020
3682 Clouds 11 1024 100 10000 3.1 200 00:47 01.02.2020
3683 Clouds 11 1024 93 10000 2.1 170 00:23 01.02.2020
3684 Clouds 11 1024 87 10000 3.1 180 23:40 31.01.2020
3685 Clouds 11 1024 87 10000 3.1 180 23:18 31.01.2020
3686 Clouds 11 1024 87 10000 3.1 170 22:56 31.01.2020
3687 Clouds 11 1024 87 10000 3.1 170 22:37 31.01.2020
3688 Clouds 11 1024 87 10000 3.1 170 22:19 31.01.2020
3689 Clouds 11 1024 93 10000 3.1 200 21:40 31.01.2020
3690 Clouds 11 1024 93 10000 3.1 200 21:21 31.01.2020
3691 Clouds 11 1023 87 10000 3.6 230 20:57 31.01.2020
3692 Clouds 11 1023 87 10000 3.6 230 20:39 31.01.2020
3693 Clouds 11 1023 87 10000 3.6 230 20:21 31.01.2020
3694 Clouds 12 1023 87 10000 3.1 230 19:57 31.01.2020
3695 Clouds 11 1023 93 10000 2.6 230 19:38 31.01.2020
3696 Clouds 12 1023 93 10000 2.6 230 19:19 31.01.2020
3697 Clouds 12 1023 87 10000 3.1 230 18:54 31.01.2020
3698 Clouds 12 1023 82 10000 4.6 230 18:36 31.01.2020
3699 Clouds 13 1023 82 10000 4.6 230 18:18 31.01.2020
3700 Clouds 13 1023 82 10000 4.6 230 18:18 31.01.2020
3701 Clouds 13 1023 82 10000 5.1 230 17:40 31.01.2020
3702 Clouds 13 1023 82 10000 5.1 230 17:40 31.01.2020
3703 Clouds 13 1023 76 10000 4.6 220 17:21 31.01.2020
3704 Clouds 14 1023 76 10000 4.6 240 16:56 31.01.2020
3705 Clouds 14 1023 76 10000 4.6 240 16:56 31.01.2020
3706 Clouds 14 1024 76 10000 7.2 240 16:38 31.01.2020
3707 Clouds 14 1024 76 10000 7.2 240 16:19 31.01.2020
3708 Clouds 14 1024 76 10000 5.1 230 15:57 31.01.2020
3709 Clouds 14 1024 72 10000 5.7 190 15:38 31.01.2020
3710 Clouds 14 1024 72 10000 5.7 190 15:38 31.01.2020
3711 Clouds 14 1024 72 10000 5.7 190 15:19 31.01.2020
3712 Clouds 14 1024 77 10000 4.6 190 14:42 31.01.2020
3713 Clouds 14 1024 77 10000 4.6 190 14:42 31.01.2020
3714 Clouds 14 1024 77 10000 4.1 220 14:23 31.01.2020
3715 Clouds 14 1024 76 10000 4.1 220 13:52 31.01.2020
3716 Clouds 13 1025 76 10000 3.6 230 13:32 31.01.2020
3717 Clouds 13 1025 82 10000 3.1 220 12:56 31.01.2020
3718 Clouds 13 1025 82 10000 3.1 220 12:56 31.01.2020
3719 Clouds 12 1025 82 10000 3.1 210 12:38 31.01.2020
3720 Clouds 12 1025 82 10000 3.1 210 12:38 31.01.2020
3721 Clouds 12 1025 82 10000 3.1 210 12:20 31.01.2020
3722 Clouds 11 1025 87 10000 5.7 250 11:42 31.01.2020
3723 Clouds 10 1025 87 10000 5.7 250 11:23 31.01.2020
3724 Fog 10 1026 87 9000 5.1 250 10:58 31.01.2020
3725 Fog 10 1025 100 1300 4.6 230 10:39 31.01.2020
3726 Fog 10 1025 100 1300 4.6 230 10:20 31.01.2020
3727 Fog 9 1025 100 1500 2.6 250 09:55 31.01.2020
3728 Fog 10 1025 100 900 3.1 250 09:37 31.01.2020
3729 Fog 9 1025 100 900 3.1 250 09:18 31.01.2020
3730 Fog 9 1025 93 1100 5.7 230 08:49 31.01.2020
3731 Clouds 10 1024 100 6000 5.7 240 08:24 31.01.2020
3732 Clouds 10 1024 93 10000 7.2 240 07:52 31.01.2020
3733 Clouds 10 1024 100 10000 7.2 240 07:24 31.01.2020
3734 Clouds 10 1024 87 10000 3.6 250 06:42 31.01.2020
3735 Clouds 10 1024 87 10000 3.6 250 05:58 31.01.2020
3736 Clouds 10 1024 87 10000 1.5 270 05:37 31.01.2020
3737 Clouds 10 1024 87 10000 3.1 240 04:47 31.01.2020
3738 Clouds 9 1024 87 10000 4.1 230 02:58 31.01.2020
3739 Clouds 9 1025 87 10000 4.1 230 01:32 31.01.2020
3740 Clouds 9 1025 100 10000 2.1 160 00:43 31.01.2020
3741 Clouds 9 1025 100 10000 2.1 160 00:24 31.01.2020
3742 Clouds 9 1025 93 10000 2.6 170 23:48 30.01.2020
3743 Clouds 9 1025 81 10000 2.1 230 23:23 30.01.2020
3744 Clouds 9 1024 87 10000 4.1 230 22:56 30.01.2020
3745 Clouds 9 1024 87 10000 4.1 230 22:56 30.01.2020
3746 Clouds 9 1024 81 10000 3.6 230 22:36 30.01.2020
3747 Clouds 9 1024 81 10000 3.6 230 22:18 30.01.2020
3748 Rain 9 1025 87 10000 5.7 230 21:43 30.01.2020
3749 Rain 9 1025 87 10000 5.7 230 21:19 30.01.2020
3750 Clouds 9 1024 87 10000 4.6 230 20:59 30.01.2020
3751 Clouds 9 1024 87 10000 3.6 220 20:38 30.01.2020
3752 Clouds 9 1024 87 10000 3.6 220 20:20 30.01.2020
3753 Clouds 10 1024 81 10000 3.1 220 19:55 30.01.2020
3754 Clouds 10 1024 87 10000 4.6 230 19:36 30.01.2020
3755 Clouds 10 1024 87 10000 4.6 230 19:18 30.01.2020
3756 Clouds 10 1024 87 10000 4.6 230 19:18 30.01.2020
3757 Clouds 11 1024 81 10000 5.1 240 18:39 30.01.2020
3758 Clouds 11 1024 81 10000 5.1 240 18:19 30.01.2020
3759 Clouds 11 1024 76 10000 5.1 220 17:55 30.01.2020
3760 Clouds 12 1023 76 10000 4.1 220 17:36 30.01.2020
3761 Clouds 11 1023 76 10000 4.1 220 17:18 30.01.2020
3762 Clouds 12 1023 76 10000 4.6 220 16:41 30.01.2020
3763 -273 0 0 0 0 0 16:21 30.01.2020
3764 Clouds 11 1024 71 10000 5.7 220 15:58 30.01.2020
3765 Clouds 11 1024 76 10000 5.1 230 15:40 30.01.2020
3766 Clouds 11 1024 76 10000 5.1 230 15:19 30.01.2020
3767 Clouds 11 1024 81 10000 5.7 240 14:43 30.01.2020
3768 Clouds 11 1024 81 10000 6.7 240 14:43 30.01.2020
3769 Clouds 11 1024 81 10000 6.7 240 14:25 30.01.2020
3770 Clouds 11 1024 76 10000 7.2 240 13:43 30.01.2020
3771 Rain 10 1025 81 10000 5.7 240 13:24 30.01.2020
3772 Rain 10 1025 87 10000 5.1 250 12:58 30.01.2020
3773 Rain 10 1025 87 10000 5.1 250 12:39 30.01.2020
3774 Clouds 10 1025 93 10000 4.6 240 12:21 30.01.2020
3775 Clouds 9 1025 87 10000 4.1 240 11:41 30.01.2020
3776 Clouds 9 1025 93 10000 5.1 220 11:23 30.01.2020
3777 Clouds 9 1025 87 10000 3.6 220 10:59 30.01.2020
3778 Clouds 9 1025 87 10000 3.6 220 10:59 30.01.2020
3779 Clouds 9 1025 87 10000 3.6 220 10:41 30.01.2020
3780 Clouds 9 1025 100 10000 3.1 190 10:21 30.01.2020
3781 Clouds 9 1024 93 10000 3.1 220 09:47 30.01.2020
3782 Clouds 9 1024 93 10000 3.1 220 09:28 30.01.2020
3783 Clouds 8 1024 100 8000 2.6 220 08:57 30.01.2020
3784 Clouds 8 1024 100 7000 3.6 240 08:37 30.01.2020
3785 Clouds 8 1024 100 7000 3.6 240 08:18 30.01.2020
3786 Clouds 8 1023 93 10000 4.1 240 07:48 30.01.2020
3787 Clouds 9 1023 93 10000 3.1 230 07:20 30.01.2020
3788 Clouds 9 1023 93 10000 3.1 200 06:47 30.01.2020
3789 Clouds 9 1023 93 10000 3.1 210 06:27 30.01.2020
3790 Clouds 9 1023 93 10000 2.6 190 05:43 30.01.2020
3791 Clouds 9 1023 87 10000 2.6 190 05:19 30.01.2020
3792 Clouds 9 1024 93 10000 2.1 190 03:52 30.01.2020
3793 Clouds 9 1024 93 10000 3.6 220 03:34 30.01.2020
3794 Clouds 9 1024 93 10000 1.5 160 01:57 30.01.2020
3795 Clouds 10 1024 87 10000 3.1 190 00:38 30.01.2020
3796 Clouds 10 1024 87 10000 3.1 190 00:19 30.01.2020
3797 Clouds 10 1025 81 10000 3.1 230 23:45 29.01.2020
3798 Clouds 10 1024 81 10000 3.1 220 23:21 29.01.2020
3799 Clouds 10 1024 81 10000 3.1 220 23:21 29.01.2020
3800 Clouds 11 1024 81 10000 2.6 230 22:56 29.01.2020
3801 Clouds 11 1024 93 10000 6.7 230 22:38 29.01.2020
3802 Clouds 11 1024 93 10000 6.7 230 22:19 29.01.2020
3803 Clouds 11 1024 93 10000 7.2 230 21:57 29.01.2020
3804 Clouds 11 1024 93 10000 5.1 230 21:38 29.01.2020
3805 Clouds 11 1024 93 10000 5.1 230 21:19 29.01.2020
3806 Clouds 11 1024 87 10000 4.6 230 20:57 29.01.2020
3807 Clouds 11 1024 87 10000 5.7 240 20:37 29.01.2020
3808 Clouds 11 1024 87 10000 5.7 240 20:19 29.01.2020
3809 Clouds 11 1024 87 10000 5.1 230 19:55 29.01.2020
3810 Clouds 11 1024 87 10000 5.1 230 19:36 29.01.2020
3811 Clouds 11 1024 87 10000 5.1 230 19:18 29.01.2020
3812 Clouds 12 1023 87 10000 5.7 220 18:42 29.01.2020
3813 Clouds 12 1023 87 10000 5.7 220 18:19 29.01.2020
3814 Clouds 12 1023 76 10000 4.6 210 17:55 29.01.2020
3815 Clouds 13 1023 82 10000 5.1 230 17:37 29.01.2020
3816 Clouds 13 1023 76 10000 5.7 220 17:18 29.01.2020
3817 Clouds 13 1023 76 10000 6.2 230 16:40 29.01.2020
3818 Clouds 13 1023 76 10000 6.2 230 16:22 29.01.2020
3819 Clouds 13 1023 82 10000 4.6 210 15:40 29.01.2020
3820 Clouds 13 1023 82 10000 4.6 210 15:22 29.01.2020
3821 Clouds 13 1023 82 10000 4.6 210 15:22 29.01.2020
3822 Clouds 13 1024 76 10000 5.1 220 14:58 29.01.2020
3823 Clouds 13 1024 76 10000 5.1 220 14:58 29.01.2020
3824 Clouds 13 1024 76 10000 5.1 210 14:40 29.01.2020
3825 Clouds 13 1024 76 10000 5.1 210 14:18 29.01.2020
3826 Clouds 13 1024 82 10000 5.1 220 13:41 29.01.2020
3827 Clouds 12 1025 87 10000 4.6 220 13:22 29.01.2020
3828 Clouds 12 1025 87 10000 5.1 230 12:58 29.01.2020
3829 Clouds 12 1025 87 10000 5.1 230 12:39 29.01.2020
3830 Clouds 11 1025 93 10000 4.6 240 12:21 29.01.2020
3831 Clouds 11 1025 93 10000 5.1 230 11:56 29.01.2020
3832 Clouds 11 1025 93 10000 4.6 230 11:38 29.01.2020
3833 Clouds 11 1025 93 10000 4.6 230 11:38 29.01.2020
3834 Clouds 11 1025 93 10000 4.6 230 11:19 29.01.2020
3835 Clouds 10 1024 100 10000 3.1 200 10:46 29.01.2020
3836 Clouds 10 1024 100 10000 3.1 200 10:22 29.01.2020
3837 Clouds 10 1024 100 10000 4.1 230 09:40 29.01.2020
3838 Clouds 10 1024 100 10000 4.1 230 09:40 29.01.2020
3839 Clouds 10 1024 100 10000 4.1 230 09:22 29.01.2020
3840 Clouds 10 1024 100 10000 4.1 240 08:59 29.01.2020
3841 Clouds 10 1024 100 10000 4.6 240 08:40 29.01.2020
3842 Clouds 10 1024 100 10000 4.6 240 08:22 29.01.2020
3843 Clouds 10 1023 100 10000 5.1 230 07:45 29.01.2020
3844 Clouds 10 1023 100 10000 5.1 230 07:25 29.01.2020
3845 Clouds 10 1023 87 10000 2.1 150 06:55 29.01.2020
3846 Clouds 10 1022 87 10000 2.1 190 06:37 29.01.2020
3847 Clouds 10 1022 87 10000 2.1 190 06:18 29.01.2020
3848 Clouds 10 1023 93 10000 3.6 240 05:47 29.01.2020
3849 Clouds 10 1023 93 10000 3.6 240 05:29 29.01.2020
3850 Clouds 10 1023 93 10000 4.6 220 04:38 29.01.2020
3851 Clouds 10 1022 87 10000 3.6 230 03:55 29.01.2020
3852 Clouds 10 1022 93 10000 4.6 220 02:33 29.01.2020
3853 Clouds 10 1023 93 10000 5.7 220 00:51 29.01.2020
3854 Clouds 11 1022 93 10000 5.1 220 00:29 29.01.2020
3855 Clouds 10 1023 93 10000 4.6 230 23:58 28.01.2020
3856 Clouds 11 1022 93 10000 6.2 240 23:37 28.01.2020
3857 Clouds 11 1022 93 10000 6.2 240 23:19 28.01.2020
3858 Clouds 10 1022 93 10000 6.2 240 22:44 28.01.2020
3859 Clouds 11 1022 93 10000 5.7 230 22:26 28.01.2020
3860 Clouds 11 1023 93 10000 2.6 200 21:54 28.01.2020
3861 Clouds 10 1023 93 10000 2.6 200 21:36 28.01.2020
3862 Clouds 11 1023 93 10000 2.6 200 21:18 28.01.2020
3863 Clouds 11 1023 93 10000 2.6 200 21:18 28.01.2020
3864 Clouds 11 1023 93 10000 2.6 200 21:18 28.01.2020
3865 Clouds 11 1022 87 10000 6.7 240 20:45 28.01.2020
3866 Clouds 10 1023 93 10000 5.7 230 20:25 28.01.2020
3867 Clouds 11 1022 93 10000 6.2 230 19:55 28.01.2020
3868 Clouds 11 1022 93 10000 7.2 230 19:36 28.01.2020
3869 Clouds 11 1022 93 10000 7.2 230 19:18 28.01.2020
3870 Clouds 11 1022 93 10000 7.2 230 19:18 28.01.2020
3871 Clouds 11 1022 93 10000 7.2 220 18:41 28.01.2020
3872 Clouds 11 1022 87 10000 6.7 230 18:23 28.01.2020
3873 Clouds 12 1022 87 10000 7.7 230 17:59 28.01.2020
3874 Clouds 12 1022 87 10000 7.7 220 17:39 28.01.2020
3875 Clouds 12 1022 87 10000 7.7 220 17:21 28.01.2020
3876 Clouds 12 1022 87 10000 7.7 230 16:57 28.01.2020
3877 Rain 12 1022 93 10000 8.2 230 16:39 28.01.2020
3878 Rain 12 1022 93 10000 8.2 230 16:21 28.01.2020
3879 Clouds 12 1022 87 10000 7.2 220 15:45 28.01.2020
3880 Clouds 12 1022 87 10000 7.2 220 15:19 28.01.2020
3881 Clouds 12 1022 82 10000 7.2 230 14:57 28.01.2020
3882 Clouds 12 1023 87 10000 7.7 230 14:39 28.01.2020
3883 Clouds 12 1023 87 10000 7.7 230 14:18 28.01.2020
3884 Rain 12 1023 87 10000 7.2 220 13:41 28.01.2020
3885 Rain 12 1023 87 10000 7.2 220 13:23 28.01.2020
3886 Clouds 12 1024 93 10000 6.7 220 12:43 28.01.2020
3887 Clouds 11 1024 93 10000 7.7 230 12:24 28.01.2020
3888 Clouds 11 1023 93 9000 6.2 220 11:56 28.01.2020
3889 Clouds 11 1023 93 9000 5.7 210 11:38 28.01.2020
3890 Clouds 10 1023 93 9000 5.7 210 11:19 28.01.2020
3891 Clouds 10 1023 100 8000 6.7 230 10:41 28.01.2020
3892 Clouds 10 1023 100 8000 6.7 230 10:23 28.01.2020
3893 Clouds 10 1022 100 10000 7.2 230 09:58 28.01.2020
3894 Clouds 9 1022 100 10000 5.1 230 09:38 28.01.2020
3895 Clouds 9 1022 100 10000 5.1 230 09:19 28.01.2020
3896 Clouds 9 1022 93 10000 4.6 230 08:43 28.01.2020
3897 Clouds 9 1022 93 10000 4.6 230 08:21 28.01.2020
3898 Clouds 9 1021 93 10000 4.6 220 07:39 28.01.2020
3899 Clouds 9 1021 93 10000 6.2 230 06:58 28.01.2020
3900 Clouds 9 1021 93 10000 6.2 230 06:40 28.01.2020
3901 Clouds 9 1021 87 10000 6.7 240 06:22 28.01.2020
3902 Clouds 9 1021 87 10000 6.2 230 05:34 28.01.2020
3903 Clouds 9 1021 87 10000 4.6 220 04:40 28.01.2020
3904 Clouds 8 1022 100 10000 5.1 200 03:41 28.01.2020
3905 Clouds 8 1021 93 10000 7.2 220 02:40 28.01.2020
3906 Clouds 8 1021 93 10000 7.2 220 02:21 28.01.2020
3907 Clouds 8 1022 93 10000 6.2 220 01:48 28.01.2020
3908 Clouds 8 1022 93 10000 5.7 210 00:51 28.01.2020
3909 Clouds 8 1022 93 10000 4.6 210 00:30 28.01.2020
3910 Clouds 8 1022 87 10000 5.1 220 23:59 27.01.2020
3911 Clouds 8 1022 87 10000 6.7 230 23:41 27.01.2020
3912 Clouds 8 1022 87 10000 6.7 230 23:18 27.01.2020
3913 Clouds 8 1022 81 10000 4.1 220 22:44 27.01.2020
3914 Clouds 8 1022 81 10000 6.2 220 22:20 27.01.2020
3915 Clouds 7 1022 81 10000 5.7 230 21:57 27.01.2020
3916 Clouds 7 1022 81 10000 5.1 220 21:38 27.01.2020
3917 Clouds 8 1022 81 10000 5.1 220 21:18 27.01.2020
3918 Clouds 8 1022 81 10000 5.7 220 20:55 27.01.2020
3919 Clouds 8 1022 87 10000 4.6 210 20:37 27.01.2020
3920 Clouds 8 1022 87 10000 4.6 210 20:18 27.01.2020
3921 Clouds 8 1022 81 10000 3.6 210 19:41 27.01.2020
3922 Clouds 8 1022 81 10000 3.6 210 19:23 27.01.2020
3923 Clouds 8 1022 81 10000 5.1 210 18:57 27.01.2020
3924 Clouds 8 1022 81 10000 5.1 210 18:39 27.01.2020
3925 Clouds 8 1022 81 10000 5.1 210 18:39 27.01.2020
3926 Clouds 8 1022 81 10000 4.6 220 18:20 27.01.2020
3927 Clouds 8 1022 76 10000 4.6 210 17:55 27.01.2020
3928 Clouds 8 1022 76 10000 6.2 230 17:37 27.01.2020
3929 Clouds 8 1022 76 10000 6.2 230 17:37 27.01.2020
3930 Clouds 8 1022 76 10000 6.2 230 17:18 27.01.2020
3931 Clouds 8 1022 81 10000 6.2 220 16:42 27.01.2020
3932 Clouds 7 1022 81 10000 6.2 220 16:24 27.01.2020
3933 Clouds 8 1022 81 10000 6.2 220 16:24 27.01.2020
3934 Clouds 7 1022 81 10000 7.2 220 15:56 27.01.2020
3935 Clouds 7 1022 81 10000 7.2 220 15:38 27.01.2020
3936 Clouds 7 1022 93 10000 4.6 240 15:19 27.01.2020
3937 Clouds 7 1023 93 10000 4.6 240 14:55 27.01.2020
3938 Clouds 6 1023 93 10000 3.1 240 14:36 27.01.2020
3939 Clouds 6 1023 93 10000 3.1 240 14:18 27.01.2020
3940 Clouds 6 1023 93 10000 3.6 260 13:42 27.01.2020
3941 Clouds 6 1024 87 10000 5.1 210 13:21 27.01.2020
3942 Clouds 6 1024 87 10000 5.1 210 13:21 27.01.2020
3943 Clouds 6 1024 87 10000 3.1 190 12:56 27.01.2020
3944 Clouds 5 1024 100 6000 2.1 180 12:37 27.01.2020
3945 Clouds 5 1024 100 6000 2.1 180 12:19 27.01.2020
3946 Clouds 5 1024 100 6000 2.1 180 12:19 27.01.2020
3947 Drizzle 5 1025 100 3000 2.1 190 11:42 27.01.2020
3948 Drizzle 5 1024 100 1800 3.1 160 11:21 27.01.2020
3949 Drizzle 5 1024 100 1800 3.1 160 11:21 27.01.2020
3950 Fog 4 1023 100 200 1 0 10:44 27.01.2020
3951 Fog 4 1023 100 200 1 0 10:25 27.01.2020
3952 Fog 4 1024 100 500 3.86 228 09:58 27.01.2020
3953 Fog 3 1024 100 300 3.86 228 09:39 27.01.2020
3954 Fog 3 1024 100 300 3.86 228 09:18 27.01.2020
3955 Fog 3 1024 100 200 3.86 228 08:46 27.01.2020
3956 Fog 3 1024 100 200 1.42 178 08:22 27.01.2020
3957 Fog 3 1024 100 200 1.42 178 07:55 27.01.2020
3958 Fog 3 1023 100 200 1.42 178 07:35 27.01.2020
3959 Fog 3 1024 93 800 1.42 178 06:55 27.01.2020
3960 Fog 3 1024 100 800 0.5 0 06:27 27.01.2020
3961 Fog 3 1024 100 600 0.5 0 05:37 27.01.2020
3962 Clouds 2 1024 93 7000 0.5 0 04:20 27.01.2020
3963 Clouds 3 1024 93 9000 1 0 03:23 27.01.2020
3964 Clouds 3 1025 93 10000 1.5 150 01:32 27.01.2020
3965 Clouds 4 1025 86 10000 2.1 190 00:59 27.01.2020
3966 Clouds 4 1025 93 10000 1 190 00:38 27.01.2020
3967 Clouds 4 1025 93 10000 1 190 00:19 27.01.2020
3968 Clouds 4 1024 86 10000 3.1 150 23:42 26.01.2020
3969 Clouds 5 1024 87 10000 3.1 160 23:20 26.01.2020
3970 Clouds 5 1025 87 10000 2.6 160 22:57 26.01.2020
3971 Clouds 5 1025 87 10000 2.6 160 22:37 26.01.2020
3972 Clouds 5 1024 87 10000 1.5 150 22:18 26.01.2020
3973 Clouds 6 1024 81 10000 3.1 250 21:56 26.01.2020
3974 Clouds 6 1024 81 10000 4.1 240 21:38 26.01.2020
3975 Clouds 6 1024 81 10000 4.1 240 21:19 26.01.2020
3976 Clouds 6 1024 81 10000 4.6 250 20:55 26.01.2020
3977 -273 0 0 0 0 0 20:37 26.01.2020
3978 Clouds 7 1024 87 10000 4.1 240 20:18 26.01.2020
3979 Clouds 7 1024 93 10000 4.1 240 19:56 26.01.2020
3980 Clouds 7 1023 87 10000 3.6 220 19:37 26.01.2020
3981 Clouds 8 1023 87 10000 3.6 220 19:18 26.01.2020
3982 Clouds 8 1023 75 10000 3.1 220 18:41 26.01.2020
3983 Clouds 9 1023 76 10000 4.6 230 18:22 26.01.2020
3984 Clouds 10 1023 76 10000 3.6 210 17:59 26.01.2020
3985 Clouds 10 1023 76 10000 3.6 210 17:59 26.01.2020
3986 Clouds 10 1023 76 10000 3.6 220 17:39 26.01.2020
3987 Clouds 10 1023 76 10000 3.6 220 17:20 26.01.2020
3988 Clouds 10 1022 71 10000 5.1 220 16:58 26.01.2020
3989 Clouds 10 1022 71 10000 5.1 230 16:40 26.01.2020
3990 Clouds 11 1022 71 10000 5.1 230 16:21 26.01.2020
3991 Clouds 11 1022 66 10000 4.6 220 15:58 26.01.2020
3992 Clouds 11 1022 71 10000 3.1 270 15:39 26.01.2020
3993 Clear 11 1019 65 0 2.24 238 15:19 26.01.2020
3994 Clear 10 1020 66 0 2.24 205 14:41 26.01.2020
3995 Clear 10 1019 63 0 2.24 213 14:22 26.01.2020
3996 Clear 10 1019 70 0 1.79 246 13:57 26.01.2020
3997 Clear 9 1020 69 0 2.24 240 13:37 26.01.2020
3998 Clear 9 1020 70 0 1.34 267 13:18 26.01.2020
3999 Clear 9 1020 68 0 1.79 278 12:42 26.01.2020
4000 Clear 8 1020 70 0 1.34 282 12:24 26.01.2020
4001 Clear 8 1020 70 0 1.34 282 12:24 26.01.2020
4002 Clear 8 1021 97 0 0.89 135 12:24 26.01.2020
4003 Clear 7 1020 75 0 0.89 274 11:58 26.01.2020
4004 Fog 7 1022 100 2000 0.89 235 11:39 26.01.2020
4005 Clear 7 1025 76 0 0.89 187 11:39 26.01.2020
4006 Fog 6 1022 100 2000 0.53 139 11:19 26.01.2020
4007 Fog 6 1022 100 2000 0.53 139 10:58 26.01.2020
4008 Fog 5 1022 100 2000 0.53 139 10:38 26.01.2020
4009 Fog 5 1022 100 2000 0.53 139 10:20 26.01.2020
4010 Fog 4 1022 100 200 1 290 09:58 26.01.2020
4011 Fog 4 1022 100 200 1 290 09:40 26.01.2020
4012 Fog 4 1022 100 200 1 260 09:21 26.01.2020
4013 Mist 4 1021 100 1500 1.5 290 08:44 26.01.2020
4014 Mist 4 1021 100 1500 1.5 290 08:23 26.01.2020
4015 Fog 4 1020 100 900 2.1 240 07:58 26.01.2020
4016 Fog 4 1020 100 300 3.1 250 07:39 26.01.2020
4017 Fog 4 1020 100 300 3.1 250 07:21 26.01.2020
4018 Fog 4 1019 100 300 0.97 191 06:31 26.01.2020
4019 Mist 5 1019 100 2900 1 330 05:32 26.01.2020
4020 Mist 5 1019 100 2900 1 330 05:32 26.01.2020
4021 Mist 5 1019 100 2900 1.5 40 04:45 26.01.2020
4022 Fog 5 1018 100 8000 0.5 0 02:58 26.01.2020
4023 Fog 6 1018 100 8000 0.49 163 01:50 26.01.2020
4024 Clouds 6 1018 100 9000 1.5 360 01:25 26.01.2020
4025 Clouds 6 1018 100 10000 0.5 0 00:58 26.01.2020
4026 Clouds 6 1018 100 10000 1.5 340 00:37 26.01.2020
4027 Clouds 6 1018 100 10000 1.5 340 00:19 26.01.2020
4028 Clouds 7 1015 88 0 0.89 38 23:37 25.01.2020
4029 Rain 7 1016 97 0 0.89 94 23:18 25.01.2020
4030 Rain 7 1015 97 0 1.34 92 22:40 25.01.2020
4031 Rain 7 1014 90 0 1.34 27 22:19 25.01.2020
4032 Rain 7 1015 97 0 0.45 172 21:57 25.01.2020
4033 Rain 7 1014 90 0 0.89 50 21:38 25.01.2020
4034 Rain 7 1015 97 0 0.17 120 21:20 25.01.2020
4035 Rain 7 1019 91 0 0.17 120 20:44 25.01.2020
4036 Rain 7 1013 89 0 0.89 298 20:25 25.01.2020
4037 Rain 7 1013 90 0 0.45 147 19:56 25.01.2020
4038 Rain 7 1012 89 0 1.79 146 19:37 25.01.2020
4039 Rain 7 1018 87 0 0.45 180 19:18 25.01.2020
4040 Rain 7 1018 86 0 0.45 180 18:43 25.01.2020
4041 Rain 7 1014 95 0 1.34 197 18:23 25.01.2020
4042 Rain 7 1012 89 0 1.79 153 17:59 25.01.2020
4043 Rain 7 1012 88 0 2.24 139 17:39 25.01.2020
4044 Rain 7 1012 87 0 1.79 151 17:19 25.01.2020
4045 Rain 8 1012 88 0 2.68 146 16:56 25.01.2020
4046 Rain 8 1012 88 0 3.58 184 16:36 25.01.2020
4047 Rain 8 1012 89 0 3.13 179 16:18 25.01.2020
4048 Rain 8 1014 96 0 3.13 203 15:42 25.01.2020
4049 Rain 8 1017 83 0 3.13 195 15:23 25.01.2020
4050 Rain 8 1013 88 0 1.79 155 14:44 25.01.2020
4051 Rain 8 1013 87 0 2.24 144 14:19 25.01.2020
4052 Rain 9 1014 91 0 3.58 188 13:56 25.01.2020
4053 Rain 8 1013 87 0 1.34 175 13:38 25.01.2020
4054 Rain 8 1014 87 0 1.34 172 13:18 25.01.2020
4055 Clouds 9 1018 93 10000 2.6 140 12:42 25.01.2020
4056 Clouds 8 1018 93 10000 2.6 140 12:21 25.01.2020
4057 Clouds 8 1018 93 10000 2.6 140 11:43 25.01.2020
4058 Clouds 8 1017 93 10000 2.1 130 11:21 25.01.2020
4059 Clouds 8 1017 93 10000 2.1 130 11:21 25.01.2020
4060 Clouds 7 1017 93 10000 3.1 140 10:56 25.01.2020
4061 Clouds 7 1017 93 10000 3.1 140 10:38 25.01.2020
4062 Clouds 7 1017 93 10000 2.6 130 10:19 25.01.2020
4063 Clouds 7 1017 93 10000 3.1 120 09:40 25.01.2020
4064 Clouds 7 1017 93 10000 3.1 120 09:20 25.01.2020
4065 Drizzle 7 1016 100 7000 3.1 120 08:43 25.01.2020
4066 Drizzle 7 1016 100 7000 3.1 120 08:20 25.01.2020
4067 Clouds 7 1016 100 7000 3.6 120 07:41 25.01.2020
4068 Rain 6 1016 93 10000 1 0 06:44 25.01.2020
4069 Rain 6 1016 93 10000 0.5 0 06:24 25.01.2020
4070 Rain 6 1016 93 10000 0.5 0 06:24 25.01.2020
4071 Rain 6 1016 100 9000 1 50 05:44 25.01.2020
4072 Rain 6 1017 100 9000 1 0 04:25 25.01.2020
4073 Rain 6 1017 100 10000 1 0 03:50 25.01.2020
4074 Clouds 6 1018 93 10000 0.5 0 02:48 25.01.2020
4075 Clouds 6 1018 100 10000 1 0 01:59 25.01.2020
4076 Clouds 6 1018 100 10000 1.5 330 01:35 25.01.2020
4077 Clouds 6 1019 93 10000 1 340 00:42 25.01.2020
4078 Clouds 6 1019 93 10000 1 340 00:23 25.01.2020
4079 Clouds 6 1019 93 10000 1 350 23:56 24.01.2020
4080 Clouds 6 1019 100 10000 1 330 23:38 24.01.2020
4081 Clouds 6 1019 100 10000 1 330 23:38 24.01.2020
4082 Clouds 6 1019 100 10000 1 330 23:19 24.01.2020
4083 Clouds 6 1019 93 10000 1.5 350 22:42 24.01.2020
4084 Clouds 7 1019 93 10000 1.5 340 22:23 24.01.2020
4085 Clouds 6 1019 100 10000 1 0 21:41 24.01.2020
4086 Clouds 7 1019 93 10000 1.5 340 21:20 24.01.2020
4087 Clouds 7 1019 93 10000 1 10 20:55 24.01.2020
4088 Clouds 7 1019 87 10000 1 0 20:37 24.01.2020
4089 Clouds 7 1019 87 10000 1 0 20:18 24.01.2020
4090 Clouds 7 1019 87 10000 1.5 80 19:55 24.01.2020
4091 Clouds 7 1019 81 10000 1 0 19:37 24.01.2020
4092 Clouds 7 1019 81 10000 1 0 19:19 24.01.2020
4093 Clouds 7 1019 81 10000 1 0 19:19 24.01.2020
4094 Clouds 7 1019 81 10000 1.5 130 18:42 24.01.2020
4095 Clouds 8 1019 81 10000 2.1 120 18:22 24.01.2020
4096 Clouds 8 1019 87 10000 2.1 100 17:45 24.01.2020
4097 Clouds 8 1019 87 10000 2.1 100 17:45 24.01.2020
4098 Clouds 8 1019 87 10000 3.1 120 17:22 24.01.2020
4099 Rain 8 1019 81 10000 2.1 110 16:57 24.01.2020
4100 Clouds 8 1019 87 10000 2.1 100 16:38 24.01.2020
4101 Clouds 8 1019 87 10000 2.1 100 16:19 24.01.2020
4102 Clouds 8 1019 87 10000 1.5 0 15:42 24.01.2020
4103 Clouds 8 1019 87 10000 1.5 0 15:21 24.01.2020
4104 Clouds 8 1020 87 10000 2.1 140 14:55 24.01.2020
4105 Clouds 8 1020 87 10000 2.1 140 14:55 24.01.2020
4106 Clouds 8 1020 87 10000 2.6 130 14:36 24.01.2020
4107 Clouds 8 1020 87 10000 2.6 130 14:18 24.01.2020
4108 Clouds 8 1021 87 10000 2.6 110 13:41 24.01.2020
4109 Clouds 8 1021 87 10000 2.6 110 13:21 24.01.2020
4110 Rain 7 1021 93 8000 2.6 100 12:43 24.01.2020
4111 Drizzle 7 1021 93 7000 3.1 110 12:21 24.01.2020
4112 Drizzle 6 1021 93 7000 3.1 110 11:45 24.01.2020
4113 Drizzle 6 1021 100 7000 3.6 100 11:19 24.01.2020
4114 Drizzle 6 1021 100 7000 3.6 100 10:58 24.01.2020
4115 Rain 6 1020 100 8000 3.6 100 10:40 24.01.2020
4116 Rain 6 1020 100 400 1 0 10:19 24.01.2020
4117 Rain 6 1020 93 8000 3.6 90 09:41 24.01.2020
4118 Rain 6 1020 93 5000 3.1 100 09:23 24.01.2020
4119 Rain 6 1020 93 7000 2.6 130 08:41 24.01.2020
4120 Rain 6 1020 93 7000 2.6 130 08:21 24.01.2020
4121 Rain 6 1020 93 8000 2.1 120 07:59 24.01.2020
4122 Rain 7 1020 93 8000 2.1 130 07:41 24.01.2020
4123 Rain 7 1020 93 8000 2.1 130 07:18 24.01.2020
4124 Clouds 7 1019 87 10000 0.5 0 06:42 24.01.2020
4125 Clouds 6 1019 87 10000 0.5 0 06:18 24.01.2020
4126 Clouds 7 1019 87 10000 1.5 350 05:20 24.01.2020
4127 Clouds 7 1019 87 10000 1 0 03:29 24.01.2020
4128 Clouds 7 1020 87 10000 1 0 02:39 24.01.2020
4129 Clouds 7 1020 87 10000 1 0 02:19 24.01.2020
4130 Clouds 7 1020 81 10000 1.5 110 01:38 24.01.2020
4131 Clouds 7 1020 87 10000 1 0 00:40 24.01.2020
4132 Clouds 7 1020 87 10000 1 0 00:18 24.01.2020
4133 Clouds 7 1020 81 10000 1 0 23:41 23.01.2020
4134 Clouds 7 1020 81 10000 1 0 23:21 23.01.2020
4135 Clouds 7 1020 81 10000 0.5 0 22:58 23.01.2020
4136 Clouds 8 1019 75 10000 1 0 22:36 23.01.2020
4137 Clouds 8 1019 75 10000 1 0 22:18 23.01.2020
4138 Clouds 8 1019 75 10000 0.5 0 21:55 23.01.2020
4139 Clouds 8 1019 75 10000 1.5 110 21:37 23.01.2020
4140 Clouds 8 1019 75 10000 1.5 110 21:18 23.01.2020
4141 Clouds 8 1019 75 10000 1 0 20:41 23.01.2020
4142 Clouds 8 1019 71 10000 1.5 60 20:22 23.01.2020
4143 Clouds 8 1018 71 10000 2.1 60 19:57 23.01.2020
4144 Clouds 8 1018 71 10000 1.5 60 19:39 23.01.2020
4145 Clouds 8 1018 71 10000 1.5 60 19:39 23.01.2020
4146 Clouds 8 1018 71 10000 1.5 60 19:21 23.01.2020
4147 Clouds 9 1018 71 10000 2.1 80 18:56 23.01.2020
4148 Clouds 9 1018 71 10000 2.1 80 18:38 23.01.2020
4149 Clouds 9 1018 71 10000 2.1 90 18:19 23.01.2020
4150 Clouds 10 1017 66 10000 2.6 80 17:45 23.01.2020
4151 Clouds 9 1017 66 10000 2.6 80 17:21 23.01.2020
4152 Clouds 10 1017 66 10000 2.6 80 16:59 23.01.2020
4153 Clouds 10 1017 62 10000 2.6 80 16:39 23.01.2020
4154 Clouds 10 1017 62 10000 2.6 80 16:20 23.01.2020
4155 Clouds 10 1018 71 10000 2.6 80 15:58 23.01.2020
4156 Clouds 10 1018 66 10000 2.1 70 15:39 23.01.2020
4157 Clouds 10 1018 66 10000 2.1 70 15:19 23.01.2020
4158 Clouds 9 1018 66 10000 3.1 90 14:58 23.01.2020
4159 Clouds 9 1018 66 10000 3.1 90 14:40 23.01.2020
4160 Clouds 9 1018 70 10000 2.6 90 14:22 23.01.2020
4161 Clouds 9 1019 70 10000 2.6 100 13:54 23.01.2020
4162 Clouds 8 1019 76 10000 2.6 100 13:36 23.01.2020
4163 Clouds 8 1019 76 10000 2.6 100 13:18 23.01.2020
4164 Clouds 8 1019 75 10000 3.6 100 12:40 23.01.2020
4165 Clouds 8 1019 75 10000 3.6 100 12:22 23.01.2020
4166 Clouds 7 1019 70 10000 2.1 70 11:55 23.01.2020
4167 Clouds 6 1019 75 10000 1.5 70 11:36 23.01.2020
4168 Clouds 6 1019 75 10000 1.5 70 11:18 23.01.2020
4169 Clouds 4 1019 75 10000 2.6 50 10:41 23.01.2020
4170 Clouds 4 1019 80 10000 2.6 60 10:19 23.01.2020
4171 Clouds 3 1019 80 10000 2.1 50 09:42 23.01.2020
4172 Clouds 3 1018 80 10000 2.6 50 09:23 23.01.2020
4173 Clouds 2 1018 86 10000 1.5 40 08:57 23.01.2020
4174 Clear 2 1018 86 10000 1.5 30 08:38 23.01.2020
4175 Clear 2 1018 86 10000 1.5 30 08:20 23.01.2020
4176 Clouds 3 1017 86 10000 1 0 07:42 23.01.2020
4177 Clouds 3 1017 86 10000 1 0 07:24 23.01.2020
4178 Clear 2 1018 87 10000 1 0 06:46 23.01.2020
4179 Clear 3 1018 87 10000 1.91 36 06:19 23.01.2020
4180 Clouds 3 1018 93 10000 0.5 0 04:44 23.01.2020
4181 Clouds 3 1018 93 10000 2.1 340 04:21 23.01.2020
4182 Clouds 4 1019 86 10000 1 0 01:58 23.01.2020
4183 Clouds 4 1018 86 10000 2.1 360 00:47 23.01.2020
4184 Clouds 4 1018 86 10000 1.5 10 00:26 23.01.2020
4185 Clouds 5 1018 86 10000 2.1 360 23:47 22.01.2020
4186 Clouds 5 1018 86 10000 2.1 360 23:47 22.01.2020
4187 Rain 5 1018 86 10000 2.6 10 23:28 22.01.2020
4188 Rain 5 1018 81 10000 1.5 360 22:55 22.01.2020
4189 Clouds 5 1018 75 10000 1.5 20 22:37 22.01.2020
4190 Clouds 5 1018 75 10000 1.5 20 22:19 22.01.2020
4191 Clouds 5 1017 75 10000 2.1 30 21:39 22.01.2020
4192 Clouds 5 1017 75 10000 2.1 30 21:21 22.01.2020
4193 Clouds 6 1017 75 10000 2.6 20 20:56 22.01.2020
4194 Clouds 6 1017 75 10000 2.6 30 20:36 22.01.2020
4195 Clouds 6 1017 75 10000 2.6 30 20:36 22.01.2020
4196 Clouds 6 1017 75 10000 2.6 30 20:18 22.01.2020
4197 Clouds 6 1017 87 10000 1.5 50 19:55 22.01.2020
4198 Clouds 7 1017 87 10000 3.6 70 19:37 22.01.2020
4199 Clouds 6 1017 87 10000 3.6 70 19:37 22.01.2020
4200 Clouds 7 1017 87 10000 3.6 70 19:18 22.01.2020
4201 Clouds 7 1016 76 10000 2.1 60 18:55 22.01.2020
4202 Clouds 8 1016 70 10000 1.5 60 18:36 22.01.2020
4203 Clouds 8 1016 70 10000 1.5 60 18:18 22.01.2020
4204 Clouds 8 1016 70 10000 1.5 60 18:18 22.01.2020
4205 Rain 9 1016 66 10000 2.1 50 17:40 22.01.2020
4206 Rain 9 1016 66 10000 2.1 50 17:21 22.01.2020
4207 Rain 10 1016 66 10000 2.1 80 16:58 22.01.2020
4208 Clouds 10 1016 66 10000 2.1 80 16:39 22.01.2020
4209 Clouds 10 1016 66 10000 1.5 50 16:20 22.01.2020
4210 Clouds 10 1017 61 10000 2.1 50 15:55 22.01.2020
4211 Clouds 10 1017 57 10000 3.6 90 15:37 22.01.2020
4212 Clouds 10 1017 57 10000 3.6 90 15:18 22.01.2020
4213 Clouds 10 1018 66 10000 2.1 70 14:39 22.01.2020
4214 Clouds 10 1018 66 10000 2.1 70 14:20 22.01.2020
4215 Clouds 9 1018 66 10000 2.6 50 13:58 22.01.2020
4216 Clouds 9 1019 70 10000 2.1 60 13:37 22.01.2020
4217 Clouds 9 1019 70 10000 2.1 60 13:37 22.01.2020
4218 Clouds 9 1019 70 10000 2.1 60 13:19 22.01.2020
4219 Clouds 8 1019 75 10000 2.1 40 12:57 22.01.2020
4220 Clouds 7 1020 75 10000 2.6 50 12:38 22.01.2020
4221 Clouds 7 1020 75 10000 2.6 50 12:19 22.01.2020
4222 Clouds 7 1020 81 10000 2.6 40 11:57 22.01.2020
4223 Rain 6 1019 87 7000 3.1 40 11:39 22.01.2020
4224 Rain 6 1019 87 7000 3.1 40 11:19 22.01.2020
4225 Clouds 6 1019 81 10000 3.1 40 10:45 22.01.2020
4226 Rain 5 1019 81 10000 2.1 40 10:21 22.01.2020
4227 Rain 5 1019 81 10000 2.1 40 10:21 22.01.2020
4228 Rain 5 1019 81 10000 2.6 50 09:58 22.01.2020
4229 Drizzle 5 1019 81 10000 2.6 40 09:40 22.01.2020
4230 Drizzle 5 1019 81 10000 2.6 40 09:21 22.01.2020
4231 Drizzle 5 1018 81 10000 3.1 30 08:55 22.01.2020
4232 Rain 5 1018 81 10000 2.6 40 08:37 22.01.2020
4233 Rain 5 1018 81 10000 2.6 40 08:19 22.01.2020
4234 Clouds 5 1018 75 10000 3.6 40 07:44 22.01.2020
4235 Clouds 5 1018 75 10000 3.1 30 07:26 22.01.2020
4236 Clouds 5 1018 75 10000 4.1 50 06:36 22.01.2020
4237 Clouds 4 1018 75 10000 4.6 50 05:57 22.01.2020
4238 Clouds 5 1018 75 10000 4.6 60 04:26 22.01.2020
4239 Clouds 5 1018 75 10000 5.1 50 03:27 22.01.2020
4240 Clouds 5 1018 75 10000 4.6 40 02:48 22.01.2020
4241 Clouds 5 1018 75 10000 4.1 30 00:47 22.01.2020
4242 Clouds 5 1018 75 10000 2.6 20 00:28 22.01.2020
4243 Clouds 5 1018 75 10000 3.1 30 23:57 21.01.2020
4244 Clouds 5 1018 75 10000 3.6 20 23:37 21.01.2020
4245 Clouds 5 1018 75 10000 3.6 20 23:19 21.01.2020
4246 Clouds 5 1017 75 10000 3.6 40 22:41 21.01.2020
4247 Clouds 5 1017 75 10000 3.6 40 22:23 21.01.2020
4248 Clouds 5 1017 75 10000 4.1 40 21:58 21.01.2020
4249 Rain 5 1016 75 10000 5.1 20 21:39 21.01.2020
4250 Rain 5 1016 75 10000 5.1 20 21:20 21.01.2020
4251 Rain 5 1017 81 10000 4.1 40 20:57 21.01.2020
4252 Rain 5 1017 81 10000 4.1 40 20:57 21.01.2020
4253 Rain 5 1016 81 10000 4.6 40 20:39 21.01.2020
4254 Rain 5 1016 81 10000 4.6 40 20:20 21.01.2020
4255 Clouds 5 1016 81 10000 4.6 0 19:57 21.01.2020
4256 Clouds 5 1016 81 10000 4.6 0 19:39 21.01.2020
4257 Clouds 5 1016 81 10000 4.6 40 19:20 21.01.2020
4258 Rain 5 1016 81 10000 5.1 40 18:55 21.01.2020
4259 Rain 5 1016 81 10000 4.6 40 18:37 21.01.2020
4260 Rain 5 1016 81 10000 4.6 40 18:19 21.01.2020
4261 Rain 5 1016 86 10000 3.1 40 17:45 21.01.2020
4262 Rain 5 1016 86 10000 3.1 40 17:20 21.01.2020
4263 Rain 5 1016 81 10000 5.7 30 16:59 21.01.2020
4264 Rain 5 1016 65 10000 6.2 30 16:37 21.01.2020
4265 Rain 6 1016 65 10000 6.2 30 16:19 21.01.2020
4266 Clouds 7 1015 61 10000 6.2 0 15:56 21.01.2020
4267 Clouds 7 1015 65 10000 5.7 40 15:37 21.01.2020
4268 Clouds 7 1015 65 10000 5.7 40 15:18 21.01.2020
4269 Rain 7 1016 65 10000 5.7 30 14:38 21.01.2020
4270 Rain 7 1017 70 10000 5.7 30 14:20 21.01.2020
4271 Rain 7 1018 65 10000 5.7 30 13:41 21.01.2020
4272 Rain 7 1018 65 10000 5.7 30 13:19 21.01.2020
4273 Rain 6 1018 65 10000 6.7 30 12:56 21.01.2020
4274 Rain 6 1018 70 10000 4.1 30 12:38 21.01.2020
4275 Rain 6 1018 70 10000 4.1 30 12:19 21.01.2020
4276 Rain 6 1019 70 10000 6.7 20 11:40 21.01.2020
4277 Rain 6 1019 70 10000 6.7 20 11:21 21.01.2020
4278 Rain 5 1019 70 10000 5.7 40 10:59 21.01.2020
4279 Rain 5 1019 70 10000 6.7 30 10:40 21.01.2020
4280 Rain 5 1019 70 10000 6.7 30 10:21 21.01.2020
4281 Rain 5 1019 63 10000 7.2 30 09:42 21.01.2020
4282 Rain 5 1019 63 10000 6.7 40 09:23 21.01.2020
4283 Clouds 5 1019 63 10000 6.7 30 08:54 21.01.2020
4284 Clouds 5 1019 63 10000 6.7 20 08:36 21.01.2020
4285 Clouds 5 1019 67 10000 6.7 20 08:18 21.01.2020
4286 Clouds 5 1019 65 10000 6.7 30 07:41 21.01.2020
4287 Clouds 5 1019 65 10000 7.2 30 07:22 21.01.2020
4288 Clouds 5 1020 65 10000 6.7 30 06:49 21.01.2020
4289 Clouds 4 1020 65 10000 6.2 30 06:29 21.01.2020
4290 Clouds 4 1021 60 10000 5.1 30 05:43 21.01.2020
4291 Clouds 4 1022 64 10000 5.7 30 04:40 21.01.2020
4292 Clouds 4 1022 60 10000 7.2 20 02:57 21.01.2020
4293 Clouds 5 1023 56 10000 5.7 30 01:56 21.01.2020
4294 Clouds 5 1023 56 10000 6.7 10 01:26 21.01.2020
4295 Clouds 5 1023 60 10000 4.6 10 00:38 21.01.2020
4296 Clouds 5 1023 60 10000 5.7 20 23:59 20.01.2020
4297 Clouds 5 1023 60 10000 4.6 30 23:41 20.01.2020
4298 Clouds 5 1023 60 10000 4.6 30 23:19 20.01.2020
4299 Clouds 5 1023 56 10000 4.6 10 22:58 20.01.2020
4300 Clouds 5 1023 52 10000 5.1 10 22:38 20.01.2020
4301 Clouds 4 1023 52 10000 5.1 10 22:20 20.01.2020
4302 Clouds 4 1023 52 10000 5.1 10 22:20 20.01.2020
4303 Clouds 4 1023 52 10000 4.1 20 21:58 20.01.2020
4304 Clouds 4 1023 52 10000 5.1 20 21:37 20.01.2020
4305 Clouds 5 1023 52 10000 5.1 20 21:19 20.01.2020
4306 Clouds 5 1023 56 10000 4.6 40 20:56 20.01.2020
4307 Clouds 5 1023 52 10000 5.7 40 20:38 20.01.2020
4308 Clouds 5 1023 52 10000 5.7 40 20:18 20.01.2020
4309 Clouds 5 1022 52 10000 5.7 40 19:56 20.01.2020
4310 Clouds 5 1022 52 10000 5.7 30 19:38 20.01.2020
4311 Clouds 5 1022 52 10000 5.7 30 19:18 20.01.2020
4312 Clouds 5 1022 52 10000 4.6 30 18:44 20.01.2020
4313 Clouds 5 1021 52 10000 5.7 30 18:22 20.01.2020
4314 Clouds 5 1021 48 10000 6.2 40 17:58 20.01.2020
4315 Clouds 5 1021 48 10000 6.7 30 17:36 20.01.2020
4316 Clouds 5 1021 48 10000 6.7 30 17:18 20.01.2020
4317 Clouds 6 1021 45 10000 5.7 40 16:39 20.01.2020
4318 Clouds 6 1021 45 10000 5.7 40 16:19 20.01.2020
4319 Clouds 6 1021 42 10000 6.2 30 15:57 20.01.2020
4320 Clouds 6 1021 45 10000 5.7 40 15:39 20.01.2020
4321 Clouds 6 1021 45 10000 5.7 40 15:20 20.01.2020
4322 Clouds 6 1022 39 10000 5.7 0 14:41 20.01.2020
4323 Clouds 6 1022 39 10000 5.7 0 14:23 20.01.2020
4324 Clouds 6 1022 36 10000 5.7 40 13:59 20.01.2020
4325 Clouds 6 1023 35 10000 5.1 0 13:40 20.01.2020
4326 Clouds 6 1023 35 10000 5.1 0 13:22 20.01.2020
4327 Clouds 6 1023 30 10000 6.2 40 12:47 20.01.2020
4328 Clouds 6 1023 26 10000 4.1 50 12:28 20.01.2020
4329 Clouds 5 1022 24 10000 4.6 20 11:59 20.01.2020
4330 Clouds 4 1022 27 10000 5.1 20 11:40 20.01.2020
4331 Clouds 4 1022 27 10000 5.1 20 11:21 20.01.2020
4332 Clouds 3 1022 25 10000 5.1 20 10:55 20.01.2020
4333 Clouds 3 1022 27 10000 7.2 20 10:37 20.01.2020
4334 Clouds 3 1022 37 10000 6.2 20 10:18 20.01.2020
4335 Clouds 2 1022 29 10000 5.7 20 09:40 20.01.2020
4336 Clouds 2 1022 29 10000 5.7 20 09:20 20.01.2020
4337 Snow 2 1022 29 10000 4.6 30 08:46 20.01.2020
4338 Snow 2 1022 29 10000 4.6 30 08:28 20.01.2020
4339 Clouds 2 1022 29 10000 3.6 40 07:45 20.01.2020
4340 Clouds 2 1022 29 10000 4.6 40 07:26 20.01.2020
4341 Clouds 2 1022 37 10000 4.6 40 06:54 20.01.2020
4342 Clouds 2 1022 40 10000 4.1 30 06:28 20.01.2020
4343 Clouds 2 1023 40 10000 3.1 50 05:43 20.01.2020
4344 Clouds 2 1023 40 10000 3.1 50 05:43 20.01.2020
4345 Clouds 2 1023 40 10000 3.1 50 05:43 20.01.2020
4346 Clouds 2 1023 40 10000 2.6 40 05:22 20.01.2020
4347 Clouds 2 1023 34 10000 4.1 30 04:48 20.01.2020
4348 Clouds 3 1024 37 10000 4.6 20 02:58 20.01.2020
4349 Clouds 3 1024 35 10000 2.6 40 01:57 20.01.2020
4350 Clouds 3 1024 35 10000 4.6 30 01:37 20.01.2020
4351 Clouds 3 1024 35 10000 3.6 30 00:45 20.01.2020
4352 Clouds 3 1024 35 10000 3.6 30 00:25 20.01.2020
4353 Clouds 3 1024 38 10000 3.1 30 23:40 19.01.2020
4354 Clouds 3 1024 38 10000 3.1 30 23:20 19.01.2020
4355 Clouds 4 1024 35 10000 3.6 30 22:57 19.01.2020
4356 Clouds 4 1024 30 10000 3.1 30 22:39 19.01.2020
4357 Clouds 4 1024 30 10000 3.1 30 22:21 19.01.2020
4358 Clouds 4 1023 30 10000 5.7 30 21:57 19.01.2020
4359 Clouds 4 1023 24 10000 5.7 20 21:39 19.01.2020
4360 Clouds 5 1023 24 10000 5.7 20 21:21 19.01.2020
4361 Clouds 5 1022 41 10000 6.2 10 20:57 19.01.2020
4362 Clear 5 1022 35 10000 7.2 360 20:39 19.01.2020
4363 Clouds 5 1022 35 10000 7.2 360 20:21 19.01.2020
4364 Clouds 6 1021 39 10000 4.6 10 19:58 19.01.2020
4365 Clouds 6 1021 36 10000 6.7 10 19:39 19.01.2020
4366 Clouds 6 1021 36 10000 6.7 10 19:21 19.01.2020
4367 Clouds 7 1021 33 10000 6.2 360 18:59 19.01.2020
4368 Clouds 7 1021 29 10000 5.1 360 18:41 19.01.2020
4369 Clouds 7 1021 29 10000 5.1 360 18:41 19.01.2020
4370 Clouds 8 1021 29 10000 5.1 360 18:21 19.01.2020
4371 Clouds 9 1020 16 10000 8.2 20 17:59 19.01.2020
4372 Clouds 9 1020 16 10000 8.2 20 17:40 19.01.2020
4373 Clouds 9 1020 18 10000 7.7 10 17:22 19.01.2020
4374 Clouds 9 1020 18 10000 6.7 0 17:00 19.01.2020
4375 Clouds 9 1020 20 10000 7.7 10 16:40 19.01.2020
4376 Clouds 9 1020 18 10000 6.7 0 16:40 19.01.2020
4377 Clouds 10 1020 20 10000 7.7 10 16:22 19.01.2020
4378 Clouds 10 1020 25 10000 6.2 10 16:00 19.01.2020
4379 Clouds 9 1020 34 10000 5.7 10 15:40 19.01.2020
4380 Clouds 9 1020 34 10000 5.7 10 15:21 19.01.2020
4381 Clouds 9 1020 37 10000 6.2 360 14:59 19.01.2020
4382 Clouds 9 1020 37 10000 6.2 20 14:40 19.01.2020
4383 Clouds 9 1020 37 10000 6.2 20 14:19 19.01.2020
4384 Clouds 9 1020 40 10000 4.6 10 13:58 19.01.2020
4385 Clouds 9 1021 49 10000 4.6 10 13:38 19.01.2020
4386 Clouds 9 1021 49 10000 4.6 10 13:38 19.01.2020
4387 Clouds 9 1021 49 10000 4.6 10 13:20 19.01.2020
4388 Rain 8 1021 29 10000 5.7 10 12:56 19.01.2020
4389 Rain 8 1021 57 10000 5.7 360 12:37 19.01.2020
4390 Clouds 8 1021 57 10000 5.7 360 12:19 19.01.2020
4391 Clouds 7 1020 61 10000 6.2 360 11:56 19.01.2020
4392 Clouds 7 1020 65 10000 6.2 360 11:37 19.01.2020
4393 Clouds 7 1020 65 10000 6.2 360 11:18 19.01.2020
4394 Clouds 6 1019 70 10000 3.6 350 10:39 19.01.2020
4395 Clouds 6 1019 70 10000 3.6 350 10:19 19.01.2020
4396 Clouds 6 1020 81 10000 0.5 0 09:57 19.01.2020
4397 Clouds 6 1019 81 10000 2.1 280 09:38 19.01.2020
4398 Clouds 6 1019 81 10000 2.1 280 09:19 19.01.2020
4399 Clouds 6 1019 81 10000 2.1 280 08:54 19.01.2020
4400 Clouds 6 1019 81 10000 3.91 15 08:31 19.01.2020
4401 Clouds 5 1019 81 10000 1.5 300 07:49 19.01.2020
4402 Clouds 5 1019 75 10000 1.5 320 07:28 19.01.2020
4403 Clouds 4 1019 93 10000 1 0 06:54 19.01.2020
4404 Clouds 4 1019 93 10000 1 0 06:21 19.01.2020
4405 Clouds 5 1020 100 10000 0.5 260 03:52 19.01.2020
4406 Clouds 5 1019 86 10000 3.1 280 02:32 19.01.2020
4407 Rain 5 1019 87 10000 2.6 40 01:39 19.01.2020
4408 Rain 6 1019 87 10000 2.6 40 01:19 19.01.2020
4409 Rain 6 1019 81 10000 3.1 270 00:44 19.01.2020
4410 Clouds 6 1019 81 10000 3.1 270 00:20 19.01.2020
4411 Drizzle 7 1020 87 10000 2.6 300 23:45 18.01.2020
4412 Rain 7 1020 93 10000 2.1 210 23:25 18.01.2020
4413 Clouds 7 1020 93 10000 2.1 110 22:58 18.01.2020
4414 Clouds 7 1020 93 10000 2.1 110 22:40 18.01.2020
4415 Clouds 7 1020 100 10000 3.1 250 22:21 18.01.2020
4416 Clouds 8 1021 93 10000 4.6 300 21:58 18.01.2020
4417 Clouds 7 1020 87 10000 3.1 250 21:38 18.01.2020
4418 Rain 8 1020 87 10000 3.1 250 21:20 18.01.2020
4419 Rain 8 1020 93 10000 4.1 210 20:55 18.01.2020
4420 Rain 8 1021 100 6000 6.7 250 20:36 18.01.2020
4421 Rain 8 1021 100 6000 6.7 250 20:18 18.01.2020
4422 Drizzle 8 1020 100 3000 3.6 210 19:42 18.01.2020
4423 Drizzle 8 1020 100 3000 3.6 210 19:24 18.01.2020
4424 Drizzle 8 1021 100 5000 3.6 210 18:43 18.01.2020
4425 Drizzle 8 1021 100 5000 3.6 210 18:24 18.01.2020
4426 Drizzle 8 1022 100 4400 3.6 220 17:58 18.01.2020
4427 Drizzle 8 1022 100 5000 2.6 220 17:40 18.01.2020
4428 Drizzle 8 1022 100 5000 2.6 220 17:20 18.01.2020
4429 Drizzle 8 1023 93 5000 5.1 210 16:56 18.01.2020
4430 Mist 8 1023 93 5000 3.1 200 16:37 18.01.2020
4431 Mist 8 1023 93 5000 3.1 200 16:19 18.01.2020
4432 Mist 8 1025 93 4000 2.6 200 15:44 18.01.2020
4433 Mist 8 1025 93 4000 2.6 200 15:25 18.01.2020
4434 Rain 7 1025 100 5000 2.1 180 14:59 18.01.2020
4435 Rain 7 1026 93 2500 2.1 190 14:40 18.01.2020
4436 Rain 7 1026 93 2500 2.1 190 14:19 18.01.2020
4437 Clouds 7 1027 93 8000 2.1 170 13:55 18.01.2020
4438 Rain 7 1028 93 7000 1.5 160 13:36 18.01.2020
4439 Rain 7 1028 93 7000 1.5 160 13:18 18.01.2020
4440 Clouds 7 1029 93 7000 2.6 140 12:41 18.01.2020
4441 Clouds 7 1029 93 7000 2.6 140 12:21 18.01.2020
4442 Rain 6 1029 93 7000 1.5 120 11:56 18.01.2020
4443 Drizzle 6 1029 100 7000 1 0 11:37 18.01.2020
4444 Drizzle 6 1029 100 7000 1 0 11:18 18.01.2020
4445 Rain 6 1029 93 7000 1 160 10:41 18.01.2020
4446 Drizzle 6 1030 93 9000 3.93 184 10:20 18.01.2020
4447 Drizzle 5 1030 100 9000 0.5 120 09:50 18.01.2020
4448 Drizzle 5 1030 93 9000 1 150 09:32 18.01.2020
4449 Drizzle 5 1030 100 9000 1.5 160 08:58 18.01.2020
4450 Rain 5 1030 100 10000 1 0 08:39 18.01.2020
4451 Rain 5 1030 100 10000 1 0 08:19 18.01.2020
4452 Drizzle 5 1030 100 5000 3.1 140 07:52 18.01.2020
4453 Drizzle 5 1030 100 5000 3.1 140 07:52 18.01.2020
4454 Drizzle 5 1030 100 5000 2.6 140 07:32 18.01.2020
4455 Clouds 5 1030 86 10000 1.5 320 06:48 18.01.2020
4456 Clouds 5 1029 80 10000 1.5 160 06:18 18.01.2020
4457 Clouds 5 1030 80 10000 1.5 350 05:25 18.01.2020
4458 Clouds 5 1030 86 10000 1 340 03:25 18.01.2020
4459 Clouds 5 1031 80 10000 2.1 10 01:59 18.01.2020
4460 Clouds 5 1031 86 10000 1 0 01:35 18.01.2020
4461 Clouds 6 1031 86 10000 2.1 320 00:38 18.01.2020
4462 Clouds 6 1031 86 10000 2.1 320 00:19 18.01.2020
4463 Clouds 6 1031 93 10000 1 0 23:44 17.01.2020
4464 Clouds 6 1031 87 10000 1 0 23:20 17.01.2020
4465 Clouds 6 1031 87 10000 2.1 60 22:59 17.01.2020
4466 Clouds 6 1031 87 10000 1.61 27 22:40 17.01.2020
4467 Clouds 6 1031 87 10000 1.61 27 22:18 17.01.2020
4468 Clouds 7 1031 87 10000 1.61 27 21:41 17.01.2020
4469 Clouds 7 1031 87 10000 1.61 27 21:22 17.01.2020
4470 Clouds 7 1031 87 10000 1 0 20:58 17.01.2020
4471 Clouds 7 1032 87 10000 3.6 240 20:40 17.01.2020
4472 Clouds 7 1032 87 10000 3.6 240 20:20 17.01.2020
4473 Clouds 8 1031 87 10000 1.5 230 19:57 17.01.2020
4474 Clouds 8 1031 81 10000 3.1 240 19:38 17.01.2020
4475 Clouds 9 1031 81 10000 3.1 240 19:19 17.01.2020
4476 Clouds 10 1031 76 10000 3.1 220 18:57 17.01.2020
4477 Clouds 10 1031 71 10000 3.6 220 18:36 17.01.2020
4478 Clouds 11 1031 71 10000 3.6 220 18:18 17.01.2020
4479 Clouds 11 1031 66 10000 4.1 220 17:39 17.01.2020
4480 Clouds 11 1031 66 10000 4.1 220 17:21 17.01.2020
4481 Clouds 12 1030 62 10000 3.6 210 16:44 17.01.2020
4482 Clouds 12 1030 66 10000 4.6 220 16:21 17.01.2020
4483 Clouds 12 1030 71 10000 3.6 200 15:58 17.01.2020
4484 Clouds 12 1030 62 10000 4.6 230 15:40 17.01.2020
4485 Clouds 12 1030 62 10000 4.6 230 15:40 17.01.2020
4486 Clouds 12 1030 62 10000 4.6 230 15:21 17.01.2020
4487 Clouds 11 1030 62 10000 4.6 240 14:43 17.01.2020
4488 Clouds 11 1030 66 10000 6.2 260 14:24 17.01.2020
4489 Clouds 11 1031 71 10000 5.7 250 13:45 17.01.2020
4490 Clouds 10 1031 76 10000 5.7 230 13:23 17.01.2020
4491 Clouds 10 1031 81 10000 5.7 230 12:48 17.01.2020
4492 Clouds 10 1031 81 10000 6.7 230 12:23 17.01.2020
4493 Clouds 9 1031 81 10000 5.1 240 11:44 17.01.2020
4494 Clouds 8 1031 81 10000 5.1 240 11:20 17.01.2020
4495 Clouds 8 1031 81 10000 5.1 240 11:20 17.01.2020
4496 Clouds 8 1031 81 10000 5.1 240 11:20 17.01.2020
4497 Clouds 7 1030 87 10000 3.6 220 10:58 17.01.2020
4498 Clouds 7 1030 100 10000 4.1 230 10:40 17.01.2020
4499 Clouds 7 1030 100 10000 4.1 230 10:21 17.01.2020
4500 Clouds 6 1030 93 8000 3.1 240 09:56 17.01.2020
4501 Clouds 6 1029 100 6000 3.6 240 09:37 17.01.2020
4502 Clouds 5 1029 100 6000 3.6 240 09:18 17.01.2020
4503 Clouds 5 1028 93 10000 2.6 210 08:42 17.01.2020
4504 Clouds 5 1028 93 10000 2.6 210 08:23 17.01.2020
4505 Clouds 5 1028 93 10000 2.1 250 07:51 17.01.2020
4506 Clouds 5 1028 87 10000 3.6 230 07:31 17.01.2020
4507 Clouds 5 1027 93 10000 2.6 180 06:57 17.01.2020
4508 Clouds 5 1027 86 10000 1 0 06:37 17.01.2020
4509 Clouds 5 1027 86 10000 1.5 130 05:27 17.01.2020
4510 Rain 7 1024 76 0 2.68 250 03:38 17.01.2020
4511 Clouds 7 1027 70 10000 1.5 170 02:44 17.01.2020
4512 Clouds 7 1028 67 0 1.79 253 01:46 17.01.2020
4513 Clouds 8 1023 69 0 2.68 231 01:27 17.01.2020
4514 Clouds 8 1024 68 0 4.47 261 00:44 17.01.2020
4515 Clouds 8 1026 93 6000 0.5 130 00:20 17.01.2020
4516 Clouds 8 1026 93 6000 0.5 130 23:42 16.01.2020
4517 Clouds 8 1026 93 6000 0.5 130 23:24 16.01.2020
4518 Mist 8 1026 93 4500 1.5 20 22:43 16.01.2020
4519 Mist 8 1026 93 4500 1.5 20 22:22 16.01.2020
4520 Mist 8 1026 93 4500 1 0 21:57 16.01.2020
4521 Mist 8 1026 93 5000 4.07 195 21:39 16.01.2020
4522 Mist 8 1026 93 5000 4.07 195 21:20 16.01.2020
4523 Clouds 9 1026 87 6000 4.07 195 20:59 16.01.2020
4524 Clouds 9 1026 66 10000 2.1 210 20:40 16.01.2020
4525 Clouds 9 1026 66 10000 2.1 210 20:20 16.01.2020
4526 Clouds 9 1026 71 10000 1.5 180 19:57 16.01.2020
4527 Clouds 9 1025 71 10000 1 0 19:39 16.01.2020
4528 Clouds 9 1025 71 10000 1 0 19:20 16.01.2020
4529 Clouds 10 1025 71 10000 1.5 200 18:56 16.01.2020
4530 Clouds 10 1025 66 10000 1 190 18:37 16.01.2020
4531 Clouds 11 1025 66 10000 1 190 18:18 16.01.2020
4532 Clouds 11 1025 66 10000 1 190 18:18 16.01.2020
4533 Clouds 12 1025 62 10000 2.1 200 17:56 16.01.2020
4534 Clouds 12 1025 66 10000 2.6 190 17:38 16.01.2020
4535 Clouds 12 1025 66 10000 2.6 190 17:20 16.01.2020
4536 Clouds 12 1025 67 10000 2.1 200 16:40 16.01.2020
4537 Clouds 12 1025 67 10000 2.1 200 16:21 16.01.2020
4538 Clouds 12 1025 66 10000 3.1 160 15:56 16.01.2020
4539 Clouds 12 1026 76 10000 1.5 340 15:38 16.01.2020
4540 Clouds 11 1026 76 10000 1.5 340 15:19 16.01.2020
4541 Clouds 11 1026 71 10000 0.5 0 14:42 16.01.2020
4542 Clouds 11 1027 76 10000 1.5 0 14:23 16.01.2020
4543 Clouds 10 1027 76 10000 2.6 200 13:47 16.01.2020
4544 Clouds 10 1028 76 10000 1 0 13:29 16.01.2020
4545 Clouds 9 1028 81 10000 1.5 120 12:59 16.01.2020
4546 Clouds 9 1028 81 10000 1.5 120 12:40 16.01.2020
4547 Clouds 9 1028 87 9000 1.5 100 12:21 16.01.2020
4548 Clouds 8 1028 81 8000 2.6 110 11:43 16.01.2020
4549 Clouds 8 1028 81 8000 2.6 110 11:24 16.01.2020
4550 Clouds 7 1028 87 10000 2.1 100 10:57 16.01.2020
4551 Drizzle 7 1028 93 10000 2.1 100 10:37 16.01.2020
4552 Drizzle 7 1028 93 10000 2.1 100 10:19 16.01.2020
4553 Clouds 7 1027 87 10000 2.1 110 09:44 16.01.2020
4554 Clouds 7 1027 87 8000 1 0 09:24 16.01.2020
4555 Clouds 7 1027 87 8000 1.5 60 08:59 16.01.2020
4556 Clouds 7 1027 87 8000 1 0 08:41 16.01.2020
4557 Clouds 7 1027 87 8000 1 0 08:20 16.01.2020
4558 Clouds 7 1027 87 8000 1 0 07:43 16.01.2020
4559 Clouds 7 1027 87 8000 0.5 0 07:24 16.01.2020
4560 Clouds 7 1027 93 8000 0.5 340 06:55 16.01.2020
4561 Clouds 7 1027 87 8000 0.5 330 06:35 16.01.2020
4562 Clouds 7 1027 87 8000 1.22 136 05:56 16.01.2020
4563 Clouds 7 1027 87 8000 1.5 350 05:25 16.01.2020
4564 Clouds 7 1027 87 8000 1 360 04:23 16.01.2020
4565 Clouds 6 1027 87 8000 0.5 0 03:27 16.01.2020
4566 Clouds 7 1027 81 8000 2.1 340 02:23 16.01.2020
4567 Clouds 7 1028 81 8000 2.1 350 00:44 16.01.2020
4568 Clouds 7 1028 81 10000 2.6 310 00:23 16.01.2020
4569 Clouds 7 1028 81 10000 2.1 330 23:45 15.01.2020
4570 Clouds 7 1028 81 10000 2.1 330 23:22 15.01.2020
4571 Clouds 7 1028 81 10000 2.1 330 22:57 15.01.2020
4572 Clouds 7 1027 81 10000 2.1 350 22:39 15.01.2020
4573 Clouds 7 1027 81 10000 2.1 350 22:18 15.01.2020
4574 Clouds 7 1027 81 10000 1.5 340 21:56 15.01.2020
4575 Clouds 7 1027 87 10000 1.5 330 21:37 15.01.2020
4576 Clouds 7 1027 87 10000 1.5 330 21:19 15.01.2020
4577 Clouds 7 1027 81 10000 1.5 340 20:56 15.01.2020
4578 Clouds 7 1027 81 10000 1 0 20:38 15.01.2020
4579 Clouds 7 1027 81 10000 1 0 20:19 15.01.2020
4580 Clouds 7 1027 81 10000 1.71 230 19:54 15.01.2020
4581 Clouds 7 1027 81 10000 1.71 230 19:36 15.01.2020
4582 Clouds 7 1027 81 10000 1.71 230 19:18 15.01.2020
4583 Clouds 7 1026 81 10000 1 90 18:56 15.01.2020
4584 Clouds 7 1026 81 10000 1.71 230 18:37 15.01.2020
4585 Clouds 7 1026 81 10000 1.71 230 18:19 15.01.2020
4586 Clouds 8 1026 81 10000 1 0 17:55 15.01.2020
4587 Clouds 8 1026 76 10000 1.71 230 17:37 15.01.2020
4588 Clouds 8 1026 76 10000 3.22 225 17:18 15.01.2020
4589 Clouds 8 1025 81 10000 1.5 140 16:40 15.01.2020
4590 Clouds 8 1025 81 10000 1.5 140 16:21 15.01.2020
4591 Clouds 8 1025 75 10000 1.5 120 15:57 15.01.2020
4592 Clouds 7 1025 75 9000 1.5 90 15:39 15.01.2020
4593 Clouds 8 1025 75 9000 1.5 90 15:18 15.01.2020
4594 Clouds 7 1026 81 9000 1.5 80 14:43 15.01.2020
4595 Clouds 7 1026 81 9000 1.5 80 14:20 15.01.2020
4596 Clouds 7 1026 81 9000 2.1 90 13:46 15.01.2020
4597 Clouds 6 1026 87 9000 1.5 100 13:27 15.01.2020
4598 Clouds 6 1026 87 9000 2.1 110 12:59 15.01.2020
4599 Clouds 6 1026 87 9000 2.1 110 12:40 15.01.2020
4600 Clouds 5 1026 87 9000 2.1 110 12:20 15.01.2020
4601 Clouds 5 1026 81 9000 2.1 110 11:58 15.01.2020
4602 Clouds 5 1025 86 9000 2.1 100 11:37 15.01.2020
4603 Clouds 5 1025 86 9000 2.1 100 11:19 15.01.2020
4604 Clouds 4 1025 86 8000 1.5 100 10:46 15.01.2020
4605 Clouds 4 1024 86 8000 1 0 10:27 15.01.2020
4606 Clouds 4 1024 86 10000 2.6 182 09:46 15.01.2020
4607 Clouds 3 1024 93 10000 2.6 182 09:26 15.01.2020
4608 Clouds 3 1023 100 10000 2.6 182 08:59 15.01.2020
4609 Clouds 3 1023 93 10000 2.6 182 08:41 15.01.2020
4610 Clouds 3 1023 93 10000 1.8 174 08:22 15.01.2020
4611 Clouds 3 1023 93 10000 1.8 174 07:52 15.01.2020
4612 Clouds 3 1022 86 10000 1.8 174 07:32 15.01.2020
4613 Mist 3 1022 81 4000 0.5 0 06:46 15.01.2020
4614 Mist 3 1022 81 5000 1.8 174 06:20 15.01.2020
4615 Clouds 4 1023 86 6000 1 0 04:44 15.01.2020
4616 Clouds 4 1023 86 7000 1.85 174 02:38 15.01.2020
4617 Clouds 4 1023 86 7000 2.1 330 01:28 15.01.2020
4618 Clouds 4 1023 86 7000 1.5 330 00:47 15.01.2020
4619 Clouds 4 1023 86 7000 1 340 00:27 15.01.2020
4620 Clouds 4 1023 86 7000 1.5 350 23:57 14.01.2020
4621 Clouds 4 1023 86 7000 1 0 23:38 14.01.2020
4622 Clouds 4 1023 86 7000 1 0 23:19 14.01.2020
4623 Clouds 4 1023 80 8000 1 0 22:41 14.01.2020
4624 Clouds 4 1023 86 8000 1 330 22:41 14.01.2020
4625 Clouds 4 1023 86 8000 1 330 22:19 14.01.2020
4626 Clouds 4 1022 80 9000 1 0 21:59 14.01.2020
4627 Clouds 4 1022 80 9000 2.6 330 21:40 14.01.2020
4628 Clouds 4 1022 80 9000 2.6 330 21:22 14.01.2020
4629 Clouds 5 1022 80 10000 2.1 360 20:59 14.01.2020
4630 Clouds 5 1022 81 10000 0.5 260 20:40 14.01.2020
4631 Clouds 5 1022 81 10000 0.5 260 20:20 14.01.2020
4632 Clouds 5 1022 81 10000 0.5 260 20:20 14.01.2020
4633 Clouds 4 1022 81 10000 0.5 260 19:56 14.01.2020
4634 Clouds 5 1022 75 10000 2.12 209 19:38 14.01.2020
4635 Clouds 4 1022 75 10000 2.12 209 19:19 14.01.2020
4636 Clouds 6 1022 75 10000 1.5 210 18:56 14.01.2020
4637 Clouds 6 1022 70 10000 2.1 200 18:37 14.01.2020
4638 Clouds 7 1022 70 10000 2.1 200 18:19 14.01.2020
4639 Clouds 8 1022 70 10000 2.1 200 17:39 14.01.2020
4640 Clouds 8 1021 61 10000 2.1 200 17:19 14.01.2020
4641 Clouds 8 1021 66 10000 2.6 200 16:55 14.01.2020
4642 Clouds 8 1021 66 10000 3.6 190 16:37 14.01.2020
4643 Clouds 8 1021 66 10000 3.6 190 16:19 14.01.2020
4644 Clouds 8 1022 61 10000 2.6 200 15:43 14.01.2020
4645 Clouds 7 1022 65 10000 3.6 220 15:19 14.01.2020
4646 Clouds 7 1022 65 10000 2.1 190 14:59 14.01.2020
4647 Clouds 7 1023 61 10000 1.5 0 14:41 14.01.2020
4648 Clouds 7 1023 61 10000 1.5 0 14:19 14.01.2020
4649 Clear 6 1023 65 10000 1 0 13:42 14.01.2020
4650 Clear 6 1023 65 10000 1 0 13:20 14.01.2020
4651 Clear 5 1024 70 10000 1 0 12:56 14.01.2020
4652 Clear 5 1024 61 10000 1 0 12:38 14.01.2020
4653 Clear 5 1024 61 10000 1 0 12:20 14.01.2020
4654 Clear 3 1024 61 10000 1 0 11:41 14.01.2020
4655 Clear 2 1024 80 10000 1 0 11:22 14.01.2020
4656 Clear 2 1023 80 9000 1 0 10:56 14.01.2020
4657 Clear 1 1023 80 9000 0.5 0 10:38 14.01.2020
4658 Clear 1 1023 80 9000 0.5 0 10:19 14.01.2020
4659 Clear 0 1023 86 9000 1 0 09:55 14.01.2020
4660 Mist -1 1024 100 3000 0.98 161 09:37 14.01.2020
4661 Mist -1 1024 100 3000 0.98 161 09:19 14.01.2020
4662 Clear -2 1023 100 8000 0.5 0 08:41 14.01.2020
4663 Clear -2 1023 100 8000 0.5 0 08:41 14.01.2020
4664 Clouds -2 1023 100 8000 0.5 0 08:22 14.01.2020
4665 Fog -2 1023 100 7000 1.23 159 07:51 14.01.2020
4666 Clouds -2 1022 92 10000 0.5 0 07:25 14.01.2020
4667 Clouds -2 1022 92 8000 1.5 350 06:44 14.01.2020
4668 Clouds -1 1022 92 8000 0.5 0 05:59 14.01.2020
4669 Clouds -1 1023 92 9000 1 360 04:56 14.01.2020
4670 Clouds -1 1023 92 7000 1.5 340 03:48 14.01.2020
4671 Clouds -1 1023 92 7000 1.5 360 02:40 14.01.2020
4672 Clouds 0 1024 92 7000 1.5 350 01:31 14.01.2020
4673 Clouds 0 1024 86 7000 1.5 350 00:48 14.01.2020
4674 Clouds 0 1024 92 7000 1.5 360 00:22 14.01.2020
4675 Clouds 0 1024 92 8000 1 360 23:47 13.01.2020
4676 Clouds 1 1024 92 9000 1 360 23:19 13.01.2020
4677 Clouds 1 1024 73 9000 1 360 22:58 13.01.2020
4678 Clouds 2 1024 73 9000 1 360 22:39 13.01.2020
4679 Clouds 2 1024 73 10000 1 360 22:20 13.01.2020
4680 Clouds 1 1024 80 10000 1.5 30 21:56 13.01.2020
4681 Clouds 2 1024 74 10000 2.1 190 21:37 13.01.2020
4682 Clouds 2 1024 74 10000 2.1 190 21:18 13.01.2020
4683 Clouds 2 1024 74 10000 2.1 190 20:56 13.01.2020
4684 Clouds 3 1024 73 10000 1.55 188 20:38 13.01.2020
4685 Clouds 3 1024 64 10000 1.96 197 20:19 13.01.2020
4686 Clouds 4 1024 70 10000 3.1 180 19:42 13.01.2020
4687 Clouds 5 1024 70 10000 3.1 180 19:22 13.01.2020
4688 Clouds 6 1024 64 10000 1 220 18:59 13.01.2020
4689 Clouds 6 1024 64 10000 1.5 200 18:40 13.01.2020
4690 Clouds 6 1024 64 10000 1.5 200 18:20 13.01.2020
4691 Clouds 6 1024 64 10000 1.5 200 18:20 13.01.2020
4692 Clouds 7 1024 61 10000 2.1 200 17:59 13.01.2020
4693 Clouds 8 1024 61 10000 2.6 210 17:40 13.01.2020
4694 Clouds 8 1024 61 10000 2.6 210 17:21 13.01.2020
4695 Clouds 8 1024 61 10000 2.6 210 17:21 13.01.2020
4696 Clouds 8 1024 57 10000 3.1 210 16:55 13.01.2020
4697 Clouds 8 1020 58 0 1.79 246 16:36 13.01.2020
4698 Clouds 8 1020 59 0 2.24 209 16:18 13.01.2020
4699 Clouds 8 1020 61 0 2.68 185 15:42 13.01.2020
4700 Clouds 7 1021 61 0 1.34 229 15:22 13.01.2020
4701 Clouds 7 1021 60 0 1.79 279 14:56 13.01.2020
4702 Clouds 7 1021 61 0 1.79 182 14:36 13.01.2020
4703 Clouds 7 1021 61 0 1.34 200 14:18 13.01.2020
4704 Clouds 6 1022 62 0 1.79 168 13:40 13.01.2020
4705 Clouds 6 1022 63 0 0.89 146 13:22 13.01.2020
4706 Clouds 5 1027 69 10000 0.5 0 12:58 13.01.2020
4707 Clouds 4 1027 69 10000 0.5 0 12:40 13.01.2020
4708 Clouds 4 1027 69 10000 0.5 0 12:21 13.01.2020
4709 Clouds 3 1027 69 10000 0.5 0 11:56 13.01.2020
4710 Clouds 2 1027 74 10000 1 110 11:36 13.01.2020
4711 Clouds 2 1027 74 10000 1 110 11:18 13.01.2020
4712 Clouds 1 1027 74 10000 1 0 10:55 13.01.2020
4713 Clouds 0 1026 80 10000 1 0 10:36 13.01.2020
4714 Clouds 0 1026 80 10000 1 0 10:18 13.01.2020
4715 Clouds -1 1026 50 10000 0.67 128 09:40 13.01.2020
4716 Clouds -1 1026 50 10000 0.67 128 09:22 13.01.2020
4717 Clouds -1 1026 92 10000 0.53 131 08:42 13.01.2020
4718 Clouds -1 1026 92 10000 0.58 109 08:21 13.01.2020
4719 Clouds -1 1026 51 10000 1 350 07:57 13.01.2020
4720 Clouds -1 1027 92 10000 0.58 109 07:38 13.01.2020
4721 Clouds -1 1027 92 10000 1 350 06:55 13.01.2020
4722 Clouds -1 1027 92 10000 0.5 20 06:36 13.01.2020
4723 Clouds -1 1027 92 10000 0.5 20 06:36 13.01.2020
4724 Clouds 0 1027 86 10000 1 360 05:36 13.01.2020
4725 Clouds -1 1028 92 10000 1 350 04:25 13.01.2020
4726 Clouds 0 1028 92 10000 1 330 03:31 13.01.2020
4727 Clouds 1 1028 92 10000 1.5 360 02:47 13.01.2020
4728 Clouds 0 1028 86 10000 2.6 340 02:29 13.01.2020
4729 Clouds 1 1029 86 10000 1.5 10 01:23 13.01.2020
4730 Clouds 1 1030 80 10000 1.5 350 00:42 13.01.2020
4731 Clouds 1 1030 80 10000 1.5 350 00:24 13.01.2020
4732 Clouds 2 1030 80 10000 1.5 340 23:56 12.01.2020
4733 Clouds 2 1029 86 10000 1.5 20 23:37 12.01.2020
4734 Clouds 2 1029 86 10000 1.5 20 23:19 12.01.2020
4735 Clouds 3 1029 74 10000 1.5 360 22:42 12.01.2020
4736 Clouds 3 1029 74 10000 1.5 360 22:24 12.01.2020
4737 Clouds 3 1029 74 10000 1.5 360 21:57 12.01.2020
4738 Clouds 3 1029 80 10000 0.48 123 21:38 12.01.2020
4739 Clouds 3 1029 80 10000 0.48 123 21:19 12.01.2020
4740 Clouds 4 1029 69 10000 1 0 20:57 12.01.2020
4741 Clouds 4 1029 45 10000 0.5 0 20:38 12.01.2020
4742 Clear 4 1029 44 10000 0.5 0 20:20 12.01.2020
4743 Clear 4 1029 44 10000 0.5 0 19:56 12.01.2020
4744 Clear 5 1029 44 10000 1 220 19:38 12.01.2020
4745 Clear 5 1029 44 10000 1 220 19:19 12.01.2020
4746 Clear 7 1029 44 10000 1 190 18:57 12.01.2020
4747 Clear 7 1029 45 10000 2.1 180 18:39 12.01.2020
4748 Clear 8 1029 45 10000 2.1 180 18:21 12.01.2020
4749 Clear 9 1028 46 10000 2.1 190 17:56 12.01.2020
4750 Clear 9 1028 44 10000 2.1 190 17:37 12.01.2020
4751 Clear 10 1028 29 10000 2.1 190 17:18 12.01.2020
4752 Clear 10 1028 43 10000 1.5 170 16:55 12.01.2020
4753 Clear 10 1029 43 10000 0.5 0 16:37 12.01.2020
4754 Clear 10 1029 43 10000 0.5 0 16:18 12.01.2020
4755 Clear 10 1029 29 10000 0.5 0 15:42 12.01.2020
4756 Clear 9 1029 43 10000 0.5 150 15:23 12.01.2020
4757 Clear 9 1029 29 10000 1.11 229 14:56 12.01.2020
4758 Clear 9 1030 29 10000 1 0 14:37 12.01.2020
4759 Clear 9 1030 37 10000 1 0 14:18 12.01.2020
4760 Clear 7 1030 37 10000 0.5 0 13:42 12.01.2020
4761 Clear 7 1031 52 10000 1 0 13:23 12.01.2020
4762 Clear 7 1031 52 10000 0.5 0 12:58 12.01.2020
4763 Clear 6 1032 60 10000 1 0 12:38 12.01.2020
4764 Clear 6 1032 60 10000 1 0 12:20 12.01.2020
4765 Clear 5 1032 65 10000 1 0 11:57 12.01.2020
4766 Clear 5 1032 65 10000 1 0 11:38 12.01.2020
4767 Clear 4 1032 60 10000 1 0 11:19 12.01.2020
4768 Clear 2 1031 64 10000 1.5 360 10:41 12.01.2020
4769 Clear 1 1031 64 10000 1.5 360 10:21 12.01.2020
4770 Clear 0 1031 74 10000 1 0 09:56 12.01.2020
4771 Clear -1 1031 86 10000 1.17 57 09:38 12.01.2020
4772 Clear -2 1031 86 10000 1.17 57 09:18 12.01.2020
4773 Clear -2 1031 86 10000 1 350 08:42 12.01.2020
4774 Clear -2 1031 86 10000 1.39 50 08:19 12.01.2020
4775 Clear -2 1030 86 10000 0.5 0 07:40 12.01.2020
4776 Clear -2 1030 63 10000 0.5 0 07:21 12.01.2020
4777 Clear -1 1030 85 10000 1 360 06:43 12.01.2020
4778 Clear -1 1030 85 10000 1 360 06:19 12.01.2020
4779 Clear -1 1030 79 10000 1.5 350 05:23 12.01.2020
4780 Clear 0 1031 86 10000 1.5 340 03:47 12.01.2020
4781 Clear 1 1031 86 10000 1 350 03:22 12.01.2020
4782 Clear 1 1030 79 10000 0.5 360 02:30 12.01.2020
4783 Clear 0 1031 86 10000 1.5 360 01:42 12.01.2020
4784 Clear 1 1031 80 10000 1.5 350 01:22 12.01.2020
4785 Clear 1 1031 80 10000 1.5 360 00:40 12.01.2020
4786 Clear 1 1031 80 10000 1.5 360 00:20 12.01.2020
4787 Clear 2 1031 61 10000 1.5 350 23:42 11.01.2020
4788 Clear 2 1031 54 10000 1.5 350 23:19 11.01.2020
4789 Clear 3 1031 54 10000 1.5 350 22:57 11.01.2020
4790 Clear 3 1031 80 10000 1.5 340 22:39 11.01.2020
4791 Clear 3 1031 80 10000 1.5 340 22:20 11.01.2020
4792 Clear 3 1031 80 10000 1.5 20 21:58 11.01.2020
4793 Clear 4 1030 69 10000 1 0 21:39 11.01.2020
4794 Clear 4 1030 69 10000 1 0 21:18 11.01.2020
4795 Clear 5 1030 65 10000 1 0 20:40 11.01.2020
4796 Clear 5 1030 65 10000 1 0 20:40 11.01.2020
4797 Clear 5 1030 65 10000 1 0 20:22 11.01.2020
4798 Clear 5 1030 42 10000 1.22 217 19:58 11.01.2020
4799 Clear 6 1030 65 10000 1.5 210 19:39 11.01.2020
4800 Clear 6 1030 65 10000 1.5 210 19:21 11.01.2020
4801 Clear 8 1030 52 10000 1 210 18:58 11.01.2020
4802 Clear 8 1030 46 10000 1.5 190 18:38 11.01.2020
4803 Clear 8 1030 46 10000 1.5 190 18:19 11.01.2020
4804 Clear 10 1030 40 10000 1.5 190 17:57 11.01.2020
4805 Clear 10 1030 40 10000 1.5 190 17:57 11.01.2020
4806 Clear 11 1030 37 10000 1 0 17:39 11.01.2020
4807 Clear 11 1030 37 10000 1 0 17:39 11.01.2020
4808 Clear 11 1030 37 10000 1 0 17:19 11.01.2020
4809 Clear 11 1030 37 10000 1 0 16:45 11.01.2020
4810 Clear 11 1030 37 10000 0.5 0 16:27 11.01.2020
4811 Clear 11 1030 37 10000 1 0 15:58 11.01.2020
4812 Clear 11 1030 40 10000 1 0 15:40 11.01.2020
4813 Clear 11 1030 40 10000 1 0 15:20 11.01.2020
4814 Clear 10 1030 40 10000 1.5 90 14:56 11.01.2020
4815 Clear 10 1030 40 10000 1.5 90 14:38 11.01.2020
4816 Clear 10 1031 40 10000 1 70 14:19 11.01.2020
4817 Clear 9 1032 39 10000 2.1 0 13:39 11.01.2020
4818 Clear 9 1032 39 10000 2.1 0 13:20 11.01.2020
4819 Clear 9 1032 39 10000 2.1 0 13:20 11.01.2020
4820 Clear 8 1032 45 10000 2.1 0 12:57 11.01.2020
4821 Clear 7 1032 45 10000 2.1 0 12:38 11.01.2020
4822 Clear 7 1033 49 10000 2.1 30 12:20 11.01.2020
4823 Clear 6 1033 52 10000 1.5 0 11:46 11.01.2020
4824 Clear 4 1032 56 10000 2.6 360 11:25 11.01.2020
4825 Clear 3 1032 60 10000 1.5 360 10:50 11.01.2020
4826 Clear 2 1032 60 10000 1 0 10:30 11.01.2020
4827 Clear 2 1032 60 10000 1 0 10:30 11.01.2020
4828 Clear 1 1032 69 10000 1 360 09:55 11.01.2020
4829 Clear 0 1032 74 10000 2.1 10 09:37 11.01.2020
4830 Clear 0 1032 74 10000 2.1 10 09:18 11.01.2020
4831 Clear 0 1031 74 10000 2.1 360 08:41 11.01.2020
4832 Clear 0 1031 74 10000 2.1 360 08:21 11.01.2020
4833 Clear 0 1031 80 10000 1 0 07:44 11.01.2020
4834 Clear 0 1031 80 10000 1 0 07:25 11.01.2020
4835 Clear 0 1031 92 10000 1 360 06:48 11.01.2020
4836 Clear 0 1031 92 10000 0.5 0 05:34 11.01.2020
4837 Clear 1 1031 80 10000 2.1 340 04:46 11.01.2020
4838 Clear 1 1031 80 10000 2.1 340 04:27 11.01.2020
4839 Clear 2 1030 74 10000 1.5 10 02:49 11.01.2020
4840 Clear 2 1030 74 10000 1.5 120 01:57 11.01.2020
4841 Clear 2 1030 80 10000 0.5 340 01:38 11.01.2020
4842 Clear 2 1030 80 10000 0.5 340 01:18 11.01.2020
4843 Clear 3 1031 74 10000 0.5 0 00:38 11.01.2020
4844 Clear 4 1031 80 10000 1 0 23:59 10.01.2020
4845 Clear 4 1031 80 10000 1 0 23:40 10.01.2020
4846 Clear 4 1030 70 10000 1.5 10 23:21 10.01.2020
4847 Clear 4 1030 70 10000 2.1 10 22:57 10.01.2020
4848 Clear 4 1030 70 10000 3.6 360 22:39 10.01.2020
4849 Clear 4 1030 70 10000 3.6 360 22:20 10.01.2020
4850 Clear 5 1030 70 10000 3.6 10 21:56 10.01.2020
4851 Clear 5 1030 70 10000 3.6 360 21:36 10.01.2020
4852 Clear 5 1030 70 10000 3.6 360 21:18 10.01.2020
4853 Clear 6 1029 70 10000 2.6 360 20:43 10.01.2020
4854 Clouds 6 1029 57 10000 2.6 360 20:24 10.01.2020
4855 Clouds 7 1029 52 10000 2.1 360 19:56 10.01.2020
4856 Clouds 7 1029 58 10000 3.1 10 19:37 10.01.2020
4857 Clouds 7 1029 58 10000 3.1 10 19:19 10.01.2020
4858 Clouds 7 1029 58 10000 3.1 10 19:19 10.01.2020
4859 Clouds 8 1029 58 10000 3.1 10 18:42 10.01.2020
4860 Clouds 9 1028 58 10000 2.6 10 18:19 10.01.2020
4861 Clouds 10 1028 58 10000 2.6 10 17:57 10.01.2020
4862 Clouds 10 1028 43 10000 3.1 40 17:39 10.01.2020
4863 Clouds 10 1028 43 10000 3.1 40 17:20 10.01.2020
4864 Clouds 10 1027 40 10000 2.6 30 16:57 10.01.2020
4865 Clouds 11 1027 40 10000 4.6 50 16:38 10.01.2020
4866 Clouds 11 1027 40 10000 4.6 50 16:19 10.01.2020
4867 Clouds 11 1027 37 10000 4.1 10 15:56 10.01.2020
4868 Clouds 11 1027 37 10000 4.1 10 15:37 10.01.2020
4869 Clouds 11 1027 40 10000 5.1 10 15:18 10.01.2020
4870 Clouds 11 1027 40 10000 5.1 10 14:55 10.01.2020
4871 Clouds 11 1027 43 10000 5.1 10 14:37 10.01.2020
4872 Clouds 10 1027 43 10000 5.1 10 14:18 10.01.2020
4873 Clouds 10 1028 43 10000 4.6 10 13:44 10.01.2020
4874 Clouds 10 1028 43 10000 4.6 10 13:44 10.01.2020
4875 Clouds 10 1028 43 10000 4.6 360 13:26 10.01.2020
4876 Clouds 9 1029 46 10000 3.1 10 12:59 10.01.2020
4877 Clouds 9 1029 46 10000 3.1 10 12:39 10.01.2020
4878 Clouds 8 1029 46 10000 3.1 10 12:21 10.01.2020
4879 Clouds 8 1029 57 10000 3.1 10 11:56 10.01.2020
4880 Clouds 7 1028 57 10000 2.6 360 11:38 10.01.2020
4881 Clear 7 1028 57 10000 2.6 360 11:19 10.01.2020
4882 Clear 5 1028 65 10000 2.1 350 10:58 10.01.2020
4883 Clear 5 1028 70 10000 1.5 350 10:37 10.01.2020
4884 Clear 5 1028 70 10000 1.5 350 10:18 10.01.2020
4885 Clouds 4 1028 75 10000 0.5 0 09:45 10.01.2020
4886 Clouds 3 1027 86 10000 0.5 0 09:25 10.01.2020
4887 Clear 4 1027 66 10000 1.5 10 08:44 10.01.2020
4888 Clouds 4 1027 73 10000 1.5 10 08:24 10.01.2020
4889 Clouds 4 1027 73 10000 1.5 10 08:24 10.01.2020
4890 Clouds 3 1026 73 10000 1 270 07:58 10.01.2020
4891 Clouds 3 1026 73 10000 1 0 07:39 10.01.2020
4892 Clouds 4 1026 73 10000 1 0 07:19 10.01.2020
4893 Mist 4 1025 100 5000 0.5 0 06:27 10.01.2020
4894 Mist 4 1025 93 5000 3.04 9 05:59 10.01.2020
4895 Mist 5 1025 100 5000 1 0 04:44 10.01.2020
4896 Clouds 5 1025 93 7000 0.5 0 03:31 10.01.2020
4897 Clouds 5 1025 93 7000 2.85 26 02:52 10.01.2020
4898 Clouds 7 1025 86 7000 1 50 01:53 10.01.2020
4899 Clouds 6 1025 86 8000 1 330 01:30 10.01.2020
4900 Clouds 7 1024 80 10000 1.5 230 00:49 10.01.2020
4901 Clouds 7 1025 81 10000 2.1 140 00:31 10.01.2020
4902 Clouds 6 1024 86 10000 1.5 130 23:55 09.01.2020
4903 Clouds 7 1024 81 10000 2.6 170 23:36 09.01.2020
4904 Clouds 7 1024 81 10000 2.6 170 23:18 09.01.2020
4905 Clouds 7 1025 81 10000 1.5 210 22:54 09.01.2020
4906 Clouds 7 1025 81 10000 3.6 200 22:36 09.01.2020
4907 Clouds 8 1025 81 10000 3.6 200 22:18 09.01.2020
4908 Clouds 8 1025 81 10000 2.6 210 21:54 09.01.2020
4909 Clouds 8 1025 81 10000 2.1 240 21:36 09.01.2020
4910 Clouds 8 1025 81 10000 2.1 240 21:18 09.01.2020
4911 Clouds 9 1026 76 10000 1.5 270 20:54 09.01.2020
4912 Clouds 9 1026 76 10000 1.5 270 20:36 09.01.2020
4913 Clouds 9 1026 71 10000 1.5 280 20:18 09.01.2020
4914 Clouds 8 1025 81 10000 1.5 260 19:39 09.01.2020
4915 Clouds 9 1025 71 10000 2.1 210 19:20 09.01.2020
4916 Clouds 9 1025 71 10000 2.1 210 18:56 09.01.2020
4917 Clouds 10 1025 66 10000 2.1 200 18:38 09.01.2020
4918 Clouds 10 1025 66 10000 2.1 200 18:20 09.01.2020
4919 Clouds 11 1025 58 10000 2.1 170 17:41 09.01.2020
4920 Clouds 12 1025 58 10000 2.1 170 17:19 09.01.2020
4921 Clouds 12 1024 54 10000 2.1 160 16:58 09.01.2020
4922 Clouds 12 1025 54 10000 2.1 160 16:39 09.01.2020
4923 Clouds 12 1025 54 10000 2.1 160 16:20 09.01.2020
4924 Clouds 12 1026 50 10000 1.5 210 15:43 09.01.2020
4925 Clouds 12 1026 54 10000 2.1 150 15:22 09.01.2020
4926 Clouds 12 1026 54 10000 2.1 150 14:58 09.01.2020
4927 Clouds 12 1026 58 10000 1.5 130 14:40 09.01.2020
4928 Clear 12 1027 54 10000 1 0 14:19 09.01.2020
4929 Clear 11 1027 54 10000 1 0 13:55 09.01.2020
4930 Clear 11 1027 58 10000 1 0 13:37 09.01.2020
4931 Clear 11 1027 57 10000 1 0 13:18 09.01.2020
4932 Clear 10 1027 57 10000 1 0 12:55 09.01.2020
4933 Clear 10 1028 61 10000 2.1 110 12:37 09.01.2020
4934 Clear 10 1028 57 10000 0.5 0 12:18 09.01.2020
4935 Clear 9 1028 57 10000 0.5 0 11:42 09.01.2020
4936 Clear 8 1028 57 10000 0.5 0 11:24 09.01.2020
4937 Clear 8 1028 57 10000 0.5 0 11:24 09.01.2020
4938 Clear 7 1028 70 10000 1.5 290 10:58 09.01.2020
4939 Clear 6 1028 65 10000 1 0 10:39 09.01.2020
4940 Clear 5 1027 75 10000 0.5 0 10:20 09.01.2020
4941 Clear 4 1027 86 10000 0.5 0 09:45 09.01.2020
4942 Clear 3 1027 80 10000 0.5 0 09:23 09.01.2020
4943 Clear 3 1027 86 10000 0.5 0 09:23 09.01.2020
4944 Clear 3 1027 80 10000 0.5 0 08:57 09.01.2020
4945 Clear 4 1027 80 10000 0.5 0 08:38 09.01.2020
4946 Clear 3 1027 80 10000 1 0 08:20 09.01.2020
4947 Clear 3 1027 86 10000 0.5 0 07:46 09.01.2020
4948 Clear 3 1027 86 10000 0.5 0 07:28 09.01.2020
4949 Clear 3 1027 78 10000 1.5 350 06:40 09.01.2020
4950 Clear 3 1027 78 10000 1.5 350 06:22 09.01.2020
4951 Clear 3 1028 78 10000 1.5 350 05:51 09.01.2020
4952 Clear 3 1028 86 10000 1.5 360 05:18 09.01.2020
4953 Clear 4 1028 86 10000 2.1 350 04:38 09.01.2020
4954 Clear 4 1028 86 10000 1.5 360 03:27 09.01.2020
4955 Clear 4 1028 80 10000 1.5 20 02:46 09.01.2020
4956 Clear 5 1029 75 10000 2.1 340 01:41 09.01.2020
4957 Clear 5 1029 75 10000 2.1 350 00:57 09.01.2020
4958 Clear 5 1029 75 10000 2.1 340 00:37 09.01.2020
4959 Clear 6 1029 75 10000 1.5 350 00:19 09.01.2020
4960 Clear 5 1029 75 10000 1.5 340 23:39 08.01.2020
4961 Clear 6 1029 56 10000 1.5 360 23:20 08.01.2020
4962 Clear 6 1029 56 10000 1.85 159 22:40 08.01.2020
4963 Clear 6 1029 56 10000 1.85 159 22:22 08.01.2020
4964 Clear 7 1028 56 10000 0.5 0 21:59 08.01.2020
4965 Clear 7 1028 56 10000 0.5 0 21:40 08.01.2020
4966 Clear 8 1028 56 10000 1.5 140 21:21 08.01.2020
4967 Clear 8 1028 56 10000 1.5 140 20:59 08.01.2020
4968 Clear 8 1028 56 10000 1.5 140 20:59 08.01.2020
4969 Clear 8 1029 57 10000 1 160 20:41 08.01.2020
4970 Clear 9 1028 53 10000 1.5 250 20:21 08.01.2020
4971 Clear 9 1028 53 10000 1.5 250 19:58 08.01.2020
4972 Clear 9 1028 61 10000 1 260 19:38 08.01.2020
4973 Clear 10 1028 50 10000 1 260 19:19 08.01.2020
4974 Clear 10 1028 50 10000 1 260 18:58 08.01.2020
4975 Clear 11 1028 42 10000 0.28 280 18:39 08.01.2020
4976 Clear 11 1028 42 10000 0.28 280 18:39 08.01.2020
4977 Clear 12 1028 36 10000 0.28 280 18:19 08.01.2020
4978 Clear 13 1028 36 10000 0.28 280 17:57 08.01.2020
4979 Clear 14 1028 42 10000 0.28 280 17:38 08.01.2020
4980 Clear 14 1028 41 10000 1.5 0 17:19 08.01.2020
4981 Clear 14 1028 41 10000 1.5 0 17:19 08.01.2020
4982 Clear 15 1028 41 10000 1.5 0 16:56 08.01.2020
4983 Clear 14 1028 31 10000 1.5 120 16:38 08.01.2020
4984 Clear 14 1028 31 10000 1.5 110 16:18 08.01.2020
4985 Clear 15 1028 35 10000 1.5 120 15:44 08.01.2020
4986 Clear 15 1028 35 10000 1.5 120 15:44 08.01.2020
4987 Clear 15 1028 35 10000 1.5 120 15:21 08.01.2020
4988 Clear 14 1028 35 10000 1 0 14:58 08.01.2020
4989 Clear 14 1028 33 10000 1.5 110 14:40 08.01.2020
4990 Clouds 13 1029 29 10000 0.78 46 14:21 08.01.2020
4991 Clouds 12 1029 46 10000 1 0 13:41 08.01.2020
4992 Clouds 12 1030 43 10000 1.5 100 13:22 08.01.2020
4993 Clouds 11 1030 43 10000 0.85 47 12:55 08.01.2020
4994 Clouds 11 1030 43 10000 0.85 47 12:36 08.01.2020
4995 Clouds 10 1030 46 10000 1 0 12:18 08.01.2020
4996 Clouds 10 1031 30 10000 0.5 0 11:47 08.01.2020
4997 Clouds 7 1030 57 10000 1.35 54 11:19 08.01.2020
4998 Clouds 7 1030 57 10000 1.35 54 10:59 08.01.2020
4999 Clouds 6 1030 65 10000 1.35 54 10:40 08.01.2020
5000 Clouds 4 1030 43 10000 1 0 10:21 08.01.2020
5001 Clouds 3 1029 43 10000 1.35 54 09:43 08.01.2020
5002 Clouds 3 1029 43 10000 1.35 54 09:20 08.01.2020
5003 Clouds 3 1029 43 10000 1.35 54 08:58 08.01.2020
5004 Clouds 3 1029 43 10000 1.35 54 08:40 08.01.2020
5005 Clouds 2 1029 48 10000 1.5 360 08:21 08.01.2020
5006 Clouds 2 1029 86 10000 1 0 07:52 08.01.2020
5007 Clouds 2 1029 86 10000 1 0 07:34 08.01.2020
5008 Clouds 1 1029 92 10000 1.5 360 06:58 08.01.2020
5009 Clouds 2 1029 92 10000 1.5 330 06:40 08.01.2020
5010 Clouds 3 1029 92 10000 1.5 360 05:56 08.01.2020
5011 Clear 3 1029 92 10000 1 340 05:25 08.01.2020
5012 Clear 4 1030 92 10000 1.5 360 04:36 08.01.2020
5013 Clear 3 1030 54 10000 1 330 02:46 08.01.2020
5014 Clear 4 1030 54 10000 1 330 02:28 08.01.2020
5015 Clear 4 1030 48 10000 1.5 10 01:56 08.01.2020
5016 Clear 4 1030 86 10000 1.5 350 01:32 08.01.2020
5017 Clear 5 1030 49 10000 0.5 0 00:51 08.01.2020
5018 Clear 5 1030 86 10000 2.1 10 00:22 08.01.2020
5019 Clear 5 1030 49 10000 2.1 350 23:46 07.01.2020
5020 Clear 5 1030 36 10000 1.5 360 23:21 07.01.2020
5021 Clear 5 1030 80 10000 1 350 22:43 07.01.2020
5022 Clear 5 1030 80 10000 1 350 22:21 07.01.2020
5023 Clear 6 1030 36 10000 1.5 10 21:59 07.01.2020
5024 Clear 6 1030 80 10000 0.5 0 21:41 07.01.2020
5025 Clear 6 1030 80 10000 0.72 70 21:21 07.01.2020
5026 Clear 6 1030 80 10000 0.72 70 20:58 07.01.2020
5027 Clear 7 1030 75 10000 1.5 260 20:39 07.01.2020
5028 Clouds 8 1030 75 10000 1.5 260 20:21 07.01.2020
5029 Clouds 7 1030 70 10000 1.5 270 19:57 07.01.2020
5030 Clouds 7 1030 70 10000 0.5 260 19:37 07.01.2020
5031 Clouds 8 1030 66 10000 0.5 0 19:19 07.01.2020
5032 Clouds 10 1030 54 10000 1 180 18:56 07.01.2020
5033 Clouds 11 1030 54 10000 1 180 18:38 07.01.2020
5034 Clouds 12 1030 47 10000 2.1 200 18:18 07.01.2020
5035 Clouds 13 1030 47 10000 2.1 200 17:54 07.01.2020
5036 Clouds 13 1030 44 10000 0.5 0 17:36 07.01.2020
5037 Clouds 14 1030 41 10000 0.5 0 17:18 07.01.2020
5038 Clouds 14 1030 41 10000 1 0 16:54 07.01.2020
5039 Clouds 14 1030 41 10000 1 0 16:36 07.01.2020
5040 Clouds 14 1030 41 10000 1 0 16:18 07.01.2020
5041 Clouds 14 1030 44 10000 1 0 15:42 07.01.2020
5042 Clouds 13 1030 41 10000 1 0 15:23 07.01.2020
5043 Clouds 13 1030 41 10000 1 0 14:58 07.01.2020
5044 Clouds 13 1031 46 10000 1 0 14:38 07.01.2020
5045 Clouds 12 1031 27 10000 1 0 14:19 07.01.2020
5046 Clouds 11 1032 27 10000 0.5 0 13:44 07.01.2020
5047 Clouds 11 1032 27 10000 0.5 0 13:20 07.01.2020
5048 Clouds 10 1032 27 10000 1 0 12:55 07.01.2020
5049 Clouds 10 1032 27 10000 1 0 12:36 07.01.2020
5050 Clouds 9 1032 53 10000 1 0 12:18 07.01.2020
5051 Clouds 8 1032 57 10000 0.5 0 11:41 07.01.2020
5052 Clear 6 1032 57 10000 0.5 0 11:22 07.01.2020
5053 Clear 7 1032 57 10000 1.49 51 10:56 07.01.2020
5054 Clear 6 1032 42 10000 1 0 10:37 07.01.2020
5055 Clear 4 1032 100 10000 1.49 51 10:19 07.01.2020
5056 Clear 3 1032 42 10000 1 0 09:39 07.01.2020
5057 Clear 3 1031 42 10000 1.49 51 09:20 07.01.2020
5058 Clear 3 1031 42 10000 1.49 51 08:57 07.01.2020
5059 Clear 3 1031 80 10000 1.49 52 08:37 07.01.2020
5060 Clear 3 1031 80 10000 1.49 52 08:37 07.01.2020
5061 Clouds 2 1031 52 10000 0.5 0 08:18 07.01.2020
5062 Clouds 2 1031 52 10000 0.5 0 07:42 07.01.2020
5063 Clouds 2 1031 52 10000 0.5 0 07:42 07.01.2020
5064 Clouds 2 1031 92 10000 1 360 06:57 07.01.2020
5065 Clouds 2 1031 92 10000 0.5 40 06:35 07.01.2020
5066 Clouds 2 1031 92 10000 2.1 340 05:59 07.01.2020
5067 Clouds 3 1031 100 10000 1.5 350 05:40 07.01.2020
5068 Clouds 3 1031 64 10000 1.5 340 03:46 07.01.2020
5069 Clouds 3 1031 64 10000 1.5 340 03:24 07.01.2020
5070 Clouds 4 1031 86 10000 1.5 350 02:18 07.01.2020
5071 Clouds 3 1031 86 10000 1 0 01:40 07.01.2020
5072 Clouds 4 1031 86 10000 1.5 340 00:58 07.01.2020
5073 Clouds 4 1031 58 10000 2.1 360 00:21 07.01.2020
5074 Clouds 4 1031 58 10000 2.1 360 00:21 07.01.2020
5075 Clouds 4 1031 58 10000 2.1 360 23:57 06.01.2020
5076 Clouds 4 1030 93 10000 1.5 360 23:37 06.01.2020
5077 Clear 5 1030 49 10000 1.5 350 23:19 06.01.2020
5078 Clear 5 1030 86 10000 2.1 20 22:44 06.01.2020
5079 Clear 5 1030 86 10000 2.1 20 22:25 06.01.2020
5080 Clear 5 1030 49 10000 0.5 0 21:59 06.01.2020
5081 Clear 6 1030 80 10000 1.5 10 21:40 06.01.2020
5082 Clear 6 1029 80 10000 2.1 20 21:20 06.01.2020
5083 Clear 6 1029 80 10000 2.1 20 20:57 06.01.2020
5084 Clear 6 1029 87 10000 1 250 20:39 06.01.2020
5085 Clear 7 1029 87 10000 2.1 260 20:20 06.01.2020
5086 Clear 7 1029 87 10000 2.1 260 19:57 06.01.2020
5087 Clear 7 1029 87 10000 1.5 250 19:39 06.01.2020
5088 Clear 8 1028 81 10000 2.1 250 19:20 06.01.2020
5089 Clear 9 1029 70 10000 2.1 250 18:48 06.01.2020
5090 Clear 10 1029 70 10000 2.1 250 18:25 06.01.2020
5091 Clear 12 1028 58 10000 1 210 17:59 06.01.2020
5092 Clear 12 1028 54 10000 1 0 17:39 06.01.2020
5093 Clear 13 1028 44 10000 0.5 0 17:19 06.01.2020
5094 Clear 13 1028 47 10000 0.5 0 16:55 06.01.2020
5095 Clear 13 1028 47 10000 0.5 0 16:36 06.01.2020
5096 Clear 13 1028 50 10000 2.1 140 16:18 06.01.2020
5097 Clear 13 1028 50 10000 1.5 140 15:41 06.01.2020
5098 Clear 13 1028 58 10000 0.5 0 15:20 06.01.2020
5099 Clear 13 1028 50 10000 1.5 130 14:59 06.01.2020
5100 Clear 12 1028 50 10000 1.5 120 14:40 06.01.2020
5101 Clear 12 1028 50 10000 1.5 120 14:20 06.01.2020
5102 Clear 11 1029 50 10000 1 0 13:57 06.01.2020
5103 Clear 12 1029 50 10000 1 0 13:57 06.01.2020
5104 Clear 11 1029 50 10000 1 0 13:37 06.01.2020
5105 Clear 10 1030 36 10000 1.5 110 13:19 06.01.2020
5106 Clear 10 1030 36 10000 1 0 12:43 06.01.2020
5107 Clear 9 1030 36 10000 1 0 12:21 06.01.2020
5108 Clear 9 1030 36 10000 1.5 80 11:58 06.01.2020
5109 Clear 9 1030 36 10000 0.5 0 11:39 06.01.2020
5110 Clear 7 1030 51 10000 0.5 0 11:20 06.01.2020
5111 Clear 6 1030 60 10000 1 360 10:54 06.01.2020
5112 Clear 6 1030 60 10000 1 360 10:36 06.01.2020
5113 Clear 4 1030 51 10000 1.43 46 10:18 06.01.2020
5114 Clear 3 1029 80 10000 1 360 09:37 06.01.2020
5115 Clear 2 1029 86 10000 0.5 340 09:19 06.01.2020
5116 Clear 2 1029 51 10000 0.5 340 08:43 06.01.2020
5117 Clear 1 1028 63 10000 0.9 52 08:25 06.01.2020
5118 Clear 1 1028 63 10000 0.9 52 07:51 06.01.2020
5119 Clear 1 1028 63 10000 0.9 52 07:26 06.01.2020
5120 Clear 1 1028 92 10000 0.9 52 06:45 06.01.2020
5121 Clear 2 1028 92 10000 0.9 52 06:19 06.01.2020
5122 Clear 2 1028 92 10000 1 360 05:42 06.01.2020
5123 Clear 2 1028 92 10000 1.5 340 04:33 06.01.2020
5124 Clear 2 1027 92 10000 1 360 03:59 06.01.2020
5125 Clear 3 1028 92 10000 1.5 340 02:46 06.01.2020
5126 Clear 3 1028 62 10000 1.5 340 02:23 06.01.2020
5127 Clear 4 1028 62 10000 1 360 01:44 06.01.2020
5128 Clear 4 1028 63 10000 1 360 01:24 06.01.2020
5129 Clear 4 1028 86 10000 1.5 340 00:41 06.01.2020
5130 Clear 4 1028 86 10000 1 360 00:20 06.01.2020
5131 Clear 4 1028 63 10000 1.5 350 23:41 05.01.2020
5132 Clear 4 1028 55 10000 1.5 350 23:22 05.01.2020
5133 Clear 4 1028 55 10000 1 350 22:56 05.01.2020
5134 Clear 5 1028 55 10000 1 350 22:37 05.01.2020
5135 Clear 5 1028 86 10000 1.5 350 22:19 05.01.2020
5136 Clear 5 1028 86 10000 1.5 350 21:54 05.01.2020
5137 Clear 5 1028 86 10000 1 10 21:36 05.01.2020
5138 Clear 6 1028 80 10000 1.5 140 21:18 05.01.2020
5139 Clear 6 1028 80 10000 1.5 140 20:55 05.01.2020
5140 Clear 6 1028 80 10000 0.28 75 20:36 05.01.2020
5141 Clear 6 1028 81 10000 0.34 321 20:18 05.01.2020
5142 Clear 7 1028 81 10000 0.34 321 19:54 05.01.2020
5143 Clear 7 1028 81 10000 0.34 321 19:54 05.01.2020
5144 Clear 7 1028 65 10000 0.34 321 19:36 05.01.2020
5145 Clear 8 1028 61 10000 1 110 19:18 05.01.2020
5146 Clear 8 1028 61 10000 1 110 18:54 05.01.2020
5147 Clear 8 1028 61 10000 1 110 18:54 05.01.2020
5148 Clear 9 1027 57 10000 1.5 110 18:36 05.01.2020
5149 Clear 10 1027 50 10000 1.5 130 18:18 05.01.2020
5150 Clear 9 1027 57 10000 1.5 110 18:18 05.01.2020
5151 Clear 11 1027 43 10000 1 140 17:39 05.01.2020
5152 Clear 12 1027 41 10000 0.67 257 17:21 05.01.2020
5153 Clear 12 1027 41 10000 0.67 257 16:58 05.01.2020
5154 Clear 12 1027 47 10000 1 0 16:40 05.01.2020
5155 Clear 12 1027 43 10000 1 0 16:20 05.01.2020
5156 Clear 12 1028 47 10000 1 0 15:41 05.01.2020
5157 Clear 12 1028 47 10000 1 0 15:22 05.01.2020
5158 Clear 12 1028 37 10000 1 0 14:58 05.01.2020
5159 Clear 11 1028 37 10000 1 0 14:40 05.01.2020
5160 Clear 11 1029 46 10000 1.1 21 14:22 05.01.2020
5161 Clear 10 1029 46 10000 1.1 21 13:59 05.01.2020
5162 Clear 10 1030 46 10000 1.1 21 13:39 05.01.2020
5163 Clear 9 1030 44 10000 1 0 13:20 05.01.2020
5164 Clear 9 1030 44 10000 1 0 12:57 05.01.2020
5165 Clear 9 1031 61 10000 1 0 12:57 05.01.2020
5166 Clear 9 1031 61 10000 1 0 12:38 05.01.2020
5167 Clear 7 1031 44 10000 1 0 12:20 05.01.2020
5168 Clear 8 1031 44 10000 1 0 11:55 05.01.2020
5169 Clear 7 1031 44 10000 1 0 11:36 05.01.2020
5170 Clear 7 1031 44 10000 1 0 11:36 05.01.2020
5171 Clear 6 1031 64 10000 1 0 11:18 05.01.2020
5172 Clear 5 1030 65 10000 1.5 360 10:41 05.01.2020
5173 Clear 4 1030 65 10000 1.5 360 10:20 05.01.2020
5174 Clear 3 1030 74 10000 1 0 09:57 05.01.2020
5175 Clear 2 1030 64 10000 1.35 44 09:38 05.01.2020
5176 Clear 2 1030 64 10000 1.35 44 09:38 05.01.2020
5177 Clear 1 1030 64 10000 1.35 44 09:20 05.01.2020
5178 Clear 1 1030 86 10000 1 10 08:45 05.01.2020
5179 Clear 1 1030 86 10000 1 10 08:21 05.01.2020
5180 Clear 1 1030 75 10000 1.5 360 07:50 05.01.2020
5181 Clear 1 1030 75 10000 1.5 360 07:29 05.01.2020
5182 Clear 1 1030 92 10000 1 0 06:56 05.01.2020
5183 Clear 1 1031 92 10000 1 10 05:52 05.01.2020
5184 Clear 1 1031 92 10000 0.5 30 04:57 05.01.2020
5185 Clear 2 1031 76 10000 1 0 04:19 05.01.2020
5186 Clear 2 1031 76 10000 1 0 04:19 05.01.2020
5187 Clear 2 1031 86 10000 2.6 360 03:40 05.01.2020
5188 Clear 2 1031 86 10000 1.5 330 02:41 05.01.2020
5189 Clear 2 1031 74 10000 1 0 02:19 05.01.2020
5190 Clear 3 1032 74 10000 1.5 350 01:36 05.01.2020
5191 Clouds 3 1032 74 10000 1.5 350 01:18 05.01.2020
5192 Clouds 4 1032 74 10000 1.5 350 00:39 05.01.2020
5193 Clouds 4 1032 74 10000 1.5 350 00:21 05.01.2020
5194 Clouds 4 1032 74 10000 1.5 340 23:58 04.01.2020
5195 Clouds 4 1032 80 10000 1 350 23:38 04.01.2020
5196 Clouds 5 1032 75 10000 1.5 340 23:18 04.01.2020
5197 Clouds 5 1032 70 10000 1 0 22:39 04.01.2020
5198 Clouds 5 1032 70 10000 1 0 22:39 04.01.2020
5199 Clouds 5 1032 70 10000 1.5 340 22:20 04.01.2020
5200 Clouds 5 1032 70 10000 1.5 340 21:56 04.01.2020
5201 Clouds 6 1032 70 10000 3.47 41 21:37 04.01.2020
5202 Clouds 6 1032 70 10000 3.47 41 21:19 04.01.2020
5203 Clouds 6 1032 70 10000 3.47 41 21:19 04.01.2020
5204 Clouds 6 1032 75 10000 3.47 41 20:56 04.01.2020
5205 Clouds 6 1032 66 10000 0.5 0 20:37 04.01.2020
5206 Clear 7 1032 66 10000 1 0 20:18 04.01.2020
5207 Clear 7 1032 66 10000 1 360 19:41 04.01.2020
5208 Clear 7 1032 66 10000 1 360 19:41 04.01.2020
5209 Clear 8 1032 61 10000 1 0 19:23 04.01.2020
5210 Clear 8 1032 61 10000 1 0 18:58 04.01.2020
5211 Clear 9 1032 57 10000 2.1 50 18:39 04.01.2020
5212 Clear 9 1031 65 10000 1 0 18:20 04.01.2020
5213 Clear 10 1031 54 10000 2.6 60 17:57 04.01.2020
5214 Clear 10 1031 54 10000 2.6 60 17:39 04.01.2020
5215 Clear 11 1031 54 10000 2.6 30 17:21 04.01.2020
5216 Clear 11 1031 54 10000 2.6 30 16:42 04.01.2020
5217 Clear 11 1031 54 10000 2.6 30 16:24 04.01.2020
5218 Clear 11 1031 54 10000 2.6 30 15:57 04.01.2020
5219 Clear 11 1032 54 10000 3.6 0 15:39 04.01.2020
5220 Clouds 11 1032 57 10000 5.1 30 15:19 04.01.2020
5221 Clouds 11 1032 57 10000 5.1 30 14:57 04.01.2020
5222 Clear 11 1033 53 10000 4.1 40 14:39 04.01.2020
5223 Clear 10 1033 53 10000 4.1 40 14:19 04.01.2020
5224 Clear 10 1033 57 10000 3.1 0 14:19 04.01.2020
5225 Clear 10 1034 61 10000 3.6 50 13:55 04.01.2020
5226 Clear 9 1034 61 10000 3.6 50 13:36 04.01.2020
5227 Clear 9 1034 66 10000 3.1 40 13:18 04.01.2020
5228 Clear 8 1034 66 10000 3.1 30 12:41 04.01.2020
5229 Clear 7 1034 70 10000 2.1 10 12:20 04.01.2020
5230 Clear 7 1034 70 10000 2.1 10 11:58 04.01.2020
5231 Clear 6 1035 75 10000 2.1 10 11:40 04.01.2020
5232 Clear 5 1034 81 10000 1 0 11:19 04.01.2020
5233 Clear 4 1034 81 10000 1 0 10:55 04.01.2020
5234 Clear 4 1034 81 10000 1 0 10:55 04.01.2020
5235 Clear 4 1034 80 10000 2.1 360 10:36 04.01.2020
5236 Clear 3 1034 86 10000 1.5 350 10:18 04.01.2020
5237 Clear 2 1034 93 10000 1 0 09:41 04.01.2020
5238 Clear 1 1034 93 10000 1.5 360 09:22 04.01.2020
5239 Clear 1 1033 93 10000 1 360 08:42 04.01.2020
5240 Clear 1 1033 93 10000 1 360 08:21 04.01.2020
5241 Clear 1 1033 93 10000 0.5 10 07:44 04.01.2020
5242 Clear 1 1033 100 7000 2.58 40 07:21 04.01.2020
5243 Clear 1 1033 100 7000 2.58 40 06:33 04.01.2020
5244 Fog 1 1033 100 5000 2.58 40 05:45 04.01.2020
5245 Fog 1 1033 100 4500 2.4 39 04:44 04.01.2020
5246 Fog 1 1033 100 4500 2.4 39 04:26 04.01.2020
5247 Fog 2 1033 78 700 3.6 340 03:19 04.01.2020
5248 Fog 1 1033 78 700 2.6 340 02:23 04.01.2020
5249 Fog 1 1033 78 700 2.6 340 02:23 04.01.2020
5250 Fog 1 1033 100 700 2.6 340 01:57 04.01.2020
5251 Fog 1 1034 100 800 2.6 350 01:32 04.01.2020
5252 Fog 1 1034 93 400 2.1 350 00:50 04.01.2020
5253 Fog 1 1035 100 4000 2.6 30 00:28 04.01.2020
5254 Fog 2 1034 100 200 1 10 23:52 03.01.2020
5255 Fog 2 1034 100 200 1 10 23:27 03.01.2020
5256 Fog 2 1034 93 400 1.5 360 22:55 03.01.2020
5257 Fog 3 1034 100 400 2.1 340 22:36 03.01.2020
5258 Fog 2 1034 100 400 2.1 350 22:18 03.01.2020
5259 Fog 3 1034 100 400 2.1 350 21:55 03.01.2020
5260 Fog 3 1033 100 500 1.5 20 21:37 03.01.2020
5261 Fog 3 1033 93 700 1.5 20 21:18 03.01.2020
5262 Mist 3 1033 100 1000 1.5 100 20:43 03.01.2020
5263 Mist 4 1033 100 2000 1 110 20:19 03.01.2020
5264 Mist 4 1033 100 2000 1 110 19:59 03.01.2020
5265 Mist 4 1032 100 1500 1 140 19:40 03.01.2020
5266 Mist 4 1032 93 2000 0.5 0 19:22 03.01.2020
5267 Mist 4 1032 93 4000 0.73 19 18:46 03.01.2020
5268 Mist 5 1032 93 4000 0.73 19 18:26 03.01.2020
5269 Mist 5 1032 87 4000 0.73 19 18:26 03.01.2020
5270 Mist 5 1032 87 4000 0.73 19 17:57 03.01.2020
5271 Mist 5 1032 81 3500 0.73 19 17:39 03.01.2020
5272 Mist 6 1032 93 3500 1 130 17:19 03.01.2020
5273 Mist 6 1032 87 3500 0.5 0 16:43 03.01.2020
5274 Mist 7 1032 87 3500 0.5 0 16:24 03.01.2020
5275 Mist 6 1032 87 3500 1 0 15:58 03.01.2020
5276 Mist 6 1032 93 3500 1 0 15:40 03.01.2020
5277 Mist 6 1032 93 3500 1 0 15:18 03.01.2020
5278 Mist 6 1032 93 3500 1 0 14:39 03.01.2020
5279 Mist 5 1032 100 1500 0.08 304 14:20 03.01.2020
5280 Mist 5 1032 100 1500 0.08 304 13:56 03.01.2020
5281 Fog 5 1033 100 800 0.23 235 13:37 03.01.2020
5282 Fog 4 1033 100 800 0.23 235 13:19 03.01.2020
5283 Mist 5 1034 100 1800 1 0 12:40 03.01.2020
5284 Mist 5 1034 100 1800 1 0 12:21 03.01.2020
5285 Mist 4 1034 93 2000 0.5 0 11:49 03.01.2020
5286 Mist 3 1034 93 2000 0.5 0 11:30 03.01.2020
5287 Fog 3 1033 100 100 1 0 10:48 03.01.2020
5288 Fog 2 1033 100 100 1 0 10:28 03.01.2020
5289 Fog 2 1032 100 100 0.5 0 09:59 03.01.2020
5290 Fog 2 1032 100 100 0.59 87 09:41 03.01.2020
5291 Fog 2 1032 100 100 0.59 87 09:22 03.01.2020
5292 Fog 2 1032 100 100 0.59 87 08:57 03.01.2020
5293 Mist 2 1032 100 4000 1 20 08:39 03.01.2020
5294 Fog 1 1032 100 200 0.52 37 08:20 03.01.2020
5295 Mist 1 1031 100 2500 1 0 07:41 03.01.2020
5296 Fog 1 1032 100 150 0.52 37 07:19 03.01.2020
5297 Fog 1 1032 100 150 0.52 37 06:54 03.01.2020
5298 Mist 1 1031 100 4000 1.5 360 06:35 03.01.2020
5299 Mist 1 1031 92 4000 0.5 10 05:48 03.01.2020
5300 Mist 1 1031 69 5000 1 350 04:31 03.01.2020
5301 Clouds 2 1031 69 6000 1.5 340 03:18 03.01.2020
5302 Clouds 2 1031 69 6000 1 350 02:45 03.01.2020
5303 Clouds 3 1031 64 6000 1 360 01:47 03.01.2020
5304 Clouds 4 1031 93 8000 1.5 360 00:57 03.01.2020
5305 Clouds 4 1031 93 8000 1.5 360 00:33 03.01.2020
5306 Clouds 4 1031 93 8000 1.5 340 23:58 02.01.2020
5307 Clouds 4 1031 93 9000 1.5 350 23:39 02.01.2020
5308 Clouds 4 1031 93 10000 1 340 23:19 02.01.2020
5309 Clouds 5 1031 93 10000 1 340 22:58 02.01.2020
5310 Clouds 5 1031 93 10000 1 340 22:58 02.01.2020
5311 Clouds 5 1031 93 10000 1.5 350 22:39 02.01.2020
5312 Clouds 5 1031 86 10000 1 360 22:19 02.01.2020
5313 Clouds 6 1031 86 10000 1 360 21:54 02.01.2020
5314 Clouds 6 1030 86 10000 0.5 360 21:36 02.01.2020
5315 Clouds 6 1030 86 10000 0.5 40 21:18 02.01.2020
5316 Clouds 7 1030 81 10000 0.84 68 20:40 02.01.2020
5317 Clouds 6 1030 81 10000 0.32 168 20:21 02.01.2020
5318 Clouds 7 1030 75 10000 0.32 168 19:56 02.01.2020
5319 Clouds 7 1030 75 10000 0.32 168 19:56 02.01.2020
5320 Clouds 7 1030 75 10000 0.32 168 19:38 02.01.2020
5321 Clouds 8 1030 65 10000 1.5 200 19:19 02.01.2020
5322 Clouds 8 1030 65 10000 1.5 200 18:59 02.01.2020
5323 Clouds 8 1030 61 10000 1 150 18:40 02.01.2020
5324 Clouds 9 1030 57 10000 1 150 18:22 02.01.2020
5325 Clouds 10 1030 57 10000 1 150 17:57 02.01.2020
5326 Clouds 10 1030 54 10000 1 110 17:38 02.01.2020
5327 Clouds 11 1030 58 10000 1 0 17:19 02.01.2020
5328 Clouds 12 1030 58 10000 1 0 16:57 02.01.2020
5329 Clouds 12 1030 58 10000 1 0 16:39 02.01.2020
5330 Clouds 11 1029 54 10000 1.06 233 16:20 02.01.2020
5331 Clouds 11 1029 58 10000 1.5 130 15:57 02.01.2020
5332 Clouds 11 1030 57 10000 1 0 15:37 02.01.2020
5333 Clouds 11 1030 62 10000 1 0 15:19 02.01.2020
5334 Clouds 11 1030 62 10000 1.06 233 14:55 02.01.2020
5335 Clouds 11 1030 62 10000 1.06 233 14:55 02.01.2020
5336 Clouds 11 1030 62 10000 1.06 233 14:36 02.01.2020
5337 Clear 10 1031 57 10000 1 0 14:18 02.01.2020
5338 Clear 10 1031 61 10000 1 0 13:47 02.01.2020
5339 Clear 9 1031 61 10000 1 0 13:29 02.01.2020
5340 Clear 9 1032 70 10000 1 0 12:45 02.01.2020
5341 Clear 9 1032 70 10000 1 0 12:25 02.01.2020
5342 Clear 7 1032 70 10000 1 0 11:44 02.01.2020
5343 Clear 6 1032 70 10000 1 0 11:26 02.01.2020
5344 Clear 5 1032 75 10000 1.37 48 10:58 02.01.2020
5345 Clear 4 1031 80 10000 1.37 48 10:39 02.01.2020
5346 Fog 3 1031 93 10000 1 360 10:19 02.01.2020
5347 Fog 2 1031 100 10000 1 350 09:42 02.01.2020
5348 Fog 2 1031 100 10000 1 350 09:24 02.01.2020
5349 Clear 1 1031 100 10000 1.37 48 08:45 02.01.2020
5350 Clear 1 1031 100 10000 1.37 48 08:45 02.01.2020
5351 Clear 1 1031 100 10000 1.04 50 08:27 02.01.2020
5352 Clear 1 1030 63 10000 1.12 47 07:50 02.01.2020
5353 Clear 1 1030 100 10000 1.12 47 07:30 02.01.2020
5354 Clear 1 1030 100 7000 1.5 360 06:44 02.01.2020
5355 Clear 1 1030 100 7000 0.5 360 06:26 02.01.2020
5356 Clear 2 1030 100 6000 1 350 04:53 02.01.2020
5357 Clear 2 1030 100 6000 1 350 04:30 02.01.2020
5358 Fog 3 1030 53 6000 1 340 02:32 02.01.2020
5359 Clouds 3 1031 53 6000 1 360 01:58 02.01.2020
5360 Fog 3 1031 54 6000 1 350 01:32 02.01.2020
5361 Clouds 4 1031 54 7000 1.5 350 00:57 02.01.2020
5362 Clouds 4 1031 54 7000 1.5 340 00:33 02.01.2020
5363 Clouds 4 1031 93 7000 2.1 10 23:49 01.01.2020
5364 Clouds 5 1031 93 7000 1 10 23:27 01.01.2020
5365 Clouds 5 1031 100 7000 1.5 350 22:56 01.01.2020
5366 Clouds 5 1031 93 7000 1 360 22:37 01.01.2020
5367 Clouds 5 1031 86 7000 1.5 340 22:19 01.01.2020
5368 Clouds 6 1031 86 7000 1.5 340 21:55 01.01.2020
5369 Clouds 6 1031 86 8000 2.1 10 21:37 01.01.2020
5370 Clouds 6 1031 86 8000 1 10 21:18 01.01.2020
5371 Clouds 7 1031 87 10000 0.6 111 20:42 01.01.2020
5372 Clouds 7 1031 93 10000 0.37 203 20:22 01.01.2020
5373 Clouds 7 1031 93 10000 0.37 203 19:58 01.01.2020
5374 Clouds 7 1031 87 10000 0.5 0 19:40 01.01.2020
5375 Clouds 8 1031 76 10000 1 0 19:21 01.01.2020
5376 Clouds 9 1031 76 10000 1 0 18:59 01.01.2020
5377 Clouds 9 1031 71 10000 1 110 18:39 01.01.2020
5378 Clouds 9 1031 71 10000 1 110 18:20 01.01.2020
5379 Clouds 11 1030 66 10000 2.1 110 17:59 01.01.2020
5380 Clouds 11 1030 62 10000 2.1 110 17:40 01.01.2020
5381 Clouds 12 1030 62 10000 2.1 110 17:20 01.01.2020
5382 Clouds 12 1030 62 10000 2.1 120 16:59 01.01.2020
5383 Clouds 12 1030 62 10000 2.1 120 16:59 01.01.2020
5384 Clouds 12 1030 62 10000 2.1 120 16:38 01.01.2020
5385 Clouds 12 1030 54 10000 1.5 140 16:20 01.01.2020
5386 Clouds 12 1030 54 10000 1.5 140 15:57 01.01.2020
5387 Clouds 12 1030 58 10000 1.5 160 15:38 01.01.2020
5388 Clouds 12 1030 58 10000 1.5 160 15:20 01.01.2020
5389 Clouds 12 1031 54 10000 0.79 255 14:56 01.01.2020
5390 Clouds 12 1031 54 10000 0.79 255 14:38 01.01.2020
5391 Clear 11 1031 54 10000 0.5 0 14:19 01.01.2020
5392 Clear 11 1031 54 10000 0.5 0 13:55 01.01.2020
5393 Clear 11 1031 54 10000 0.5 0 13:55 01.01.2020
5394 Clear 10 1032 58 10000 1 0 13:37 01.01.2020
5395 Clear 9 1033 57 10000 1 0 13:18 01.01.2020
5396 Clear 10 1033 57 10000 1 0 12:55 01.01.2020
5397 Clear 9 1033 61 10000 0.5 0 12:36 01.01.2020
5398 Clear 9 1033 61 10000 0.5 0 12:18 01.01.2020
5399 Clear 8 1033 61 10000 0.5 0 11:42 01.01.2020
5400 Clear 6 1033 70 10000 1.28 55 11:21 01.01.2020
5401 Clear 5 1033 75 10000 0.5 0 10:57 01.01.2020
5402 Clear 5 1033 75 10000 0.5 0 10:38 01.01.2020
5403 Clear 4 1032 86 10000 0.5 0 10:19 01.01.2020
5404 Clear 2 1032 93 10000 0.5 0 09:42 01.01.2020
5405 Clear 1 1032 93 9000 0.5 360 09:23 01.01.2020
5406 Clear 1 1032 93 9000 0.5 360 08:57 01.01.2020
5407 Clear 1 1032 93 8000 1 0 08:39 01.01.2020
5408 Clear 2 1032 100 8000 0.5 350 08:20 01.01.2020
5409 Clear 2 1032 100 8000 0.5 350 07:59 01.01.2020
5410 Clear 2 1031 100 8000 1.32 48 07:41 01.01.2020
5411 Clear 1 1031 100 8000 1.32 48 07:20 01.01.2020
5412 Clear 2 1031 92 7000 1 350 06:40 01.01.2020
5413 Clear 2 1031 100 7000 1 360 06:18 01.01.2020
5414 Clear 2 1032 100 6000 1 340 04:36 01.01.2020
5415 Clear 3 1032 62 6000 1.5 360 03:40 01.01.2020
5416 Clear 3 1031 62 6000 0.5 10 03:21 01.01.2020
5417 Clear 3 1032 62 6000 1.5 360 02:43 01.01.2020
5418 Clear 3 1032 55 6000 1.5 360 02:24 01.01.2020
5419 Clear 4 1032 55 6000 1 350 01:45 01.01.2020
5420 Clear 4 1032 54 6000 1.5 360 01:23 01.01.2020
5421 Clear 4 1032 54 6000 1.5 360 00:54 01.01.2020
5422 Clear 4 1032 93 7000 1 0 00:36 01.01.2020
5423 Clear 4 1032 93 7000 2.1 350 00:18 01.01.2020
5424 Clear 5 1032 93 7000 1.5 360 23:38 31.12.2019
5425 Clear 5 1032 93 8000 1.5 350 23:19 31.12.2019
5426 Clear 5 1032 93 8000 1.5 350 22:56 31.12.2019
5427 Clear 5 1032 93 8000 1.5 350 22:37 31.12.2019
5428 Clear 5 1032 86 8000 1.5 350 22:18 31.12.2019
5429 Clear 6 1031 93 10000 0.5 0 21:43 31.12.2019
5430 Clear 6 1031 93 10000 0.5 0 21:25 31.12.2019
5431 Clear 6 1031 93 10000 1.5 360 20:58 31.12.2019
5432 Clear 7 1032 93 10000 0.5 280 20:39 31.12.2019
5433 Clouds 7 1032 93 10000 0.51 227 20:21 31.12.2019
5434 Clouds 8 1032 93 10000 0.51 227 19:58 31.12.2019
5435 Clouds 8 1031 87 10000 0.5 240 19:40 31.12.2019
5436 Clouds 8 1031 87 10000 0.5 240 19:22 31.12.2019
5437 Clouds 9 1031 76 10000 1.5 150 18:57 31.12.2019
5438 Clouds 9 1031 87 10000 0.5 0 18:57 31.12.2019
5439 Clouds 9 1031 76 10000 1.5 150 18:39 31.12.2019
5440 Clouds 11 1031 66 10000 1.5 150 18:19 31.12.2019
5441 Clouds 11 1031 66 10000 1.5 150 17:56 31.12.2019
5442 Clouds 12 1031 66 10000 1.5 140 17:37 31.12.2019
5443 Clear 12 1031 66 10000 1.5 140 17:19 31.12.2019
5444 Clear 12 1031 62 10000 1.5 140 16:56 31.12.2019
5445 Clear 13 1030 62 10000 2.1 130 16:37 31.12.2019
5446 Clear 12 1030 58 10000 1.5 140 16:19 31.12.2019
5447 Clear 12 1030 58 10000 1.5 140 15:56 31.12.2019
5448 Clear 12 1031 54 10000 1 0 15:38 31.12.2019
5449 Clear 12 1031 54 10000 0.5 0 15:20 31.12.2019
5450 Clear 12 1031 54 10000 0.5 0 14:56 31.12.2019
5451 Clear 12 1031 58 10000 0.5 0 14:37 31.12.2019
5452 Clear 12 1031 54 10000 0.5 0 14:19 31.12.2019
5453 Clear 11 1032 62 10000 1 0 13:56 31.12.2019
5454 Clear 11 1032 58 10000 1 0 13:38 31.12.2019
5455 Clear 10 1033 62 10000 0.5 0 13:20 31.12.2019
5456 Clear 10 1033 62 10000 0.5 0 12:56 31.12.2019
5457 Clear 10 1033 61 10000 0.5 0 12:38 31.12.2019
5458 Clear 9 1033 66 10000 1 0 12:19 31.12.2019
5459 Clear 8 1033 66 10000 1 0 11:56 31.12.2019
5460 Clear 8 1033 75 10000 1 0 11:37 31.12.2019
5461 Clear 6 1033 75 10000 0.5 0 11:19 31.12.2019
5462 Clear 6 1033 75 10000 0.5 0 10:57 31.12.2019
5463 Clear 6 1033 75 10000 0.5 0 10:57 31.12.2019
5464 Clear 5 1032 80 10000 0.5 0 10:37 31.12.2019
5465 Clear 4 1032 86 10000 1.16 55 10:19 31.12.2019
5466 Clear 3 1032 86 10000 1.16 55 09:58 31.12.2019
5467 Clear 2 1032 93 10000 0.5 0 09:39 31.12.2019
5468 Mist 2 1032 100 4500 1.5 340 09:19 31.12.2019
5469 Mist 2 1032 100 4500 1.5 340 08:57 31.12.2019
5470 Clear 2 1031 100 10000 1.11 58 08:37 31.12.2019
5471 Clear 1 1031 92 10000 1.5 360 08:18 31.12.2019
5472 Fog 2 1031 64 5000 0.88 57 07:41 31.12.2019
5473 Clear 2 1031 92 10000 1 350 07:19 31.12.2019
5474 Clear 2 1031 92 10000 1.5 350 06:42 31.12.2019
5475 Clear 2 1031 100 10000 1.5 10 05:54 31.12.2019
5476 Clear 3 1031 59 10000 2.1 330 04:27 31.12.2019
5477 Clear 3 1031 59 10000 1.5 340 03:27 31.12.2019
5478 Clear 3 1031 59 10000 1 340 02:43 31.12.2019
5479 Clear 3 1031 55 10000 0.59 85 01:53 31.12.2019
5480 Clear 3 1031 55 10000 0.59 85 01:34 31.12.2019
5481 Clear 3 1032 53 10000 0.58 82 00:56 31.12.2019
5482 Clear 4 1032 53 10000 0.5 40 00:37 31.12.2019
5483 Clear 4 1032 93 10000 0.5 0 00:18 31.12.2019
5484 Clear 4 1032 93 10000 0.5 0 23:56 30.12.2019
5485 Clear 4 1032 86 10000 1.5 360 23:37 30.12.2019
5486 Clear 4 1032 86 10000 1.5 360 23:19 30.12.2019
5487 Clear 5 1031 93 10000 1.5 360 22:56 30.12.2019
5488 Clear 5 1031 86 10000 1.5 350 22:37 30.12.2019
5489 Clear 5 1031 86 10000 1 0 22:18 30.12.2019
5490 Clear 6 1031 86 10000 1 0 21:55 30.12.2019
5491 Clear 6 1031 80 10000 1 0 21:37 30.12.2019
5492 Clear 6 1031 81 10000 1.5 10 21:18 30.12.2019
5493 Clear 6 1031 81 10000 1.5 10 20:56 30.12.2019
5494 Clear 6 1031 87 10000 0.9 67 20:37 30.12.2019
5495 Clear 7 1031 81 10000 0.17 267 20:19 30.12.2019
5496 Clear 7 1031 81 10000 0.5 0 19:55 30.12.2019
5497 Clear 7 1031 81 10000 0.5 0 19:37 30.12.2019
5498 Clear 8 1031 70 10000 1 220 19:18 30.12.2019
5499 Clear 9 1031 70 10000 1 220 18:56 30.12.2019
5500 Clear 9 1031 71 10000 1 140 18:36 30.12.2019
5501 Clear 10 1031 58 10000 1 130 18:18 30.12.2019
5502 Clear 11 1031 58 10000 2.1 210 17:54 30.12.2019
5503 Clear 11 1031 58 10000 1.5 140 17:36 30.12.2019
5504 Clear 12 1031 58 10000 1.5 140 17:18 30.12.2019
5505 Clear 12 1031 54 10000 1.5 120 16:41 30.12.2019
5506 Clear 12 1031 54 10000 1.5 120 16:41 30.12.2019
5507 Clear 12 1031 54 10000 1.5 120 16:20 30.12.2019
5508 Clear 12 1031 50 10000 0.5 0 15:57 30.12.2019
5509 Clear 13 1031 50 10000 0.5 0 15:39 30.12.2019
5510 Clear 12 1031 50 10000 0.5 250 15:19 30.12.2019
5511 Clear 12 1031 50 10000 0.5 250 14:56 30.12.2019
5512 Clear 12 1031 54 10000 0.5 0 14:38 30.12.2019
5513 Clear 11 1032 58 10000 0.5 130 14:18 30.12.2019
5514 Clear 11 1032 62 10000 1.5 0 13:42 30.12.2019
5515 Clear 11 1032 62 10000 1.5 0 13:24 30.12.2019
5516 Clear 10 1033 70 10000 2.1 110 12:59 30.12.2019
5517 Clear 10 1033 66 10000 1.5 90 12:41 30.12.2019
5518 Clear 9 1033 65 10000 1 0 12:19 30.12.2019
5519 Clear 9 1033 65 10000 1 0 11:58 30.12.2019
5520 Clear 8 1033 65 10000 1 0 11:39 30.12.2019
5521 Clear 6 1032 65 10000 1 0 11:18 30.12.2019
5522 Clear 5 1032 65 10000 0.5 0 10:43 30.12.2019
5523 Clear 5 1032 65 10000 0.5 0 10:21 30.12.2019
5524 Clear 4 1032 50 10000 0.99 62 09:55 30.12.2019
5525 Clear 3 1031 93 10000 0.99 62 09:37 30.12.2019
5526 Clear 2 1031 86 10000 0.99 62 09:18 30.12.2019
5527 Clear 2 1031 49 10000 1.03 57 08:46 30.12.2019
5528 Clear 2 1031 58 10000 0.99 61 08:23 30.12.2019
5529 Clear 2 1030 58 10000 0.5 0 07:53 30.12.2019
5530 Clear 2 1030 58 10000 1 10 07:33 30.12.2019
5531 Clear 2 1030 92 10000 1.5 10 06:51 30.12.2019
5532 Clear 2 1030 92 10000 0.5 320 04:50 30.12.2019
5533 Clear 3 1030 92 10000 1 64 03:53 30.12.2019
5534 Clear 4 1030 50 10000 1.5 10 02:50 30.12.2019
5535 Clear 4 1030 50 10000 1.5 10 02:32 30.12.2019
5536 Clear 5 1030 86 10000 1.5 350 01:50 30.12.2019
5537 Clear 4 1030 86 10000 1.5 10 01:20 30.12.2019
5538 Clear 5 1030 44 10000 1.5 330 00:43 30.12.2019
5539 Clear 5 1030 44 10000 1 320 23:59 29.12.2019
5540 Clear 5 1030 44 10000 1.5 20 23:39 29.12.2019
5541 Clear 5 1030 40 10000 1.5 20 23:21 29.12.2019
5542 Clear 5 1030 40 10000 1 350 22:42 29.12.2019
5543 Clear 6 1030 40 10000 2.1 350 22:23 29.12.2019
5544 Clear 6 1030 40 10000 2.1 350 21:59 29.12.2019
5545 Clear 6 1030 40 10000 1.5 350 21:41 29.12.2019
5546 Clear 6 1030 40 10000 1.5 350 21:20 29.12.2019
5547 Clear 6 1030 40 10000 1.5 350 21:20 29.12.2019
5548 Clear 6 1029 80 10000 1.5 10 20:57 29.12.2019
5549 Clear 7 1030 70 10000 0.49 54 20:39 29.12.2019
5550 Clear 7 1030 61 10000 0.26 335 20:20 29.12.2019
5551 Clear 8 1030 61 10000 0.26 335 19:58 29.12.2019
5552 Clear 8 1029 57 10000 1 250 19:40 29.12.2019
5553 Clear 8 1029 57 10000 1 250 19:21 29.12.2019
5554 Clear 9 1029 57 10000 0.26 335 18:57 29.12.2019
5555 Clear 10 1029 50 10000 1 0 18:38 29.12.2019
5556 Clear 11 1029 35 10000 1.5 140 18:19 29.12.2019
5557 Clear 12 1029 35 10000 1.5 140 17:58 29.12.2019
5558 Clear 13 1029 38 10000 0.5 160 17:39 29.12.2019
5559 Clear 14 1029 36 10000 0.3 301 17:20 29.12.2019
5560 Clear 14 1029 36 10000 0.3 301 16:56 29.12.2019
5561 Clear 14 1029 25 10000 0.3 301 16:37 29.12.2019
5562 Clear 14 1029 44 10000 0.5 0 16:19 29.12.2019
5563 Clear 14 1029 44 10000 0.5 0 15:57 29.12.2019
5564 Clear 14 1030 25 10000 1 0 15:39 29.12.2019
5565 Clear 14 1030 41 10000 1 260 15:20 29.12.2019
5566 Clear 14 1030 41 10000 1 260 14:57 29.12.2019
5567 Clear 13 1030 25 10000 0.5 0 14:38 29.12.2019
5568 Clear 13 1031 38 10000 0.5 0 14:18 29.12.2019
5569 Clear 13 1031 38 10000 0.5 0 13:57 29.12.2019
5570 Clear 13 1031 38 10000 0.5 0 13:57 29.12.2019
5571 Clear 12 1031 26 10000 1 0 13:38 29.12.2019
5572 Clear 12 1031 26 10000 1 0 13:19 29.12.2019
5573 Clear 11 1032 43 10000 0.5 0 12:45 29.12.2019
5574 Clear 11 1032 43 10000 0.5 0 12:27 29.12.2019
5575 Clear 10 1032 26 10000 1 0 11:57 29.12.2019
5576 Clear 10 1032 26 10000 0.5 0 11:38 29.12.2019
5577 Clear 8 1032 46 10000 0.5 0 11:20 29.12.2019
5578 Clear 7 1031 48 10000 1.5 10 10:43 29.12.2019
5579 Clear 6 1031 48 10000 1.5 10 10:25 29.12.2019
5580 Clear 4 1031 48 10000 0.5 0 09:58 29.12.2019
5581 Clear 4 1031 60 10000 1 0 09:39 29.12.2019
5582 Clear 3 1031 60 10000 1 0 09:21 29.12.2019
5583 Clear 2 1031 60 10000 1 0 08:48 29.12.2019
5584 Clear 3 1031 60 10000 1 0 08:28 29.12.2019
5585 Clear 3 1031 74 10000 1 360 07:56 29.12.2019
5586 Clear 3 1031 80 10000 0.5 360 07:28 29.12.2019
5587 Clear 3 1031 80 10000 0.5 360 07:28 29.12.2019
5588 Clear 3 1031 92 10000 1 350 06:56 29.12.2019
5589 Clear 3 1031 92 10000 1.5 360 06:26 29.12.2019
5590 Clear 4 1031 92 10000 0.5 0 05:53 29.12.2019
5591 Clear 4 1030 92 10000 1.5 360 04:36 29.12.2019
5592 Clear 4 1030 33 10000 1 360 03:58 29.12.2019
5593 Clear 5 1030 86 10000 1 320 03:21 29.12.2019
5594 Clear 5 1030 86 10000 1.71 55 02:21 29.12.2019
5595 Clear 6 1030 86 10000 1 20 01:40 29.12.2019
5596 Clear 6 1030 33 10000 1.5 360 01:21 29.12.2019
5597 Clear 7 1030 33 10000 2.1 10 00:42 29.12.2019
5598 Clear 7 1030 33 10000 1.5 340 00:23 29.12.2019
5599 Clear 7 1030 33 10000 2.1 10 00:23 29.12.2019
5600 Clear 6 1030 33 10000 1.5 360 23:44 28.12.2019
5601 Clear 7 1030 80 10000 1.5 360 23:18 28.12.2019
5602 Clear 7 1030 86 10000 1 10 22:40 28.12.2019
5603 Clear 8 1030 35 10000 1.5 360 22:21 28.12.2019
5604 Clear 8 1030 35 10000 1.5 360 21:58 28.12.2019
5605 Clear 8 1030 75 10000 1.5 360 21:40 28.12.2019
5606 Clear 8 1029 35 10000 1 330 21:22 28.12.2019
5607 Clear 8 1029 35 10000 1 330 20:59 28.12.2019
5608 Clear 9 1029 65 10000 1.5 250 20:38 28.12.2019
5609 Clear 9 1029 65 10000 1.5 250 20:20 28.12.2019
5610 Clear 9 1029 65 10000 1.32 21 19:58 28.12.2019
5611 Clear 9 1029 28 10000 0.5 270 19:39 28.12.2019
5612 Clear 9 1029 28 10000 1.32 21 19:21 28.12.2019
5613 Clear 10 1029 28 10000 1.32 21 18:58 28.12.2019
5614 Clear 10 1029 37 10000 1 0 18:40 28.12.2019
5615 Clear 11 1029 37 10000 1 0 18:19 28.12.2019
5616 Clear 14 1029 29 10000 1.32 21 17:55 28.12.2019
5617 Clear 13 1028 41 10000 0.5 80 17:37 28.12.2019
5618 Clear 15 1028 27 10000 0.5 0 17:18 28.12.2019
5619 Clear 16 1028 29 10000 0.5 0 16:46 28.12.2019
5620 Clear 16 1028 29 10000 0.5 0 16:26 28.12.2019
5621 Clear 15 1028 35 10000 2.6 110 15:47 28.12.2019
5622 Clear 15 1028 33 10000 1.5 100 15:24 28.12.2019
5623 Clear 14 1028 33 10000 1.5 100 14:59 28.12.2019
5624 Clear 14 1028 33 10000 1.5 150 14:39 28.12.2019
5625 Clear 14 1029 21 10000 0.5 0 14:20 28.12.2019
5626 Clear 14 1029 21 10000 0.5 0 13:56 28.12.2019
5627 Clear 14 1029 25 10000 0.5 0 13:37 28.12.2019
5628 Clear 14 1030 28 10000 0.5 0 13:18 28.12.2019
5629 Clear 13 1030 25 10000 1 0 12:42 28.12.2019
5630 Clear 13 1030 25 10000 1 0 12:23 28.12.2019
5631 Clear 12 1030 32 10000 0.5 0 11:56 28.12.2019
5632 Clear 11 1031 40 10000 0.55 72 11:38 28.12.2019
5633 Clear 9 1031 40 10000 1.77 45 11:19 28.12.2019
5634 Clear 8 1030 48 10000 1 0 10:44 28.12.2019
5635 Clear 7 1030 52 10000 1 0 10:22 28.12.2019
5636 Clear 6 1030 52 10000 1 0 09:57 28.12.2019
5637 Clear 5 1030 60 10000 1.77 45 09:39 28.12.2019
5638 Clear 5 1030 59 10000 1 0 09:19 28.12.2019
5639 Clear 5 1030 64 10000 0.5 0 08:44 28.12.2019
5640 Clear 4 1029 64 10000 0.5 0 08:26 28.12.2019
5641 Clear 4 1029 64 10000 1 0 07:49 28.12.2019
5642 Clear 4 1029 64 10000 1 0 07:30 28.12.2019
5643 Clear 3 1029 100 10000 1 350 06:27 28.12.2019
5644 Clear 4 1029 92 10000 1.5 350 04:36 28.12.2019
5645 Clear 4 1029 31 10000 1 350 03:39 28.12.2019
5646 Clear 5 1029 31 10000 0.5 0 02:48 28.12.2019
5647 Clear 5 1029 38 10000 1 20 01:59 28.12.2019
5648 Clear 6 1029 42 10000 1.5 360 01:30 28.12.2019
5649 Clear 5 1030 42 10000 1.5 340 00:55 28.12.2019
5650 Clear 6 1030 42 10000 2.1 350 00:37 28.12.2019
5651 Clear 5 1030 86 10000 1.5 340 00:19 28.12.2019
5652 Clear 6 1030 86 10000 1.5 360 23:43 27.12.2019
5653 Clear 6 1029 93 10000 1.5 360 23:19 27.12.2019
5654 Clear 6 1029 93 10000 1.5 360 23:19 27.12.2019
5655 Clear 6 1030 86 10000 1 0 22:57 27.12.2019
5656 Clear 6 1030 86 10000 1 0 22:38 27.12.2019
5657 Clear 7 1030 86 10000 3.1 330 22:20 27.12.2019
5658 Clear 7 1030 86 10000 3.1 330 21:55 27.12.2019
5659 Clear 7 1030 80 10000 2.1 340 21:36 27.12.2019
5660 Clear 7 1029 81 10000 2.1 320 21:18 27.12.2019
5661 Clear 8 1030 70 10000 1 360 20:41 27.12.2019
5662 Clouds 7 1030 70 10000 1 360 20:22 27.12.2019
5663 Clouds 9 1029 66 10000 1.24 39 19:42 27.12.2019
5664 Clouds 9 1029 66 10000 1.24 39 19:21 27.12.2019
5665 Clouds 10 1029 61 10000 1.24 39 18:59 27.12.2019
5666 Clouds 10 1029 54 10000 1 250 18:39 27.12.2019
5667 Clouds 10 1029 54 10000 1 250 18:20 27.12.2019
5668 Clouds 13 1029 47 10000 1 0 17:57 27.12.2019
5669 Clouds 14 1028 54 10000 1.5 280 17:39 27.12.2019
5670 Clouds 14 1028 54 10000 1.5 310 17:19 27.12.2019
5671 Clouds 14 1028 54 10000 1.5 310 16:58 27.12.2019
5672 Clouds 14 1028 54 10000 1 310 16:38 27.12.2019
5673 Clouds 14 1029 48 10000 1 0 16:19 27.12.2019
5674 Clouds 14 1029 51 10000 1.5 350 15:44 27.12.2019
5675 Clouds 14 1029 51 10000 1.5 350 15:22 27.12.2019
5676 Clouds 13 1029 47 10000 1 30 14:57 27.12.2019
5677 Clouds 13 1030 41 10000 0.5 50 14:39 27.12.2019
5678 Clouds 13 1030 41 10000 0.5 50 14:20 27.12.2019
5679 Clouds 13 1030 41 10000 0.5 50 14:20 27.12.2019
5680 Clouds 12 1030 43 10000 1.5 80 13:48 27.12.2019
5681 Clouds 12 1030 43 10000 1.5 80 13:25 27.12.2019
5682 Clouds 11 1030 43 10000 0.5 0 12:58 27.12.2019
5683 Clouds 11 1031 41 10000 1.5 30 12:40 27.12.2019
5684 Clouds 10 1031 41 10000 1 0 12:21 27.12.2019
5685 Clouds 10 1031 41 10000 1.5 350 11:46 27.12.2019
5686 Clouds 8 1031 55 10000 1.5 350 11:26 27.12.2019
5687 Clouds 7 1031 55 10000 1 0 10:58 27.12.2019
5688 Clouds 6 1030 55 10000 1 0 10:39 27.12.2019
5689 Clouds 5 1030 65 10000 1 0 10:21 27.12.2019
5690 Clouds 4 1030 69 10000 1.5 10 09:44 27.12.2019
5691 Clouds 3 1030 69 10000 1.5 10 09:22 27.12.2019
5692 Clouds 3 1029 80 10000 1 0 08:59 27.12.2019
5693 Clouds 3 1029 80 10000 1 0 08:36 27.12.2019
5694 Clouds 3 1029 80 10000 0.5 0 07:52 27.12.2019
5695 Clouds 3 1029 80 10000 0.5 0 07:33 27.12.2019
5696 Clouds 4 1029 63 10000 1 330 06:38 27.12.2019
5697 Clouds 5 1030 63 10000 2.1 340 05:38 27.12.2019
5698 Clouds 4 1030 93 10000 1.5 340 03:47 27.12.2019
5699 Clouds 5 1030 93 10000 0.5 0 02:23 27.12.2019
5700 Clouds 6 1030 86 10000 2.1 350 01:42 27.12.2019
5701 Clouds 6 1030 86 10000 2.6 360 01:20 27.12.2019
5702 Clouds 6 1030 86 10000 2.6 350 00:44 27.12.2019
5703 Clouds 7 1030 86 10000 2.6 350 00:24 27.12.2019
5704 Clouds 7 1030 86 10000 2.6 350 00:24 27.12.2019
5705 Clouds 7 1029 87 10000 3.6 330 23:42 26.12.2019
5706 Clouds 7 1029 87 10000 3.6 330 23:24 26.12.2019
5707 Clouds 7 1030 81 10000 1.5 340 22:58 26.12.2019
5708 Clouds 8 1030 81 10000 2.6 350 22:37 26.12.2019
5709 Clouds 8 1029 75 10000 3.6 340 22:18 26.12.2019
5710 Clouds 9 1029 70 10000 2.6 340 21:39 26.12.2019
5711 Clouds 9 1029 70 10000 1.5 310 21:21 26.12.2019
5712 Clouds 10 1029 71 10000 1.5 360 20:47 26.12.2019
5713 Clouds 10 1029 71 10000 1.5 360 20:24 26.12.2019
5714 Clouds 10 1029 71 10000 1.5 320 19:59 26.12.2019
5715 Clouds 11 1029 76 10000 1 310 19:40 26.12.2019
5716 Clouds 11 1029 76 10000 1 270 19:22 26.12.2019
5717 Clouds 11 1029 76 10000 1 270 18:59 26.12.2019
5718 Clouds 12 1028 62 10000 0.5 0 18:40 26.12.2019
5719 Clouds 13 1028 55 10000 1.41 76 18:20 26.12.2019
5720 Clouds 14 1028 55 10000 1.41 76 17:58 26.12.2019
5721 Clouds 15 1028 55 10000 1.5 110 17:40 26.12.2019
5722 Clouds 15 1028 59 10000 1 0 17:19 26.12.2019
5723 Clouds 15 1028 55 10000 2.1 80 16:46 26.12.2019
5724 Clouds 15 1028 55 10000 2.1 80 16:26 26.12.2019
5725 Clouds 15 1028 55 10000 2.1 60 15:57 26.12.2019
5726 Clouds 15 1028 55 10000 1.5 30 15:38 26.12.2019
5727 Clouds 15 1028 67 10000 1.5 60 15:19 26.12.2019
5728 Clouds 15 1028 67 10000 1.5 60 15:18 26.12.2019
5729 Clouds 14 1028 67 10000 1.5 70 14:41 26.12.2019
5730 Clouds 14 1028 62 10000 1 0 14:23 26.12.2019
5731 Clouds 13 1029 67 10000 1 0 13:45 26.12.2019
5732 Clouds 13 1029 67 10000 1 0 13:24 26.12.2019
5733 Clouds 13 1029 76 10000 1 0 12:59 26.12.2019
5734 Clouds 13 1029 71 10000 1.5 70 12:41 26.12.2019
5735 Clouds 12 1029 67 10000 2.74 51 12:23 26.12.2019
5736 Clouds 11 1029 67 10000 2.74 51 11:58 26.12.2019
5737 Clouds 11 1029 67 10000 2.74 51 11:58 26.12.2019
5738 Clouds 11 1029 76 10000 2.74 51 11:40 26.12.2019
5739 Clouds 10 1029 76 10000 1.31 45 11:21 26.12.2019
5740 Clouds 8 1028 100 10000 1.31 45 10:50 26.12.2019
5741 Clouds 7 1028 100 10000 1.31 45 10:25 26.12.2019
5742 Clouds 6 1028 100 9000 1.31 45 09:54 26.12.2019
5743 Mist 6 1027 93 5000 1.31 45 09:33 26.12.2019
5744 Mist 5 1027 100 2900 1 0 08:58 26.12.2019
5745 Clouds 5 1027 100 9000 1.31 45 08:39 26.12.2019
5746 Clouds 5 1027 100 9000 1.01 56 08:20 26.12.2019
5747 Fog 5 1026 100 9000 1.01 56 07:35 26.12.2019
5748 Fog 5 1026 100 8000 1 10 06:57 26.12.2019
5749 Clouds 6 1026 100 10000 0.5 0 06:37 26.12.2019
5750 Clouds 6 1026 93 10000 0.5 0 06:19 26.12.2019
5751 Clouds 6 1027 100 10000 1.5 10 05:40 26.12.2019
5752 Clouds 6 1027 93 9000 1 360 04:32 26.12.2019
5753 Clouds 7 1026 93 10000 1 340 03:31 26.12.2019
5754 Clouds 7 1026 93 10000 1.5 360 02:46 26.12.2019
5755 Clouds 7 1026 93 10000 1.5 360 02:25 26.12.2019
5756 Clouds 7 1026 93 10000 1.5 360 02:25 26.12.2019
5757 Clouds 7 1026 93 10000 1.5 340 01:44 26.12.2019
5758 Clouds 7 1026 93 10000 1.5 340 01:44 26.12.2019
5759 Clouds 7 1026 93 10000 1.5 340 01:24 26.12.2019
5760 Clouds 8 1026 100 10000 2.1 330 00:43 26.12.2019
5761 Clouds 8 1026 100 10000 2.1 330 00:22 26.12.2019
5762 Clouds 8 1026 100 10000 1.5 350 23:57 25.12.2019
5763 Clouds 8 1026 100 10000 1.5 10 23:36 25.12.2019
5764 Clouds 9 1026 100 10000 1.5 10 23:18 25.12.2019
5765 Clouds 9 1026 93 10000 1 350 22:55 25.12.2019
5766 Clouds 9 1026 93 10000 1 20 22:37 25.12.2019
5767 Clouds 9 1026 93 10000 1 20 22:37 25.12.2019
5768 Clouds 9 1026 93 10000 0.5 0 22:18 25.12.2019
5769 Clouds 9 1026 100 10000 1 120 21:55 25.12.2019
5770 Clouds 10 1026 100 10000 1 120 21:37 25.12.2019
5771 Clouds 9 1025 87 10000 0.5 0 21:18 25.12.2019
5772 Clouds 10 1026 93 10000 1 250 20:40 25.12.2019
5773 Clouds 10 1026 93 10000 1 250 20:20 25.12.2019
5774 Clouds 11 1026 93 10000 0.87 183 19:59 25.12.2019
5775 Clouds 11 1025 93 10000 0.87 183 19:40 25.12.2019
5776 Clouds 11 1025 93 10000 0.87 183 19:21 25.12.2019
5777 Clouds 12 1025 82 10000 1.5 270 18:40 25.12.2019
5778 Clouds 12 1025 82 10000 1.5 270 18:21 25.12.2019
5779 Clouds 13 1025 67 10000 1.5 200 18:21 25.12.2019
5780 Clouds 14 1025 67 10000 1.5 200 17:57 25.12.2019
5781 Clouds 15 1025 63 10000 2.1 190 17:39 25.12.2019
5782 Clouds 15 1025 63 10000 1.5 190 17:18 25.12.2019
5783 Clouds 16 1025 59 10000 1.5 200 16:39 25.12.2019
5784 Clouds 16 1025 59 10000 1.5 200 16:20 25.12.2019
5785 Clouds 16 1025 55 10000 2.6 190 15:59 25.12.2019
5786 Clouds 16 1025 59 10000 1 0 15:40 25.12.2019
5787 Clouds 16 1025 59 10000 1 0 15:22 25.12.2019
5788 Clouds 15 1025 59 10000 1 0 14:59 25.12.2019
5789 Clouds 16 1026 59 10000 1 0 14:41 25.12.2019
5790 Clouds 15 1026 55 10000 0.17 0 14:23 25.12.2019
5791 Clouds 14 1026 71 10000 1 0 13:58 25.12.2019
5792 Clouds 14 1027 62 10000 0.17 0 13:39 25.12.2019
5793 Clouds 13 1027 62 10000 1 0 13:19 25.12.2019
5794 Clouds 13 1027 66 10000 1.5 70 12:43 25.12.2019
5795 Clouds 12 1027 66 10000 1 0 12:21 25.12.2019
5796 Clouds 12 1027 66 10000 1 0 11:57 25.12.2019
5797 Clouds 11 1027 66 10000 0.04 315 11:39 25.12.2019
5798 Clouds 9 1027 71 10000 1.47 48 11:20 25.12.2019
5799 Clouds 9 1027 81 10000 1.47 48 10:39 25.12.2019
5800 Clouds 9 1027 81 10000 1.47 48 10:39 25.12.2019
5801 Clouds 8 1027 81 10000 1.47 48 10:21 25.12.2019
5802 Clouds 7 1027 93 10000 1.47 48 09:51 25.12.2019
5803 Clouds 7 1027 93 10000 1.47 48 09:33 25.12.2019
5804 Clouds 5 1026 93 10000 1 0 08:56 25.12.2019
5805 Clouds 5 1026 100 10000 1 0 08:38 25.12.2019
5806 Clouds 5 1026 93 10000 1 10 08:19 25.12.2019
5807 Clouds 6 1026 100 10000 1.39 65 07:40 25.12.2019
5808 Clouds 6 1026 100 10000 1.39 65 07:40 25.12.2019
5809 Clouds 6 1026 100 10000 1.39 65 07:21 25.12.2019
5810 Clouds 6 1026 100 8000 0.5 340 06:24 25.12.2019
5811 Clouds 6 1027 93 8000 1 330 05:49 25.12.2019
5812 Clouds 6 1027 93 9000 1 360 04:42 25.12.2019
5813 Clouds 7 1027 93 9000 1 360 04:24 25.12.2019
5814 Clouds 7 1027 93 9000 1 330 03:43 25.12.2019
5815 Clouds 7 1027 100 9000 1 340 02:58 25.12.2019
5816 Clouds 7 1028 100 9000 1 360 02:29 25.12.2019
5817 Clouds 7 1028 93 10000 2.1 340 01:44 25.12.2019
5818 Clouds 7 1028 100 10000 1.5 360 01:19 25.12.2019
5819 Clouds 7 1028 100 10000 1.5 340 00:41 25.12.2019
5820 Clouds 8 1028 93 10000 1.5 350 00:23 25.12.2019
5821 Clouds 8 1028 93 10000 1.5 350 00:23 25.12.2019
5822 Clouds 8 1028 93 10000 1.5 330 23:39 24.12.2019
5823 Clouds 8 1028 93 10000 2.1 350 23:20 24.12.2019
5824 Clouds 8 1028 93 10000 2.1 340 22:42 24.12.2019
5825 Clouds 8 1028 93 10000 1.5 350 22:24 24.12.2019
5826 Clouds 9 1028 93 10000 1.5 350 21:59 24.12.2019
5827 Clouds 9 1028 87 10000 1.5 350 21:41 24.12.2019
5828 Clouds 9 1028 87 10000 1.5 350 21:20 24.12.2019
5829 Clouds 9 1028 81 10000 0.5 80 20:43 24.12.2019
5830 Clouds 10 1028 81 10000 1 50 20:23 24.12.2019
5831 Clouds 10 1028 81 10000 1 50 19:56 24.12.2019
5832 Clouds 10 1028 76 10000 0.5 0 19:37 24.12.2019
5833 Clouds 10 1028 76 10000 1 0 19:18 24.12.2019
5834 Clouds 11 1028 71 10000 0.5 110 18:42 24.12.2019
5835 Clouds 11 1028 71 10000 0.5 110 18:19 24.12.2019
5836 Clouds 13 1028 66 10000 1 140 17:44 24.12.2019
5837 Clouds 13 1028 66 10000 1 140 17:22 24.12.2019
5838 Clouds 13 1028 66 10000 1 140 17:22 24.12.2019
5839 Clouds 14 1028 67 10000 1.5 150 16:58 24.12.2019
5840 Clouds 14 1028 62 10000 0.5 0 16:40 24.12.2019
5841 Clouds 14 1028 62 10000 0.5 0 16:21 24.12.2019
5842 Clouds 14 1028 62 10000 1 0 15:58 24.12.2019
5843 Clouds 14 1028 54 10000 1 0 15:37 24.12.2019
5844 Clouds 13 1029 62 10000 1 0 15:19 24.12.2019
5845 Clouds 13 1029 62 10000 1 0 14:58 24.12.2019
5846 Clouds 13 1029 62 10000 1 0 14:40 24.12.2019
5847 Clouds 13 1029 62 10000 1 0 14:40 24.12.2019
5848 Clouds 13 1029 62 10000 1 0 14:22 24.12.2019
5849 Clouds 12 1029 62 10000 1 0 13:56 24.12.2019
5850 Clouds 12 1030 66 10000 1 0 13:38 24.12.2019
5851 Clouds 11 1030 66 10000 1 0 13:20 24.12.2019
5852 Clouds 11 1030 66 10000 1 0 12:56 24.12.2019
5853 Clouds 11 1030 66 10000 1 0 12:56 24.12.2019
5854 Clouds 10 1031 71 10000 1.5 70 12:38 24.12.2019
5855 Clouds 10 1031 71 10000 1.5 60 12:19 24.12.2019
5856 Clouds 10 1031 71 10000 1.5 60 12:19 24.12.2019
5857 Clouds 9 1031 76 10000 1.5 70 11:56 24.12.2019
5858 Clouds 9 1031 76 10000 1.5 70 11:37 24.12.2019
5859 Clouds 7 1031 76 10000 0.5 0 11:19 24.12.2019
5860 Clouds 7 1031 76 10000 0.5 0 10:56 24.12.2019
5861 Clouds 6 1030 81 10000 0.5 0 10:38 24.12.2019
5862 Clouds 6 1030 81 10000 0.5 0 10:38 24.12.2019
5863 Clouds 6 1030 87 10000 1.33 42 10:19 24.12.2019
5864 Clouds 6 1030 87 10000 1.33 42 09:55 24.12.2019
5865 -273 0 0 0 0 0 09:37 24.12.2019
5866 Clouds 5 1030 93 10000 1.5 10 09:19 24.12.2019
5867 Clouds 5 1030 93 10000 1 0 08:46 24.12.2019
5868 Clouds 5 1030 93 10000 1 0 08:24 24.12.2019
5869 Clouds 4 1030 93 10000 0.5 0 07:54 24.12.2019
5870 Clouds 5 1029 100 10000 0.5 0 07:36 24.12.2019
5871 Clouds 4 1029 100 10000 0.5 0 07:18 24.12.2019
5872 Clouds 5 1029 93 10000 0.5 0 06:39 24.12.2019
5873 Clouds 5 1029 100 10000 1.5 350 06:19 24.12.2019
5874 Clouds 5 1029 100 10000 1.5 340 05:49 24.12.2019
5875 Clouds 5 1029 100 10000 2.1 340 05:18 24.12.2019
5876 Clouds 5 1029 100 10000 1 360 03:55 24.12.2019
5877 Clouds 5 1029 100 10000 1 330 03:33 24.12.2019
5878 Clouds 6 1029 100 10000 1 360 02:28 24.12.2019
5879 Clouds 6 1029 93 10000 1.5 10 01:53 24.12.2019
5880 Clouds 6 1029 93 10000 0.89 120 01:23 24.12.2019
5881 Clouds 6 1029 93 10000 0.89 120 00:55 24.12.2019
5882 Clouds 6 1029 93 10000 0.5 0 00:37 24.12.2019
5883 Clouds 7 1029 93 10000 1 0 00:19 24.12.2019
5884 Clouds 7 1029 87 10000 0.5 0 23:41 23.12.2019
5885 Clouds 7 1029 87 10000 0.5 0 23:23 23.12.2019
5886 Clouds 7 1029 81 10000 1 0 22:56 23.12.2019
5887 Clouds 7 1029 81 10000 1 0 22:37 23.12.2019
5888 Clouds 7 1029 81 10000 1 0 22:37 23.12.2019
5889 Clouds 7 1029 81 10000 1 0 22:19 23.12.2019
5890 Clouds 8 1029 81 10000 1.5 140 21:56 23.12.2019
5891 Clouds 8 1029 81 10000 1.5 140 21:36 23.12.2019
5892 Clouds 8 1029 81 10000 1.5 140 21:36 23.12.2019
5893 Clouds 9 1029 76 10000 2.6 160 21:18 23.12.2019
5894 Clouds 8 1029 81 10000 1.5 140 21:18 23.12.2019
5895 Clouds 9 1029 76 10000 2.6 160 20:57 23.12.2019
5896 Clouds 9 1029 81 10000 1 220 20:39 23.12.2019
5897 Clouds 9 1029 81 10000 2.1 200 20:18 23.12.2019
5898 Clouds 10 1028 81 10000 2.1 170 19:56 23.12.2019
5899 Clouds 10 1028 81 10000 2.1 170 19:38 23.12.2019
5900 Clouds 10 1028 81 10000 1.5 160 19:19 23.12.2019
5901 Clouds 10 1028 81 10000 1.5 160 18:58 23.12.2019
5902 Clouds 10 1028 81 10000 2.1 170 18:39 23.12.2019
5903 Clouds 11 1028 76 10000 2.1 180 18:20 23.12.2019
5904 Clouds 11 1028 76 10000 3.1 180 17:58 23.12.2019
5905 Clouds 12 1028 76 10000 3.1 180 17:39 23.12.2019
5906 Clouds 12 1028 66 10000 2.6 180 17:19 23.12.2019
5907 Clouds 12 1027 62 10000 2.6 180 16:57 23.12.2019
5908 Clouds 13 1027 62 10000 2.6 180 16:39 23.12.2019
5909 Clouds 13 1027 62 10000 2.1 170 16:18 23.12.2019
5910 Clouds 13 1027 62 10000 2.6 180 15:56 23.12.2019
5911 Clouds 13 1027 62 10000 2.6 180 15:36 23.12.2019
5912 Clouds 12 1028 62 10000 1.5 160 15:18 23.12.2019
5913 Clouds 12 1028 62 10000 1.5 160 14:56 23.12.2019
5914 Clouds 12 1028 58 10000 1 0 14:37 23.12.2019
5915 Clouds 12 1028 66 10000 1 0 14:18 23.12.2019
5916 Clouds 12 1028 66 10000 1 0 13:55 23.12.2019
5917 Clouds 12 1028 66 10000 1.22 221 13:37 23.12.2019
5918 Clouds 12 1028 66 10000 1.22 221 13:19 23.12.2019
5919 Clouds 11 1029 71 10000 0.5 130 12:41 23.12.2019
5920 Clouds 10 1029 66 10000 1 0 12:21 23.12.2019
5921 Clouds 10 1029 66 10000 1 0 11:59 23.12.2019
5922 Clouds 9 1029 66 10000 0.5 0 11:41 23.12.2019
5923 Clouds 8 1029 87 10000 1 0 11:22 23.12.2019
5924 Clear 7 1028 87 10000 3.1 210 10:56 23.12.2019
5925 Clear 7 1028 87 10000 3.1 210 10:37 23.12.2019
5926 Clear 7 1028 87 10000 3.1 210 10:37 23.12.2019
5927 Clear 7 1028 87 10000 4.1 220 10:18 23.12.2019
5928 Clear 6 1028 87 10000 4.1 220 09:56 23.12.2019
5929 Clear 6 1027 93 10000 3.6 210 09:37 23.12.2019
5930 Clear 5 1027 93 10000 3.6 210 09:19 23.12.2019
5931 Clear 5 1026 81 10000 2.6 220 08:41 23.12.2019
5932 Clear 5 1026 87 10000 3.1 210 08:22 23.12.2019
5933 Clear 5 1026 87 10000 3.1 210 07:56 23.12.2019
5934 Clear 6 1026 87 10000 3.6 200 07:38 23.12.2019
5935 Clear 5 1025 86 10000 2.1 120 07:18 23.12.2019
5936 Clear 6 1025 80 10000 1 0 06:39 23.12.2019
5937 Clear 6 1025 80 10000 1 0 06:21 23.12.2019
5938 Clear 6 1025 61 10000 2.1 250 05:45 23.12.2019
5939 Clouds 7 1025 61 10000 3.6 260 04:44 23.12.2019
5940 Clouds 8 1025 66 10000 5.1 260 03:58 23.12.2019
5941 Clear 8 1024 57 10000 4.6 250 02:47 23.12.2019
5942 Clouds 8 1024 61 10000 5.7 250 02:20 23.12.2019
5943 Clouds 9 1024 61 10000 5.7 230 01:50 23.12.2019
5944 Clouds 9 1024 61 10000 5.7 230 01:31 23.12.2019
5945 Clouds 9 1023 53 10000 6.7 280 00:49 23.12.2019
5946 Clouds 9 1023 53 10000 6.7 280 00:30 23.12.2019
5947 Clouds 10 1022 57 10000 8.2 270 23:57 22.12.2019
5948 Clouds 10 1022 57 10000 8.2 270 23:57 22.12.2019
5949 Clouds 10 1022 57 10000 8.2 270 23:37 22.12.2019
5950 Clouds 10 1022 57 10000 6.2 260 23:19 22.12.2019
5951 Clouds 11 1022 54 10000 6.2 270 22:56 22.12.2019
5952 Clouds 11 1022 54 10000 6.2 270 22:38 22.12.2019
5953 Clouds 11 1021 54 10000 7.7 290 22:19 22.12.2019
5954 Clouds 11 1021 54 10000 7.7 290 21:56 22.12.2019
5955 Clouds 12 1021 58 10000 10.3 280 21:38 22.12.2019
5956 Clouds 12 1021 58 10000 10.3 280 21:20 22.12.2019
5957 Clouds 12 1020 87 10000 5.1 240 20:41 22.12.2019
5958 Clouds 12 1019 82 10000 6.7 240 20:19 22.12.2019
5959 Clouds 12 1019 82 10000 6.7 240 19:58 22.12.2019
5960 Clouds 12 1018 87 10000 7.2 240 19:39 22.12.2019
5961 Clouds 12 1018 87 10000 7.7 240 19:20 22.12.2019
5962 Clouds 12 1018 87 10000 7.7 240 18:55 22.12.2019
5963 Clouds 12 1017 87 10000 8.7 240 18:37 22.12.2019
5964 Clouds 12 1017 82 10000 10.8 240 18:18 22.12.2019
5965 Clouds 12 1017 82 10000 10.3 240 17:54 22.12.2019
5966 Clouds 12 1017 82 10000 10.3 240 17:36 22.12.2019
5967 Clouds 12 1017 87 10000 10.8 240 17:18 22.12.2019
5968 Drizzle 12 1016 87 10000 12.3 240 16:42 22.12.2019
5969 Drizzle 12 1016 87 10000 12.3 240 16:23 22.12.2019
5970 Clouds 12 1016 76 10000 11.8 240 15:57 22.12.2019
5971 Clouds 13 1016 76 10000 12.9 240 15:39 22.12.2019
5972 Clouds 12 1016 76 10000 12.9 230 15:21 22.12.2019
5973 Clouds 12 1016 76 10000 12.9 230 14:57 22.12.2019
5974 Clouds 13 1016 76 10000 13.9 230 14:38 22.12.2019
5975 Clouds 12 1016 76 10000 12.3 230 14:19 22.12.2019
5976 Clouds 12 1016 76 10000 12.3 230 13:56 22.12.2019
5977 Clouds 12 1016 82 10000 11.3 230 13:38 22.12.2019
5978 Clouds 12 1017 82 10000 11.3 230 13:19 22.12.2019
5979 Clouds 12 1017 87 10000 11.3 230 12:57 22.12.2019
5980 Clouds 12 1017 87 10000 11.3 230 12:38 22.12.2019
5981 Clouds 12 1017 87 10000 11.3 230 12:19 22.12.2019
5982 Clouds 11 1017 87 10000 9.8 230 11:57 22.12.2019
5983 Clouds 11 1017 87 10000 9.8 230 11:38 22.12.2019
5984 Clouds 11 1017 87 10000 9.3 230 11:19 22.12.2019
5985 Clouds 10 1017 87 10000 9.3 230 10:56 22.12.2019
5986 Clouds 10 1017 87 10000 9.3 230 10:38 22.12.2019
5987 Clouds 10 1017 87 10000 9.3 230 10:19 22.12.2019
5988 Clouds 9 1017 87 10000 7.2 230 09:57 22.12.2019
5989 Clouds 9 1016 93 10000 6.2 240 09:39 22.12.2019
5990 Clouds 9 1016 93 10000 6.7 230 09:20 22.12.2019
5991 Clouds 9 1016 93 10000 6.7 230 08:45 22.12.2019
5992 Clouds 9 1015 87 10000 7.2 240 08:22 22.12.2019
5993 Clouds 9 1015 87 10000 8.2 240 07:44 22.12.2019
5994 Clouds 9 1015 87 10000 8.2 240 07:21 22.12.2019
5995 Clouds 9 1014 81 10000 6.7 230 06:53 22.12.2019
5996 Clouds 10 1013 71 10000 6.7 250 06:26 22.12.2019
5997 Clouds 10 1013 76 10000 6.7 230 05:33 22.12.2019
5998 Clouds 10 1012 76 10000 8.7 240 04:55 22.12.2019
5999 Clouds 10 1012 76 10000 8.7 240 04:25 22.12.2019
6000 Clouds 11 1011 76 10000 9.8 240 02:46 22.12.2019
6001 Clouds 11 1011 76 10000 9.8 240 02:46 22.12.2019
6002 Clouds 11 1010 71 10000 10.8 240 02:21 22.12.2019
6003 Clouds 10 1010 71 10000 10.3 240 01:31 22.12.2019
6004 Clouds 10 1009 71 10000 9.8 240 00:56 22.12.2019
6005 Clouds 11 1009 71 10000 9.8 240 00:36 22.12.2019
6006 Clouds 11 1009 71 10000 11.3 240 00:18 22.12.2019
6007 Clouds 11 1008 66 10000 9.3 240 23:40 21.12.2019
6008 Clouds 11 1008 66 10000 9.8 230 23:21 21.12.2019
6009 Clouds 11 1008 66 10000 9.8 230 22:56 21.12.2019
6010 Clouds 11 1007 66 10000 11.8 230 22:37 21.12.2019
6011 Clouds 11 1006 66 10000 12.9 230 22:18 21.12.2019
6012 Clouds 11 1006 66 10000 12.9 230 21:54 21.12.2019
6013 Clouds 11 1006 66 10000 12.9 230 21:36 21.12.2019
6014 Clouds 11 1006 71 10000 12.3 230 21:18 21.12.2019
6015 Clouds 11 1007 76 10000 11.8 240 20:55 21.12.2019
6016 Clouds 12 1007 76 10000 11.8 240 20:37 21.12.2019
6017 Clouds 12 1006 76 10000 10.8 240 20:18 21.12.2019
6018 Clouds 12 1006 76 10000 10.8 240 19:55 21.12.2019
6019 Clouds 13 1005 76 10000 12.3 230 19:36 21.12.2019
6020 Clouds 13 1004 76 10000 12.9 230 19:18 21.12.2019
6021 Clouds 14 1004 82 10000 14.4 230 18:40 21.12.2019
6022 Clouds 15 1003 72 10000 17 230 18:22 21.12.2019
6023 Clouds 15 1003 72 10000 17 230 17:56 21.12.2019
6024 Rain 15 1003 82 10000 13.9 220 17:37 21.12.2019
6025 Clouds 15 1002 72 10000 16.5 230 17:18 21.12.2019
6026 Clouds 16 1003 72 10000 14.9 230 16:54 21.12.2019
6027 Clouds 16 1003 72 10000 14.9 230 16:36 21.12.2019
6028 Clouds 16 1003 72 10000 14.9 230 16:36 21.12.2019
6029 Clouds 16 1003 77 10000 14.9 230 16:18 21.12.2019
6030 Clouds 16 1003 77 10000 14.9 230 15:55 21.12.2019
6031 Clouds 16 1003 77 10000 12.9 230 15:36 21.12.2019
6032 Clouds 16 1003 77 10000 16.5 230 15:18 21.12.2019
6033 Rain 16 1003 72 10000 13.9 230 14:41 21.12.2019
6034 Rain 16 1003 72 10000 13.9 230 14:22 21.12.2019
6035 Clouds 16 1003 82 10000 12.9 230 13:58 21.12.2019
6036 Clouds 16 1004 87 10000 14.4 230 13:39 21.12.2019
6037 Clouds 16 1004 87 10000 14.4 230 13:19 21.12.2019
6038 Clouds 15 1004 93 6000 13.4 230 12:56 21.12.2019
6039 Clouds 15 1004 87 10000 12.9 220 12:38 21.12.2019
6040 Drizzle 14 1004 93 7000 10.8 220 12:19 21.12.2019
6041 Drizzle 14 1004 93 6000 10.8 220 11:46 21.12.2019
6042 Drizzle 14 1004 93 6000 10.8 220 11:27 21.12.2019
6043 Clouds 14 1004 93 6000 10.3 220 10:58 21.12.2019
6044 Rain 13 1004 100 9000 9.3 230 10:39 21.12.2019
6045 Drizzle 13 1004 100 3000 11.3 220 10:21 21.12.2019
6046 Drizzle 13 1004 100 3000 11.3 220 09:57 21.12.2019
6047 Drizzle 13 1004 100 1800 7.7 220 09:39 21.12.2019
6048 Rain 13 1004 100 7000 5.7 210 09:19 21.12.2019
6049 Drizzle 12 1004 100 1500 5.1 220 08:47 21.12.2019
6050 Drizzle 12 1004 100 1500 5.1 220 08:27 21.12.2019
6051 Rain 12 1004 93 5000 7.7 230 07:47 21.12.2019
6052 Drizzle 12 1004 93 3000 7.7 250 07:23 21.12.2019
6053 Clouds 12 1003 87 10000 3.1 180 06:49 21.12.2019
6054 Clouds 12 1003 87 10000 3.1 180 06:31 21.12.2019
6055 Clouds 12 1003 87 10000 3.6 220 05:59 21.12.2019
6056 Clouds 12 1003 87 10000 4.6 220 04:59 21.12.2019
6057 Clouds 12 1003 87 10000 4.6 220 04:34 21.12.2019
6058 Clouds 12 1003 93 10000 2.6 190 03:56 21.12.2019
6059 Rain 13 1002 87 10000 5.7 240 02:25 21.12.2019
6060 Rain 13 1002 87 10000 6.7 250 01:43 21.12.2019
6061 Rain 13 1002 87 10000 6.7 250 01:24 21.12.2019
6062 Clouds 13 1001 87 10000 7.7 250 00:40 21.12.2019
6063 Clouds 13 1001 87 10000 7.7 250 00:21 21.12.2019
6064 Rain 13 1000 87 10000 7.7 240 23:39 20.12.2019
6065 Rain 13 1000 87 10000 7.7 240 23:20 20.12.2019
6066 Rain 13 999 87 10000 7.2 240 22:59 20.12.2019
6067 Rain 13 998 87 10000 7.7 230 22:39 20.12.2019
6068 Rain 13 999 87 9000 7.7 230 22:18 20.12.2019
6069 Rain 12 999 87 9000 7.7 220 21:41 20.12.2019
6070 Rain 12 999 93 9000 7.2 220 21:21 20.12.2019
6071 Rain 12 999 93 9000 7.2 220 20:59 20.12.2019
6072 Rain 11 998 100 9000 5.1 220 20:38 20.12.2019
6073 Rain 11 999 93 5000 7.2 230 20:19 20.12.2019
6074 Rain 11 999 93 5000 7.2 230 19:56 20.12.2019
6075 Drizzle 11 998 100 6000 5.1 200 19:38 20.12.2019
6076 Rain 11 1000 100 4000 3.6 250 19:18 20.12.2019
6077 Rain 11 999 93 4000 2.6 210 18:41 20.12.2019
6078 Rain 11 999 93 4000 2.6 210 18:22 20.12.2019
6079 Rain 11 1000 93 7000 4.6 220 17:57 20.12.2019
6080 Rain 11 1000 93 10000 5.7 220 17:39 20.12.2019
6081 Rain 11 1000 93 10000 5.7 220 17:39 20.12.2019
6082 Rain 11 1000 93 10000 5.7 220 17:20 20.12.2019
6083 Rain 11 1000 87 8000 8.7 230 16:56 20.12.2019
6084 Rain 11 1000 93 8000 8.7 220 16:38 20.12.2019
6085 Rain 11 1000 93 8000 8.7 220 16:38 20.12.2019
6086 Rain 11 1000 93 8000 8.7 220 16:38 20.12.2019
6087 Rain 11 1000 93 8000 8.7 220 16:19 20.12.2019
6088 Rain 11 1000 93 8000 9.3 250 15:54 20.12.2019
6089 Rain 11 1000 81 10000 7.7 220 15:36 20.12.2019
6090 Clouds 11 1000 81 10000 7.7 220 15:18 20.12.2019
6091 Clouds 12 1001 81 10000 8.2 220 14:42 20.12.2019
6092 Clouds 12 1001 81 10000 8.7 220 14:24 20.12.2019
6093 Clouds 13 1002 76 10000 7.7 210 13:57 20.12.2019
6094 Clouds 13 1003 76 10000 8.2 220 13:37 20.12.2019
6095 Clouds 13 1003 76 10000 8.2 220 13:18 20.12.2019
6096 Clouds 13 1003 76 10000 8.2 220 13:18 20.12.2019
6097 Clouds 13 1002 76 10000 7.7 220 12:55 20.12.2019
6098 Clouds 13 1002 76 10000 7.2 220 12:36 20.12.2019
6099 Clouds 13 1002 76 10000 7.2 220 12:18 20.12.2019
6100 Clouds 12 1003 81 10000 7.7 220 11:57 20.12.2019
6101 Clouds 12 1003 87 10000 8.2 210 11:38 20.12.2019
6102 Clouds 12 1003 87 10000 8.2 210 11:18 20.12.2019
6103 Clouds 12 1003 87 10000 7.2 230 10:55 20.12.2019
6104 Clouds 11 1002 87 10000 8.2 220 10:37 20.12.2019
6105 Clouds 11 1002 87 10000 8.2 220 10:19 20.12.2019
6106 Clouds 11 1002 87 10000 7.7 240 09:42 20.12.2019
6107 Clouds 11 1002 87 10000 7.7 240 09:21 20.12.2019
6108 Clouds 12 1000 87 10000 8.01 235 08:55 20.12.2019
6109 Clouds 12 1000 87 10000 7.2 230 08:37 20.12.2019
6110 Clouds 12 1000 87 10000 7.2 230 08:19 20.12.2019
6111 Clouds 13 999 87 10000 7.2 240 07:55 20.12.2019
6112 Clouds 13 999 93 10000 9.3 220 07:36 20.12.2019
6113 Clouds 13 999 93 10000 9.3 220 07:18 20.12.2019
6114 Clouds 12 997 82 10000 10.3 240 06:43 20.12.2019
6115 Rain 12 997 82 10000 10.3 240 06:25 20.12.2019
6116 Rain 12 998 82 10000 9.3 240 05:47 20.12.2019
6117 Drizzle 12 997 87 8000 8.2 230 04:59 20.12.2019
6118 Rain 12 997 93 6000 4.1 200 03:49 20.12.2019
6119 Rain 12 997 87 5000 9.8 200 02:55 20.12.2019
6120 Rain 12 999 93 5000 11.8 190 01:59 20.12.2019
6121 Rain 12 999 93 8000 10.8 190 01:35 20.12.2019
6122 Rain 12 1000 93 5000 9.8 190 00:55 20.12.2019
6123 Rain 12 1000 93 7000 10.3 180 00:35 20.12.2019
6124 Rain 12 1000 87 6000 9.8 170 23:58 19.12.2019
6125 Rain 12 1000 87 8000 11.3 170 23:40 19.12.2019
6126 Rain 12 1000 87 8000 11.3 170 23:19 19.12.2019
6127 Rain 11 1002 93 6000 8.7 170 22:40 19.12.2019
6128 Rain 12 1002 93 7000 8.2 170 22:22 19.12.2019
6129 Rain 12 1003 93 7000 5.7 180 21:57 19.12.2019
6130 Rain 12 1003 93 7000 5.7 180 21:57 19.12.2019
6131 Rain 12 1004 93 8000 7.7 160 21:38 19.12.2019
6132 Rain 12 1004 93 8000 7.7 160 21:19 19.12.2019
6133 Rain 12 1004 87 9000 8.7 170 20:57 19.12.2019
6134 Rain 12 1005 93 8000 4.6 190 20:37 19.12.2019
6135 Rain 12 1005 93 8000 4.6 190 20:19 19.12.2019
6136 Rain 12 1005 93 7000 6.2 180 19:58 19.12.2019
6137 Rain 12 1005 93 7000 6.2 180 19:58 19.12.2019
6138 Rain 12 1005 93 9000 6.2 170 19:39 19.12.2019
6139 Rain 12 1005 93 9000 6.2 170 19:19 19.12.2019
6140 Rain 12 1005 93 9000 6.2 170 19:19 19.12.2019
6141 Rain 12 1005 93 9000 6.2 170 19:19 19.12.2019
6142 Rain 12 1005 93 9000 6.2 170 19:19 19.12.2019
6143 Rain 11 1005 100 200 8.7 190 18:57 19.12.2019
6144 Rain 12 1005 93 5000 5.7 170 18:39 19.12.2019
6145 Rain 11 1005 93 5000 5.7 170 18:19 19.12.2019
6146 Rain 11 1006 100 1400 6.7 180 17:55 19.12.2019
6147 Rain 12 1006 93 9000 6.2 170 17:37 19.12.2019
6148 Rain 12 1006 93 9000 6.2 170 17:18 19.12.2019
6149 Rain 12 1007 93 9000 6.2 160 16:56 19.12.2019
6150 Rain 12 1007 93 8000 5.7 170 16:37 19.12.2019
6151 Rain 12 1007 93 8000 5.7 170 16:19 19.12.2019
6152 Clouds 12 1007 87 10000 5.7 150 15:56 19.12.2019
6153 Rain 12 1007 87 10000 5.7 150 15:37 19.12.2019
6154 Rain 12 1008 93 10000 7.2 170 15:18 19.12.2019
6155 Rain 12 1008 93 10000 7.2 170 15:18 19.12.2019
6156 Rain 12 1008 93 4500 6.7 170 14:43 19.12.2019
6157 Rain 12 1008 93 4500 6.7 170 14:20 19.12.2019
6158 Clouds 12 1009 82 10000 6.2 170 13:59 19.12.2019
6159 Clouds 12 1010 87 10000 6.7 160 13:38 19.12.2019
6160 Clouds 12 1010 87 10000 6.7 160 13:38 19.12.2019
6161 Clouds 12 1010 87 10000 6.7 160 13:19 19.12.2019
6162 Clouds 11 1010 87 10000 5.7 160 12:57 19.12.2019
6163 Clouds 11 1012 87 10000 4.1 150 12:39 19.12.2019
6164 Clouds 11 1012 87 10000 4.1 150 12:19 19.12.2019
6165 Clouds 11 1012 87 10000 4.1 150 12:19 19.12.2019
6166 Clouds 10 1012 87 10000 5.1 150 11:58 19.12.2019
6167 Clouds 10 1012 93 10000 5.1 140 11:40 19.12.2019
6168 Clouds 10 1012 93 10000 5.1 140 11:18 19.12.2019
6169 Clouds 10 1012 87 10000 5.7 140 10:58 19.12.2019
6170 Clouds 10 1012 93 10000 5.7 140 10:38 19.12.2019
6171 Clouds 9 1012 93 10000 5.7 140 10:20 19.12.2019
6172 Rain 9 1012 87 10000 5.1 150 09:54 19.12.2019
6173 Rain 10 1012 100 800 5.1 180 09:36 19.12.2019
6174 Rain 9 1012 100 800 5.1 180 09:18 19.12.2019
6175 Clouds 9 1012 93 10000 3.1 160 08:41 19.12.2019
6176 Clouds 9 1012 93 10000 3.1 160 08:20 19.12.2019
6177 Clouds 9 1012 93 10000 3.1 180 07:59 19.12.2019
6178 Clouds 9 1012 93 10000 3.1 180 07:38 19.12.2019
6179 Clouds 9 1012 93 10000 4.1 180 07:38 19.12.2019
6180 Clouds 9 1012 93 10000 4.1 180 07:20 19.12.2019
6181 Mist 9 1013 87 5000 4.6 190 06:50 19.12.2019
6182 Mist 9 1013 93 5000 6.2 160 06:32 19.12.2019
6183 Mist 8 1014 93 5000 4.1 160 05:57 19.12.2019
6184 Mist 8 1014 93 5000 3.6 170 05:39 19.12.2019
6185 Rain 8 1014 93 4000 5.87 176 04:56 19.12.2019
6186 Mist 7 1014 100 3500 1 0 03:46 19.12.2019
6187 Rain 7 1016 93 4000 2.1 360 02:25 19.12.2019
6188 Rain 7 1017 93 4000 3.1 320 01:24 19.12.2019
6189 Mist 7 1017 93 5000 1.5 10 00:44 19.12.2019
6190 Mist 7 1017 93 5000 1.5 10 00:25 19.12.2019
6191 Mist 7 1018 93 5000 2.6 360 23:59 18.12.2019
6192 Clouds 7 1018 87 10000 1 0 23:41 18.12.2019
6193 Clouds 7 1018 87 10000 1 0 23:19 18.12.2019
6194 Clouds 8 1018 87 10000 1 30 22:56 18.12.2019
6195 Clouds 7 1018 87 10000 1.5 350 22:37 18.12.2019
6196 Clouds 7 1018 87 10000 1.5 350 22:19 18.12.2019
6197 Clouds 7 1018 87 10000 2.1 340 21:57 18.12.2019
6198 Clouds 7 1018 87 10000 1 350 21:39 18.12.2019
6199 Clouds 8 1018 87 10000 1 350 21:19 18.12.2019
6200 Clouds 7 1019 87 10000 1 0 20:55 18.12.2019
6201 Clouds 7 1018 81 10000 1.5 360 20:37 18.12.2019
6202 Clouds 7 1018 81 10000 1.5 360 20:19 18.12.2019
6203 Clouds 7 1018 76 10000 1 0 19:55 18.12.2019
6204 Clouds 7 1018 76 10000 1 0 19:37 18.12.2019
6205 Clouds 7 1018 81 10000 1 0 19:18 18.12.2019
6206 Clouds 7 1018 76 10000 1.5 160 18:45 18.12.2019
6207 Clouds 8 1018 76 10000 1.5 160 18:25 18.12.2019
6208 Clouds 8 1018 76 10000 1.5 130 17:57 18.12.2019
6209 Clouds 8 1018 76 10000 1 0 17:39 18.12.2019
6210 Clouds 8 1018 76 10000 1 0 17:20 18.12.2019
6211 Clouds 8 1018 76 10000 1 0 17:20 18.12.2019
6212 Clouds 8 1018 76 10000 1.5 180 16:57 18.12.2019
6213 Clouds 8 1018 70 10000 1.5 170 16:39 18.12.2019
6214 Clouds 8 1018 76 10000 2.6 230 16:20 18.12.2019
6215 Clouds 8 1018 76 10000 2.6 230 15:56 18.12.2019
6216 Clouds 8 1018 70 10000 2.1 260 15:37 18.12.2019
6217 Clouds 8 1018 70 10000 2.1 260 15:19 18.12.2019
6218 Clouds 8 1018 75 10000 2.1 220 14:42 18.12.2019
6219 Clouds 7 1019 75 10000 2.1 180 14:22 18.12.2019
6220 Clouds 7 1019 75 10000 2.1 180 13:57 18.12.2019
6221 Clouds 7 1019 70 10000 2.1 190 13:39 18.12.2019
6222 Clouds 7 1019 70 10000 2.1 190 13:20 18.12.2019
6223 Clouds 7 1020 70 10000 2.6 190 12:59 18.12.2019
6224 Clouds 7 1020 70 10000 2.6 190 12:59 18.12.2019
6225 Clouds 6 1020 75 10000 2.6 190 12:39 18.12.2019
6226 Clouds 6 1020 70 10000 2.1 200 12:20 18.12.2019
6227 Clouds 6 1020 70 10000 2.1 200 11:56 18.12.2019
6228 Clouds 5 1020 81 10000 2.6 220 11:38 18.12.2019
6229 Clouds 6 1020 81 10000 2.6 220 11:38 18.12.2019
6230 Clouds 5 1019 75 10000 1.5 190 11:19 18.12.2019
6231 Clouds 5 1019 75 10000 1.5 190 10:56 18.12.2019
6232 Clouds 5 1019 75 10000 0.5 0 10:56 18.12.2019
6233 Clouds 5 1019 75 10000 0.5 0 10:38 18.12.2019
6234 Clouds 5 1018 86 10000 1 0 10:20 18.12.2019
6235 Clouds 4 1018 93 10000 1 170 09:52 18.12.2019
6236 Clouds 4 1018 93 10000 0.5 0 09:19 18.12.2019
6237 Fog 4 1016 100 100 2.53 212 08:42 18.12.2019
6238 Fog 4 1016 100 100 2.55 186 08:24 18.12.2019
6239 Clouds 4 1017 86 10000 1 210 07:55 18.12.2019
6240 Clouds 4 1016 86 10000 1 210 07:37 18.12.2019
6241 Clouds 4 1016 86 10000 1 210 07:19 18.12.2019
6242 Clouds 4 1016 80 10000 3.1 160 06:50 18.12.2019
6243 Clouds 4 1016 80 10000 3.1 170 06:22 18.12.2019
6244 Clouds 5 1016 81 10000 2.6 180 05:30 18.12.2019
6245 Clouds 6 1015 81 10000 3.1 170 03:45 18.12.2019
6246 Clouds 6 1015 87 10000 3.6 170 02:43 18.12.2019
6247 Clouds 6 1015 87 10000 3.6 170 02:25 18.12.2019
6248 Clouds 6 1015 93 10000 2.6 180 01:43 18.12.2019
6249 Clouds 6 1015 93 10000 2.6 180 01:24 18.12.2019
6250 Clouds 7 1014 87 10000 2.1 170 00:42 18.12.2019
6251 Clouds 7 1014 93 10000 2.1 140 00:24 18.12.2019
6252 Clouds 7 1014 87 10000 2.1 170 00:24 18.12.2019
6253 Clouds 7 1014 93 10000 2.1 140 23:58 17.12.2019
6254 Clouds 7 1013 93 10000 1.5 190 23:39 17.12.2019
6255 Clouds 7 1013 87 10000 2.1 190 23:20 17.12.2019
6256 Clouds 7 1013 87 10000 2.1 190 22:57 17.12.2019
6257 Clouds 7 1013 87 10000 2.6 180 22:38 17.12.2019
6258 Clouds 8 1013 81 10000 2.6 170 22:19 17.12.2019
6259 Clouds 8 1012 81 10000 2.1 190 21:57 17.12.2019
6260 Clouds 8 1012 81 10000 2.1 190 21:38 17.12.2019
6261 Clouds 8 1012 81 10000 2.1 190 21:19 17.12.2019
6262 Clouds 8 1012 81 10000 2.1 190 20:58 17.12.2019
6263 Clouds 8 1012 76 10000 3.6 220 20:39 17.12.2019
6264 Clouds 8 1011 81 10000 2.6 210 20:18 17.12.2019
6265 Rain 8 1011 81 10000 2.6 210 19:56 17.12.2019
6266 Rain 8 1011 93 6000 4.1 220 19:38 17.12.2019
6267 Rain 9 1010 87 10000 4.1 240 19:19 17.12.2019
6268 Clouds 9 1009 87 10000 3.6 240 18:55 17.12.2019
6269 Clouds 9 1009 87 10000 3.6 240 18:37 17.12.2019
6270 Clouds 9 1009 87 10000 4.1 240 18:19 17.12.2019
6271 Clouds 10 1008 81 10000 3.6 250 17:42 17.12.2019
6272 Clouds 10 1008 81 10000 3.6 250 17:42 17.12.2019
6273 Clouds 10 1008 81 10000 3.6 250 17:42 17.12.2019
6274 Clouds 10 1008 71 10000 2.6 200 17:21 17.12.2019
6275 Clouds 10 1008 71 10000 2.6 200 16:57 17.12.2019
6276 Clouds 10 1007 71 10000 1 0 16:38 17.12.2019
6277 Clouds 10 1007 71 10000 1 0 16:19 17.12.2019
6278 Clouds 11 1006 66 10000 2.1 200 15:59 17.12.2019
6279 Clouds 11 1006 66 10000 2.6 200 15:38 17.12.2019
6280 Clouds 11 1006 66 10000 2.6 200 15:19 17.12.2019
6281 Clouds 11 1005 71 10000 2.1 160 14:56 17.12.2019
6282 Clouds 10 1005 71 10000 2.1 160 14:38 17.12.2019
6283 Clouds 10 1005 71 10000 2.1 160 14:19 17.12.2019
6284 Clouds 10 1005 71 10000 2.6 200 14:19 17.12.2019
6285 Clouds 10 1005 81 10000 2.6 170 13:56 17.12.2019
6286 Clouds 10 1005 81 10000 2.6 170 13:38 17.12.2019
6287 Clouds 10 1005 81 10000 2.1 0 13:19 17.12.2019
6288 Clouds 9 1005 81 10000 2.1 0 12:56 17.12.2019
6289 Rain 9 1005 81 10000 1.5 140 12:37 17.12.2019
6290 Rain 9 1005 87 10000 3.1 130 12:18 17.12.2019
6291 Rain 9 1005 81 8000 3.1 180 11:56 17.12.2019
6292 Rain 9 1005 81 8000 3.1 180 11:36 17.12.2019
6293 Rain 9 1003 87 10000 1.5 140 11:18 17.12.2019
6294 Rain 9 1003 87 10000 1.5 140 11:18 17.12.2019
6295 Rain 9 1003 87 10000 1.5 140 11:18 17.12.2019
6296 Clouds 8 1003 87 10000 1.5 160 10:55 17.12.2019
6297 Clouds 8 1003 87 10000 1.5 160 10:37 17.12.2019
6298 Drizzle 8 1002 87 10000 2.1 170 10:18 17.12.2019
6299 Clouds 8 1002 87 10000 2.6 150 09:42 17.12.2019
6300 Clouds 8 1002 87 10000 2.1 150 09:21 17.12.2019
6301 Clouds 8 1001 87 10000 3.1 140 08:58 17.12.2019
6302 Clouds 8 1001 87 10000 3.6 140 08:39 17.12.2019
6303 Drizzle 8 1000 87 10000 3.1 130 08:21 17.12.2019
6304 Drizzle 8 1000 87 10000 3.1 130 07:57 17.12.2019
6305 Drizzle 8 1000 87 10000 3.1 120 07:39 17.12.2019
6306 Rain 9 1000 87 10000 3.1 150 07:19 17.12.2019
6307 Drizzle 8 1000 87 10000 2.6 140 06:36 17.12.2019
6308 Drizzle 8 1000 81 10000 1 0 06:18 17.12.2019
6309 Clouds 9 999 87 10000 1 0 05:38 17.12.2019
6310 Clouds 9 1000 81 10000 1 0 04:48 17.12.2019
6311 Clouds 9 1000 76 10000 0.5 0 03:31 17.12.2019
6312 Clouds 9 999 76 10000 0.5 0 01:58 17.12.2019
6313 Clouds 9 1000 71 10000 2.1 120 01:21 17.12.2019
6314 Clouds 10 1000 71 10000 4.1 150 00:39 17.12.2019
6315 Clouds 10 1000 71 10000 3.6 160 00:21 17.12.2019
6316 Clouds 10 1000 71 10000 3.1 150 23:43 16.12.2019
6317 Clouds 10 1000 66 10000 3.6 170 23:20 16.12.2019
6318 Clouds 10 1000 66 10000 3.6 170 22:58 16.12.2019
6319 Clouds 10 1000 66 10000 4.1 170 22:38 16.12.2019
6320 Clouds 10 1000 66 10000 1.5 220 22:20 16.12.2019
6321 Clouds 10 1000 66 10000 1.5 220 21:57 16.12.2019
6322 Clouds 10 1000 62 10000 5.1 160 21:38 16.12.2019
6323 Clouds 11 1000 66 10000 4.1 130 21:20 16.12.2019
6324 Clouds 11 1000 66 10000 4.1 130 20:58 16.12.2019
6325 Clouds 11 999 62 10000 3.6 130 20:39 16.12.2019
6326 Clouds 11 999 62 10000 3.6 130 20:19 16.12.2019
6327 Clouds 12 999 62 10000 4.6 120 19:56 16.12.2019
6328 Clouds 12 999 58 10000 5.1 110 19:37 16.12.2019
6329 Clouds 12 999 54 10000 3.6 130 19:19 16.12.2019
6330 Clouds 12 999 54 10000 3.6 130 18:58 16.12.2019
6331 Clouds 12 999 58 10000 3.1 100 18:40 16.12.2019
6332 Clouds 13 999 50 10000 4.1 120 18:20 16.12.2019
6333 Clouds 13 999 47 10000 3.6 130 17:58 16.12.2019
6334 Clouds 13 999 47 10000 3.6 130 17:39 16.12.2019
6335 Clouds 14 999 47 10000 4.6 150 17:21 16.12.2019
6336 Clouds 14 999 47 10000 4.6 150 16:57 16.12.2019
6337 Clouds 14 999 44 10000 5.7 150 16:38 16.12.2019
6338 Clouds 14 999 44 10000 5.7 150 16:19 16.12.2019
6339 Clouds 14 999 44 10000 5.7 150 15:58 16.12.2019
6340 Clouds 14 999 54 10000 3.6 120 15:38 16.12.2019
6341 Clouds 13 1000 58 10000 3.6 110 15:20 16.12.2019
6342 Clouds 13 1000 58 10000 3.6 110 14:57 16.12.2019
6343 Clouds 13 1001 50 10000 4.6 120 14:37 16.12.2019
6344 Clouds 12 1002 54 10000 5.7 120 14:19 16.12.2019
6345 Clouds 12 1002 54 10000 5.7 120 13:56 16.12.2019
6346 Clouds 12 1002 54 10000 5.7 120 13:56 16.12.2019
6347 Clouds 12 1002 54 10000 5.7 120 13:56 16.12.2019
6348 Clouds 12 1003 62 10000 4.6 120 13:37 16.12.2019
6349 Clouds 12 1003 62 10000 4.6 120 13:37 16.12.2019
6350 Clouds 11 1003 61 10000 4.6 130 13:19 16.12.2019
6351 Clouds 11 1003 61 10000 4.6 130 12:57 16.12.2019
6352 Clouds 11 1003 61 10000 4.6 130 12:57 16.12.2019
6353 Clouds 11 1004 76 10000 4.1 120 12:39 16.12.2019
6354 Clouds 10 1005 71 10000 3.6 120 12:18 16.12.2019
6355 Clouds 10 1005 71 10000 3.6 120 11:58 16.12.2019
6356 Clouds 10 1005 76 10000 4.1 120 11:40 16.12.2019
6357 Clouds 9 1005 75 10000 3.1 120 11:20 16.12.2019
6358 Clouds 9 1005 75 10000 3.1 120 11:20 16.12.2019
6359 Clouds 9 1005 75 10000 3.1 120 10:56 16.12.2019
6360 Clouds 9 1005 81 10000 3.6 120 10:37 16.12.2019
6361 Clouds 8 1005 81 10000 4.6 130 10:19 16.12.2019
6362 Clouds 8 1005 81 10000 5.1 130 09:45 16.12.2019
6363 Clouds 8 1005 81 10000 5.1 130 09:26 16.12.2019
6364 Clouds 7 1006 81 10000 4.1 120 08:41 16.12.2019
6365 Clouds 7 1006 87 10000 2.6 140 08:21 16.12.2019
6366 Clouds 7 1006 87 10000 2.6 140 07:59 16.12.2019
6367 Clouds 7 1006 87 10000 2.6 120 07:41 16.12.2019
6368 Clouds 7 1006 81 10000 2.1 120 07:20 16.12.2019
6369 Clouds 7 1007 81 10000 2.1 120 06:41 16.12.2019
6370 Clouds 7 1007 75 10000 4.1 140 06:22 16.12.2019
6371 Clouds 7 1007 75 10000 2.6 140 05:47 16.12.2019
6372 Clouds 8 1007 75 10000 2.6 140 05:29 16.12.2019
6373 Clouds 8 1009 81 10000 3.1 140 03:41 16.12.2019
6374 Clouds 8 1009 87 10000 2.1 150 01:58 16.12.2019
6375 Clouds 8 1010 81 10000 2.1 140 01:40 16.12.2019
6376 Clouds 8 1011 81 10000 1.5 130 00:42 16.12.2019
6377 Clouds 8 1011 81 10000 1.5 130 00:23 16.12.2019
6378 Clouds 8 1011 76 10000 1.5 140 23:58 15.12.2019
6379 Clouds 8 1011 71 10000 2.1 170 23:38 15.12.2019
6380 Clouds 9 1011 76 10000 1.5 140 23:19 15.12.2019
6381 Clouds 9 1011 76 10000 2.6 160 22:55 15.12.2019
6382 Clouds 9 1011 76 10000 2.6 160 22:37 15.12.2019
6383 Clouds 9 1012 76 10000 2.1 190 22:18 15.12.2019
6384 Clouds 9 1012 76 10000 2.1 190 21:55 15.12.2019
6385 Clouds 9 1012 71 10000 2.6 200 21:37 15.12.2019
6386 Clouds 9 1012 81 10000 1.5 170 21:18 15.12.2019
6387 Clouds 9 1012 76 10000 2.1 190 20:55 15.12.2019
6388 Clouds 9 1012 76 10000 2.1 190 20:36 15.12.2019
6389 Clouds 9 1012 76 10000 2.1 180 20:18 15.12.2019
6390 Clouds 9 1012 76 10000 2.1 180 19:56 15.12.2019
6391 Clouds 10 1012 71 10000 2.6 190 19:38 15.12.2019
6392 Clouds 9 1012 76 10000 1.5 200 19:18 15.12.2019
6393 Clouds 10 1012 76 10000 1.5 200 18:55 15.12.2019
6394 Clouds 10 1012 71 10000 2.6 180 18:37 15.12.2019
6395 Clouds 10 1012 71 10000 3.1 190 18:18 15.12.2019
6396 Clouds 10 1012 71 10000 3.1 190 17:55 15.12.2019
6397 Clouds 10 1012 71 10000 3.1 190 17:36 15.12.2019
6398 Clouds 10 1013 76 10000 3.1 190 17:18 15.12.2019
6399 Clouds 10 1013 66 10000 2.6 190 16:43 15.12.2019
6400 Clouds 10 1013 71 10000 3.6 190 16:23 15.12.2019
6401 Clouds 10 1013 71 10000 3.6 190 15:57 15.12.2019
6402 Clouds 10 1014 66 10000 3.6 190 15:39 15.12.2019
6403 Clouds 10 1014 66 10000 4.1 190 15:19 15.12.2019
6404 Clouds 10 1014 71 10000 3.6 200 14:56 15.12.2019
6405 Clouds 10 1014 71 10000 3.6 200 14:38 15.12.2019
6406 Clouds 10 1014 71 10000 3.6 200 14:38 15.12.2019
6407 Clouds 10 1014 71 10000 3.6 200 14:19 15.12.2019
6408 Clouds 10 1015 71 10000 4.1 200 13:59 15.12.2019
6409 Clouds 10 1015 71 10000 4.6 210 13:39 15.12.2019
6410 Clouds 9 1016 71 10000 4.1 190 13:20 15.12.2019
6411 Clouds 10 1016 71 10000 4.1 190 12:57 15.12.2019
6412 Clouds 10 1016 71 10000 4.1 190 12:57 15.12.2019
6413 Clouds 9 1016 76 10000 4.1 200 12:39 15.12.2019
6414 Clouds 9 1016 76 10000 4.1 200 12:21 15.12.2019
6415 Clouds 9 1016 81 10000 4.1 200 11:59 15.12.2019
6416 Clouds 9 1016 87 10000 3.6 190 11:38 15.12.2019
6417 Clouds 8 1016 87 10000 3.6 190 11:19 15.12.2019
6418 Clouds 8 1016 93 10000 3.1 190 10:56 15.12.2019
6419 Clouds 7 1016 93 10000 3.1 190 10:37 15.12.2019
6420 Clouds 7 1016 93 10000 3.6 200 10:19 15.12.2019
6421 Clouds 7 1016 93 10000 3.6 200 09:57 15.12.2019
6422 Clouds 7 1016 87 10000 3.1 210 09:37 15.12.2019
6423 Clouds 7 1016 93 10000 3.6 190 09:19 15.12.2019
6424 Clouds 7 1016 93 10000 2.6 200 08:42 15.12.2019
6425 -273 0 0 0 0 0 08:23 15.12.2019
6426 Clouds 7 1016 93 10000 2.6 220 07:57 15.12.2019
6427 Clouds 7 1016 93 10000 2.6 220 07:38 15.12.2019
6428 Mist 7 1016 100 5000 2.1 320 06:59 15.12.2019
6429 Mist 6 1016 100 3600 2.6 340 06:24 15.12.2019
6430 Mist 6 1016 93 3200 2.6 330 05:42 15.12.2019
6431 Mist 6 1016 100 4000 1 0 05:20 15.12.2019
6432 Clouds 6 1017 100 6000 2.1 320 04:19 15.12.2019
6433 Clouds 6 1017 93 8000 2.48 213 02:49 15.12.2019
6434 Clouds 6 1017 93 8000 2.69 217 02:30 15.12.2019
6435 Clouds 6 1018 93 8000 1 0 01:40 15.12.2019
6436 Clouds 6 1018 93 9000 1 0 01:18 15.12.2019
6437 Clouds 6 1018 100 10000 1.5 140 00:47 15.12.2019
6438 Clouds 6 1018 100 10000 1.5 140 00:47 15.12.2019
6439 Clouds 6 1018 100 10000 1.5 140 00:29 15.12.2019
6440 Clouds 6 1018 93 10000 2.1 120 23:41 14.12.2019
6441 Clouds 6 1018 93 10000 2.1 120 23:22 14.12.2019
6442 Clouds 6 1018 93 10000 3.6 140 22:59 14.12.2019
6443 Clouds 7 1018 93 10000 3.6 140 22:41 14.12.2019
6444 Clouds 7 1018 93 10000 3.6 140 22:22 14.12.2019
6445 Clouds 7 1018 93 10000 3.1 140 21:57 14.12.2019
6446 Clouds 7 1018 93 10000 3.1 140 21:38 14.12.2019
6447 Clouds 7 1018 87 10000 1.5 110 21:19 14.12.2019
6448 Clouds 7 1018 87 10000 1.5 110 21:19 14.12.2019
6449 Clouds 8 1018 87 10000 1.5 110 20:59 14.12.2019
6450 Clouds 8 1019 87 10000 4.1 230 20:40 14.12.2019
6451 Clouds 8 1019 81 10000 4.1 220 20:20 14.12.2019
6452 Clouds 8 1019 81 10000 4.1 220 19:57 14.12.2019
6453 Clouds 8 1018 81 10000 4.1 220 19:38 14.12.2019
6454 Clouds 9 1018 81 10000 4.1 220 19:20 14.12.2019
6455 Clouds 9 1018 81 10000 4.1 220 18:56 14.12.2019
6456 Clouds 9 1018 76 10000 5.1 230 18:38 14.12.2019
6457 Clouds 9 1018 76 10000 5.1 230 18:38 14.12.2019
6458 Clouds 10 1018 76 10000 5.7 220 18:19 14.12.2019
6459 Clouds 10 1018 71 10000 5.7 230 17:44 14.12.2019
6460 Clouds 11 1018 71 10000 4.6 220 17:24 14.12.2019
6461 Clouds 11 1018 66 10000 5.1 220 16:58 14.12.2019
6462 Clouds 11 1018 66 10000 5.1 220 16:40 14.12.2019
6463 Clouds 11 1018 71 10000 4.6 210 16:19 14.12.2019
6464 Clouds 11 1018 71 10000 4.6 210 16:19 14.12.2019
6465 Clouds 11 1018 71 10000 5.1 190 15:43 14.12.2019
6466 Clouds 11 1018 71 10000 5.1 190 15:24 14.12.2019
6467 Clouds 11 1018 71 10000 4.1 190 14:59 14.12.2019
6468 Clouds 11 1019 71 10000 5.1 200 14:39 14.12.2019
6469 Clouds 11 1019 66 10000 4.6 220 14:20 14.12.2019
6470 Clouds 11 1019 66 10000 5.1 220 13:57 14.12.2019
6471 Clouds 11 1019 66 10000 5.1 220 13:39 14.12.2019
6472 Clouds 11 1020 62 10000 4.1 220 13:19 14.12.2019
6473 Clouds 11 1020 62 10000 4.1 220 13:19 14.12.2019
6474 Clouds 11 1020 71 10000 3.6 230 12:55 14.12.2019
6475 Clouds 11 1020 71 10000 3.6 230 12:37 14.12.2019
6476 Clouds 11 1020 76 10000 4.1 240 12:18 14.12.2019
6477 Clouds 10 1020 76 10000 4.1 240 11:55 14.12.2019
6478 Clouds 10 1020 81 10000 4.6 240 11:37 14.12.2019
6479 Clouds 8 1020 87 10000 5.1 240 11:18 14.12.2019
6480 Clouds 8 1020 93 10000 4.6 250 10:55 14.12.2019
6481 Clouds 8 1020 93 10000 4.6 250 10:37 14.12.2019
6482 Clouds 7 1020 87 10000 5.1 250 10:18 14.12.2019
6483 Clouds 6 1019 87 10000 5.1 240 09:41 14.12.2019
6484 Clouds 6 1019 87 10000 5.1 240 09:21 14.12.2019
6485 Fog 6 1019 87 2000 4.1 240 08:45 14.12.2019
6486 Fog 6 1019 87 2000 4.1 240 08:21 14.12.2019
6487 Clouds 7 1019 100 10000 3.1 230 07:58 14.12.2019
6488 Clouds 7 1018 100 10000 2.6 240 07:38 14.12.2019
6489 Clouds 7 1018 87 10000 3.6 210 07:19 14.12.2019
6490 Clouds 7 1018 93 10000 5.7 230 06:42 14.12.2019
6491 Clouds 7 1017 87 10000 4.6 230 06:22 14.12.2019
6492 Clouds 7 1018 93 10000 3.6 200 05:25 14.12.2019
6493 Clouds 8 1018 87 10000 3.1 150 03:34 14.12.2019
6494 Clouds 9 1018 87 10000 4.6 220 02:23 14.12.2019
6495 Clouds 9 1018 87 10000 3.1 190 01:44 14.12.2019
6496 Clouds 10 1018 76 10000 5.7 220 00:58 14.12.2019
6497 Clouds 10 1018 76 10000 7.2 230 00:40 14.12.2019
6498 Clouds 10 1018 81 10000 8.2 220 00:19 14.12.2019
6499 Clear 10 1018 76 10000 4.6 190 23:41 13.12.2019
6500 Clear 10 1018 76 10000 4.6 190 23:41 13.12.2019
6501 Clouds 11 1017 71 10000 5.7 160 23:19 13.12.2019
6502 Clouds 11 1017 71 10000 5.7 160 22:56 13.12.2019
6503 Clouds 11 1017 66 10000 3.1 220 22:37 13.12.2019
6504 Clouds 11 1017 58 10000 5.1 250 22:18 13.12.2019
6505 Clouds 12 1017 54 10000 8.7 260 21:44 13.12.2019
6506 Clouds 12 1017 54 10000 7.2 250 21:22 13.12.2019
6507 Clouds 12 1017 54 10000 7.2 250 20:59 13.12.2019
6508 Clouds 12 1017 58 10000 10.3 270 20:39 13.12.2019
6509 Clouds 12 1017 58 10000 10.3 270 20:20 13.12.2019
6510 Clouds 12 1017 58 10000 12.3 270 19:56 13.12.2019
6511 Clouds 12 1017 62 10000 11.3 270 19:38 13.12.2019
6512 Clouds 13 1017 62 10000 11.3 270 19:19 13.12.2019
6513 Clouds 13 1017 62 10000 9.3 250 18:54 13.12.2019
6514 Clouds 14 1017 62 10000 9.3 250 18:36 13.12.2019
6515 Clouds 14 1017 62 10000 9.3 250 18:18 13.12.2019
6516 Clouds 14 1017 62 10000 9.3 250 18:18 13.12.2019
6517 Clouds 14 1017 67 10000 6.7 240 17:40 13.12.2019
6518 Clouds 14 1017 67 10000 6.7 240 17:19 13.12.2019
6519 Clouds 14 1017 62 10000 6.7 260 16:57 13.12.2019
6520 Clouds 14 1017 62 10000 6.7 260 16:57 13.12.2019
6521 Clouds 14 1015 59 10000 12.3 270 16:38 13.12.2019
6522 Clouds 14 1017 62 10000 8.2 270 16:20 13.12.2019
6523 Clouds 14 1016 71 10000 6.7 250 15:43 13.12.2019
6524 Clouds 15 1016 62 10000 6.7 250 15:22 13.12.2019
6525 Clouds 15 1016 67 10000 5.1 220 14:57 13.12.2019
6526 Clouds 14 1016 67 10000 4.6 210 14:39 13.12.2019
6527 Clouds 14 1016 67 10000 4.6 210 14:19 13.12.2019
6528 Clouds 14 1016 71 10000 4.6 200 13:44 13.12.2019
6529 Clouds 14 1016 76 10000 6.2 230 13:26 13.12.2019
6530 Clouds 14 1016 71 10000 6.7 230 12:59 13.12.2019
6531 Clouds 14 1016 71 10000 6.7 250 12:41 13.12.2019
6532 Clouds 14 1016 71 10000 6.7 250 12:19 13.12.2019
6533 Clouds 13 1016 71 10000 6.7 230 11:45 13.12.2019
6534 Clouds 13 1016 66 10000 7.2 260 11:27 13.12.2019
6535 Clouds 12 1015 66 10000 9.3 260 10:58 13.12.2019
6536 Clouds 12 1015 66 10000 11.8 270 10:40 13.12.2019
6537 Clouds 12 1015 66 10000 11.8 270 10:21 13.12.2019
6538 Clouds 11 1014 71 10000 9.3 270 09:43 13.12.2019
6539 Clouds 11 1014 71 10000 9.3 270 09:22 13.12.2019
6540 Clouds 11 1014 76 10000 10.8 260 08:55 13.12.2019
6541 Clouds 11 1013 76 10000 10.3 260 08:37 13.12.2019
6542 Clouds 11 1013 76 10000 10.3 260 08:19 13.12.2019
6543 Clouds 11 1013 81 10000 12.9 250 07:43 13.12.2019
6544 Clouds 11 1013 81 10000 12.9 250 07:19 13.12.2019
6545 Clouds 12 1011 62 10000 10.3 270 06:50 13.12.2019
6546 Clouds 11 1013 93 10000 5.7 200 06:28 13.12.2019
6547 Clouds 12 1011 67 10000 12.9 270 05:43 13.12.2019
6548 Clouds 12 1011 67 10000 12.9 270 05:20 13.12.2019
6549 Clouds 12 1012 76 10000 10.8 260 04:33 13.12.2019
6550 Clouds 11 1012 87 10000 8.2 240 03:29 13.12.2019
6551 Clouds 11 1012 87 10000 7.2 240 02:32 13.12.2019
6552 Clouds 11 1012 87 10000 7.2 240 02:32 13.12.2019
6553 Clouds 11 1012 87 10000 8.2 240 01:40 13.12.2019
6554 Clouds 11 1012 87 10000 8.7 230 00:51 13.12.2019
6555 Clouds 10 1012 93 10000 8.2 230 00:32 13.12.2019
6556 Clouds 10 1012 87 10000 6.7 220 23:47 12.12.2019
6557 Clouds 10 1012 87 10000 6.7 220 23:47 12.12.2019
6558 Clouds 10 1013 87 10000 6.2 230 23:27 12.12.2019
6559 Clouds 10 1012 87 10000 7.2 230 22:59 12.12.2019
6560 Clouds 9 1012 87 10000 7.2 230 22:41 12.12.2019
6561 Clouds 9 1012 87 10000 7.2 240 22:41 12.12.2019
6562 Clouds 9 1012 87 10000 7.2 240 22:22 12.12.2019
6563 Clouds 9 1013 87 10000 7.2 240 21:56 12.12.2019
6564 Clouds 9 1013 87 10000 7.2 240 21:56 12.12.2019
6565 Clouds 9 1013 87 10000 7.2 230 21:38 12.12.2019
6566 Clouds 9 1013 87 10000 7.2 230 21:20 12.12.2019
6567 Clouds 9 1013 87 10000 7.7 240 20:59 12.12.2019
6568 Clouds 9 1014 93 10000 10.8 240 20:41 12.12.2019
6569 Clouds 9 1014 93 10000 10.8 240 20:23 12.12.2019
6570 Drizzle 8 1014 93 10000 10.8 240 19:59 12.12.2019
6571 Drizzle 8 1014 93 10000 10.8 240 19:59 12.12.2019
6572 Drizzle 8 1014 93 10000 10.8 240 19:40 12.12.2019
6573 Drizzle 8 1014 93 10000 10.8 240 19:21 12.12.2019
6574 Drizzle 8 1014 93 10000 11.3 240 18:57 12.12.2019
6575 Drizzle 8 1014 93 10000 11.3 240 18:57 12.12.2019
6576 Rain 8 1014 93 10000 11.3 240 18:38 12.12.2019
6577 Rain 8 1015 87 10000 10.8 240 18:20 12.12.2019
6578 Clouds 8 1015 87 10000 10.8 240 17:57 12.12.2019
6579 Drizzle 8 1015 87 10000 11.8 240 17:38 12.12.2019
6580 Drizzle 8 1015 87 10000 11.8 240 17:20 12.12.2019
6581 Clouds 7 1015 87 10000 10.3 240 16:56 12.12.2019
6582 Clouds 7 1016 93 10000 10.8 230 16:37 12.12.2019
6583 Clouds 7 1016 93 10000 10.8 230 16:19 12.12.2019
6584 Clouds 7 1016 93 10000 6.7 230 15:54 12.12.2019
6585 Rain 7 1017 93 10000 7.2 230 15:36 12.12.2019
6586 Clouds 7 1015 93 10000 6.2 220 15:18 12.12.2019
6587 Rain 7 1018 87 10000 8.7 240 14:38 12.12.2019
6588 Rain 7 1018 87 10000 8.7 240 14:20 12.12.2019
6589 Rain 7 1019 87 10000 9.3 240 13:57 12.12.2019
6590 Rain 7 1019 87 10000 7.2 240 13:39 12.12.2019
6591 Rain 7 1019 87 10000 7.2 240 13:21 12.12.2019
6592 Clouds 6 1020 75 10000 6.2 230 12:57 12.12.2019
6593 Clouds 6 1020 75 10000 5.1 210 12:38 12.12.2019
6594 Clouds 6 1020 75 10000 5.1 210 12:20 12.12.2019
6595 Clouds 6 1021 81 10000 5.1 230 11:55 12.12.2019
6596 Clouds 6 1021 81 10000 5.1 230 11:55 12.12.2019
6597 Clouds 6 1021 81 10000 5.1 240 11:37 12.12.2019
6598 Clouds 6 1021 81 10000 5.1 240 11:19 12.12.2019
6599 Clouds 5 1022 86 10000 5.1 250 10:54 12.12.2019
6600 Clouds 5 1021 86 10000 5.7 240 10:36 12.12.2019
6601 Clouds 5 1021 86 10000 5.7 240 10:18 12.12.2019
6602 Clouds 4 1021 86 10000 5.1 250 09:41 12.12.2019
6603 Clouds 4 1021 86 10000 5.1 250 09:23 12.12.2019
6604 Clouds 4 1021 86 10000 3.1 230 08:56 12.12.2019
6605 Clouds 4 1021 80 10000 4.1 240 08:38 12.12.2019
6606 Clouds 4 1021 80 10000 4.1 240 08:38 12.12.2019
6607 Clouds 5 1021 80 10000 4.1 240 08:19 12.12.2019
6608 Clouds 5 1021 80 10000 4.1 230 07:42 12.12.2019
6609 Clouds 5 1022 80 10000 4.1 240 07:24 12.12.2019
6610 Clouds 5 1022 75 10000 3.6 230 06:48 12.12.2019
6611 Clouds 5 1021 70 10000 5.7 250 06:30 12.12.2019
6612 Clouds 6 1022 65 10000 3.6 220 05:36 12.12.2019
6613 Clouds 6 1022 65 10000 4.1 240 04:51 12.12.2019
6614 Clouds 6 1022 65 10000 4.1 240 04:51 12.12.2019
6615 Clouds 6 1023 65 10000 6.7 270 03:20 12.12.2019
6616 Clouds 6 1023 65 10000 4.6 250 02:37 12.12.2019
6617 Clouds 6 1023 65 10000 4.6 250 02:19 12.12.2019
6618 Clouds 6 1024 65 10000 5.1 230 01:37 12.12.2019
6619 Clouds 6 1024 65 10000 5.1 230 01:18 12.12.2019
6620 Clouds 6 1024 70 10000 4.1 220 00:40 12.12.2019
6621 Clouds 6 1024 70 10000 3.6 250 00:19 12.12.2019
6622 Clouds 6 1024 70 10000 4.6 240 23:44 11.12.2019
6623 Clear 6 1024 66 10000 6.7 270 23:20 11.12.2019
6624 Clear 6 1025 75 10000 5.1 240 22:57 11.12.2019
6625 Clear 6 1025 75 10000 5.1 240 22:38 11.12.2019
6626 Clear 6 1025 75 10000 5.1 260 22:19 11.12.2019
6627 Clear 6 1025 66 10000 3.6 230 21:57 11.12.2019
6628 Clear 6 1025 70 10000 3.6 250 21:37 11.12.2019
6629 Clear 6 1025 70 10000 3.6 250 21:37 11.12.2019
6630 Clear 7 1025 70 10000 3.6 250 21:19 11.12.2019
6631 Clear 7 1025 65 10000 8.2 270 20:56 11.12.2019
6632 Clear 7 1025 61 10000 7.7 290 20:37 11.12.2019
6633 Clear 7 1025 61 10000 7.7 290 20:19 11.12.2019
6634 Clear 7 1025 61 10000 5.1 290 19:57 11.12.2019
6635 Clear 7 1024 61 10000 5.1 280 19:38 11.12.2019
6636 Clear 7 1024 61 10000 5.1 280 19:18 11.12.2019
6637 Clouds 8 1024 57 10000 6.7 290 18:40 11.12.2019
6638 Clouds 8 1024 57 10000 6.7 290 18:21 11.12.2019
6639 Clouds 9 1023 64 10000 9.3 280 17:57 11.12.2019
6640 Clouds 9 1023 64 10000 9.3 280 17:57 11.12.2019
6641 Clouds 9 1023 57 10000 9.8 280 17:39 11.12.2019
6642 Clouds 9 1023 57 10000 9.8 280 17:18 11.12.2019
6643 Clouds 10 1023 52 10000 9.3 280 16:57 11.12.2019
6644 Clouds 9 1023 52 10000 9.3 280 16:57 11.12.2019
6645 Clouds 9 1023 46 10000 6.7 290 16:38 11.12.2019
6646 Clouds 9 1023 46 10000 6.7 290 16:38 11.12.2019
6647 Clouds 9 1023 46 10000 6.7 290 16:38 11.12.2019
6648 Clouds 9 1023 46 10000 6.7 290 16:20 11.12.2019
6649 Clouds 9 1022 53 10000 8.7 280 15:59 11.12.2019
6650 Clouds 9 1023 57 10000 8.2 300 15:39 11.12.2019
6651 Clouds 9 1023 57 10000 8.2 300 15:21 11.12.2019
6652 Clouds 9 1022 58 10000 4.6 290 14:56 11.12.2019
6653 Mist 9 1023 93 5000 1 30 14:37 11.12.2019
6654 Clouds 8 1022 81 9000 3.1 240 14:19 11.12.2019
6655 Clouds 7 1022 81 9000 3.1 240 13:54 11.12.2019
6656 Clouds 7 1023 93 6000 4.1 230 13:36 11.12.2019
6657 Clouds 6 1023 93 6000 4.1 230 13:18 11.12.2019
6658 Clouds 6 1023 93 6000 4.1 230 13:18 11.12.2019
6659 Clouds 4 1023 93 6000 4.1 240 12:54 11.12.2019
6660 Clouds 5 1023 100 7000 2.1 240 12:36 11.12.2019
6661 Clouds 5 1023 100 7000 2.1 240 12:18 11.12.2019
6662 Clouds 4 1023 100 6000 2.1 180 11:55 11.12.2019
6663 Fog 4 1023 100 900 2.1 250 11:37 11.12.2019
6664 Drizzle 4 1023 100 900 2.6 170 11:18 11.12.2019
6665 Drizzle 3 1023 100 900 2.6 170 10:44 11.12.2019
6666 Drizzle 3 1023 100 400 1.5 170 10:25 11.12.2019
6667 Fog 3 1023 100 350 2.6 190 09:58 11.12.2019
6668 Fog 3 1023 100 700 2.6 210 09:38 11.12.2019
6669 Fog 3 1023 100 700 2.6 210 09:20 11.12.2019
6670 Fog 3 1023 100 400 1 0 08:56 11.12.2019
6671 Fog 3 1023 100 300 1.5 260 08:37 11.12.2019
6672 Fog 3 1023 100 300 1.5 260 08:18 11.12.2019
6673 Fog 3 1022 100 250 1 0 07:45 11.12.2019
6674 Fog 3 1023 100 300 1 0 07:25 11.12.2019
6675 Mist 3 1023 100 1500 0.5 0 06:46 11.12.2019
6676 Mist 4 1023 100 1200 0.5 0 06:25 11.12.2019
6677 Fog 4 1023 100 400 0.5 0 05:58 11.12.2019
6678 Mist 3 1023 100 4000 0.5 0 05:37 11.12.2019
6679 Mist 4 1024 100 5000 0.5 0 04:55 11.12.2019
6680 Mist 3 1024 100 4000 0.5 0 03:41 11.12.2019
6681 Fog 3 1025 100 2000 1.5 10 02:40 11.12.2019
6682 Fog 3 1025 100 500 2.1 340 01:22 11.12.2019
6683 Fog 3 1025 100 500 1.5 330 00:46 11.12.2019
6684 Fog 3 1026 100 500 1.5 360 00:21 11.12.2019
6685 Fog 4 1025 100 1600 1 360 23:46 10.12.2019
6686 Fog 4 1025 100 1000 1.5 10 23:28 10.12.2019
6687 Clouds 4 1026 93 7000 1 120 22:57 10.12.2019
6688 Clouds 4 1026 93 7000 1 120 22:39 10.12.2019
6689 Clouds 4 1026 93 7000 0.51 161 22:21 10.12.2019
6690 Clouds 5 1026 100 7000 0.51 161 21:55 10.12.2019
6691 Clouds 5 1026 93 7000 1 260 21:37 10.12.2019
6692 Clouds 5 1026 93 7000 1 260 21:18 10.12.2019
6693 Clouds 5 1026 93 6000 0.51 161 20:56 10.12.2019
6694 Clouds 5 1026 87 10000 0.5 0 20:37 10.12.2019
6695 Clouds 5 1026 87 10000 0.5 0 20:19 10.12.2019
6696 Clouds 5 1026 87 10000 1 0 19:54 10.12.2019
6697 Clouds 5 1026 93 10000 1.39 188 19:36 10.12.2019
6698 Clouds 6 1026 93 10000 1.39 188 19:18 10.12.2019
6699 Clouds 6 1027 93 10000 3.1 270 18:40 10.12.2019
6700 Clouds 6 1027 93 10000 3.1 270 18:20 10.12.2019
6701 Clouds 6 1026 87 10000 1.5 240 17:57 10.12.2019
6702 Clouds 6 1027 87 8000 2.6 260 17:39 10.12.2019
6703 Clear 7 1027 87 8000 2.6 260 17:20 10.12.2019
6704 Clear 7 1027 81 8000 2.1 240 16:43 10.12.2019
6705 Clear 8 1027 71 7000 1 0 16:21 10.12.2019
6706 Clear 8 1027 71 7000 1 0 16:21 10.12.2019
6707 Clear 9 1027 71 7000 0.5 130 15:59 10.12.2019
6708 Clear 9 1027 76 7000 1 0 15:38 10.12.2019
6709 Clear 9 1027 76 7000 1 0 15:18 10.12.2019
6710 Clear 8 1028 70 6000 1 0 14:56 10.12.2019
6711 Mist 8 1028 81 5000 1 0 14:37 10.12.2019
6712 Mist 8 1028 81 5000 1 0 14:37 10.12.2019
6713 Mist 7 1028 81 5000 1 0 14:19 10.12.2019
6714 Clouds 7 1029 93 6000 2.1 110 13:56 10.12.2019
6715 Clouds 7 1029 93 6000 2.1 110 13:38 10.12.2019